﻿<?xml version="1.0" encoding="utf-8"?><gpx creator="Garmin Desktop App" version="1.1" xsi:schemaLocation="http://www.topografix.com/GPX/1/1 http://www.topografix.com/GPX/1/1/gpx.xsd http://www.garmin.com/xmlschemas/WaypointExtension/v1 http://www8.garmin.com/xmlschemas/WaypointExtensionv1.xsd http://www.garmin.com/xmlschemas/TrackPointExtension/v1 http://www.garmin.com/xmlschemas/TrackPointExtensionv1.xsd http://www.garmin.com/xmlschemas/GpxExtensions/v3 http://www8.garmin.com/xmlschemas/GpxExtensionsv3.xsd http://www.garmin.com/xmlschemas/ActivityExtension/v1 http://www8.garmin.com/xmlschemas/ActivityExtensionv1.xsd http://www.garmin.com/xmlschemas/AdventuresExtensions/v1 http://www8.garmin.com/xmlschemas/AdventuresExtensionv1.xsd http://www.garmin.com/xmlschemas/PressureExtension/v1 http://www.garmin.com/xmlschemas/PressureExtensionv1.xsd http://www.garmin.com/xmlschemas/TripExtensions/v1 http://www.garmin.com/xmlschemas/TripExtensionsv1.xsd http://www.garmin.com/xmlschemas/TripMetaDataExtensions/v1 http://www.garmin.com/xmlschemas/TripMetaDataExtensionsv1.xsd http://www.garmin.com/xmlschemas/ViaPointTransportationModeExtensions/v1 http://www.garmin.com/xmlschemas/ViaPointTransportationModeExtensionsv1.xsd http://www.garmin.com/xmlschemas/CreationTimeExtension/v1 http://www.garmin.com/xmlschemas/CreationTimeExtensionsv1.xsd http://www.garmin.com/xmlschemas/AccelerationExtension/v1 http://www.garmin.com/xmlschemas/AccelerationExtensionv1.xsd http://www.garmin.com/xmlschemas/PowerExtension/v1 http://www.garmin.com/xmlschemas/PowerExtensionv1.xsd http://www.garmin.com/xmlschemas/VideoExtension/v1 http://www.garmin.com/xmlschemas/VideoExtensionv1.xsd" xmlns="http://www.topografix.com/GPX/1/1" xmlns:xsi="http://www.w3.org/2001/XMLSchema-instance" xmlns:wptx1="http://www.garmin.com/xmlschemas/WaypointExtension/v1" xmlns:gpxtrx="http://www.garmin.com/xmlschemas/GpxExtensions/v3" xmlns:gpxtpx="http://www.garmin.com/xmlschemas/TrackPointExtension/v1" xmlns:gpxx="http://www.garmin.com/xmlschemas/GpxExtensions/v3" xmlns:trp="http://www.garmin.com/xmlschemas/TripExtensions/v1" xmlns:adv="http://www.garmin.com/xmlschemas/AdventuresExtensions/v1" xmlns:prs="http://www.garmin.com/xmlschemas/PressureExtension/v1" xmlns:tmd="http://www.garmin.com/xmlschemas/TripMetaDataExtensions/v1" xmlns:vptm="http://www.garmin.com/xmlschemas/ViaPointTransportationModeExtensions/v1" xmlns:ctx="http://www.garmin.com/xmlschemas/CreationTimeExtension/v1" xmlns:gpxacc="http://www.garmin.com/xmlschemas/AccelerationExtension/v1" xmlns:gpxpx="http://www.garmin.com/xmlschemas/PowerExtension/v1" xmlns:vidx1="http://www.garmin.com/xmlschemas/VideoExtension/v1">

  <metadata>
    <link href="http://www.garmin.com">
      <text>Garmin International</text>
    </link>
    <time>2023-08-16T21:07:46Z</time>
    <bounds maxlat="55.477718012407422" maxlon="0.121028982102871" minlat="52.229673033580184" minlon="-2.558818012475967" />
  </metadata>

  <trk>
    <name>Track vom: 2023-08-16 07:27</name>
    <extensions>
      <gpxx:TrackExtension>
        <gpxx:DisplayColor>DarkGray</gpxx:DisplayColor>
      </gpxx:TrackExtension>
    </extensions>
    <trkseg>
      <trkpt lat="52.234596982598305" lon="0.1208979729563">
        <ele>28.02</ele>
        <time>2023-08-16T06:27:19Z</time>
      </trkpt>
      <trkpt lat="52.235802970826626" lon="0.121018001809716">
        <ele>30.420000000000002</ele>
        <time>2023-08-16T06:27:59Z</time>
      </trkpt>
      <trkpt lat="52.235818980261683" lon="0.121028982102871">
        <ele>58.780000000000001</ele>
        <time>2023-08-16T06:28:33Z</time>
      </trkpt>
      <trkpt lat="52.235765000805259" lon="0.12096201069653">
        <ele>54.93</ele>
        <time>2023-08-16T06:29:08Z</time>
      </trkpt>
      <trkpt lat="52.235813029110432" lon="0.120943989604712">
        <ele>52.049999999999997</ele>
        <time>2023-08-16T06:29:50Z</time>
      </trkpt>
      <trkpt lat="52.235806994140148" lon="0.120939966291189">
        <ele>52.049999999999997</ele>
        <time>2023-08-16T06:30:30Z</time>
      </trkpt>
      <trkpt lat="52.23578997887671" lon="0.12094097211957">
        <ele>50.130000000000003</ele>
        <time>2023-08-16T06:31:07Z</time>
      </trkpt>
      <trkpt lat="52.235797019675374" lon="0.120950024574995">
        <ele>50.609999999999999</ele>
        <time>2023-08-16T06:31:33Z</time>
      </trkpt>
      <trkpt lat="52.235800959169865" lon="0.120957987383008">
        <ele>50.130000000000003</ele>
        <time>2023-08-16T06:32:08Z</time>
      </trkpt>
      <trkpt lat="52.23578997887671" lon="0.12096100486815">
        <ele>49.159999999999997</ele>
        <time>2023-08-16T06:32:50Z</time>
      </trkpt>
      <trkpt lat="52.23578997887671" lon="0.12096100486815">
        <ele>49.159999999999997</ele>
        <time>2023-08-16T06:33:23Z</time>
      </trkpt>
      <trkpt lat="52.235763994976878" lon="0.120967961847782">
        <ele>46.280000000000001</ele>
        <time>2023-08-16T06:33:53Z</time>
      </trkpt>
      <trkpt lat="52.235228978097439" lon="0.120834019035101">
        <ele>15.52</ele>
        <time>2023-08-16T06:33:59Z</time>
      </trkpt>
      <trkpt lat="52.235211962834001" lon="0.12076604180038">
        <ele>14.56</ele>
        <time>2023-08-16T06:34:00Z</time>
      </trkpt>
      <trkpt lat="52.235317993909121" lon="0.120083000510931">
        <ele>9.27</ele>
        <time>2023-08-16T06:34:09Z</time>
      </trkpt>
      <trkpt lat="52.235239958390594" lon="0.119934976100922">
        <ele>6.87</ele>
        <time>2023-08-16T06:34:15Z</time>
      </trkpt>
      <trkpt lat="52.235212968662381" lon="0.119970012456179">
        <ele>6.39</ele>
        <time>2023-08-16T06:34:16Z</time>
      </trkpt>
      <trkpt lat="52.235178016126156" lon="0.120013011619449">
        <ele>5.42</ele>
        <time>2023-08-16T06:34:17Z</time>
      </trkpt>
      <trkpt lat="52.235143985599279" lon="0.120056010782719">
        <ele>4.94</ele>
        <time>2023-08-16T06:34:18Z</time>
      </trkpt>
      <trkpt lat="52.235110038891435" lon="0.120099009945989">
        <ele>3.98</ele>
        <time>2023-08-16T06:34:19Z</time>
      </trkpt>
      <trkpt lat="52.235078020021319" lon="0.120138991624117">
        <ele>3.5</ele>
        <time>2023-08-16T06:34:20Z</time>
      </trkpt>
      <trkpt lat="52.235049018636346" lon="0.120176039636135">
        <ele>2.54</ele>
        <time>2023-08-16T06:34:21Z</time>
      </trkpt>
      <trkpt lat="52.235004007816315" lon="0.120233036577702">
        <ele>1.1</ele>
        <time>2023-08-16T06:34:23Z</time>
      </trkpt>
      <trkpt lat="52.234991015866399" lon="0.120248962193727">
        <ele>0.14</ele>
        <time>2023-08-16T06:34:24Z</time>
      </trkpt>
      <trkpt lat="52.234991015866399" lon="0.120248962193727">
        <ele>-0.34</ele>
        <time>2023-08-16T06:34:25Z</time>
      </trkpt>
      <trkpt lat="52.234910968691111" lon="0.120092974975705">
        <ele>-1.79</ele>
        <time>2023-08-16T06:34:27Z</time>
      </trkpt>
      <trkpt lat="52.234894037246704" lon="0.120061039924622">
        <ele>-1.79</ele>
        <time>2023-08-16T06:34:28Z</time>
      </trkpt>
      <trkpt lat="52.234868975356221" lon="0.120010999962687">
        <ele>-2.27</ele>
        <time>2023-08-16T06:34:29Z</time>
      </trkpt>
      <trkpt lat="52.234601005911827" lon="0.119471037760377">
        <ele>-4.67</ele>
        <time>2023-08-16T06:34:37Z</time>
      </trkpt>
      <trkpt lat="52.234572004526854" lon="0.119387973099947">
        <ele>-4.67</ele>
        <time>2023-08-16T06:34:38Z</time>
      </trkpt>
      <trkpt lat="52.234540991485119" lon="0.119300968945026">
        <ele>-4.67</ele>
        <time>2023-08-16T06:34:39Z</time>
      </trkpt>
      <trkpt lat="52.234517019242048" lon="0.119224023073912">
        <ele>-5.15</ele>
        <time>2023-08-16T06:34:40Z</time>
      </trkpt>
      <trkpt lat="52.234506038948894" lon="0.119131989777088">
        <ele>-4.67</ele>
        <time>2023-08-16T06:34:41Z</time>
      </trkpt>
      <trkpt lat="52.234439989551902" lon="0.118209980428219">
        <ele>-1.3</ele>
        <time>2023-08-16T06:34:51Z</time>
      </trkpt>
      <trkpt lat="52.234303029254079" lon="0.118132028728724">
        <ele>-0.82</ele>
        <time>2023-08-16T06:34:52Z</time>
      </trkpt>
      <trkpt lat="52.234255000948906" lon="0.118143009021878">
        <ele>-0.34</ele>
        <time>2023-08-16T06:34:53Z</time>
      </trkpt>
      <trkpt lat="52.234195992350578" lon="0.118156000971794">
        <ele>-0.34</ele>
        <time>2023-08-16T06:34:54Z</time>
      </trkpt>
      <trkpt lat="52.234140001237392" lon="0.11816899292171">
        <ele>-0.34</ele>
        <time>2023-08-16T06:34:55Z</time>
      </trkpt>
      <trkpt lat="52.234085015952587" lon="0.118180979043245">
        <ele>0.14</ele>
        <time>2023-08-16T06:34:56Z</time>
      </trkpt>
      <trkpt lat="52.233695005998015" lon="0.118268989026546">
        <ele>0.14</ele>
        <time>2023-08-16T06:35:02Z</time>
      </trkpt>
      <trkpt lat="52.233630968257785" lon="0.118282986804843">
        <ele>0.14</ele>
        <time>2023-08-16T06:35:03Z</time>
      </trkpt>
      <trkpt lat="52.233197037130594" lon="0.118376025930047">
        <ele>0.62</ele>
        <time>2023-08-16T06:35:13Z</time>
      </trkpt>
      <trkpt lat="52.233181027695537" lon="0.118378959596157">
        <ele>1.1</ele>
        <time>2023-08-16T06:35:26Z</time>
      </trkpt>
      <trkpt lat="52.23316996358335" lon="0.118380971252918">
        <ele>1.1</ele>
        <time>2023-08-16T06:35:27Z</time>
      </trkpt>
      <trkpt lat="52.232764028012753" lon="0.118462024256587">
        <ele>3.98</ele>
        <time>2023-08-16T06:35:34Z</time>
      </trkpt>
      <trkpt lat="52.232637964189053" lon="0.118488008156419">
        <ele>3.5</ele>
        <time>2023-08-16T06:35:36Z</time>
      </trkpt>
      <trkpt lat="52.232565963640809" lon="0.118535030633211">
        <ele>3.5</ele>
        <time>2023-08-16T06:35:37Z</time>
      </trkpt>
      <trkpt lat="52.23248097114265" lon="0.118596972897649">
        <ele>3.5</ele>
        <time>2023-08-16T06:35:38Z</time>
      </trkpt>
      <trkpt lat="52.232337975874543" lon="0.118623962625861">
        <ele>3.02</ele>
        <time>2023-08-16T06:35:41Z</time>
      </trkpt>
      <trkpt lat="52.232291959226131" lon="0.118633015081286">
        <ele>3.02</ele>
        <time>2023-08-16T06:35:42Z</time>
      </trkpt>
      <trkpt lat="52.232181988656521" lon="0.118653969839215">
        <ele>3.98</ele>
        <time>2023-08-16T06:35:50Z</time>
      </trkpt>
      <trkpt lat="52.231961963698268" lon="0.118695963174105">
        <ele>5.42</ele>
        <time>2023-08-16T06:36:26Z</time>
      </trkpt>
      <trkpt lat="52.23183698952198" lon="0.118724964559078">
        <ele>6.39</ele>
        <time>2023-08-16T06:36:28Z</time>
      </trkpt>
      <trkpt lat="52.231730036437511" lon="0.118767963722348">
        <ele>6.87</ele>
        <time>2023-08-16T06:36:29Z</time>
      </trkpt>
      <trkpt lat="52.231590980663896" lon="0.118665033951402">
        <ele>6.87</ele>
        <time>2023-08-16T06:36:30Z</time>
      </trkpt>
      <trkpt lat="52.23157899454236" lon="0.118553973734379">
        <ele>8.310000000000001</ele>
        <time>2023-08-16T06:36:31Z</time>
      </trkpt>
      <trkpt lat="52.23157899454236" lon="0.118394969031215">
        <ele>9.27</ele>
        <time>2023-08-16T06:36:32Z</time>
      </trkpt>
      <trkpt lat="52.23157899454236" lon="0.118239987641573">
        <ele>9.75</ele>
        <time>2023-08-16T06:36:33Z</time>
      </trkpt>
      <trkpt lat="52.23157899454236" lon="0.118070002645254">
        <ele>9.75</ele>
        <time>2023-08-16T06:36:34Z</time>
      </trkpt>
      <trkpt lat="52.231815028935671" lon="0.116258002817631">
        <ele>11.19</ele>
        <time>2023-08-16T06:36:44Z</time>
      </trkpt>
      <trkpt lat="52.232205038890243" lon="0.11449403129518">
        <ele>9.75</ele>
        <time>2023-08-16T06:36:56Z</time>
      </trkpt>
      <trkpt lat="52.23258800804615" lon="0.112802982330322">
        <ele>9.75</ele>
        <time>2023-08-16T06:37:09Z</time>
      </trkpt>
      <trkpt lat="52.23258800804615" lon="0.112599972635508">
        <ele>10.23</ele>
        <time>2023-08-16T06:37:16Z</time>
      </trkpt>
      <trkpt lat="52.232636036351323" lon="0.112342983484268">
        <ele>12.15</ele>
        <time>2023-08-16T06:37:37Z</time>
      </trkpt>
      <trkpt lat="52.232657996937633" lon="0.112250028178096">
        <ele>13.119999999999999</ele>
        <time>2023-08-16T06:37:38Z</time>
      </trkpt>
      <trkpt lat="52.232679035514593" lon="0.112165035679936">
        <ele>13.119999999999999</ele>
        <time>2023-08-16T06:37:39Z</time>
      </trkpt>
      <trkpt lat="52.232856983318925" lon="0.112150032073259">
        <ele>14.08</ele>
        <time>2023-08-16T06:37:40Z</time>
      </trkpt>
      <trkpt lat="52.232920015230775" lon="0.112188002094626">
        <ele>14.08</ele>
        <time>2023-08-16T06:37:41Z</time>
      </trkpt>
      <trkpt lat="52.23299796693027" lon="0.112236030399799">
        <ele>14.08</ele>
        <time>2023-08-16T06:37:42Z</time>
      </trkpt>
      <trkpt lat="52.233084971085191" lon="0.112290009856224">
        <ele>14.08</ele>
        <time>2023-08-16T06:37:43Z</time>
      </trkpt>
      <trkpt lat="52.233528960496187" lon="0.112571977078915">
        <ele>15.039999999999999</ele>
        <time>2023-08-16T06:37:51Z</time>
      </trkpt>
      <trkpt lat="52.233567014336586" lon="0.112597038969398">
        <ele>15.039999999999999</ele>
        <time>2023-08-16T06:37:52Z</time>
      </trkpt>
      <trkpt lat="52.23361898213625" lon="0.112631991505623">
        <ele>15.039999999999999</ele>
        <time>2023-08-16T06:37:53Z</time>
      </trkpt>
      <trkpt lat="52.233940009027719" lon="0.112824020907283">
        <ele>16</ele>
        <time>2023-08-16T06:37:58Z</time>
      </trkpt>
      <trkpt lat="52.234036987647414" lon="0.112824020907283">
        <ele>16.48</ele>
        <time>2023-08-16T06:37:59Z</time>
      </trkpt>
      <trkpt lat="52.234110999852419" lon="0.112824020907283">
        <ele>16.960000000000001</ele>
        <time>2023-08-16T06:38:00Z</time>
      </trkpt>
      <trkpt lat="52.234185012057424" lon="0.112824020907283">
        <ele>16.960000000000001</ele>
        <time>2023-08-16T06:38:01Z</time>
      </trkpt>
      <trkpt lat="52.234266987070441" lon="0.112785967066884">
        <ele>17.440000000000001</ele>
        <time>2023-08-16T06:38:02Z</time>
      </trkpt>
      <trkpt lat="52.234333036467433" lon="0.112691000103951">
        <ele>17.920000000000002</ele>
        <time>2023-08-16T06:38:03Z</time>
      </trkpt>
      <trkpt lat="52.234401013702154" lon="0.112594021484256">
        <ele>18.399999999999999</ele>
        <time>2023-08-16T06:38:04Z</time>
      </trkpt>
      <trkpt lat="52.234471002593637" lon="0.1124950312078">
        <ele>18.879999999999999</ele>
        <time>2023-08-16T06:38:05Z</time>
      </trkpt>
      <trkpt lat="52.234549038112164" lon="0.112359998747706">
        <ele>18.879999999999999</ele>
        <time>2023-08-16T06:38:06Z</time>
      </trkpt>
      <trkpt lat="52.234633024781942" lon="0.111907040700316">
        <ele>19.359999999999999</ele>
        <time>2023-08-16T06:38:09Z</time>
      </trkpt>
      <trkpt lat="52.234663031995296" lon="0.111737977713346">
        <ele>19.84</ele>
        <time>2023-08-16T06:38:10Z</time>
      </trkpt>
      <trkpt lat="52.234691027551889" lon="0.111562963575125">
        <ele>19.84</ele>
        <time>2023-08-16T06:38:11Z</time>
      </trkpt>
      <trkpt lat="52.234691027551889" lon="0.111368000507355">
        <ele>19.84</ele>
        <time>2023-08-16T06:38:12Z</time>
      </trkpt>
      <trkpt lat="52.234691027551889" lon="0.111159039661288">
        <ele>19.359999999999999</ele>
        <time>2023-08-16T06:38:13Z</time>
      </trkpt>
      <trkpt lat="52.234623972326517" lon="0.109076974913478">
        <ele>16.48</ele>
        <time>2023-08-16T06:38:21Z</time>
      </trkpt>
      <trkpt lat="52.234455998986959" lon="0.106033002957702">
        <ele>16</ele>
        <time>2023-08-16T06:38:30Z</time>
      </trkpt>
      <trkpt lat="52.234026007354259" lon="0.101457992568612">
        <ele>18.879999999999999</ele>
        <time>2023-08-16T06:38:43Z</time>
      </trkpt>
      <trkpt lat="52.233543964102864" lon="0.096194995567203">
        <ele>22.73</ele>
        <time>2023-08-16T06:38:59Z</time>
      </trkpt>
      <trkpt lat="52.233119001612067" lon="0.09148302488029">
        <ele>23.210000000000001</ele>
        <time>2023-08-16T06:39:13Z</time>
      </trkpt>
      <trkpt lat="52.232733014971018" lon="0.087289977818727">
        <ele>23.210000000000001</ele>
        <time>2023-08-16T06:39:25Z</time>
      </trkpt>
      <trkpt lat="52.232402013614774" lon="0.083933025598526">
        <ele>20.809999999999999</ele>
        <time>2023-08-16T06:39:34Z</time>
      </trkpt>
      <trkpt lat="52.232049973681569" lon="0.080153960734606">
        <ele>18.399999999999999</ele>
        <time>2023-08-16T06:39:45Z</time>
      </trkpt>
      <trkpt lat="52.231654012575746" lon="0.076834978535771">
        <ele>19.359999999999999</ele>
        <time>2023-08-16T06:39:55Z</time>
      </trkpt>
      <trkpt lat="52.231446979567409" lon="0.075376024469733">
        <ele>21.289999999999999</ele>
        <time>2023-08-16T06:40:00Z</time>
      </trkpt>
      <trkpt lat="52.23071800544858" lon="0.071483971551061">
        <ele>23.690000000000001</ele>
        <time>2023-08-16T06:40:14Z</time>
      </trkpt>
      <trkpt lat="52.230232022702694" lon="0.069129997864366">
        <ele>25.609999999999999</ele>
        <time>2023-08-16T06:40:23Z</time>
      </trkpt>
      <trkpt lat="52.229673033580184" lon="0.066606961190701">
        <ele>32.340000000000003</ele>
        <time>2023-08-16T06:40:34Z</time>
      </trkpt>
      <trkpt lat="52.229693988338113" lon="0.065038958564401">
        <ele>34.740000000000002</ele>
        <time>2023-08-16T06:40:42Z</time>
      </trkpt>
      <trkpt lat="52.230157004669309" lon="0.063566006720066">
        <ele>35.229999999999997</ele>
        <time>2023-08-16T06:40:50Z</time>
      </trkpt>
      <trkpt lat="52.231055963784456" lon="0.062468983232975">
        <ele>35.710000000000001</ele>
        <time>2023-08-16T06:40:58Z</time>
      </trkpt>
      <trkpt lat="52.23121496848762" lon="0.062363035976887">
        <ele>35.710000000000001</ele>
        <time>2023-08-16T06:40:59Z</time>
      </trkpt>
      <trkpt lat="52.231376990675926" lon="0.062254993245006">
        <ele>35.229999999999997</ele>
        <time>2023-08-16T06:41:00Z</time>
      </trkpt>
      <trkpt lat="52.231562985107303" lon="0.062211994081736">
        <ele>35.229999999999997</ele>
        <time>2023-08-16T06:41:01Z</time>
      </trkpt>
      <trkpt lat="52.231745040044188" lon="0.062175029888749">
        <ele>34.740000000000002</ele>
        <time>2023-08-16T06:41:02Z</time>
      </trkpt>
      <trkpt lat="52.231929022818804" lon="0.06213597021997">
        <ele>34.259999999999998</ele>
        <time>2023-08-16T06:41:03Z</time>
      </trkpt>
      <trkpt lat="52.232120968401432" lon="0.062138987705112">
        <ele>33.780000000000001</ele>
        <time>2023-08-16T06:41:04Z</time>
      </trkpt>
      <trkpt lat="52.23230998031795" lon="0.062170000746846">
        <ele>33.299999999999997</ele>
        <time>2023-08-16T06:41:05Z</time>
      </trkpt>
      <trkpt lat="52.233974039554596" lon="0.062676016241312">
        <ele>29.460000000000001</ele>
        <time>2023-08-16T06:41:14Z</time>
      </trkpt>
      <trkpt lat="52.235642038285732" lon="0.063011040911078">
        <ele>28.02</ele>
        <time>2023-08-16T06:41:23Z</time>
      </trkpt>
      <trkpt lat="52.237211968749762" lon="0.062406035140157">
        <ele>26.09</ele>
        <time>2023-08-16T06:41:30Z</time>
      </trkpt>
      <trkpt lat="52.238524993881583" lon="0.061067026108503">
        <ele>23.210000000000001</ele>
        <time>2023-08-16T06:41:36Z</time>
      </trkpt>
      <trkpt lat="52.239989982917905" lon="0.058524962514639">
        <ele>19.359999999999999</ele>
        <time>2023-08-16T06:41:44Z</time>
      </trkpt>
      <trkpt lat="52.241497971117496" lon="0.055598001927137">
        <ele>18.879999999999999</ele>
        <time>2023-08-16T06:41:53Z</time>
      </trkpt>
      <trkpt lat="52.243468975648284" lon="0.05195296369493">
        <ele>21.289999999999999</ele>
        <time>2023-08-16T06:42:06Z</time>
      </trkpt>
      <trkpt lat="52.245259014889598" lon="0.048442035913467">
        <ele>18.399999999999999</ele>
        <time>2023-08-16T06:42:18Z</time>
      </trkpt>
      <trkpt lat="52.247092975303531" lon="0.044847037643194">
        <ele>15.52</ele>
        <time>2023-08-16T06:42:29Z</time>
      </trkpt>
      <trkpt lat="52.249477040022612" lon="0.040121991187334">
        <ele>15.039999999999999</ele>
        <time>2023-08-16T06:42:43Z</time>
      </trkpt>
      <trkpt lat="52.251626998186111" lon="0.035670027136803">
        <ele>16</ele>
        <time>2023-08-16T06:42:56Z</time>
      </trkpt>
      <trkpt lat="52.253636978566647" lon="0.031533977016807">
        <ele>20.32</ele>
        <time>2023-08-16T06:43:08Z</time>
      </trkpt>
      <trkpt lat="52.256130008026958" lon="0.026393020525575">
        <ele>23.690000000000001</ele>
        <time>2023-08-16T06:43:23Z</time>
      </trkpt>
      <trkpt lat="52.25774503313005" lon="0.022877985611558">
        <ele>26.09</ele>
        <time>2023-08-16T06:43:33Z</time>
      </trkpt>
      <trkpt lat="52.260059025138617" lon="0.017506023868918">
        <ele>28.5</ele>
        <time>2023-08-16T06:43:48Z</time>
      </trkpt>
      <trkpt lat="52.262179981917143" lon="0.011914959177375">
        <ele>27.050000000000001</ele>
        <time>2023-08-16T06:44:03Z</time>
      </trkpt>
      <trkpt lat="52.264024000614882" lon="0.007647983729839">
        <ele>25.129999999999999</ele>
        <time>2023-08-16T06:44:15Z</time>
      </trkpt>
      <trkpt lat="52.264959001913667" lon="0.005503976717591">
        <ele>23.690000000000001</ele>
        <time>2023-08-16T06:44:21Z</time>
      </trkpt>
      <trkpt lat="52.267443984746933" lon="-0.000166967511177">
        <ele>19.359999999999999</ele>
        <time>2023-08-16T06:44:37Z</time>
      </trkpt>
      <trkpt lat="52.270562974736094" lon="-0.007313964888453">
        <ele>23.210000000000001</ele>
        <time>2023-08-16T06:44:57Z</time>
      </trkpt>
      <trkpt lat="52.273815991356969" lon="-0.014817025512457">
        <ele>25.609999999999999</ele>
        <time>2023-08-16T06:45:18Z</time>
      </trkpt>
      <trkpt lat="52.275727987289429" lon="-0.019071009010077">
        <ele>26.57</ele>
        <time>2023-08-16T06:45:30Z</time>
      </trkpt>
      <trkpt lat="52.278166031464934" lon="-0.024809008464217">
        <ele>24.170000000000002</ele>
        <time>2023-08-16T06:45:46Z</time>
      </trkpt>
      <trkpt lat="52.280163019895554" lon="-0.029449984431267">
        <ele>22.25</ele>
        <time>2023-08-16T06:45:59Z</time>
      </trkpt>
      <trkpt lat="52.282451028004289" lon="-0.034844996407628">
        <ele>19.84</ele>
        <time>2023-08-16T06:46:14Z</time>
      </trkpt>
      <trkpt lat="52.283934038132429" lon="-0.039492007344961">
        <ele>19.359999999999999</ele>
        <time>2023-08-16T06:46:26Z</time>
      </trkpt>
      <trkpt lat="52.284995019435883" lon="-0.043972972780466">
        <ele>18.399999999999999</ele>
        <time>2023-08-16T06:46:37Z</time>
      </trkpt>
      <trkpt lat="52.286182986572385" lon="-0.050686039030552">
        <ele>16.48</ele>
        <time>2023-08-16T06:46:53Z</time>
      </trkpt>
      <trkpt lat="52.287239022552967" lon="-0.05747496150434">
        <ele>15.039999999999999</ele>
        <time>2023-08-16T06:47:09Z</time>
      </trkpt>
      <trkpt lat="52.288071010261774" lon="-0.063443966209888">
        <ele>14.56</ele>
        <time>2023-08-16T06:47:23Z</time>
      </trkpt>
      <trkpt lat="52.288876008242369" lon="-0.070315031334758">
        <ele>16</ele>
        <time>2023-08-16T06:47:39Z</time>
      </trkpt>
      <trkpt lat="52.289489982649684" lon="-0.075908023864031">
        <ele>13.6</ele>
        <time>2023-08-16T06:47:52Z</time>
      </trkpt>
      <trkpt lat="52.290098005905747" lon="-0.081957997754216">
        <ele>15.039999999999999</ele>
        <time>2023-08-16T06:48:06Z</time>
      </trkpt>
      <trkpt lat="52.290603015571833" lon="-0.087157040834427">
        <ele>19.84</ele>
        <time>2023-08-16T06:48:18Z</time>
      </trkpt>
      <trkpt lat="52.291297959163785" lon="-0.09451400488615">
        <ele>21.289999999999999</ele>
        <time>2023-08-16T06:48:35Z</time>
      </trkpt>
      <trkpt lat="52.291921991854906" lon="-0.101857976987958">
        <ele>20.809999999999999</ele>
        <time>2023-08-16T06:48:52Z</time>
      </trkpt>
      <trkpt lat="52.292362963780761" lon="-0.107491035014391">
        <ele>17.920000000000002</ele>
        <time>2023-08-16T06:49:05Z</time>
      </trkpt>
      <trkpt lat="52.292701005935669" lon="-0.114909019321203">
        <ele>16.960000000000001</ele>
        <time>2023-08-16T06:49:22Z</time>
      </trkpt>
      <trkpt lat="52.29278801009059" lon="-0.12190799228847">
        <ele>20.809999999999999</ele>
        <time>2023-08-16T06:49:38Z</time>
      </trkpt>
      <trkpt lat="52.292694970965385" lon="-0.128204980865121">
        <ele>24.170000000000002</ele>
        <time>2023-08-16T06:49:52Z</time>
      </trkpt>
      <trkpt lat="52.292400011792779" lon="-0.135152991861105">
        <ele>27.050000000000001</ele>
        <time>2023-08-16T06:50:07Z</time>
      </trkpt>
      <trkpt lat="52.292261039838195" lon="-0.140079036355019">
        <ele>27.530000000000001</ele>
        <time>2023-08-16T06:50:18Z</time>
      </trkpt>
      <trkpt lat="52.292305966839194" lon="-0.147155039012432">
        <ele>23.210000000000001</ele>
        <time>2023-08-16T06:50:34Z</time>
      </trkpt>
      <trkpt lat="52.292600004002452" lon="-0.152446031570435">
        <ele>22.73</ele>
        <time>2023-08-16T06:50:46Z</time>
      </trkpt>
      <trkpt lat="52.293204003944993" lon="-0.15952899120748">
        <ele>30.420000000000002</ele>
        <time>2023-08-16T06:51:02Z</time>
      </trkpt>
      <trkpt lat="52.294001039117575" lon="-0.166554031893611">
        <ele>37.149999999999999</ele>
        <time>2023-08-16T06:51:18Z</time>
      </trkpt>
      <trkpt lat="52.29485297575593" lon="-0.172644993290305">
        <ele>40.030000000000001</ele>
        <time>2023-08-16T06:51:32Z</time>
      </trkpt>
      <trkpt lat="52.29491600766778" lon="-0.173081019893289">
        <ele>40.030000000000001</ele>
        <time>2023-08-16T06:51:33Z</time>
      </trkpt>
      <trkpt lat="52.294989014044404" lon="-0.173512017354369">
        <ele>40.030000000000001</ele>
        <time>2023-08-16T06:51:34Z</time>
      </trkpt>
      <trkpt lat="52.2957110311836" lon="-0.177791984751821">
        <ele>38.590000000000003</ele>
        <time>2023-08-16T06:51:44Z</time>
      </trkpt>
      <trkpt lat="52.296629017218947" lon="-0.183265032246709">
        <ele>35.710000000000001</ele>
        <time>2023-08-16T06:51:57Z</time>
      </trkpt>
      <trkpt lat="52.297671977430582" lon="-0.189979020506144">
        <ele>33.299999999999997</ele>
        <time>2023-08-16T06:52:13Z</time>
      </trkpt>
      <trkpt lat="52.298593986779451" lon="-0.197136998176575">
        <ele>30.420000000000002</ele>
        <time>2023-08-16T06:52:30Z</time>
      </trkpt>
      <trkpt lat="52.299063038080931" lon="-0.203079013153911">
        <ele>24.649999999999999</ele>
        <time>2023-08-16T06:52:44Z</time>
      </trkpt>
      <trkpt lat="52.299348022788763" lon="-0.209952006116509">
        <ele>35.229999999999997</ele>
        <time>2023-08-16T06:53:00Z</time>
      </trkpt>
      <trkpt lat="52.299490012228489" lon="-0.214456021785736">
        <ele>32.340000000000003</ele>
        <time>2023-08-16T06:53:11Z</time>
      </trkpt>
      <trkpt lat="52.299840962514281" lon="-0.219162963330746">
        <ele>29.460000000000001</ele>
        <time>2023-08-16T06:53:24Z</time>
      </trkpt>
      <trkpt lat="52.300330968573689" lon="-0.223145959898829">
        <ele>27.050000000000001</ele>
        <time>2023-08-16T06:53:35Z</time>
      </trkpt>
      <trkpt lat="52.301040999591351" lon="-0.226946985349059">
        <ele>24.170000000000002</ele>
        <time>2023-08-16T06:53:45Z</time>
      </trkpt>
      <trkpt lat="52.301886985078454" lon="-0.229751989245415">
        <ele>23.210000000000001</ele>
        <time>2023-08-16T06:53:53Z</time>
      </trkpt>
      <trkpt lat="52.303378041833639" lon="-0.23300701752305">
        <ele>25.609999999999999</ele>
        <time>2023-08-16T06:54:03Z</time>
      </trkpt>
      <trkpt lat="52.305226000025868" lon="-0.236548958346248">
        <ele>26.57</ele>
        <time>2023-08-16T06:54:14Z</time>
      </trkpt>
      <trkpt lat="52.307145958766341" lon="-0.240124007686973">
        <ele>30.899999999999999</ele>
        <time>2023-08-16T06:54:27Z</time>
      </trkpt>
      <trkpt lat="52.309224000200629" lon="-0.243527982383966">
        <ele>33.299999999999997</ele>
        <time>2023-08-16T06:54:38Z</time>
      </trkpt>
      <trkpt lat="52.310237037017941" lon="-0.244535990059376">
        <ele>32.82</ele>
        <time>2023-08-16T06:54:43Z</time>
      </trkpt>
      <trkpt lat="52.310461001470685" lon="-0.244665993377566">
        <ele>32.340000000000003</ele>
        <time>2023-08-16T06:54:44Z</time>
      </trkpt>
      <trkpt lat="52.310695024207234" lon="-0.244771018624306">
        <ele>31.859999999999999</ele>
        <time>2023-08-16T06:54:45Z</time>
      </trkpt>
      <trkpt lat="52.310940027236938" lon="-0.244813011959195">
        <ele>30.899999999999999</ele>
        <time>2023-08-16T06:54:46Z</time>
      </trkpt>
      <trkpt lat="52.311189975589514" lon="-0.244842013344169">
        <ele>29.940000000000001</ele>
        <time>2023-08-16T06:54:47Z</time>
      </trkpt>
      <trkpt lat="52.311444031074643" lon="-0.244872020557523">
        <ele>28.98</ele>
        <time>2023-08-16T06:54:48Z</time>
      </trkpt>
      <trkpt lat="52.311699008569121" lon="-0.244835978373885">
        <ele>28.02</ele>
        <time>2023-08-16T06:54:49Z</time>
      </trkpt>
      <trkpt lat="52.311959015205503" lon="-0.244792979210615">
        <ele>27.050000000000001</ele>
        <time>2023-08-16T06:54:50Z</time>
      </trkpt>
      <trkpt lat="52.313920967280865" lon="-0.244568008929491">
        <ele>18.879999999999999</ele>
        <time>2023-08-16T06:54:58Z</time>
      </trkpt>
      <trkpt lat="52.314402004703879" lon="-0.244642021134496">
        <ele>16.48</ele>
        <time>2023-08-16T06:55:00Z</time>
      </trkpt>
      <trkpt lat="52.317485958337784" lon="-0.245372001081705">
        <ele>12.630000000000001</ele>
        <time>2023-08-16T06:55:12Z</time>
      </trkpt>
      <trkpt lat="52.320307977497578" lon="-0.246344972401857">
        <ele>11.67</ele>
        <time>2023-08-16T06:55:22Z</time>
      </trkpt>
      <trkpt lat="52.323497962206602" lon="-0.247747013345361">
        <ele>13.119999999999999</ele>
        <time>2023-08-16T06:55:34Z</time>
      </trkpt>
      <trkpt lat="52.326118983328342" lon="-0.248252023011446">
        <ele>13.6</ele>
        <time>2023-08-16T06:55:44Z</time>
      </trkpt>
      <trkpt lat="52.328769005835056" lon="-0.248135011643171">
        <ele>12.15</ele>
        <time>2023-08-16T06:55:54Z</time>
      </trkpt>
      <trkpt lat="52.331237979233265" lon="-0.24815303273499">
        <ele>16.48</ele>
        <time>2023-08-16T06:56:03Z</time>
      </trkpt>
      <trkpt lat="52.333736959844828" lon="-0.248975967988372">
        <ele>19.84</ele>
        <time>2023-08-16T06:56:13Z</time>
      </trkpt>
      <trkpt lat="52.336449008435011" lon="-0.249991016462445">
        <ele>16.960000000000001</ele>
        <time>2023-08-16T06:56:23Z</time>
      </trkpt>
      <trkpt lat="52.340254979208112" lon="-0.25103397667408">
        <ele>13.119999999999999</ele>
        <time>2023-08-16T06:56:37Z</time>
      </trkpt>
      <trkpt lat="52.343976041302085" lon="-0.251497998833656">
        <ele>14.56</ele>
        <time>2023-08-16T06:56:51Z</time>
      </trkpt>
      <trkpt lat="52.348229018971324" lon="-0.251639988273382">
        <ele>14.08</ele>
        <time>2023-08-16T06:57:07Z</time>
      </trkpt>
      <trkpt lat="52.352220984175801" lon="-0.251945005729795">
        <ele>13.6</ele>
        <time>2023-08-16T06:57:22Z</time>
      </trkpt>
      <trkpt lat="52.355624958872795" lon="-0.252972040325403">
        <ele>16</ele>
        <time>2023-08-16T06:57:35Z</time>
      </trkpt>
      <trkpt lat="52.358779991045594" lon="-0.254280036315322">
        <ele>18.879999999999999</ele>
        <time>2023-08-16T06:57:47Z</time>
      </trkpt>
      <trkpt lat="52.362222019582987" lon="-0.255460040643811">
        <ele>23.690000000000001</ele>
        <time>2023-08-16T06:58:00Z</time>
      </trkpt>
      <trkpt lat="52.364395027980208" lon="-0.255370019003749">
        <ele>28.02</ele>
        <time>2023-08-16T06:58:08Z</time>
      </trkpt>
      <trkpt lat="52.366775991395116" lon="-0.254533002153039">
        <ele>24.649999999999999</ele>
        <time>2023-08-16T06:58:17Z</time>
      </trkpt>
      <trkpt lat="52.370707020163536" lon="-0.253038005903363">
        <ele>28.02</ele>
        <time>2023-08-16T06:58:32Z</time>
      </trkpt>
      <trkpt lat="52.372870976105332" lon="-0.252916971221566">
        <ele>32.82</ele>
        <time>2023-08-16T06:58:40Z</time>
      </trkpt>
      <trkpt lat="52.37499201670289" lon="-0.253623984754086">
        <ele>37.149999999999999</ele>
        <time>2023-08-16T06:58:48Z</time>
      </trkpt>
      <trkpt lat="52.377573978155851" lon="-0.254999035969377">
        <ele>43.880000000000003</ele>
        <time>2023-08-16T06:58:58Z</time>
      </trkpt>
      <trkpt lat="52.379924012348056" lon="-0.256047025322914">
        <ele>49.159999999999997</ele>
        <time>2023-08-16T06:59:07Z</time>
      </trkpt>
      <trkpt lat="52.383614983409643" lon="-0.257401959970593">
        <ele>54.450000000000003</ele>
        <time>2023-08-16T06:59:21Z</time>
      </trkpt>
      <trkpt lat="52.38758398219943" lon="-0.25865999981761">
        <ele>52.049999999999997</ele>
        <time>2023-08-16T06:59:36Z</time>
      </trkpt>
      <trkpt lat="52.391828997060657" lon="-0.260041002184153">
        <ele>49.649999999999999</ele>
        <time>2023-08-16T06:59:52Z</time>
      </trkpt>
      <trkpt lat="52.395557016134262" lon="-0.261177001520991">
        <ele>48.68</ele>
        <time>2023-08-16T07:00:06Z</time>
      </trkpt>
      <trkpt lat="52.400085004046559" lon="-0.262534031644464">
        <ele>42.920000000000002</ele>
        <time>2023-08-16T07:00:23Z</time>
      </trkpt>
      <trkpt lat="52.403560979291797" lon="-0.263556959107518">
        <ele>37.149999999999999</ele>
        <time>2023-08-16T07:00:36Z</time>
      </trkpt>
      <trkpt lat="52.407813034951687" lon="-0.26480795815587">
        <ele>27.530000000000001</ele>
        <time>2023-08-16T07:00:52Z</time>
      </trkpt>
      <trkpt lat="52.410988016054034" lon="-0.265739019960165">
        <ele>20.809999999999999</ele>
        <time>2023-08-16T07:01:04Z</time>
      </trkpt>
      <trkpt lat="52.41525599732995" lon="-0.266990019008517">
        <ele>16</ele>
        <time>2023-08-16T07:01:20Z</time>
      </trkpt>
      <trkpt lat="52.41953001357615" lon="-0.26811596006155">
        <ele>13.119999999999999</ele>
        <time>2023-08-16T07:01:36Z</time>
      </trkpt>
      <trkpt lat="52.423560032621026" lon="-0.268791960552335">
        <ele>13.119999999999999</ele>
        <time>2023-08-16T07:01:51Z</time>
      </trkpt>
      <trkpt lat="52.427316969260573" lon="-0.269673988223076">
        <ele>13.6</ele>
        <time>2023-08-16T07:02:05Z</time>
      </trkpt>
      <trkpt lat="52.431298037990928" lon="-0.271025989204645">
        <ele>10.23</ele>
        <time>2023-08-16T07:02:20Z</time>
      </trkpt>
      <trkpt lat="52.434993032366037" lon="-0.272376984357834">
        <ele>8.789999999999999</ele>
        <time>2023-08-16T07:02:34Z</time>
      </trkpt>
      <trkpt lat="52.438687020912766" lon="-0.273722028359771">
        <ele>8.789999999999999</ele>
        <time>2023-08-16T07:02:48Z</time>
      </trkpt>
      <trkpt lat="52.442696001380682" lon="-0.275142006576061">
        <ele>12.630000000000001</ele>
        <time>2023-08-16T07:03:03Z</time>
      </trkpt>
      <trkpt lat="52.446972029283643" lon="-0.277040004730225">
        <ele>8.789999999999999</ele>
        <time>2023-08-16T07:03:19Z</time>
      </trkpt>
      <trkpt lat="52.450700970366597" lon="-0.278507005423307">
        <ele>11.67</ele>
        <time>2023-08-16T07:03:33Z</time>
      </trkpt>
      <trkpt lat="52.455041036009789" lon="-0.27977803722024">
        <ele>14.56</ele>
        <time>2023-08-16T07:03:49Z</time>
      </trkpt>
      <trkpt lat="52.459391998127103" lon="-0.28104797936976">
        <ele>16</ele>
        <time>2023-08-16T07:04:05Z</time>
      </trkpt>
      <trkpt lat="52.464557010680437" lon="-0.282396962866187">
        <ele>15.039999999999999</ele>
        <time>2023-08-16T07:04:24Z</time>
      </trkpt>
      <trkpt lat="52.467822013422847" lon="-0.283359959721565">
        <ele>13.119999999999999</ele>
        <time>2023-08-16T07:04:36Z</time>
      </trkpt>
      <trkpt lat="52.472402974963188" lon="-0.284926034510136">
        <ele>16</ele>
        <time>2023-08-16T07:04:53Z</time>
      </trkpt>
      <trkpt lat="52.477247966453433" lon="-0.286609958857298">
        <ele>19.84</ele>
        <time>2023-08-16T07:05:11Z</time>
      </trkpt>
      <trkpt lat="52.479725992307067" lon="-0.286953030154109">
        <ele>21.77</ele>
        <time>2023-08-16T07:05:20Z</time>
      </trkpt>
      <trkpt lat="52.482194965705276" lon="-0.286533012986183">
        <ele>20.809999999999999</ele>
        <time>2023-08-16T07:05:29Z</time>
      </trkpt>
      <trkpt lat="52.485706983134151" lon="-0.285359965637326">
        <ele>16.48</ele>
        <time>2023-08-16T07:05:42Z</time>
      </trkpt>
      <trkpt lat="52.488437974825501" lon="-0.284957969561219">
        <ele>11.67</ele>
        <time>2023-08-16T07:05:52Z</time>
      </trkpt>
      <trkpt lat="52.491170978173614" lon="-0.285491980612278">
        <ele>9.75</ele>
        <time>2023-08-16T07:06:02Z</time>
      </trkpt>
      <trkpt lat="52.493265029042959" lon="-0.286608031019568">
        <ele>9.75</ele>
        <time>2023-08-16T07:06:10Z</time>
      </trkpt>
      <trkpt lat="52.494834959506989" lon="-0.287875961512327">
        <ele>11.19</ele>
        <time>2023-08-16T07:06:17Z</time>
      </trkpt>
      <trkpt lat="52.497217012569308" lon="-0.290067996829748">
        <ele>14.56</ele>
        <time>2023-08-16T07:06:28Z</time>
      </trkpt>
      <trkpt lat="52.499351967126131" lon="-0.292001031339169">
        <ele>15.039999999999999</ele>
        <time>2023-08-16T07:06:37Z</time>
      </trkpt>
      <trkpt lat="52.501771990209818" lon="-0.293483035638928">
        <ele>15.52</ele>
        <time>2023-08-16T07:06:46Z</time>
      </trkpt>
      <trkpt lat="52.503426996991038" lon="-0.294054010882974">
        <ele>17.920000000000002</ele>
        <time>2023-08-16T07:06:52Z</time>
      </trkpt>
      <trkpt lat="52.506164023652673" lon="-0.294395992532372">
        <ele>22.73</ele>
        <time>2023-08-16T07:07:02Z</time>
      </trkpt>
      <trkpt lat="52.50925300642848" lon="-0.294749038293958">
        <ele>26.09</ele>
        <time>2023-08-16T07:07:13Z</time>
      </trkpt>
      <trkpt lat="52.511930018663406" lon="-0.295972963795066">
        <ele>22.73</ele>
        <time>2023-08-16T07:07:23Z</time>
      </trkpt>
      <trkpt lat="52.514288015663624" lon="-0.298004988580942">
        <ele>19.359999999999999</ele>
        <time>2023-08-16T07:07:33Z</time>
      </trkpt>
      <trkpt lat="52.517269039526582" lon="-0.301306033506989">
        <ele>21.289999999999999</ele>
        <time>2023-08-16T07:07:46Z</time>
      </trkpt>
      <trkpt lat="52.520262971520424" lon="-0.304637001827359">
        <ele>22.25</ele>
        <time>2023-08-16T07:07:59Z</time>
      </trkpt>
      <trkpt lat="52.523149028420448" lon="-0.307789016515017">
        <ele>25.609999999999999</ele>
        <time>2023-08-16T07:08:12Z</time>
      </trkpt>
      <trkpt lat="52.527005961164832" lon="-0.311761032789946">
        <ele>27.050000000000001</ele>
        <time>2023-08-16T07:08:29Z</time>
      </trkpt>
      <trkpt lat="52.530011963099241" lon="-0.314913969486952">
        <ele>25.609999999999999</ele>
        <time>2023-08-16T07:08:42Z</time>
      </trkpt>
      <trkpt lat="52.532313968986273" lon="-0.317428037524223">
        <ele>20.809999999999999</ele>
        <time>2023-08-16T07:08:52Z</time>
      </trkpt>
      <trkpt lat="52.534801969304681" lon="-0.320242010056973">
        <ele>18.879999999999999</ele>
        <time>2023-08-16T07:09:03Z</time>
      </trkpt>
      <trkpt lat="52.538424041122198" lon="-0.324311004951596">
        <ele>24.649999999999999</ele>
        <time>2023-08-16T07:09:19Z</time>
      </trkpt>
      <trkpt lat="52.540725963190198" lon="-0.326836975291371">
        <ele>23.210000000000001</ele>
        <time>2023-08-16T07:09:29Z</time>
      </trkpt>
      <trkpt lat="52.541366005316377" lon="-0.327690001577139">
        <ele>22.73</ele>
        <time>2023-08-16T07:09:32Z</time>
      </trkpt>
      <trkpt lat="52.541581001132727" lon="-0.327976997941732">
        <ele>22.73</ele>
        <time>2023-08-16T07:09:33Z</time>
      </trkpt>
      <trkpt lat="52.542887991294265" lon="-0.329495966434479">
        <ele>23.690000000000001</ele>
        <time>2023-08-16T07:09:39Z</time>
      </trkpt>
      <trkpt lat="52.544646011665463" lon="-0.331177962943912">
        <ele>23.210000000000001</ele>
        <time>2023-08-16T07:09:48Z</time>
      </trkpt>
      <trkpt lat="52.546028019860387" lon="-0.332840010523796">
        <ele>21.77</ele>
        <time>2023-08-16T07:09:56Z</time>
      </trkpt>
      <trkpt lat="52.547628041356802" lon="-0.334602976217866">
        <ele>20.809999999999999</ele>
        <time>2023-08-16T07:10:05Z</time>
      </trkpt>
      <trkpt lat="52.549633998423815" lon="-0.336859971284866">
        <ele>20.32</ele>
        <time>2023-08-16T07:10:16Z</time>
      </trkpt>
      <trkpt lat="52.551134023815393" lon="-0.338642969727516">
        <ele>17.920000000000002</ele>
        <time>2023-08-16T07:10:24Z</time>
      </trkpt>
      <trkpt lat="52.55231000483036" lon="-0.340040987357497">
        <ele>17.440000000000001</ele>
        <time>2023-08-16T07:10:31Z</time>
      </trkpt>
      <trkpt lat="52.553938021883368" lon="-0.342464027926326">
        <ele>16</ele>
        <time>2023-08-16T07:10:40Z</time>
      </trkpt>
      <trkpt lat="52.554933959618211" lon="-0.344584984704852">
        <ele>14.56</ele>
        <time>2023-08-16T07:10:47Z</time>
      </trkpt>
      <trkpt lat="52.555992007255554" lon="-0.347944032400846">
        <ele>14.56</ele>
        <time>2023-08-16T07:10:57Z</time>
      </trkpt>
      <trkpt lat="52.557286005467176" lon="-0.352458022534847">
        <ele>16</ele>
        <time>2023-08-16T07:11:10Z</time>
      </trkpt>
      <trkpt lat="52.558587966486812" lon="-0.356712006032467">
        <ele>18.879999999999999</ele>
        <time>2023-08-16T07:11:23Z</time>
      </trkpt>
      <trkpt lat="52.559762019664049" lon="-0.360273979604244">
        <ele>21.289999999999999</ele>
        <time>2023-08-16T07:11:34Z</time>
      </trkpt>
      <trkpt lat="52.560244984924793" lon="-0.363519033417106">
        <ele>18.399999999999999</ele>
        <time>2023-08-16T07:11:43Z</time>
      </trkpt>
      <trkpt lat="52.560283960774541" lon="-0.366901969537139">
        <ele>21.77</ele>
        <time>2023-08-16T07:11:52Z</time>
      </trkpt>
      <trkpt lat="52.560296030715108" lon="-0.370137970894575">
        <ele>28.02</ele>
        <time>2023-08-16T07:12:01Z</time>
      </trkpt>
      <trkpt lat="52.560715964064002" lon="-0.372908022254705">
        <ele>30.899999999999999</ele>
        <time>2023-08-16T07:12:09Z</time>
      </trkpt>
      <trkpt lat="52.56163202226162" lon="-0.375610012561083">
        <ele>28.98</ele>
        <time>2023-08-16T07:12:17Z</time>
      </trkpt>
      <trkpt lat="52.562967007979751" lon="-0.379049023613334">
        <ele>21.289999999999999</ele>
        <time>2023-08-16T07:12:28Z</time>
      </trkpt>
      <trkpt lat="52.564304005354643" lon="-0.382779976353049">
        <ele>19.84</ele>
        <time>2023-08-16T07:12:40Z</time>
      </trkpt>
      <trkpt lat="52.565164994448423" lon="-0.385307036340237">
        <ele>21.289999999999999</ele>
        <time>2023-08-16T07:12:48Z</time>
      </trkpt>
      <trkpt lat="52.566706007346511" lon="-0.390097964555025">
        <ele>25.129999999999999</ele>
        <time>2023-08-16T07:13:02Z</time>
      </trkpt>
      <trkpt lat="52.567886011675" lon="-0.393019979819655">
        <ele>26.09</ele>
        <time>2023-08-16T07:13:11Z</time>
      </trkpt>
      <trkpt lat="52.569127958267927" lon="-0.394826028496027">
        <ele>28.02</ele>
        <time>2023-08-16T07:13:18Z</time>
      </trkpt>
      <trkpt lat="52.570876004174352" lon="-0.397009011358023">
        <ele>28.98</ele>
        <time>2023-08-16T07:13:28Z</time>
      </trkpt>
      <trkpt lat="52.571730958297849" lon="-0.398046020418406">
        <ele>29.460000000000001</ele>
        <time>2023-08-16T07:13:34Z</time>
      </trkpt>
      <trkpt lat="52.571888035163283" lon="-0.398241989314556">
        <ele>29.460000000000001</ele>
        <time>2023-08-16T07:13:36Z</time>
      </trkpt>
      <trkpt lat="52.571844030171633" lon="-0.398440975695848">
        <ele>29.460000000000001</ele>
        <time>2023-08-16T07:13:37Z</time>
      </trkpt>
      <trkpt lat="52.57186003960669" lon="-0.398568967357278">
        <ele>29.460000000000001</ele>
        <time>2023-08-16T07:13:38Z</time>
      </trkpt>
      <trkpt lat="52.571876971051097" lon="-0.398707017302513">
        <ele>29.460000000000001</ele>
        <time>2023-08-16T07:13:39Z</time>
      </trkpt>
      <trkpt lat="52.571898009628057" lon="-0.398877002298832">
        <ele>29.460000000000001</ele>
        <time>2023-08-16T07:13:40Z</time>
      </trkpt>
      <trkpt lat="52.571874037384987" lon="-0.398986972868443">
        <ele>29.460000000000001</ele>
        <time>2023-08-16T07:13:41Z</time>
      </trkpt>
      <trkpt lat="52.571842018514872" lon="-0.399136003106833">
        <ele>29.940000000000001</ele>
        <time>2023-08-16T07:13:42Z</time>
      </trkpt>
      <trkpt lat="52.571806982159615" lon="-0.399294001981616">
        <ele>29.940000000000001</ele>
        <time>2023-08-16T07:13:43Z</time>
      </trkpt>
      <trkpt lat="52.571804970502853" lon="-0.399442026391625">
        <ele>29.940000000000001</ele>
        <time>2023-08-16T07:13:44Z</time>
      </trkpt>
      <trkpt lat="52.571837995201349" lon="-0.399606982246041">
        <ele>29.940000000000001</ele>
        <time>2023-08-16T07:13:45Z</time>
      </trkpt>
      <trkpt lat="52.571877976879478" lon="-0.399723993614316">
        <ele>30.420000000000002</ele>
        <time>2023-08-16T07:13:46Z</time>
      </trkpt>
      <trkpt lat="52.571951989084482" lon="-0.399826001375914">
        <ele>30.420000000000002</ele>
        <time>2023-08-16T07:13:47Z</time>
      </trkpt>
      <trkpt lat="52.572018038481474" lon="-0.399916023015976">
        <ele>30.899999999999999</ele>
        <time>2023-08-16T07:13:48Z</time>
      </trkpt>
      <trkpt lat="52.572072017937899" lon="-0.399990035220981">
        <ele>30.899999999999999</ele>
        <time>2023-08-16T07:13:49Z</time>
      </trkpt>
      <trkpt lat="52.57211803458631" lon="-0.400052983313799">
        <ele>30.899999999999999</ele>
        <time>2023-08-16T07:13:50Z</time>
      </trkpt>
      <trkpt lat="52.572156004607677" lon="-0.400105034932494">
        <ele>31.379999999999999</ele>
        <time>2023-08-16T07:13:51Z</time>
      </trkpt>
      <trkpt lat="52.572222976014018" lon="-0.400109980255365">
        <ele>31.379999999999999</ele>
        <time>2023-08-16T07:13:52Z</time>
      </trkpt>
      <trkpt lat="52.57224703207612" lon="-0.400058012455702">
        <ele>31.379999999999999</ele>
        <time>2023-08-16T07:13:53Z</time>
      </trkpt>
      <trkpt lat="52.572277961298823" lon="-0.399990035220981">
        <ele>31.379999999999999</ele>
        <time>2023-08-16T07:13:54Z</time>
      </trkpt>
      <trkpt lat="52.572322972118855" lon="-0.399891966953874">
        <ele>31.859999999999999</ele>
        <time>2023-08-16T07:13:55Z</time>
      </trkpt>
      <trkpt lat="52.572382986545563" lon="-0.399760035797954">
        <ele>32.340000000000003</ele>
        <time>2023-08-16T07:13:56Z</time>
      </trkpt>
      <trkpt lat="52.572454987093806" lon="-0.399602958932519">
        <ele>32.340000000000003</ele>
        <time>2023-08-16T07:13:57Z</time>
      </trkpt>
      <trkpt lat="52.573027973994613" lon="-0.398383978754282">
        <ele>30.899999999999999</ele>
        <time>2023-08-16T07:14:04Z</time>
      </trkpt>
      <trkpt lat="52.573073990643024" lon="-0.398290017619729">
        <ele>29.940000000000001</ele>
        <time>2023-08-16T07:14:05Z</time>
      </trkpt>
      <trkpt lat="52.573111960664392" lon="-0.398211982101202">
        <ele>28.98</ele>
        <time>2023-08-16T07:14:06Z</time>
      </trkpt>
      <trkpt lat="52.57317298091948" lon="-0.398088013753295">
        <ele>28.02</ele>
        <time>2023-08-16T07:14:08Z</time>
      </trkpt>
      <trkpt lat="52.57319200783968" lon="-0.398048032075167">
        <ele>27.050000000000001</ele>
        <time>2023-08-16T07:14:09Z</time>
      </trkpt>
      <trkpt lat="52.573130987584591" lon="-0.397967984899879">
        <ele>26.57</ele>
        <time>2023-08-16T07:14:10Z</time>
      </trkpt>
      <trkpt lat="52.57308698259294" lon="-0.397938983514905">
        <ele>26.09</ele>
        <time>2023-08-16T07:14:11Z</time>
      </trkpt>
      <trkpt lat="52.573022022843361" lon="-0.397894978523254">
        <ele>25.609999999999999</ele>
        <time>2023-08-16T07:14:12Z</time>
      </trkpt>
      <trkpt lat="52.572937030345201" lon="-0.397838987410069">
        <ele>24.649999999999999</ele>
        <time>2023-08-16T07:14:13Z</time>
      </trkpt>
      <trkpt lat="52.57282798178494" lon="-0.397787019610405">
        <ele>24.170000000000002</ele>
        <time>2023-08-16T07:14:14Z</time>
      </trkpt>
      <trkpt lat="52.572682974860072" lon="-0.397743014618754">
        <ele>23.210000000000001</ele>
        <time>2023-08-16T07:14:15Z</time>
      </trkpt>
      <trkpt lat="52.572533022612333" lon="-0.397698003798723">
        <ele>22.25</ele>
        <time>2023-08-16T07:14:16Z</time>
      </trkpt>
      <trkpt lat="52.57239799015224" lon="-0.397638995200396">
        <ele>21.77</ele>
        <time>2023-08-16T07:14:17Z</time>
      </trkpt>
      <trkpt lat="52.572283996269107" lon="-0.397568000480533">
        <ele>20.809999999999999</ele>
        <time>2023-08-16T07:14:18Z</time>
      </trkpt>
      <trkpt lat="52.572193974629045" lon="-0.397431962192059">
        <ele>20.32</ele>
        <time>2023-08-16T07:14:19Z</time>
      </trkpt>
      <trkpt lat="52.572128009051085" lon="-0.397332971915603">
        <ele>19.84</ele>
        <time>2023-08-16T07:14:20Z</time>
      </trkpt>
      <trkpt lat="52.572076041251421" lon="-0.397255020216107">
        <ele>19.359999999999999</ele>
        <time>2023-08-16T07:14:21Z</time>
      </trkpt>
      <trkpt lat="52.572024995461106" lon="-0.397172961384058">
        <ele>18.879999999999999</ele>
        <time>2023-08-16T07:14:22Z</time>
      </trkpt>
      <trkpt lat="52.571996999904513" lon="-0.397076988592744">
        <ele>18.399999999999999</ele>
        <time>2023-08-16T07:14:23Z</time>
      </trkpt>
      <trkpt lat="52.571900021284819" lon="-0.396752022206783">
        <ele>16.960000000000001</ele>
        <time>2023-08-16T07:14:27Z</time>
      </trkpt>
      <trkpt lat="52.571884011849761" lon="-0.396701982244849">
        <ele>16.48</ele>
        <time>2023-08-16T07:14:28Z</time>
      </trkpt>
      <trkpt lat="52.571875965222716" lon="-0.396673986688256">
        <ele>16</ele>
        <time>2023-08-16T07:14:29Z</time>
      </trkpt>
      <trkpt lat="52.571757026016712" lon="-0.396754033863544">
        <ele>14.56</ele>
        <time>2023-08-16T07:14:32Z</time>
      </trkpt>
      <trkpt lat="52.571639008820057" lon="-0.396872973069549">
        <ele>13.6</ele>
        <time>2023-08-16T07:14:38Z</time>
      </trkpt>
      <trkpt lat="52.571631968021393" lon="-0.396927036345005">
        <ele>12.630000000000001</ele>
        <time>2023-08-16T07:14:54Z</time>
      </trkpt>
    </trkseg>
  </trk>

  <trk>
    <name>Track vom: 2023-08-16 08:46</name>
    <extensions>
      <gpxx:TrackExtension>
        <gpxx:DisplayColor>DarkGray</gpxx:DisplayColor>
      </gpxx:TrackExtension>
    </extensions>
    <trkseg>
      <trkpt lat="52.571672033518553" lon="-0.39696098305285">
        <ele>36.189999999999998</ele>
        <time>2023-08-16T07:46:35Z</time>
      </trkpt>
      <trkpt lat="52.571675973013043" lon="-0.396956959739327">
        <ele>36.670000000000002</ele>
        <time>2023-08-16T07:47:31Z</time>
      </trkpt>
      <trkpt lat="52.571678990498185" lon="-0.396947991102934">
        <ele>36.189999999999998</ele>
        <time>2023-08-16T07:48:23Z</time>
      </trkpt>
      <trkpt lat="52.571683013811707" lon="-0.396886970847845">
        <ele>35.229999999999997</ele>
        <time>2023-08-16T07:48:48Z</time>
      </trkpt>
      <trkpt lat="52.571683013811707" lon="-0.396886970847845">
        <ele>35.229999999999997</ele>
        <time>2023-08-16T07:48:59Z</time>
      </trkpt>
      <trkpt lat="52.571941008791327" lon="-0.396881019696593">
        <ele>28.98</ele>
        <time>2023-08-16T07:49:08Z</time>
      </trkpt>
      <trkpt lat="52.571941008791327" lon="-0.396881019696593">
        <ele>28.5</ele>
        <time>2023-08-16T07:49:09Z</time>
      </trkpt>
      <trkpt lat="52.571941008791327" lon="-0.396881019696593">
        <ele>28.02</ele>
        <time>2023-08-16T07:49:10Z</time>
      </trkpt>
      <trkpt lat="52.572257006540895" lon="-0.397527012974024">
        <ele>27.050000000000001</ele>
        <time>2023-08-16T07:49:18Z</time>
      </trkpt>
      <trkpt lat="52.572283996269107" lon="-0.397568000480533">
        <ele>26.57</ele>
        <time>2023-08-16T07:49:19Z</time>
      </trkpt>
      <trkpt lat="52.572363037616014" lon="-0.397617034614086">
        <ele>26.57</ele>
        <time>2023-08-16T07:49:20Z</time>
      </trkpt>
      <trkpt lat="52.572429003193974" lon="-0.397658022120595">
        <ele>26.57</ele>
        <time>2023-08-16T07:49:21Z</time>
      </trkpt>
      <trkpt lat="52.572491029277444" lon="-0.397685011848807">
        <ele>26.57</ele>
        <time>2023-08-16T07:49:22Z</time>
      </trkpt>
      <trkpt lat="52.572565041482449" lon="-0.397707978263497">
        <ele>26.09</ele>
        <time>2023-08-16T07:49:23Z</time>
      </trkpt>
      <trkpt lat="52.572650033980608" lon="-0.39773304015398">
        <ele>26.09</ele>
        <time>2023-08-16T07:49:24Z</time>
      </trkpt>
      <trkpt lat="52.572732008993626" lon="-0.397758018225431">
        <ele>26.57</ele>
        <time>2023-08-16T07:49:25Z</time>
      </trkpt>
      <trkpt lat="52.57295697927475" lon="-0.397850973531604">
        <ele>27.530000000000001</ele>
        <time>2023-08-16T07:49:28Z</time>
      </trkpt>
      <trkpt lat="52.573022022843361" lon="-0.397894978523254">
        <ele>28.02</ele>
        <time>2023-08-16T07:49:29Z</time>
      </trkpt>
      <trkpt lat="52.573080025613308" lon="-0.397933032363653">
        <ele>28.5</ele>
        <time>2023-08-16T07:49:30Z</time>
      </trkpt>
      <trkpt lat="52.573155965656042" lon="-0.39812296628952">
        <ele>28.98</ele>
        <time>2023-08-16T07:49:31Z</time>
      </trkpt>
      <trkpt lat="52.573132999241352" lon="-0.398169988766313">
        <ele>28.98</ele>
        <time>2023-08-16T07:49:32Z</time>
      </trkpt>
      <trkpt lat="52.573097962886095" lon="-0.398241989314556">
        <ele>29.460000000000001</ele>
        <time>2023-08-16T07:49:33Z</time>
      </trkpt>
      <trkpt lat="52.573054963722825" lon="-0.398328993469477">
        <ele>29.460000000000001</ele>
        <time>2023-08-16T07:49:34Z</time>
      </trkpt>
      <trkpt lat="52.573007019236684" lon="-0.398426977917552">
        <ele>29.940000000000001</ele>
        <time>2023-08-16T07:49:35Z</time>
      </trkpt>
      <trkpt lat="52.572953961789608" lon="-0.398536026477814">
        <ele>29.940000000000001</ele>
        <time>2023-08-16T07:49:36Z</time>
      </trkpt>
      <trkpt lat="52.57235499098897" lon="-0.399821978062391">
        <ele>30.899999999999999</ele>
        <time>2023-08-16T07:49:46Z</time>
      </trkpt>
      <trkpt lat="52.572306962683797" lon="-0.399927003309131">
        <ele>30.420000000000002</ele>
        <time>2023-08-16T07:49:47Z</time>
      </trkpt>
      <trkpt lat="52.572264969348907" lon="-0.400018030777574">
        <ele>30.420000000000002</ele>
        <time>2023-08-16T07:49:48Z</time>
      </trkpt>
      <trkpt lat="52.572129014879465" lon="-0.400068992748857">
        <ele>29.940000000000001</ele>
        <time>2023-08-16T07:49:49Z</time>
      </trkpt>
      <trkpt lat="52.572076041251421" lon="-0.399995986372232">
        <ele>29.460000000000001</ele>
        <time>2023-08-16T07:49:50Z</time>
      </trkpt>
      <trkpt lat="52.572013009339571" lon="-0.399909988045692">
        <ele>28.98</ele>
        <time>2023-08-16T07:49:51Z</time>
      </trkpt>
      <trkpt lat="52.571938997134566" lon="-0.399807980284095">
        <ele>28.02</ele>
        <time>2023-08-16T07:49:52Z</time>
      </trkpt>
      <trkpt lat="52.571847969666123" lon="-0.399657022207975">
        <ele>27.530000000000001</ele>
        <time>2023-08-16T07:49:53Z</time>
      </trkpt>
      <trkpt lat="52.571815028786659" lon="-0.399491982534528">
        <ele>26.57</ele>
        <time>2023-08-16T07:49:54Z</time>
      </trkpt>
      <trkpt lat="52.571807987987995" lon="-0.399289978668094">
        <ele>25.609999999999999</ele>
        <time>2023-08-16T07:49:55Z</time>
      </trkpt>
      <trkpt lat="52.571841012686491" lon="-0.399138014763594">
        <ele>25.129999999999999</ele>
        <time>2023-08-16T07:49:56Z</time>
      </trkpt>
      <trkpt lat="52.571873031556606" lon="-0.398993007838726">
        <ele>24.649999999999999</ele>
        <time>2023-08-16T07:49:57Z</time>
      </trkpt>
      <trkpt lat="52.571949977427721" lon="-0.398855963721871">
        <ele>24.170000000000002</ele>
        <time>2023-08-16T07:49:58Z</time>
      </trkpt>
      <trkpt lat="52.572029018774629" lon="-0.398824028670788">
        <ele>24.170000000000002</ele>
        <time>2023-08-16T07:49:59Z</time>
      </trkpt>
      <trkpt lat="52.572113005444407" lon="-0.398791003972292">
        <ele>24.170000000000002</ele>
        <time>2023-08-16T07:50:00Z</time>
      </trkpt>
      <trkpt lat="52.57220596075058" lon="-0.398824028670788">
        <ele>24.170000000000002</ele>
        <time>2023-08-16T07:50:01Z</time>
      </trkpt>
      <trkpt lat="52.572306040674448" lon="-0.398859987035394">
        <ele>23.690000000000001</ele>
        <time>2023-08-16T07:50:02Z</time>
      </trkpt>
      <trkpt lat="52.572435038164258" lon="-0.398924024775624">
        <ele>23.690000000000001</ele>
        <time>2023-08-16T07:50:03Z</time>
      </trkpt>
      <trkpt lat="52.572544002905488" lon="-0.399053022265434">
        <ele>23.690000000000001</ele>
        <time>2023-08-16T07:50:04Z</time>
      </trkpt>
      <trkpt lat="52.572664031758904" lon="-0.399197023361921">
        <ele>23.210000000000001</ele>
        <time>2023-08-16T07:50:05Z</time>
      </trkpt>
      <trkpt lat="52.572786994278431" lon="-0.399360973387957">
        <ele>23.210000000000001</ele>
        <time>2023-08-16T07:50:06Z</time>
      </trkpt>
      <trkpt lat="52.57291398011148" lon="-0.399530958384275">
        <ele>23.210000000000001</ele>
        <time>2023-08-16T07:50:07Z</time>
      </trkpt>
      <trkpt lat="52.573035014793277" lon="-0.399691974744201">
        <ele>23.210000000000001</ele>
        <time>2023-08-16T07:50:08Z</time>
      </trkpt>
      <trkpt lat="52.574148969724774" lon="-0.401414036750793">
        <ele>23.210000000000001</ele>
        <time>2023-08-16T07:50:16Z</time>
      </trkpt>
      <trkpt lat="52.575205005705357" lon="-0.404027011245489">
        <ele>25.609999999999999</ele>
        <time>2023-08-16T07:50:25Z</time>
      </trkpt>
      <trkpt lat="52.57667301222682" lon="-0.407867012545466">
        <ele>26.09</ele>
        <time>2023-08-16T07:50:38Z</time>
      </trkpt>
      <trkpt lat="52.577921999618411" lon="-0.410327017307281">
        <ele>22.73</ele>
        <time>2023-08-16T07:50:47Z</time>
      </trkpt>
      <trkpt lat="52.579261008650064" lon="-0.411798963323236">
        <ele>19.84</ele>
        <time>2023-08-16T07:50:54Z</time>
      </trkpt>
      <trkpt lat="52.581063034012914" lon="-0.412760032340884">
        <ele>19.359999999999999</ele>
        <time>2023-08-16T07:51:02Z</time>
      </trkpt>
      <trkpt lat="52.584040034562349" lon="-0.4140629991889">
        <ele>27.530000000000001</ele>
        <time>2023-08-16T07:51:14Z</time>
      </trkpt>
      <trkpt lat="52.586101982742548" lon="-0.414949972182512">
        <ele>34.259999999999998</ele>
        <time>2023-08-16T07:51:22Z</time>
      </trkpt>
      <trkpt lat="52.58973503485322" lon="-0.41657798923552">
        <ele>34.740000000000002</ele>
        <time>2023-08-16T07:51:36Z</time>
      </trkpt>
      <trkpt lat="52.59192899800837" lon="-0.417720023542643">
        <ele>40.990000000000002</ele>
        <time>2023-08-16T07:51:45Z</time>
      </trkpt>
      <trkpt lat="52.594207031652331" lon="-0.418926011770964">
        <ele>45.799999999999997</ele>
        <time>2023-08-16T07:51:56Z</time>
      </trkpt>
      <trkpt lat="52.596743982285261" lon="-0.420288993045688">
        <ele>49.159999999999997</ele>
        <time>2023-08-16T07:52:08Z</time>
      </trkpt>
      <trkpt lat="52.598828980699182" lon="-0.421654991805553">
        <ele>51.57</ele>
        <time>2023-08-16T07:52:19Z</time>
      </trkpt>
      <trkpt lat="52.600488010793924" lon="-0.423134984448552">
        <ele>54.450000000000003</ele>
        <time>2023-08-16T07:52:28Z</time>
      </trkpt>
      <trkpt lat="52.602344015613198" lon="-0.425371024757624">
        <ele>59.740000000000002</ele>
        <time>2023-08-16T07:52:37Z</time>
      </trkpt>
      <trkpt lat="52.605043994262815" lon="-0.429057972505689">
        <ele>60.700000000000003</ele>
        <time>2023-08-16T07:52:50Z</time>
      </trkpt>
      <trkpt lat="52.608022000640631" lon="-0.432750033214688">
        <ele>65.989999999999995</ele>
        <time>2023-08-16T07:53:04Z</time>
      </trkpt>
      <trkpt lat="52.609691005200148" lon="-0.434939973056316">
        <ele>68.390000000000001</ele>
        <time>2023-08-16T07:53:12Z</time>
      </trkpt>
      <trkpt lat="52.61216601356864" lon="-0.439002010971308">
        <ele>73.680000000000007</ele>
        <time>2023-08-16T07:53:25Z</time>
      </trkpt>
      <trkpt lat="52.613854967057705" lon="-0.442396011203527">
        <ele>78.480000000000004</ele>
        <time>2023-08-16T07:53:35Z</time>
      </trkpt>
      <trkpt lat="52.615614999085665" lon="-0.446287980303168">
        <ele>82.810000000000002</ele>
        <time>2023-08-16T07:53:46Z</time>
      </trkpt>
      <trkpt lat="52.61811900883913" lon="-0.450852010399103">
        <ele>83.290000000000006</ele>
        <time>2023-08-16T07:54:00Z</time>
      </trkpt>
      <trkpt lat="52.620512964203954" lon="-0.454409038648009">
        <ele>81.370000000000005</ele>
        <time>2023-08-16T07:54:12Z</time>
      </trkpt>
      <trkpt lat="52.622093958780169" lon="-0.457328036427498">
        <ele>80.890000000000001</ele>
        <time>2023-08-16T07:54:21Z</time>
      </trkpt>
      <trkpt lat="52.624041996896267" lon="-0.460951030254364">
        <ele>84.730000000000004</ele>
        <time>2023-08-16T07:54:32Z</time>
      </trkpt>
      <trkpt lat="52.626833003014326" lon="-0.465723015367985">
        <ele>90.019999999999996</ele>
        <time>2023-08-16T07:54:47Z</time>
      </trkpt>
      <trkpt lat="52.628628993406892" lon="-0.468974020332098">
        <ele>92.900000000000006</ele>
        <time>2023-08-16T07:54:57Z</time>
      </trkpt>
      <trkpt lat="52.63105496764183" lon="-0.472439015284181">
        <ele>94.829999999999998</ele>
        <time>2023-08-16T07:55:09Z</time>
      </trkpt>
      <trkpt lat="52.633933983743191" lon="-0.476445984095335">
        <ele>93.390000000000001</ele>
        <time>2023-08-16T07:55:23Z</time>
      </trkpt>
      <trkpt lat="52.636076984927058" lon="-0.479775024577975">
        <ele>84.25</ele>
        <time>2023-08-16T07:55:34Z</time>
      </trkpt>
      <trkpt lat="52.637208038941026" lon="-0.482734004035592">
        <ele>76.560000000000002</ele>
        <time>2023-08-16T07:55:42Z</time>
      </trkpt>
      <trkpt lat="52.637922009453177" lon="-0.486042005941272">
        <ele>68.870000000000005</ele>
        <time>2023-08-16T07:55:50Z</time>
      </trkpt>
      <trkpt lat="52.638807976618409" lon="-0.491575989872217">
        <ele>55.890000000000001</ele>
        <time>2023-08-16T07:56:03Z</time>
      </trkpt>
      <trkpt lat="52.639589002355933" lon="-0.494334977120161">
        <ele>49.159999999999997</ele>
        <time>2023-08-16T07:56:10Z</time>
      </trkpt>
      <trkpt lat="52.640909990295768" lon="-0.497079966589808">
        <ele>45.799999999999997</ele>
        <time>2023-08-16T07:56:18Z</time>
      </trkpt>
      <trkpt lat="52.643568981438875" lon="-0.501392958685756">
        <ele>44.840000000000003</ele>
        <time>2023-08-16T07:56:32Z</time>
      </trkpt>
      <trkpt lat="52.646265020594001" lon="-0.505002038553357">
        <ele>51.57</ele>
        <time>2023-08-16T07:56:45Z</time>
      </trkpt>
      <trkpt lat="52.648459989577532" lon="-0.507462965324521">
        <ele>60.219999999999999</ele>
        <time>2023-08-16T07:56:55Z</time>
      </trkpt>
      <trkpt lat="52.65195700339973" lon="-0.510778008028865">
        <ele>74.159999999999997</ele>
        <time>2023-08-16T07:57:10Z</time>
      </trkpt>
      <trkpt lat="52.655104994773865" lon="-0.513239018619061">
        <ele>78.969999999999999</ele>
        <time>2023-08-16T07:57:23Z</time>
      </trkpt>
      <trkpt lat="52.657239027321339" lon="-0.515035009011626">
        <ele>82.329999999999998</ele>
        <time>2023-08-16T07:57:32Z</time>
      </trkpt>
      <trkpt lat="52.660134974867105" lon="-0.518270004540682">
        <ele>86.180000000000007</ele>
        <time>2023-08-16T07:57:45Z</time>
      </trkpt>
      <trkpt lat="52.662981972098351" lon="-0.52164196036756">
        <ele>78</ele>
        <time>2023-08-16T07:57:58Z</time>
      </trkpt>
      <trkpt lat="52.665777001529932" lon="-0.524268010631204">
        <ele>68.390000000000001</ele>
        <time>2023-08-16T07:58:10Z</time>
      </trkpt>
      <trkpt lat="52.668946031481028" lon="-0.52660203538835">
        <ele>60.219999999999999</ele>
        <time>2023-08-16T07:58:23Z</time>
      </trkpt>
      <trkpt lat="52.671117028221488" lon="-0.528313033282757">
        <ele>57.82</ele>
        <time>2023-08-16T07:58:32Z</time>
      </trkpt>
      <trkpt lat="52.673038998618722" lon="-0.530595006421208">
        <ele>63.100000000000001</ele>
        <time>2023-08-16T07:58:41Z</time>
      </trkpt>
      <trkpt lat="52.674577999860048" lon="-0.533034978434443">
        <ele>70.310000000000002</ele>
        <time>2023-08-16T07:58:49Z</time>
      </trkpt>
      <trkpt lat="52.677135989069939" lon="-0.53755802102387">
        <ele>78.969999999999999</ele>
        <time>2023-08-16T07:59:03Z</time>
      </trkpt>
      <trkpt lat="52.680441979318857" lon="-0.543347988277674">
        <ele>85.209999999999994</ele>
        <time>2023-08-16T07:59:21Z</time>
      </trkpt>
      <trkpt lat="52.68285303376615" lon="-0.547501975670457">
        <ele>89.060000000000002</ele>
        <time>2023-08-16T07:59:34Z</time>
      </trkpt>
      <trkpt lat="52.685451004654169" lon="-0.551980007439852">
        <ele>91.459999999999994</ele>
        <time>2023-08-16T07:59:48Z</time>
      </trkpt>
      <trkpt lat="52.688218038529158" lon="-0.55674696341157">
        <ele>93.870000000000005</ele>
        <time>2023-08-16T08:00:03Z</time>
      </trkpt>
      <trkpt lat="52.691364018246531" lon="-0.562167037278414">
        <ele>103.48</ele>
        <time>2023-08-16T08:00:20Z</time>
      </trkpt>
      <trkpt lat="52.693976992741227" lon="-0.566624030470848">
        <ele>108.29000000000001</ele>
        <time>2023-08-16T08:00:34Z</time>
      </trkpt>
      <trkpt lat="52.697340985760093" lon="-0.572311989963055">
        <ele>110.69</ele>
        <time>2023-08-16T08:00:52Z</time>
      </trkpt>
      <trkpt lat="52.699776012450457" lon="-0.576445022597909">
        <ele>112.13</ele>
        <time>2023-08-16T08:01:05Z</time>
      </trkpt>
      <trkpt lat="52.701259022578597" lon="-0.578962024301291">
        <ele>112.61</ele>
        <time>2023-08-16T08:01:13Z</time>
      </trkpt>
      <trkpt lat="52.704240968450904" lon="-0.584026034921408">
        <ele>117.42</ele>
        <time>2023-08-16T08:01:29Z</time>
      </trkpt>
      <trkpt lat="52.707071034237742" lon="-0.588729958981276">
        <ele>120.78</ele>
        <time>2023-08-16T08:01:44Z</time>
      </trkpt>
      <trkpt lat="52.708631996065378" lon="-0.590465012937784">
        <ele>120.3</ele>
        <time>2023-08-16T08:01:51Z</time>
      </trkpt>
      <trkpt lat="52.710623033344746" lon="-0.591720035299659">
        <ele>118.38</ele>
        <time>2023-08-16T08:01:59Z</time>
      </trkpt>
      <trkpt lat="52.713484028354287" lon="-0.592897022143006">
        <ele>116.45999999999999</ele>
        <time>2023-08-16T08:02:10Z</time>
      </trkpt>
      <trkpt lat="52.71686403080821" lon="-0.594165036454797">
        <ele>116.94</ele>
        <time>2023-08-16T08:02:23Z</time>
      </trkpt>
      <trkpt lat="52.718404037877917" lon="-0.594691000878811">
        <ele>120.78</ele>
        <time>2023-08-16T08:02:30Z</time>
      </trkpt>
      <trkpt lat="52.721669962629676" lon="-0.595805961638689">
        <ele>127.98999999999999</ele>
        <time>2023-08-16T08:02:45Z</time>
      </trkpt>
      <trkpt lat="52.724460968747735" lon="-0.596743980422616">
        <ele>127.98999999999999</ele>
        <time>2023-08-16T08:02:58Z</time>
      </trkpt>
      <trkpt lat="52.727275025099516" lon="-0.597779983654618">
        <ele>125.11</ele>
        <time>2023-08-16T08:03:11Z</time>
      </trkpt>
      <trkpt lat="52.730876980349422" lon="-0.599150005728006">
        <ele>127.03</ele>
        <time>2023-08-16T08:03:28Z</time>
      </trkpt>
      <trkpt lat="52.733768988400698" lon="-0.600150972604752">
        <ele>124.15000000000001</ele>
        <time>2023-08-16T08:03:41Z</time>
      </trkpt>
      <trkpt lat="52.736905999481678" lon="-0.601117992773652">
        <ele>123.67</ele>
        <time>2023-08-16T08:03:53Z</time>
      </trkpt>
      <trkpt lat="52.737894980236888" lon="-0.601457040756941">
        <ele>124.63</ele>
        <time>2023-08-16T08:03:58Z</time>
      </trkpt>
      <trkpt lat="52.739904038608074" lon="-0.602117031812668">
        <ele>127.98999999999999</ele>
        <time>2023-08-16T08:04:08Z</time>
      </trkpt>
      <trkpt lat="52.741985013708472" lon="-0.602798983454704">
        <ele>130.88</ele>
        <time>2023-08-16T08:04:16Z</time>
      </trkpt>
      <trkpt lat="52.744672000408173" lon="-0.603702971711755">
        <ele>130.88</ele>
        <time>2023-08-16T08:04:26Z</time>
      </trkpt>
      <trkpt lat="52.748317960649729" lon="-0.604948019608855">
        <ele>132.80000000000001</ele>
        <time>2023-08-16T08:04:40Z</time>
      </trkpt>
      <trkpt lat="52.752240020781755" lon="-0.606545023620129">
        <ele>138.56999999999999</ele>
        <time>2023-08-16T08:04:55Z</time>
      </trkpt>
      <trkpt lat="52.755597978830338" lon="-0.608015963807702">
        <ele>134.72</ele>
        <time>2023-08-16T08:05:08Z</time>
      </trkpt>
      <trkpt lat="52.75818002410233" lon="-0.60914701782167">
        <ele>130.40000000000001</ele>
        <time>2023-08-16T08:05:18Z</time>
      </trkpt>
      <trkpt lat="52.761591039597988" lon="-0.610424000769854">
        <ele>128.94999999999999</ele>
        <time>2023-08-16T08:05:31Z</time>
      </trkpt>
      <trkpt lat="52.764787981286645" lon="-0.611044010147452">
        <ele>129.91999999999999</ele>
        <time>2023-08-16T08:05:43Z</time>
      </trkpt>
      <trkpt lat="52.766737025231123" lon="-0.611317008733749">
        <ele>129.91999999999999</ele>
        <time>2023-08-16T08:05:51Z</time>
      </trkpt>
      <trkpt lat="52.769016986712813" lon="-0.61142697930336">
        <ele>128.94999999999999</ele>
        <time>2023-08-16T08:06:00Z</time>
      </trkpt>
      <trkpt lat="52.772780964151025" lon="-0.611453969031572">
        <ele>122.22</ele>
        <time>2023-08-16T08:06:14Z</time>
      </trkpt>
      <trkpt lat="52.776792962104082" lon="-0.611326983198524">
        <ele>119.34</ele>
        <time>2023-08-16T08:06:29Z</time>
      </trkpt>
      <trkpt lat="52.781348023563623" lon="-0.611153980717063">
        <ele>123.67</ele>
        <time>2023-08-16T08:06:46Z</time>
      </trkpt>
      <trkpt lat="52.784828022122383" lon="-0.611023977398872">
        <ele>127.98999999999999</ele>
        <time>2023-08-16T08:06:59Z</time>
      </trkpt>
      <trkpt lat="52.788166031241417" lon="-0.610879976302385">
        <ele>127.98999999999999</ele>
        <time>2023-08-16T08:07:12Z</time>
      </trkpt>
      <trkpt lat="52.79101001098752" lon="-0.610753996297717">
        <ele>122.70999999999999</ele>
        <time>2023-08-16T08:07:24Z</time>
      </trkpt>
      <trkpt lat="52.793828006833792" lon="-0.610732035711408">
        <ele>120.78</ele>
        <time>2023-08-16T08:07:35Z</time>
      </trkpt>
      <trkpt lat="52.797323008999228" lon="-0.610771011561155">
        <ele>125.11</ele>
        <time>2023-08-16T08:07:49Z</time>
      </trkpt>
      <trkpt lat="52.80067996121943" lon="-0.61080202460289">
        <ele>127.03</ele>
        <time>2023-08-16T08:08:03Z</time>
      </trkpt>
      <trkpt lat="52.802953971549869" lon="-0.61097402125597">
        <ele>129.91999999999999</ele>
        <time>2023-08-16T08:08:13Z</time>
      </trkpt>
      <trkpt lat="52.805188000202179" lon="-0.611892007291317">
        <ele>131.36000000000001</ele>
        <time>2023-08-16T08:08:23Z</time>
      </trkpt>
      <trkpt lat="52.807670971378684" lon="-0.613652039319277">
        <ele>130.88</ele>
        <time>2023-08-16T08:08:35Z</time>
      </trkpt>
      <trkpt lat="52.809869041666389" lon="-0.61554903164506">
        <ele>126.06999999999999</ele>
        <time>2023-08-16T08:08:45Z</time>
      </trkpt>
      <trkpt lat="52.811329001560807" lon="-0.617515007033944">
        <ele>118.38</ele>
        <time>2023-08-16T08:08:52Z</time>
      </trkpt>
      <trkpt lat="52.813244014978409" lon="-0.619900999590755">
        <ele>114.53</ele>
        <time>2023-08-16T08:09:01Z</time>
      </trkpt>
      <trkpt lat="52.815602011978626" lon="-0.622030002996325">
        <ele>111.17</ele>
        <time>2023-08-16T08:09:11Z</time>
      </trkpt>
      <trkpt lat="52.817839980125427" lon="-0.623462973162532">
        <ele>105.40000000000001</ele>
        <time>2023-08-16T08:09:20Z</time>
      </trkpt>
      <trkpt lat="52.820244999602437" lon="-0.625324007123709">
        <ele>105.40000000000001</ele>
        <time>2023-08-16T08:09:30Z</time>
      </trkpt>
      <trkpt lat="52.822407027706504" lon="-0.627150004729629">
        <ele>109.25</ele>
        <time>2023-08-16T08:09:39Z</time>
      </trkpt>
      <trkpt lat="52.825786024332047" lon="-0.629842020571232">
        <ele>108.77</ele>
        <time>2023-08-16T08:09:53Z</time>
      </trkpt>
      <trkpt lat="52.827786030247808" lon="-0.631073992699385">
        <ele>113.09</ele>
        <time>2023-08-16T08:10:01Z</time>
      </trkpt>
      <trkpt lat="52.829606998711824" lon="-0.63145000487566">
        <ele>115.98</ele>
        <time>2023-08-16T08:10:08Z</time>
      </trkpt>
      <trkpt lat="52.831442970782518" lon="-0.631116991862655">
        <ele>116.94</ele>
        <time>2023-08-16T08:10:15Z</time>
      </trkpt>
      <trkpt lat="52.835393026471138" lon="-0.629874961450696">
        <ele>110.20999999999999</ele>
        <time>2023-08-16T08:10:30Z</time>
      </trkpt>
      <trkpt lat="52.838853998109698" lon="-0.62910701148212">
        <ele>109.73</ele>
        <time>2023-08-16T08:10:43Z</time>
      </trkpt>
      <trkpt lat="52.8425960149616" lon="-0.62880702316761">
        <ele>108.29000000000001</ele>
        <time>2023-08-16T08:10:57Z</time>
      </trkpt>
      <trkpt lat="52.846062015742064" lon="-0.628150971606374">
        <ele>115.98</ele>
        <time>2023-08-16T08:11:10Z</time>
      </trkpt>
      <trkpt lat="52.850048029795289" lon="-0.62702695839107">
        <ele>112.13</ele>
        <time>2023-08-16T08:11:25Z</time>
      </trkpt>
      <trkpt lat="52.851907974109054" lon="-0.627009021118283">
        <ele>106.36</ele>
        <time>2023-08-16T08:11:32Z</time>
      </trkpt>
      <trkpt lat="52.853730032220483" lon="-0.62762601301074">
        <ele>100.11</ele>
        <time>2023-08-16T08:11:39Z</time>
      </trkpt>
      <trkpt lat="52.856874000281096" lon="-0.628688000142574">
        <ele>90.5</ele>
        <time>2023-08-16T08:11:51Z</time>
      </trkpt>
      <trkpt lat="52.860589027404785" lon="-0.629381015896797">
        <ele>91.939999999999998</ele>
        <time>2023-08-16T08:12:05Z</time>
      </trkpt>
      <trkpt lat="52.864066008478403" lon="-0.62964303418994">
        <ele>95.790000000000006</ele>
        <time>2023-08-16T08:12:18Z</time>
      </trkpt>
      <trkpt lat="52.867267979308963" lon="-0.629878984764218">
        <ele>100.11</ele>
        <time>2023-08-16T08:12:30Z</time>
      </trkpt>
      <trkpt lat="52.870479002594948" lon="-0.630300007760525">
        <ele>109.25</ele>
        <time>2023-08-16T08:12:42Z</time>
      </trkpt>
      <trkpt lat="52.873378973454237" lon="-0.631316984072328">
        <ele>107.31999999999999</ele>
        <time>2023-08-16T08:12:53Z</time>
      </trkpt>
      <trkpt lat="52.876420011743903" lon="-0.633047008886933">
        <ele>96.75</ele>
        <time>2023-08-16T08:13:05Z</time>
      </trkpt>
      <trkpt lat="52.879391983151436" lon="-0.635021030902863">
        <ele>89.060000000000002</ele>
        <time>2023-08-16T08:13:17Z</time>
      </trkpt>
      <trkpt lat="52.882462022826076" lon="-0.637629982084036">
        <ele>100.11</ele>
        <time>2023-08-16T08:13:30Z</time>
      </trkpt>
      <trkpt lat="52.88554597645998" lon="-0.641106963157654">
        <ele>117.42</ele>
        <time>2023-08-16T08:13:44Z</time>
      </trkpt>
      <trkpt lat="52.888945005834103" lon="-0.645454991608858">
        <ele>131.84</ele>
        <time>2023-08-16T08:14:00Z</time>
      </trkpt>
      <trkpt lat="52.892156029120088" lon="-0.649538990110159">
        <ele>127.51000000000001</ele>
        <time>2023-08-16T08:14:15Z</time>
      </trkpt>
      <trkpt lat="52.892360966652632" lon="-0.649809977039695">
        <ele>126.55</ele>
        <time>2023-08-16T08:14:16Z</time>
      </trkpt>
      <trkpt lat="52.894129967316985" lon="-0.652523031458259">
        <ele>116.45999999999999</ele>
        <time>2023-08-16T08:14:25Z</time>
      </trkpt>
      <trkpt lat="52.895284993574023" lon="-0.655510006472468">
        <ele>106.36</ele>
        <time>2023-08-16T08:14:33Z</time>
      </trkpt>
      <trkpt lat="52.896260982379317" lon="-0.659641027450562">
        <ele>94.829999999999998</ele>
        <time>2023-08-16T08:14:43Z</time>
      </trkpt>
      <trkpt lat="52.897392036393285" lon="-0.663612959906459">
        <ele>85.689999999999998</ele>
        <time>2023-08-16T08:14:53Z</time>
      </trkpt>
      <trkpt lat="52.898903964087367" lon="-0.666673025116324">
        <ele>81.370000000000005</ele>
        <time>2023-08-16T08:15:02Z</time>
      </trkpt>
      <trkpt lat="52.900595013052225" lon="-0.668818959966302">
        <ele>81.370000000000005</ele>
        <time>2023-08-16T08:15:10Z</time>
      </trkpt>
      <trkpt lat="52.902996009215713" lon="-0.670785019174218">
        <ele>82.810000000000002</ele>
        <time>2023-08-16T08:15:20Z</time>
      </trkpt>
      <trkpt lat="52.906399983912706" lon="-0.673390030860901">
        <ele>84.25</ele>
        <time>2023-08-16T08:15:34Z</time>
      </trkpt>
      <trkpt lat="52.90906903333962" lon="-0.675462037324905">
        <ele>85.689999999999998</ele>
        <time>2023-08-16T08:15:45Z</time>
      </trkpt>
      <trkpt lat="52.911502970382571" lon="-0.677290968596935">
        <ele>91.459999999999994</ele>
        <time>2023-08-16T08:15:55Z</time>
      </trkpt>
      <trkpt lat="52.914997972548008" lon="-0.679514016956091">
        <ele>96.75</ele>
        <time>2023-08-16T08:16:09Z</time>
      </trkpt>
      <trkpt lat="52.918629013001919" lon="-0.681031979620457">
        <ele>99.629999999999995</ele>
        <time>2023-08-16T08:16:23Z</time>
      </trkpt>
      <trkpt lat="52.922343034297228" lon="-0.681991958990693">
        <ele>102.52</ele>
        <time>2023-08-16T08:16:37Z</time>
      </trkpt>
      <trkpt lat="52.927408972755075" lon="-0.683172969147563">
        <ele>91.459999999999994</ele>
        <time>2023-08-16T08:16:56Z</time>
      </trkpt>
      <trkpt lat="52.931359028443694" lon="-0.684130014851689">
        <ele>78.969999999999999</ele>
        <time>2023-08-16T08:17:11Z</time>
      </trkpt>
      <trkpt lat="52.933705039322376" lon="-0.684681041166186">
        <ele>76.079999999999998</ele>
        <time>2023-08-16T08:17:20Z</time>
      </trkpt>
      <trkpt lat="52.936624037101865" lon="-0.68522896617651">
        <ele>72.719999999999999</ele>
        <time>2023-08-16T08:17:31Z</time>
      </trkpt>
      <trkpt lat="52.939562983810902" lon="-0.684986980631948">
        <ele>69.349999999999994</ele>
        <time>2023-08-16T08:17:42Z</time>
      </trkpt>
      <trkpt lat="52.942745005711913" lon="-0.684143006801605">
        <ele>61.659999999999997</ele>
        <time>2023-08-16T08:17:54Z</time>
      </trkpt>
      <trkpt lat="52.945880005136132" lon="-0.682994015514851">
        <ele>55.890000000000001</ele>
        <time>2023-08-16T08:18:06Z</time>
      </trkpt>
      <trkpt lat="52.949088010936975" lon="-0.682633006945252">
        <ele>52.049999999999997</ele>
        <time>2023-08-16T08:18:18Z</time>
      </trkpt>
      <trkpt lat="52.952037015929818" lon="-0.68271498195827">
        <ele>50.609999999999999</ele>
        <time>2023-08-16T08:18:29Z</time>
      </trkpt>
      <trkpt lat="52.954360982403159" lon="-0.683760037645698">
        <ele>49.159999999999997</ele>
        <time>2023-08-16T08:18:38Z</time>
      </trkpt>
      <trkpt lat="52.956272978335619" lon="-0.685313958674669">
        <ele>48.200000000000003</ele>
        <time>2023-08-16T08:18:46Z</time>
      </trkpt>
      <trkpt lat="52.960191015154123" lon="-0.689214980229735">
        <ele>46.280000000000001</ele>
        <time>2023-08-16T08:19:03Z</time>
      </trkpt>
      <trkpt lat="52.962638027966022" lon="-0.691903978586197">
        <ele>45.32</ele>
        <time>2023-08-16T08:19:14Z</time>
      </trkpt>
      <trkpt lat="52.964048031717539" lon="-0.694540003314614">
        <ele>42.920000000000002</ele>
        <time>2023-08-16T08:19:22Z</time>
      </trkpt>
      <trkpt lat="52.965644029900432" lon="-0.698621990159154">
        <ele>38.590000000000003</ele>
        <time>2023-08-16T08:19:33Z</time>
      </trkpt>
      <trkpt lat="52.968066986650229" lon="-0.704998020082712">
        <ele>37.149999999999999</ele>
        <time>2023-08-16T08:19:50Z</time>
      </trkpt>
      <trkpt lat="52.969329971820116" lon="-0.709392987191677">
        <ele>37.149999999999999</ele>
        <time>2023-08-16T08:20:01Z</time>
      </trkpt>
      <trkpt lat="52.970796972513199" lon="-0.715111959725618">
        <ele>38.590000000000003</ele>
        <time>2023-08-16T08:20:15Z</time>
      </trkpt>
      <trkpt lat="52.971277004107833" lon="-0.718074040487409">
        <ele>39.549999999999997</ele>
        <time>2023-08-16T08:20:22Z</time>
      </trkpt>
      <trkpt lat="52.971949987113476" lon="-0.722332969307899">
        <ele>40.509999999999998</ele>
        <time>2023-08-16T08:20:32Z</time>
      </trkpt>
      <trkpt lat="52.973445989191532" lon="-0.727088022977114">
        <ele>35.710000000000001</ele>
        <time>2023-08-16T08:20:44Z</time>
      </trkpt>
      <trkpt lat="52.975593013688922" lon="-0.73372196406126">
        <ele>29.460000000000001</ele>
        <time>2023-08-16T08:21:01Z</time>
      </trkpt>
      <trkpt lat="52.977513978257775" lon="-0.739575969055295">
        <ele>27.050000000000001</ele>
        <time>2023-08-16T08:21:16Z</time>
      </trkpt>
      <trkpt lat="52.979695033282042" lon="-0.746210999786854">
        <ele>27.050000000000001</ele>
        <time>2023-08-16T08:21:33Z</time>
      </trkpt>
      <trkpt lat="52.98162697814405" lon="-0.751023972406983">
        <ele>28.5</ele>
        <time>2023-08-16T08:21:46Z</time>
      </trkpt>
      <trkpt lat="52.984102992340922" lon="-0.755710965022445">
        <ele>30.899999999999999</ele>
        <time>2023-08-16T08:22:00Z</time>
      </trkpt>
      <trkpt lat="52.986527038738132" lon="-0.759219964966178">
        <ele>35.229999999999997</ele>
        <time>2023-08-16T08:22:12Z</time>
      </trkpt>
      <trkpt lat="52.989350985735655" lon="-0.762426964938641">
        <ele>38.109999999999999</ele>
        <time>2023-08-16T08:22:25Z</time>
      </trkpt>
      <trkpt lat="52.991394996643066" lon="-0.763826994225383">
        <ele>36.670000000000002</ele>
        <time>2023-08-16T08:22:34Z</time>
      </trkpt>
      <trkpt lat="52.993582002818584" lon="-0.764382965862751">
        <ele>33.299999999999997</ele>
        <time>2023-08-16T08:22:43Z</time>
      </trkpt>
      <trkpt lat="52.995859030634165" lon="-0.764109967276454">
        <ele>29.460000000000001</ele>
        <time>2023-08-16T08:22:52Z</time>
      </trkpt>
      <trkpt lat="52.998966034501791" lon="-0.763082010671496">
        <ele>24.170000000000002</ele>
        <time>2023-08-16T08:23:04Z</time>
      </trkpt>
      <trkpt lat="53.002149984240532" lon="-0.762454960495234">
        <ele>24.649999999999999</ele>
        <time>2023-08-16T08:23:16Z</time>
      </trkpt>
      <trkpt lat="53.004587022587657" lon="-0.762601979076862">
        <ele>26.57</ele>
        <time>2023-08-16T08:23:26Z</time>
      </trkpt>
      <trkpt lat="53.007361013442278" lon="-0.763235986232758">
        <ele>26.09</ele>
        <time>2023-08-16T08:23:38Z</time>
      </trkpt>
      <trkpt lat="53.009163960814476" lon="-0.763638988137245">
        <ele>27.050000000000001</ele>
        <time>2023-08-16T08:23:47Z</time>
      </trkpt>
      <trkpt lat="53.011481976136565" lon="-0.76407702639699">
        <ele>28.02</ele>
        <time>2023-08-16T08:23:58Z</time>
      </trkpt>
      <trkpt lat="53.013785993680358" lon="-0.764496037736535">
        <ele>27.530000000000001</ele>
        <time>2023-08-16T08:24:08Z</time>
      </trkpt>
      <trkpt lat="53.016610024496913" lon="-0.765526005998254">
        <ele>28.98</ele>
        <time>2023-08-16T08:24:19Z</time>
      </trkpt>
      <trkpt lat="53.019663970917463" lon="-0.766808018088341">
        <ele>29.460000000000001</ele>
        <time>2023-08-16T08:24:31Z</time>
      </trkpt>
      <trkpt lat="53.024085005745292" lon="-0.768356993794441">
        <ele>29.940000000000001</ele>
        <time>2023-08-16T08:24:48Z</time>
      </trkpt>
      <trkpt lat="53.028549961745739" lon="-0.769946034997702">
        <ele>30.420000000000002</ele>
        <time>2023-08-16T08:25:05Z</time>
      </trkpt>
      <trkpt lat="53.031641039997339" lon="-0.77136198990047">
        <ele>30.420000000000002</ele>
        <time>2023-08-16T08:25:17Z</time>
      </trkpt>
      <trkpt lat="53.035112991929054" lon="-0.773749994114041">
        <ele>31.859999999999999</ele>
        <time>2023-08-16T08:25:31Z</time>
      </trkpt>
      <trkpt lat="53.039030022919178" lon="-0.776676032692194">
        <ele>30.420000000000002</ele>
        <time>2023-08-16T08:25:47Z</time>
      </trkpt>
      <trkpt lat="53.041565967723727" lon="-0.77806499786675">
        <ele>28.5</ele>
        <time>2023-08-16T08:25:57Z</time>
      </trkpt>
      <trkpt lat="53.043694971129298" lon="-0.77847596257925">
        <ele>24.649999999999999</ele>
        <time>2023-08-16T08:26:05Z</time>
      </trkpt>
      <trkpt lat="53.04608297534287" lon="-0.7781090028584">
        <ele>22.73</ele>
        <time>2023-08-16T08:26:14Z</time>
      </trkpt>
      <trkpt lat="53.048111982643604" lon="-0.777104012668133">
        <ele>20.809999999999999</ele>
        <time>2023-08-16T08:26:22Z</time>
      </trkpt>
      <trkpt lat="53.050453970208764" lon="-0.774953970685601">
        <ele>20.809999999999999</ele>
        <time>2023-08-16T08:26:32Z</time>
      </trkpt>
      <trkpt lat="53.051526015624404" lon="-0.773493004962802">
        <ele>20.809999999999999</ele>
        <time>2023-08-16T08:26:38Z</time>
      </trkpt>
      <trkpt lat="53.053032997995615" lon="-0.77129602432251">
        <ele>21.77</ele>
        <time>2023-08-16T08:26:47Z</time>
      </trkpt>
      <trkpt lat="53.055100981146097" lon="-0.768912965431809">
        <ele>25.129999999999999</ele>
        <time>2023-08-16T08:26:58Z</time>
      </trkpt>
      <trkpt lat="53.057116996496916" lon="-0.767272962257266">
        <ele>28.98</ele>
        <time>2023-08-16T08:27:08Z</time>
      </trkpt>
      <trkpt lat="53.059162013232708" lon="-0.766132017597556">
        <ele>28.98</ele>
        <time>2023-08-16T08:27:18Z</time>
      </trkpt>
      <trkpt lat="53.061517998576164" lon="-0.765422992408276">
        <ele>27.050000000000001</ele>
        <time>2023-08-16T08:27:28Z</time>
      </trkpt>
      <trkpt lat="53.064356027171016" lon="-0.765315033495426">
        <ele>26.57</ele>
        <time>2023-08-16T08:27:39Z</time>
      </trkpt>
      <trkpt lat="53.067229008302093" lon="-0.766037972643971">
        <ele>28.5</ele>
        <time>2023-08-16T08:27:50Z</time>
      </trkpt>
      <trkpt lat="53.070292007178068" lon="-0.767469014972448">
        <ele>37.149999999999999</ele>
        <time>2023-08-16T08:28:02Z</time>
      </trkpt>
      <trkpt lat="53.074169978499413" lon="-0.769296018406749">
        <ele>42.439999999999998</ele>
        <time>2023-08-16T08:28:17Z</time>
      </trkpt>
      <trkpt lat="53.078023977577686" lon="-0.771269034594297">
        <ele>41.950000000000003</ele>
        <time>2023-08-16T08:28:32Z</time>
      </trkpt>
      <trkpt lat="53.080765027552843" lon="-0.77310299500823">
        <ele>44.840000000000003</ele>
        <time>2023-08-16T08:28:43Z</time>
      </trkpt>
      <trkpt lat="53.084339993074536" lon="-0.776180997490883">
        <ele>41.950000000000003</ele>
        <time>2023-08-16T08:28:58Z</time>
      </trkpt>
      <trkpt lat="53.087492007762194" lon="-0.779594024643302">
        <ele>32.340000000000003</ele>
        <time>2023-08-16T08:29:12Z</time>
      </trkpt>
      <trkpt lat="53.09238301590085" lon="-0.785033963620663">
        <ele>23.210000000000001</ele>
        <time>2023-08-16T08:29:34Z</time>
      </trkpt>
      <trkpt lat="53.095935015007854" lon="-0.788989970460534">
        <ele>19.84</ele>
        <time>2023-08-16T08:29:50Z</time>
      </trkpt>
      <trkpt lat="53.098267028108239" lon="-0.791973005980253">
        <ele>21.77</ele>
        <time>2023-08-16T08:30:01Z</time>
      </trkpt>
      <trkpt lat="53.100252030417323" lon="-0.795587031170726">
        <ele>26.09</ele>
        <time>2023-08-16T08:30:12Z</time>
      </trkpt>
      <trkpt lat="53.101879963651299" lon="-0.799137018620968">
        <ele>26.09</ele>
        <time>2023-08-16T08:30:22Z</time>
      </trkpt>
      <trkpt lat="53.10381299816072" lon="-0.803391002118587">
        <ele>22.73</ele>
        <time>2023-08-16T08:30:34Z</time>
      </trkpt>
      <trkpt lat="53.106035040691495" lon="-0.807853024452925">
        <ele>23.690000000000001</ele>
        <time>2023-08-16T08:30:47Z</time>
      </trkpt>
      <trkpt lat="53.108489010483027" lon="-0.811290023848414">
        <ele>21.77</ele>
        <time>2023-08-16T08:30:59Z</time>
      </trkpt>
      <trkpt lat="53.111017998307943" lon="-0.813792021945119">
        <ele>21.77</ele>
        <time>2023-08-16T08:31:10Z</time>
      </trkpt>
      <trkpt lat="53.113508010283113" lon="-0.815397994592786">
        <ele>21.289999999999999</ele>
        <time>2023-08-16T08:31:20Z</time>
      </trkpt>
      <trkpt lat="53.116141017526388" lon="-0.816205004230142">
        <ele>20.809999999999999</ele>
        <time>2023-08-16T08:31:30Z</time>
      </trkpt>
      <trkpt lat="53.118526004254818" lon="-0.816313968971372">
        <ele>19.84</ele>
        <time>2023-08-16T08:31:39Z</time>
      </trkpt>
      <trkpt lat="53.122310014441609" lon="-0.816283039748669">
        <ele>23.210000000000001</ele>
        <time>2023-08-16T08:31:53Z</time>
      </trkpt>
      <trkpt lat="53.124415967613459" lon="-0.815808037295938">
        <ele>20.809999999999999</ele>
        <time>2023-08-16T08:32:01Z</time>
      </trkpt>
      <trkpt lat="53.12643701210618" lon="-0.814523007720709">
        <ele>21.77</ele>
        <time>2023-08-16T08:32:09Z</time>
      </trkpt>
      <trkpt lat="53.128139963373542" lon="-0.813220040872693">
        <ele>20.32</ele>
        <time>2023-08-16T08:32:16Z</time>
      </trkpt>
      <trkpt lat="53.13080096617341" lon="-0.81117301248014">
        <ele>16</ele>
        <time>2023-08-16T08:32:27Z</time>
      </trkpt>
      <trkpt lat="53.13427803106606" lon="-0.808851979672909">
        <ele>15.52</ele>
        <time>2023-08-16T08:32:41Z</time>
      </trkpt>
      <trkpt lat="53.137892978265882" lon="-0.807175012305379">
        <ele>16.48</ele>
        <time>2023-08-16T08:32:55Z</time>
      </trkpt>
      <trkpt lat="53.141706995666027" lon="-0.805084984749556">
        <ele>16.48</ele>
        <time>2023-08-16T08:33:10Z</time>
      </trkpt>
      <trkpt lat="53.144288035109639" lon="-0.803909003734589">
        <ele>16</ele>
        <time>2023-08-16T08:33:20Z</time>
      </trkpt>
      <trkpt lat="53.146414021030068" lon="-0.803844965994358">
        <ele>17.440000000000001</ele>
        <time>2023-08-16T08:33:28Z</time>
      </trkpt>
      <trkpt lat="53.148515028879046" lon="-0.804571006447077">
        <ele>17.440000000000001</ele>
        <time>2023-08-16T08:33:36Z</time>
      </trkpt>
      <trkpt lat="53.150600027292967" lon="-0.805368963629007">
        <ele>18.399999999999999</ele>
        <time>2023-08-16T08:33:44Z</time>
      </trkpt>
      <trkpt lat="53.153004040941596" lon="-0.805568033829331">
        <ele>19.359999999999999</ele>
        <time>2023-08-16T08:33:53Z</time>
      </trkpt>
      <trkpt lat="53.156212968751788" lon="-0.805715974420309">
        <ele>19.84</ele>
        <time>2023-08-16T08:34:05Z</time>
      </trkpt>
      <trkpt lat="53.159066000953317" lon="-0.806925985962152">
        <ele>19.84</ele>
        <time>2023-08-16T08:34:16Z</time>
      </trkpt>
      <trkpt lat="53.162426976487041" lon="-0.80844403244555">
        <ele>19.359999999999999</ele>
        <time>2023-08-16T08:34:29Z</time>
      </trkpt>
      <trkpt lat="53.166046030819416" lon="-0.810076994821429">
        <ele>18.879999999999999</ele>
        <time>2023-08-16T08:34:43Z</time>
      </trkpt>
      <trkpt lat="53.16994302906096" lon="-0.811825040727854">
        <ele>16.960000000000001</ele>
        <time>2023-08-16T08:34:58Z</time>
      </trkpt>
      <trkpt lat="53.173775989562273" lon="-0.813668975606561">
        <ele>16.48</ele>
        <time>2023-08-16T08:35:13Z</time>
      </trkpt>
      <trkpt lat="53.175670970231295" lon="-0.815305961295962">
        <ele>17.920000000000002</ele>
        <time>2023-08-16T08:35:21Z</time>
      </trkpt>
      <trkpt lat="53.180012041702867" lon="-0.819797990843654">
        <ele>24.649999999999999</ele>
        <time>2023-08-16T08:35:40Z</time>
      </trkpt>
      <trkpt lat="53.181800991296768" lon="-0.821872008964419">
        <ele>23.690000000000001</ele>
        <time>2023-08-16T08:35:49Z</time>
      </trkpt>
      <trkpt lat="53.184195030480623" lon="-0.824894020333886">
        <ele>18.399999999999999</ele>
        <time>2023-08-16T08:36:02Z</time>
      </trkpt>
      <trkpt lat="53.185917008668184" lon="-0.827315971255302">
        <ele>15.52</ele>
        <time>2023-08-16T08:36:12Z</time>
      </trkpt>
      <trkpt lat="53.187470007687807" lon="-0.829678997397423">
        <ele>18.399999999999999</ele>
        <time>2023-08-16T08:36:20Z</time>
      </trkpt>
      <trkpt lat="53.1899069622159" lon="-0.833796020597219">
        <ele>21.77</ele>
        <time>2023-08-16T08:36:33Z</time>
      </trkpt>
      <trkpt lat="53.19252697750926" lon="-0.838858019560575">
        <ele>27.050000000000001</ele>
        <time>2023-08-16T08:36:48Z</time>
      </trkpt>
      <trkpt lat="53.194642988964915" lon="-0.843472005799413">
        <ele>26.09</ele>
        <time>2023-08-16T08:37:01Z</time>
      </trkpt>
      <trkpt lat="53.197586964815855" lon="-0.849823979660869">
        <ele>26.09</ele>
        <time>2023-08-16T08:37:19Z</time>
      </trkpt>
      <trkpt lat="53.199627036228776" lon="-0.853974027559161">
        <ele>24.170000000000002</ele>
        <time>2023-08-16T08:37:31Z</time>
      </trkpt>
      <trkpt lat="53.202639995142817" lon="-0.859646983444691">
        <ele>26.09</ele>
        <time>2023-08-16T08:37:48Z</time>
      </trkpt>
      <trkpt lat="53.205461008474231" lon="-0.864461967721581">
        <ele>28.5</ele>
        <time>2023-08-16T08:38:03Z</time>
      </trkpt>
      <trkpt lat="53.208589972928166" lon="-0.869351970031857">
        <ele>32.82</ele>
        <time>2023-08-16T08:38:19Z</time>
      </trkpt>
      <trkpt lat="53.211640985682607" lon="-0.873709972947836">
        <ele>34.259999999999998</ele>
        <time>2023-08-16T08:38:34Z</time>
      </trkpt>
      <trkpt lat="53.215864039957523" lon="-0.879216967150569">
        <ele>37.149999999999999</ele>
        <time>2023-08-16T08:38:54Z</time>
      </trkpt>
      <trkpt lat="53.219617959111929" lon="-0.883506992831826">
        <ele>39.549999999999997</ele>
        <time>2023-08-16T08:39:11Z</time>
      </trkpt>
      <trkpt lat="53.22391401976347" lon="-0.888051996007562">
        <ele>40.509999999999998</ele>
        <time>2023-08-16T08:39:30Z</time>
      </trkpt>
      <trkpt lat="53.226853972300887" lon="-0.891103008762002">
        <ele>41.950000000000003</ele>
        <time>2023-08-16T08:39:43Z</time>
      </trkpt>
      <trkpt lat="53.230047980323434" lon="-0.894377985969186">
        <ele>50.609999999999999</ele>
        <time>2023-08-16T08:39:57Z</time>
      </trkpt>
      <trkpt lat="53.232885003089905" lon="-0.896937986835837">
        <ele>57.82</ele>
        <time>2023-08-16T08:40:09Z</time>
      </trkpt>
      <trkpt lat="53.236362989991903" lon="-0.899299001321197">
        <ele>58.780000000000001</ele>
        <time>2023-08-16T08:40:23Z</time>
      </trkpt>
      <trkpt lat="53.238136013969779" lon="-0.900209024548531">
        <ele>57.340000000000003</ele>
        <time>2023-08-16T08:40:30Z</time>
      </trkpt>
      <trkpt lat="53.241271013393998" lon="-0.901538981124759">
        <ele>56.859999999999999</ele>
        <time>2023-08-16T08:40:42Z</time>
      </trkpt>
      <trkpt lat="53.244036035612226" lon="-0.903197005391121">
        <ele>59.259999999999998</ele>
        <time>2023-08-16T08:40:53Z</time>
      </trkpt>
      <trkpt lat="53.246627971529961" lon="-0.905543016269803">
        <ele>61.659999999999997</ele>
        <time>2023-08-16T08:41:04Z</time>
      </trkpt>
      <trkpt lat="53.248995020985603" lon="-0.908456984907389">
        <ele>61.18</ele>
        <time>2023-08-16T08:41:15Z</time>
      </trkpt>
      <trkpt lat="53.251218991354108" lon="-0.912332022562623">
        <ele>57.82</ele>
        <time>2023-08-16T08:41:27Z</time>
      </trkpt>
      <trkpt lat="53.253084970638156" lon="-0.916719026863575">
        <ele>49.159999999999997</ele>
        <time>2023-08-16T08:41:39Z</time>
      </trkpt>
      <trkpt lat="53.254750035703182" lon="-0.92182301916182">
        <ele>35.710000000000001</ele>
        <time>2023-08-16T08:41:52Z</time>
      </trkpt>
      <trkpt lat="53.255940014496446" lon="-0.925822025164962">
        <ele>28.98</ele>
        <time>2023-08-16T08:42:02Z</time>
      </trkpt>
      <trkpt lat="53.257156983017921" lon="-0.929791023954749">
        <ele>23.690000000000001</ele>
        <time>2023-08-16T08:42:12Z</time>
      </trkpt>
      <trkpt lat="53.2589799631387" lon="-0.934708015993238">
        <ele>21.289999999999999</ele>
        <time>2023-08-16T08:42:25Z</time>
      </trkpt>
      <trkpt lat="53.260775031521916" lon="-0.93860199674964">
        <ele>20.809999999999999</ele>
        <time>2023-08-16T08:42:36Z</time>
      </trkpt>
      <trkpt lat="53.263177033513784" lon="-0.942809963598847">
        <ele>21.289999999999999</ele>
        <time>2023-08-16T08:42:49Z</time>
      </trkpt>
      <trkpt lat="53.265203023329377" lon="-0.945691997185349">
        <ele>21.289999999999999</ele>
        <time>2023-08-16T08:42:59Z</time>
      </trkpt>
      <trkpt lat="53.266356037929654" lon="-0.947196967899799">
        <ele>20.809999999999999</ele>
        <time>2023-08-16T08:43:06Z</time>
      </trkpt>
      <trkpt lat="53.268199972808361" lon="-0.949905999004841">
        <ele>19.84</ele>
        <time>2023-08-16T08:43:19Z</time>
      </trkpt>
      <trkpt lat="53.269246034324169" lon="-0.952532971277833">
        <ele>19.84</ele>
        <time>2023-08-16T08:43:29Z</time>
      </trkpt>
      <trkpt lat="53.269702009856701" lon="-0.95422301441431">
        <ele>19.84</ele>
        <time>2023-08-16T08:43:35Z</time>
      </trkpt>
      <trkpt lat="53.269752971827984" lon="-0.954574970528483">
        <ele>19.84</ele>
        <time>2023-08-16T08:43:36Z</time>
      </trkpt>
      <trkpt lat="53.270219005644321" lon="-0.957308979704976">
        <ele>22.25</ele>
        <time>2023-08-16T08:43:45Z</time>
      </trkpt>
      <trkpt lat="53.271055016666651" lon="-0.959751969203353">
        <ele>26.57</ele>
        <time>2023-08-16T08:43:54Z</time>
      </trkpt>
      <trkpt lat="53.272315990179777" lon="-0.963305979967117">
        <ele>30.899999999999999</ele>
        <time>2023-08-16T08:44:07Z</time>
      </trkpt>
      <trkpt lat="53.273384012281895" lon="-0.968387005850673">
        <ele>30.420000000000002</ele>
        <time>2023-08-16T08:44:24Z</time>
      </trkpt>
      <trkpt lat="53.273769998922944" lon="-0.971484035253525">
        <ele>31.859999999999999</ele>
        <time>2023-08-16T08:44:34Z</time>
      </trkpt>
      <trkpt lat="53.274180963635445" lon="-0.975203001871705">
        <ele>35.229999999999997</ele>
        <time>2023-08-16T08:44:46Z</time>
      </trkpt>
      <trkpt lat="53.274851012974977" lon="-0.977439964190125">
        <ele>36.670000000000002</ele>
        <time>2023-08-16T08:44:54Z</time>
      </trkpt>
      <trkpt lat="53.276034034788609" lon="-0.979520017281175">
        <ele>38.109999999999999</ele>
        <time>2023-08-16T08:45:03Z</time>
      </trkpt>
      <trkpt lat="53.276492021977901" lon="-0.980075988918543">
        <ele>39.07</ele>
        <time>2023-08-16T08:45:06Z</time>
      </trkpt>
      <trkpt lat="53.278382979333401" lon="-0.982266012579203">
        <ele>40.990000000000002</ele>
        <time>2023-08-16T08:45:18Z</time>
      </trkpt>
      <trkpt lat="53.279622998088598" lon="-0.98466700874269">
        <ele>43.880000000000003</ele>
        <time>2023-08-16T08:45:28Z</time>
      </trkpt>
      <trkpt lat="53.281705984845757" lon="-0.989228021353483">
        <ele>49.159999999999997</ele>
        <time>2023-08-16T08:45:46Z</time>
      </trkpt>
      <trkpt lat="53.282841984182596" lon="-0.991743011400104">
        <ele>43.880000000000003</ele>
        <time>2023-08-16T08:45:54Z</time>
      </trkpt>
      <trkpt lat="53.284513000398874" lon="-0.995809994637966">
        <ele>43.880000000000003</ele>
        <time>2023-08-16T08:46:05Z</time>
      </trkpt>
      <trkpt lat="53.285917975008488" lon="-1.001182962208986">
        <ele>43.399999999999999</ele>
        <time>2023-08-16T08:46:18Z</time>
      </trkpt>
      <trkpt lat="53.287672977894545" lon="-1.008225018158555">
        <ele>48.200000000000003</ele>
        <time>2023-08-16T08:46:35Z</time>
      </trkpt>
      <trkpt lat="53.289199993014336" lon="-1.014959961175919">
        <ele>50.609999999999999</ele>
        <time>2023-08-16T08:46:51Z</time>
      </trkpt>
      <trkpt lat="53.291051974520087" lon="-1.022457992658019">
        <ele>50.609999999999999</ele>
        <time>2023-08-16T08:47:09Z</time>
      </trkpt>
      <trkpt lat="53.292331974953413" lon="-1.025305995717645">
        <ele>50.609999999999999</ele>
        <time>2023-08-16T08:47:17Z</time>
      </trkpt>
      <trkpt lat="53.29374298453331" lon="-1.027388982474804">
        <ele>49.649999999999999</ele>
        <time>2023-08-16T08:47:24Z</time>
      </trkpt>
      <trkpt lat="53.295622039586306" lon="-1.029183967038989">
        <ele>46.759999999999998</ele>
        <time>2023-08-16T08:47:32Z</time>
      </trkpt>
      <trkpt lat="53.297563958913088" lon="-1.030686004087329">
        <ele>44.840000000000003</ele>
        <time>2023-08-16T08:47:40Z</time>
      </trkpt>
      <trkpt lat="53.300177017226815" lon="-1.031789984554052">
        <ele>46.759999999999998</ele>
        <time>2023-08-16T08:47:50Z</time>
      </trkpt>
      <trkpt lat="53.30233602784574" lon="-1.031811023131013">
        <ele>49.159999999999997</ele>
        <time>2023-08-16T08:47:58Z</time>
      </trkpt>
      <trkpt lat="53.305011028423905" lon="-1.031100992113352">
        <ele>47.719999999999999</ele>
        <time>2023-08-16T08:48:08Z</time>
      </trkpt>
      <trkpt lat="53.307671025395393" lon="-1.030289959162474">
        <ele>42.439999999999998</ele>
        <time>2023-08-16T08:48:18Z</time>
      </trkpt>
      <trkpt lat="53.310880037024617" lon="-1.029771035537124">
        <ele>35.229999999999997</ele>
        <time>2023-08-16T08:48:30Z</time>
      </trkpt>
      <trkpt lat="53.312753979116678" lon="-1.029431987553835">
        <ele>31.379999999999999</ele>
        <time>2023-08-16T08:48:37Z</time>
      </trkpt>
      <trkpt lat="53.315703989937901" lon="-1.028821030631661">
        <ele>33.780000000000001</ele>
        <time>2023-08-16T08:48:48Z</time>
      </trkpt>
      <trkpt lat="53.318928005173802" lon="-1.028164979070425">
        <ele>33.299999999999997</ele>
        <time>2023-08-16T08:49:00Z</time>
      </trkpt>
      <trkpt lat="53.322428958490491" lon="-1.027758037671447">
        <ele>27.530000000000001</ele>
        <time>2023-08-16T08:49:13Z</time>
      </trkpt>
      <trkpt lat="53.326144991442561" lon="-1.027567014098167">
        <ele>26.09</ele>
        <time>2023-08-16T08:49:27Z</time>
      </trkpt>
      <trkpt lat="53.329099025577307" lon="-1.027632979676127">
        <ele>26.09</ele>
        <time>2023-08-16T08:49:38Z</time>
      </trkpt>
      <trkpt lat="53.332304013893008" lon="-1.028072023764253">
        <ele>27.050000000000001</ele>
        <time>2023-08-16T08:49:50Z</time>
      </trkpt>
      <trkpt lat="53.337390990927815" lon="-1.02877501398325">
        <ele>26.09</ele>
        <time>2023-08-16T08:50:09Z</time>
      </trkpt>
      <trkpt lat="53.341101994737983" lon="-1.029637008905411">
        <ele>22.73</ele>
        <time>2023-08-16T08:50:23Z</time>
      </trkpt>
      <trkpt lat="53.344502029940486" lon="-1.030897982418537">
        <ele>25.129999999999999</ele>
        <time>2023-08-16T08:50:36Z</time>
      </trkpt>
      <trkpt lat="53.347549019381404" lon="-1.032542008906603">
        <ele>25.129999999999999</ele>
        <time>2023-08-16T08:50:48Z</time>
      </trkpt>
      <trkpt lat="53.350416971370578" lon="-1.034988015890122">
        <ele>27.530000000000001</ele>
        <time>2023-08-16T08:51:00Z</time>
      </trkpt>
      <trkpt lat="53.354479009285569" lon="-1.039297990500927">
        <ele>37.630000000000003</ele>
        <time>2023-08-16T08:51:18Z</time>
      </trkpt>
      <trkpt lat="53.357662037014961" lon="-1.043414007872343">
        <ele>41.469999999999999</ele>
        <time>2023-08-16T08:51:33Z</time>
      </trkpt>
      <trkpt lat="53.360481960698962" lon="-1.04753203690052">
        <ele>39.07</ele>
        <time>2023-08-16T08:51:47Z</time>
      </trkpt>
      <trkpt lat="53.362464029341936" lon="-1.049847034737468">
        <ele>38.109999999999999</ele>
        <time>2023-08-16T08:51:56Z</time>
      </trkpt>
      <trkpt lat="53.36657602339983" lon="-1.054024994373322">
        <ele>38.109999999999999</ele>
        <time>2023-08-16T08:52:14Z</time>
      </trkpt>
      <trkpt lat="53.368615005165339" lon="-1.055072983726859">
        <ele>36.189999999999998</ele>
        <time>2023-08-16T08:52:22Z</time>
      </trkpt>
      <trkpt lat="53.370484001934528" lon="-1.055184965953231">
        <ele>30.899999999999999</ele>
        <time>2023-08-16T08:52:29Z</time>
      </trkpt>
      <trkpt lat="53.373380033299327" lon="-1.054380973801017">
        <ele>24.649999999999999</ele>
        <time>2023-08-16T08:52:40Z</time>
      </trkpt>
      <trkpt lat="53.376575969159603" lon="-1.053751995787025">
        <ele>20.809999999999999</ele>
        <time>2023-08-16T08:52:52Z</time>
      </trkpt>
      <trkpt lat="53.379236971959472" lon="-1.054153991863132">
        <ele>19.84</ele>
        <time>2023-08-16T08:53:02Z</time>
      </trkpt>
      <trkpt lat="53.381799990311265" lon="-1.055415971204639">
        <ele>20.809999999999999</ele>
        <time>2023-08-16T08:53:12Z</time>
      </trkpt>
      <trkpt lat="53.383949026465416" lon="-1.057254038751125">
        <ele>23.210000000000001</ele>
        <time>2023-08-16T08:53:21Z</time>
      </trkpt>
      <trkpt lat="53.385309996083379" lon="-1.059038965031505">
        <ele>24.649999999999999</ele>
        <time>2023-08-16T08:53:28Z</time>
      </trkpt>
      <trkpt lat="53.387299021705985" lon="-1.062419973313808">
        <ele>22.73</ele>
        <time>2023-08-16T08:53:39Z</time>
      </trkpt>
      <trkpt lat="53.389837983995676" lon="-1.067010993137956">
        <ele>19.84</ele>
        <time>2023-08-16T08:53:53Z</time>
      </trkpt>
      <trkpt lat="53.392433021217585" lon="-1.07093196362257">
        <ele>18.399999999999999</ele>
        <time>2023-08-16T08:54:06Z</time>
      </trkpt>
      <trkpt lat="53.395052030682564" lon="-1.074053971096873">
        <ele>16</ele>
        <time>2023-08-16T08:54:18Z</time>
      </trkpt>
      <trkpt lat="53.398083010688424" lon="-1.076891999691725">
        <ele>14.56</ele>
        <time>2023-08-16T08:54:31Z</time>
      </trkpt>
      <trkpt lat="53.401312977075577" lon="-1.079091997817159">
        <ele>15.52</ele>
        <time>2023-08-16T08:54:44Z</time>
      </trkpt>
      <trkpt lat="53.404671018943191" lon="-1.080649020150304">
        <ele>17.920000000000002</ele>
        <time>2023-08-16T08:54:57Z</time>
      </trkpt>
      <trkpt lat="53.407567972317338" lon="-1.081523001194">
        <ele>19.84</ele>
        <time>2023-08-16T08:55:08Z</time>
      </trkpt>
      <trkpt lat="53.41019201092422" lon="-1.082345014438033">
        <ele>22.73</ele>
        <time>2023-08-16T08:55:18Z</time>
      </trkpt>
      <trkpt lat="53.413293985649943" lon="-1.083800029009581">
        <ele>25.129999999999999</ele>
        <time>2023-08-16T08:55:30Z</time>
      </trkpt>
      <trkpt lat="53.416526969522238" lon="-1.086036991328001">
        <ele>23.210000000000001</ele>
        <time>2023-08-16T08:55:43Z</time>
      </trkpt>
      <trkpt lat="53.41958099976182" lon="-1.088867979124188">
        <ele>16.48</ele>
        <time>2023-08-16T08:55:56Z</time>
      </trkpt>
      <trkpt lat="53.42286896891892" lon="-1.091868029907346">
        <ele>14.08</ele>
        <time>2023-08-16T08:56:10Z</time>
      </trkpt>
      <trkpt lat="53.425418995320797" lon="-1.093246014788747">
        <ele>12.630000000000001</ele>
        <time>2023-08-16T08:56:20Z</time>
      </trkpt>
      <trkpt lat="53.428058037534356" lon="-1.094002984464169">
        <ele>12.15</ele>
        <time>2023-08-16T08:56:30Z</time>
      </trkpt>
      <trkpt lat="53.431470980867743" lon="-1.094899009913206">
        <ele>16</ele>
        <time>2023-08-16T08:56:43Z</time>
      </trkpt>
      <trkpt lat="53.433253979310393" lon="-1.095902994275093">
        <ele>17.920000000000002</ele>
        <time>2023-08-16T08:56:50Z</time>
      </trkpt>
      <trkpt lat="53.435345012694597" lon="-1.097937030717731">
        <ele>15.52</ele>
        <time>2023-08-16T08:56:59Z</time>
      </trkpt>
      <trkpt lat="53.438358977437019" lon="-1.100843036547303">
        <ele>8.789999999999999</ele>
        <time>2023-08-16T08:57:12Z</time>
      </trkpt>
      <trkpt lat="53.441599002107978" lon="-1.102980002760887">
        <ele>7.83</ele>
        <time>2023-08-16T08:57:25Z</time>
      </trkpt>
      <trkpt lat="53.443956999108195" lon="-1.105098025873303">
        <ele>9.27</ele>
        <time>2023-08-16T08:57:35Z</time>
      </trkpt>
      <trkpt lat="53.44673995859921" lon="-1.107780989259481">
        <ele>11.19</ele>
        <time>2023-08-16T08:57:47Z</time>
      </trkpt>
      <trkpt lat="53.449975037947297" lon="-1.110954964533448">
        <ele>14.08</ele>
        <time>2023-08-16T08:58:01Z</time>
      </trkpt>
      <trkpt lat="53.452675016596913" lon="-1.113877985626459">
        <ele>15.52</ele>
        <time>2023-08-16T08:58:13Z</time>
      </trkpt>
      <trkpt lat="53.455057991668582" lon="-1.117489999160171">
        <ele>19.359999999999999</ele>
        <time>2023-08-16T08:58:25Z</time>
      </trkpt>
      <trkpt lat="53.456806037575006" lon="-1.12090302631259">
        <ele>24.170000000000002</ele>
        <time>2023-08-16T08:58:35Z</time>
      </trkpt>
      <trkpt lat="53.458665981888771" lon="-1.124132992699742">
        <ele>29.460000000000001</ele>
        <time>2023-08-16T08:58:45Z</time>
      </trkpt>
      <trkpt lat="53.461215002462268" lon="-1.127401012927294">
        <ele>33.299999999999997</ele>
        <time>2023-08-16T08:58:57Z</time>
      </trkpt>
      <trkpt lat="53.464457960799336" lon="-1.130584962666035">
        <ele>34.740000000000002</ele>
        <time>2023-08-16T08:59:11Z</time>
      </trkpt>
      <trkpt lat="53.467520959675312" lon="-1.134262019768357">
        <ele>32.82</ele>
        <time>2023-08-16T08:59:25Z</time>
      </trkpt>
      <trkpt lat="53.470335016027093" lon="-1.138407038524747">
        <ele>24.170000000000002</ele>
        <time>2023-08-16T08:59:39Z</time>
      </trkpt>
      <trkpt lat="53.473298018798232" lon="-1.142285009846091">
        <ele>19.84</ele>
        <time>2023-08-16T08:59:53Z</time>
      </trkpt>
      <trkpt lat="53.475778978317976" lon="-1.144914999604225">
        <ele>17.920000000000002</ele>
        <time>2023-08-16T09:00:04Z</time>
      </trkpt>
      <trkpt lat="53.479043981060386" lon="-1.148076988756657">
        <ele>19.359999999999999</ele>
        <time>2023-08-16T09:00:18Z</time>
      </trkpt>
      <trkpt lat="53.480893028900027" lon="-1.149878008291125">
        <ele>22.73</ele>
        <time>2023-08-16T09:00:26Z</time>
      </trkpt>
      <trkpt lat="53.484803019091487" lon="-1.15379897877574">
        <ele>25.609999999999999</ele>
        <time>2023-08-16T09:00:43Z</time>
      </trkpt>
      <trkpt lat="53.487579021602869" lon="-1.157391965389252">
        <ele>24.170000000000002</ele>
        <time>2023-08-16T09:00:56Z</time>
      </trkpt>
      <trkpt lat="53.49067403934896" lon="-1.161685008555651">
        <ele>18.399999999999999</ele>
        <time>2023-08-16T09:01:11Z</time>
      </trkpt>
      <trkpt lat="53.492688965052366" lon="-1.16464801132679">
        <ele>20.809999999999999</ele>
        <time>2023-08-16T09:01:21Z</time>
      </trkpt>
      <trkpt lat="53.494640020653605" lon="-1.168360020965338">
        <ele>23.210000000000001</ele>
        <time>2023-08-16T09:01:32Z</time>
      </trkpt>
      <trkpt lat="53.496139962226152" lon="-1.170913986861706">
        <ele>24.649999999999999</ele>
        <time>2023-08-16T09:01:40Z</time>
      </trkpt>
      <trkpt lat="53.49838899448514" lon="-1.173319006338716">
        <ele>27.530000000000001</ele>
        <time>2023-08-16T09:01:50Z</time>
      </trkpt>
      <trkpt lat="53.50015296600759" lon="-1.174555001780391">
        <ele>31.379999999999999</ele>
        <time>2023-08-16T09:01:57Z</time>
      </trkpt>
      <trkpt lat="53.500402998179197" lon="-1.174720963463187">
        <ele>31.859999999999999</ele>
        <time>2023-08-16T09:01:58Z</time>
      </trkpt>
      <trkpt lat="53.500654036179185" lon="-1.174889020621777">
        <ele>32.340000000000003</ele>
        <time>2023-08-16T09:01:59Z</time>
      </trkpt>
      <trkpt lat="53.503375975415111" lon="-1.176652992144227">
        <ele>40.509999999999998</ele>
        <time>2023-08-16T09:02:10Z</time>
      </trkpt>
      <trkpt lat="53.505491986870766" lon="-1.177376015111804">
        <ele>44.359999999999999</ele>
        <time>2023-08-16T09:02:18Z</time>
      </trkpt>
      <trkpt lat="53.507625013589859" lon="-1.177225979045034">
        <ele>40.030000000000001</ele>
        <time>2023-08-16T09:02:26Z</time>
      </trkpt>
      <trkpt lat="53.510233964771032" lon="-1.176226017996669">
        <ele>37.630000000000003</ele>
        <time>2023-08-16T09:02:36Z</time>
      </trkpt>
      <trkpt lat="53.513884032145143" lon="-1.174867982044816">
        <ele>33.299999999999997</ele>
        <time>2023-08-16T09:02:50Z</time>
      </trkpt>
      <trkpt lat="53.516017980873585" lon="-1.174794975668192">
        <ele>32.82</ele>
        <time>2023-08-16T09:02:58Z</time>
      </trkpt>
      <trkpt lat="53.516735974699259" lon="-1.174970995634794">
        <ele>32.340000000000003</ele>
        <time>2023-08-16T09:03:01Z</time>
      </trkpt>
      <trkpt lat="53.516963040456176" lon="-1.175052970647812">
        <ele>32.82</ele>
        <time>2023-08-16T09:03:02Z</time>
      </trkpt>
      <trkpt lat="53.518917029723525" lon="-1.17616499774158">
        <ele>34.259999999999998</ele>
        <time>2023-08-16T09:03:11Z</time>
      </trkpt>
      <trkpt lat="53.520593997091055" lon="-1.17792502976954">
        <ele>36.670000000000002</ele>
        <time>2023-08-16T09:03:19Z</time>
      </trkpt>
      <trkpt lat="53.522445978596807" lon="-1.180605981498957">
        <ele>40.030000000000001</ele>
        <time>2023-08-16T09:03:29Z</time>
      </trkpt>
      <trkpt lat="53.524819985032082" lon="-1.183594968169928">
        <ele>42.920000000000002</ele>
        <time>2023-08-16T09:03:41Z</time>
      </trkpt>
      <trkpt lat="53.526788977906108" lon="-1.185764037072659">
        <ele>43.880000000000003</ele>
        <time>2023-08-16T09:03:51Z</time>
      </trkpt>
      <trkpt lat="53.528739027678967" lon="-1.18811096996069">
        <ele>45.799999999999997</ele>
        <time>2023-08-16T09:04:01Z</time>
      </trkpt>
      <trkpt lat="53.531249994412065" lon="-1.19185097515583">
        <ele>50.609999999999999</ele>
        <time>2023-08-16T09:04:14Z</time>
      </trkpt>
      <trkpt lat="53.534580962732434" lon="-1.196971982717514">
        <ele>53.490000000000002</ele>
        <time>2023-08-16T09:04:31Z</time>
      </trkpt>
      <trkpt lat="53.536948012188077" lon="-1.200620960444212">
        <ele>54.93</ele>
        <time>2023-08-16T09:04:43Z</time>
      </trkpt>
      <trkpt lat="53.539615971967578" lon="-1.204314026981592">
        <ele>54.93</ele>
        <time>2023-08-16T09:04:56Z</time>
      </trkpt>
      <trkpt lat="53.542156023904681" lon="-1.206833962351084">
        <ele>51.090000000000003</ele>
        <time>2023-08-16T09:05:07Z</time>
      </trkpt>
      <trkpt lat="53.545072004199028" lon="-1.209100009873509">
        <ele>43.880000000000003</ele>
        <time>2023-08-16T09:05:19Z</time>
      </trkpt>
      <trkpt lat="53.548245979472995" lon="-1.21154903434217">
        <ele>37.630000000000003</ele>
        <time>2023-08-16T09:05:32Z</time>
      </trkpt>
      <trkpt lat="53.551166988909245" lon="-1.213777028024197">
        <ele>34.259999999999998</ele>
        <time>2023-08-16T09:05:44Z</time>
      </trkpt>
      <trkpt lat="53.553314013406634" lon="-1.215119976550341">
        <ele>35.710000000000001</ele>
        <time>2023-08-16T09:05:53Z</time>
      </trkpt>
      <trkpt lat="53.555220980197191" lon="-1.215930003672838">
        <ele>38.109999999999999</ele>
        <time>2023-08-16T09:06:02Z</time>
      </trkpt>
      <trkpt lat="53.557603033259511" lon="-1.216459991410375">
        <ele>34.740000000000002</ele>
        <time>2023-08-16T09:06:11Z</time>
      </trkpt>
      <trkpt lat="53.560268981382251" lon="-1.216771965846419">
        <ele>29.460000000000001</ele>
        <time>2023-08-16T09:06:21Z</time>
      </trkpt>
      <trkpt lat="53.563155038282275" lon="-1.217574030160904">
        <ele>29.940000000000001</ele>
        <time>2023-08-16T09:06:32Z</time>
      </trkpt>
      <trkpt lat="53.566290037706494" lon="-1.218797033652663">
        <ele>44.840000000000003</ele>
        <time>2023-08-16T09:06:44Z</time>
      </trkpt>
      <trkpt lat="53.568714000284672" lon="-1.218927036970854">
        <ele>53.009999999999998</ele>
        <time>2023-08-16T09:06:53Z</time>
      </trkpt>
      <trkpt lat="53.57109404169023" lon="-1.218181969597936">
        <ele>56.859999999999999</ele>
        <time>2023-08-16T09:07:02Z</time>
      </trkpt>
      <trkpt lat="53.573317006230354" lon="-1.216584965586662">
        <ele>53.969999999999999</ele>
        <time>2023-08-16T09:07:11Z</time>
      </trkpt>
      <trkpt lat="53.576383022591472" lon="-1.213753977790475">
        <ele>42.920000000000002</ele>
        <time>2023-08-16T09:07:24Z</time>
      </trkpt>
      <trkpt lat="53.578878985717893" lon="-1.212226962670684">
        <ele>33.299999999999997</ele>
        <time>2023-08-16T09:07:34Z</time>
      </trkpt>
      <trkpt lat="53.580718981102109" lon="-1.211685994639993">
        <ele>28.5</ele>
        <time>2023-08-16T09:07:41Z</time>
      </trkpt>
      <trkpt lat="53.583130035549402" lon="-1.21202202513814">
        <ele>22.73</ele>
        <time>2023-08-16T09:07:50Z</time>
      </trkpt>
      <trkpt lat="53.586496962234378" lon="-1.21344099752605">
        <ele>24.170000000000002</ele>
        <time>2023-08-16T09:08:03Z</time>
      </trkpt>
      <trkpt lat="53.590664025396109" lon="-1.215185020118952">
        <ele>36.670000000000002</ele>
        <time>2023-08-16T09:08:19Z</time>
      </trkpt>
      <trkpt lat="53.593020010739565" lon="-1.216147011145949">
        <ele>38.590000000000003</ele>
        <time>2023-08-16T09:08:28Z</time>
      </trkpt>
      <trkpt lat="53.595672966912389" lon="-1.216850001364946">
        <ele>39.549999999999997</ele>
        <time>2023-08-16T09:08:38Z</time>
      </trkpt>
      <trkpt lat="53.599114995449781" lon="-1.217564977705479">
        <ele>36.670000000000002</ele>
        <time>2023-08-16T09:08:51Z</time>
      </trkpt>
      <trkpt lat="53.601120030507445" lon="-1.218826035037637">
        <ele>34.259999999999998</ele>
        <time>2023-08-16T09:08:59Z</time>
      </trkpt>
      <trkpt lat="53.603834006935358" lon="-1.22063803486526">
        <ele>34.740000000000002</ele>
        <time>2023-08-16T09:09:10Z</time>
      </trkpt>
      <trkpt lat="53.607187019661069" lon="-1.222096988931298">
        <ele>47.240000000000002</ele>
        <time>2023-08-16T09:09:23Z</time>
      </trkpt>
      <trkpt lat="53.609698992222548" lon="-1.223697010427713">
        <ele>58.299999999999997</ele>
        <time>2023-08-16T09:09:33Z</time>
      </trkpt>
      <trkpt lat="53.611642001196742" lon="-1.225174991413951">
        <ele>66.950000000000003</ele>
        <time>2023-08-16T09:09:41Z</time>
      </trkpt>
      <trkpt lat="53.614498972892761" lon="-1.227404996752739">
        <ele>76.560000000000002</ele>
        <time>2023-08-16T09:09:53Z</time>
      </trkpt>
      <trkpt lat="53.615007000043988" lon="-1.22783599421382">
        <ele>78</ele>
        <time>2023-08-16T09:09:57Z</time>
      </trkpt>
      <trkpt lat="53.615080006420612" lon="-1.227898020297289">
        <ele>78.480000000000004</ele>
        <time>2023-08-16T09:09:58Z</time>
      </trkpt>
      <trkpt lat="53.615140020847321" lon="-1.227948982268572">
        <ele>78.480000000000004</ele>
        <time>2023-08-16T09:09:59Z</time>
      </trkpt>
      <trkpt lat="53.615190982818604" lon="-1.227991981431842">
        <ele>78.480000000000004</ele>
        <time>2023-08-16T09:10:00Z</time>
      </trkpt>
      <trkpt lat="53.615381000563502" lon="-1.228177975863218">
        <ele>79.930000000000007</ele>
        <time>2023-08-16T09:10:08Z</time>
      </trkpt>
      <trkpt lat="53.615491976961493" lon="-1.228298004716635">
        <ele>79.930000000000007</ele>
        <time>2023-08-16T09:10:19Z</time>
      </trkpt>
      <trkpt lat="53.616054989397526" lon="-1.228908961638808">
        <ele>79.930000000000007</ele>
        <time>2023-08-16T09:10:29Z</time>
      </trkpt>
      <trkpt lat="53.61679402180016" lon="-1.229684958234429">
        <ele>79.450000000000003</ele>
        <time>2023-08-16T09:10:43Z</time>
      </trkpt>
      <trkpt lat="53.617397015914321" lon="-1.230335980653763">
        <ele>78.480000000000004</ele>
        <time>2023-08-16T09:10:57Z</time>
      </trkpt>
      <trkpt lat="53.618093971163034" lon="-1.231073001399636">
        <ele>77.519999999999996</ele>
        <time>2023-08-16T09:11:10Z</time>
      </trkpt>
      <trkpt lat="53.618529997766018" lon="-1.23146896250546">
        <ele>76.079999999999998</ele>
        <time>2023-08-16T09:11:19Z</time>
      </trkpt>
      <trkpt lat="53.618622031062841" lon="-1.231542974710465">
        <ele>76.079999999999998</ele>
        <time>2023-08-16T09:11:21Z</time>
      </trkpt>
      <trkpt lat="53.619137015193701" lon="-1.231954023241997">
        <ele>73.680000000000007</ele>
        <time>2023-08-16T09:11:34Z</time>
      </trkpt>
      <trkpt lat="53.619454018771648" lon="-1.232205983251333">
        <ele>71.760000000000005</ele>
        <time>2023-08-16T09:11:42Z</time>
      </trkpt>
      <trkpt lat="53.619877975434065" lon="-1.232544025406241">
        <ele>69.829999999999998</ele>
        <time>2023-08-16T09:11:54Z</time>
      </trkpt>
      <trkpt lat="53.619916029274464" lon="-1.232574032619596">
        <ele>69.829999999999998</ele>
        <time>2023-08-16T09:11:55Z</time>
      </trkpt>
      <trkpt lat="53.620354989543557" lon="-1.232923977077007">
        <ele>65.989999999999995</ele>
        <time>2023-08-16T09:12:10Z</time>
      </trkpt>
      <trkpt lat="53.620649026706815" lon="-1.233157999813557">
        <ele>61.659999999999997</ele>
        <time>2023-08-16T09:12:26Z</time>
      </trkpt>
      <trkpt lat="53.621076000854373" lon="-1.233497969806194">
        <ele>58.780000000000001</ele>
        <time>2023-08-16T09:12:47Z</time>
      </trkpt>
      <trkpt lat="53.621642030775547" lon="-1.233932990580797">
        <ele>58.780000000000001</ele>
        <time>2023-08-16T09:13:06Z</time>
      </trkpt>
      <trkpt lat="53.622260028496385" lon="-1.234408998861909">
        <ele>58.780000000000001</ele>
        <time>2023-08-16T09:13:16Z</time>
      </trkpt>
      <trkpt lat="53.623058991506696" lon="-1.235073013231158">
        <ele>58.299999999999997</ele>
        <time>2023-08-16T09:13:26Z</time>
      </trkpt>
      <trkpt lat="53.623844040557742" lon="-1.235800981521606">
        <ele>57.82</ele>
        <time>2023-08-16T09:13:41Z</time>
      </trkpt>
      <trkpt lat="53.624092983081937" lon="-1.236031986773014">
        <ele>58.780000000000001</ele>
        <time>2023-08-16T09:13:53Z</time>
      </trkpt>
      <trkpt lat="53.624382996931672" lon="-1.236300962045789">
        <ele>60.700000000000003</ele>
        <time>2023-08-16T09:14:07Z</time>
      </trkpt>
      <trkpt lat="53.624859005212784" lon="-1.236742017790675">
        <ele>60.700000000000003</ele>
        <time>2023-08-16T09:14:16Z</time>
      </trkpt>
      <trkpt lat="53.624933017417789" lon="-1.236811000853777">
        <ele>60.700000000000003</ele>
        <time>2023-08-16T09:14:17Z</time>
      </trkpt>
      <trkpt lat="53.625992992892861" lon="-1.237793024629355">
        <ele>58.780000000000001</ele>
        <time>2023-08-16T09:14:29Z</time>
      </trkpt>
      <trkpt lat="53.627189006656408" lon="-1.238763984292746">
        <ele>57.340000000000003</ele>
        <time>2023-08-16T09:14:42Z</time>
      </trkpt>
      <trkpt lat="53.628307990729809" lon="-1.239563031122088">
        <ele>56.859999999999999</ele>
        <time>2023-08-16T09:14:52Z</time>
      </trkpt>
      <trkpt lat="53.629527976736426" lon="-1.240366017445922">
        <ele>59.740000000000002</ele>
        <time>2023-08-16T09:15:00Z</time>
      </trkpt>
      <trkpt lat="53.630833961069584" lon="-1.241086022928357">
        <ele>65.510000000000005</ele>
        <time>2023-08-16T09:15:12Z</time>
      </trkpt>
      <trkpt lat="53.632312025874853" lon="-1.242083972319961">
        <ele>70.310000000000002</ele>
        <time>2023-08-16T09:15:23Z</time>
      </trkpt>
      <trkpt lat="53.633764022961259" lon="-1.243718024343252">
        <ele>73.680000000000007</ele>
        <time>2023-08-16T09:15:33Z</time>
      </trkpt>
      <trkpt lat="53.634926006197929" lon="-1.24539096839726">
        <ele>73.680000000000007</ele>
        <time>2023-08-16T09:15:43Z</time>
      </trkpt>
      <trkpt lat="53.636885024607182" lon="-1.248273001983762">
        <ele>68.390000000000001</ele>
        <time>2023-08-16T09:16:00Z</time>
      </trkpt>
      <trkpt lat="53.638154966756701" lon="-1.250131018459797">
        <ele>65.989999999999995</ele>
        <time>2023-08-16T09:16:11Z</time>
      </trkpt>
      <trkpt lat="53.640248011797667" lon="-1.25308002345264">
        <ele>65.030000000000001</ele>
        <time>2023-08-16T09:16:29Z</time>
      </trkpt>
      <trkpt lat="53.640370974317193" lon="-1.253218995407224">
        <ele>65.030000000000001</ele>
        <time>2023-08-16T09:16:30Z</time>
      </trkpt>
      <trkpt lat="53.641100032255054" lon="-1.253985017538071">
        <ele>65.030000000000001</ele>
        <time>2023-08-16T09:16:37Z</time>
      </trkpt>
      <trkpt lat="53.641148982569575" lon="-1.25402701087296">
        <ele>64.549999999999997</ele>
        <time>2023-08-16T09:16:38Z</time>
      </trkpt>
      <trkpt lat="53.641385016962886" lon="-1.254227003082633">
        <ele>64.069999999999993</ele>
        <time>2023-08-16T09:16:46Z</time>
      </trkpt>
      <trkpt lat="53.642037967219949" lon="-1.254727989435196">
        <ele>64.069999999999993</ele>
        <time>2023-08-16T09:16:57Z</time>
      </trkpt>
      <trkpt lat="53.642157996073365" lon="-1.254808958619833">
        <ele>64.069999999999993</ele>
        <time>2023-08-16T09:16:59Z</time>
      </trkpt>
      <trkpt lat="53.643169021233916" lon="-1.255332995206118">
        <ele>65.030000000000001</ele>
        <time>2023-08-16T09:17:13Z</time>
      </trkpt>
      <trkpt lat="53.644098993390799" lon="-1.255708001554012">
        <ele>65.030000000000001</ele>
        <time>2023-08-16T09:17:24Z</time>
      </trkpt>
      <trkpt lat="53.645310010761023" lon="-1.255871029570699">
        <ele>61.659999999999997</ele>
        <time>2023-08-16T09:17:36Z</time>
      </trkpt>
      <trkpt lat="53.646623035892844" lon="-1.255786037072539">
        <ele>56.859999999999999</ele>
        <time>2023-08-16T09:17:47Z</time>
      </trkpt>
      <trkpt lat="53.646749015897512" lon="-1.255768015980721">
        <ele>55.409999999999997</ele>
        <time>2023-08-16T09:17:48Z</time>
      </trkpt>
      <trkpt lat="53.648405028507113" lon="-1.255523012951016">
        <ele>47.240000000000002</ele>
        <time>2023-08-16T09:18:00Z</time>
      </trkpt>
      <trkpt lat="53.649840010330081" lon="-1.25531698577106">
        <ele>47.240000000000002</ele>
        <time>2023-08-16T09:18:10Z</time>
      </trkpt>
      <trkpt lat="53.651142977178097" lon="-1.255424022674561">
        <ele>51.57</ele>
        <time>2023-08-16T09:18:18Z</time>
      </trkpt>
      <trkpt lat="53.651310028508306" lon="-1.255468027666211">
        <ele>52.530000000000001</ele>
        <time>2023-08-16T09:18:19Z</time>
      </trkpt>
      <trkpt lat="53.651467021554708" lon="-1.255541034042835">
        <ele>53.009999999999998</ele>
        <time>2023-08-16T09:18:20Z</time>
      </trkpt>
      <trkpt lat="53.652729000896215" lon="-1.256366986781359">
        <ele>58.780000000000001</ele>
        <time>2023-08-16T09:18:28Z</time>
      </trkpt>
      <trkpt lat="53.653944041579962" lon="-1.257880004122853">
        <ele>63.579999999999998</ele>
        <time>2023-08-16T09:18:37Z</time>
      </trkpt>
      <trkpt lat="53.654059963300824" lon="-1.25808703713119">
        <ele>63.579999999999998</ele>
        <time>2023-08-16T09:18:38Z</time>
      </trkpt>
      <trkpt lat="53.654174963012338" lon="-1.258291974663734">
        <ele>63.579999999999998</ele>
        <time>2023-08-16T09:18:39Z</time>
      </trkpt>
      <trkpt lat="53.655554037541151" lon="-1.260750973597169">
        <ele>65.510000000000005</ele>
        <time>2023-08-16T09:18:51Z</time>
      </trkpt>
      <trkpt lat="53.65720896050334" lon="-1.26373702660203">
        <ele>63.579999999999998</ele>
        <time>2023-08-16T09:19:06Z</time>
      </trkpt>
      <trkpt lat="53.658579988405108" lon="-1.265596970915794">
        <ele>60.700000000000003</ele>
        <time>2023-08-16T09:19:16Z</time>
      </trkpt>
      <trkpt lat="53.65987197495997" lon="-1.266478998586536">
        <ele>58.780000000000001</ele>
        <time>2023-08-16T09:19:22Z</time>
      </trkpt>
      <trkpt lat="53.661655979231" lon="-1.266691982746124">
        <ele>56.369999999999997</ele>
        <time>2023-08-16T09:19:29Z</time>
      </trkpt>
      <trkpt lat="53.664991976693273" lon="-1.266198959201574">
        <ele>49.649999999999999</ele>
        <time>2023-08-16T09:19:42Z</time>
      </trkpt>
      <trkpt lat="53.666810011491179" lon="-1.265424974262714">
        <ele>47.240000000000002</ele>
        <time>2023-08-16T09:19:49Z</time>
      </trkpt>
      <trkpt lat="53.669177982956171" lon="-1.26315800473094">
        <ele>50.609999999999999</ele>
        <time>2023-08-16T09:19:59Z</time>
      </trkpt>
      <trkpt lat="53.671154016628861" lon="-1.261671977117658">
        <ele>47.240000000000002</ele>
        <time>2023-08-16T09:20:07Z</time>
      </trkpt>
      <trkpt lat="53.673027036711574" lon="-1.261294037103653">
        <ele>42.920000000000002</ele>
        <time>2023-08-16T09:20:14Z</time>
      </trkpt>
      <trkpt lat="53.677078010514379" lon="-1.261496962979436">
        <ele>50.130000000000003</ele>
        <time>2023-08-16T09:20:29Z</time>
      </trkpt>
      <trkpt lat="53.679790981113911" lon="-1.262053018435836">
        <ele>50.130000000000003</ele>
        <time>2023-08-16T09:20:39Z</time>
      </trkpt>
      <trkpt lat="53.681841026991606" lon="-1.263212990015745">
        <ele>45.799999999999997</ele>
        <time>2023-08-16T09:20:47Z</time>
      </trkpt>
      <trkpt lat="53.683914039283991" lon="-1.265361020341516">
        <ele>42.439999999999998</ele>
        <time>2023-08-16T09:20:56Z</time>
      </trkpt>
      <trkpt lat="53.686326015740633" lon="-1.26829301007092">
        <ele>43.399999999999999</ele>
        <time>2023-08-16T09:21:07Z</time>
      </trkpt>
      <trkpt lat="53.689311984926462" lon="-1.271488023921847">
        <ele>46.280000000000001</ele>
        <time>2023-08-16T09:21:20Z</time>
      </trkpt>
      <trkpt lat="53.692006012424827" lon="-1.273726997897029">
        <ele>42.920000000000002</ele>
        <time>2023-08-16T09:21:31Z</time>
      </trkpt>
      <trkpt lat="53.694602977484465" lon="-1.275055026635528">
        <ele>34.259999999999998</ele>
        <time>2023-08-16T09:21:42Z</time>
      </trkpt>
      <trkpt lat="53.697547037154436" lon="-1.275705965235829">
        <ele>24.649999999999999</ele>
        <time>2023-08-16T09:21:52Z</time>
      </trkpt>
      <trkpt lat="53.700204016640782" lon="-1.276054987683892">
        <ele>19.84</ele>
        <time>2023-08-16T09:22:02Z</time>
      </trkpt>
      <trkpt lat="53.70310097001493" lon="-1.277128960937262">
        <ele>27.050000000000001</ele>
        <time>2023-08-16T09:22:13Z</time>
      </trkpt>
      <trkpt lat="53.705874038860202" lon="-1.279042968526483">
        <ele>34.259999999999998</ele>
        <time>2023-08-16T09:22:24Z</time>
      </trkpt>
      <trkpt lat="53.708219965919852" lon="-1.281409012153745">
        <ele>37.149999999999999</ele>
        <time>2023-08-16T09:22:34Z</time>
      </trkpt>
      <trkpt lat="53.710593972355127" lon="-1.284518027678132">
        <ele>34.259999999999998</ele>
        <time>2023-08-16T09:22:46Z</time>
      </trkpt>
      <trkpt lat="53.713555969297886" lon="-1.287741037085652">
        <ele>29.460000000000001</ele>
        <time>2023-08-16T09:22:58Z</time>
      </trkpt>
      <trkpt lat="53.715593023225665" lon="-1.288993963971734">
        <ele>27.530000000000001</ele>
        <time>2023-08-16T09:23:06Z</time>
      </trkpt>
      <trkpt lat="53.717740969732404" lon="-1.289596036076546">
        <ele>28.5</ele>
        <time>2023-08-16T09:23:14Z</time>
      </trkpt>
      <trkpt lat="53.720713024958968" lon="-1.289578014984727">
        <ele>25.609999999999999</ele>
        <time>2023-08-16T09:23:25Z</time>
      </trkpt>
      <trkpt lat="53.724774979054928" lon="-1.289403000846505">
        <ele>20.809999999999999</ele>
        <time>2023-08-16T09:23:40Z</time>
      </trkpt>
      <trkpt lat="53.729645032435656" lon="-1.289085997268558">
        <ele>18.399999999999999</ele>
        <time>2023-08-16T09:23:58Z</time>
      </trkpt>
      <trkpt lat="53.732009986415505" lon="-1.288083018735051">
        <ele>21.289999999999999</ele>
        <time>2023-08-16T09:24:07Z</time>
      </trkpt>
      <trkpt lat="53.733960958197713" lon="-1.286462964490056">
        <ele>23.210000000000001</ele>
        <time>2023-08-16T09:24:15Z</time>
      </trkpt>
      <trkpt lat="53.735897010192275" lon="-1.283971024677157">
        <ele>24.170000000000002</ele>
        <time>2023-08-16T09:24:24Z</time>
      </trkpt>
      <trkpt lat="53.738387022167444" lon="-1.279734978452325">
        <ele>26.57</ele>
        <time>2023-08-16T09:24:37Z</time>
      </trkpt>
      <trkpt lat="53.739618994295597" lon="-1.277861958369613">
        <ele>28.5</ele>
        <time>2023-08-16T09:24:43Z</time>
      </trkpt>
      <trkpt lat="53.741650013253093" lon="-1.275619966909289">
        <ele>28.5</ele>
        <time>2023-08-16T09:24:52Z</time>
      </trkpt>
      <trkpt lat="53.743682960048318" lon="-1.274338038638234">
        <ele>23.690000000000001</ele>
        <time>2023-08-16T09:25:00Z</time>
      </trkpt>
      <trkpt lat="53.745795032009482" lon="-1.273694979026914">
        <ele>19.84</ele>
        <time>2023-08-16T09:25:08Z</time>
      </trkpt>
      <trkpt lat="53.748223017901182" lon="-1.273809978738427">
        <ele>20.32</ele>
        <time>2023-08-16T09:25:17Z</time>
      </trkpt>
      <trkpt lat="53.751402022317052" lon="-1.274868026375771">
        <ele>25.609999999999999</ele>
        <time>2023-08-16T09:25:29Z</time>
      </trkpt>
      <trkpt lat="53.754801973700523" lon="-1.276497971266508">
        <ele>36.189999999999998</ele>
        <time>2023-08-16T09:25:42Z</time>
      </trkpt>
      <trkpt lat="53.75760798342526" lon="-1.278256997466087">
        <ele>41.469999999999999</ele>
        <time>2023-08-16T09:25:53Z</time>
      </trkpt>
      <trkpt lat="53.759757019579411" lon="-1.279858024790883">
        <ele>42.920000000000002</ele>
        <time>2023-08-16T09:26:03Z</time>
      </trkpt>
      <trkpt lat="53.762740977108479" lon="-1.282219961285591">
        <ele>41.950000000000003</ele>
        <time>2023-08-16T09:26:17Z</time>
      </trkpt>
      <trkpt lat="53.76424603164196" lon="-1.283400971442461">
        <ele>41.469999999999999</ele>
        <time>2023-08-16T09:26:24Z</time>
      </trkpt>
      <trkpt lat="53.767656041309237" lon="-1.286100028082728">
        <ele>39.07</ele>
        <time>2023-08-16T09:26:40Z</time>
      </trkpt>
      <trkpt lat="53.771110977977514" lon="-1.288861026987433">
        <ele>36.189999999999998</ele>
        <time>2023-08-16T09:26:56Z</time>
      </trkpt>
      <trkpt lat="53.772959019988775" lon="-1.290733963251114">
        <ele>37.630000000000003</ele>
        <time>2023-08-16T09:27:05Z</time>
      </trkpt>
      <trkpt lat="53.774815024808049" lon="-1.293256999924779">
        <ele>39.549999999999997</ele>
        <time>2023-08-16T09:27:15Z</time>
      </trkpt>
      <trkpt lat="53.776713022962213" lon="-1.296856021508575">
        <ele>42.439999999999998</ele>
        <time>2023-08-16T09:27:27Z</time>
      </trkpt>
      <trkpt lat="53.778120009228587" lon="-1.300570964813232">
        <ele>44.359999999999999</ele>
        <time>2023-08-16T09:27:38Z</time>
      </trkpt>
      <trkpt lat="53.779160035774112" lon="-1.304597966372967">
        <ele>48.200000000000003</ele>
        <time>2023-08-16T09:27:49Z</time>
      </trkpt>
      <trkpt lat="53.779804017394781" lon="-1.308885980397463">
        <ele>58.299999999999997</ele>
        <time>2023-08-16T09:28:00Z</time>
      </trkpt>
      <trkpt lat="53.780363006517291" lon="-1.313234008848667">
        <ele>66.469999999999999</ele>
        <time>2023-08-16T09:28:11Z</time>
      </trkpt>
      <trkpt lat="53.781179990619421" lon="-1.316149989143014">
        <ele>68.870000000000005</ele>
        <time>2023-08-16T09:28:19Z</time>
      </trkpt>
      <trkpt lat="53.782392013818026" lon="-1.318649975582957">
        <ele>68.870000000000005</ele>
        <time>2023-08-16T09:28:27Z</time>
      </trkpt>
      <trkpt lat="53.783924980089068" lon="-1.320541016757488">
        <ele>67.909999999999997</ele>
        <time>2023-08-16T09:28:35Z</time>
      </trkpt>
      <trkpt lat="53.785899002104998" lon="-1.321872984990478">
        <ele>65.989999999999995</ele>
        <time>2023-08-16T09:28:44Z</time>
      </trkpt>
      <trkpt lat="53.788020964711905" lon="-1.322266012430191">
        <ele>63.579999999999998</ele>
        <time>2023-08-16T09:28:53Z</time>
      </trkpt>
      <trkpt lat="53.791366014629602" lon="-1.322304988279939">
        <ele>59.740000000000002</ele>
        <time>2023-08-16T09:29:07Z</time>
      </trkpt>
      <trkpt lat="53.793987035751343" lon="-1.322593996301293">
        <ele>54.450000000000003</ele>
        <time>2023-08-16T09:29:18Z</time>
      </trkpt>
      <trkpt lat="53.795783026143909" lon="-1.323566967621446">
        <ele>51.090000000000003</ele>
        <time>2023-08-16T09:29:26Z</time>
      </trkpt>
      <trkpt lat="53.797172997146845" lon="-1.325093982741237">
        <ele>50.609999999999999</ele>
        <time>2023-08-16T09:29:33Z</time>
      </trkpt>
      <trkpt lat="53.798396000638604" lon="-1.327559016644955">
        <ele>52.530000000000001</ele>
        <time>2023-08-16T09:29:41Z</time>
      </trkpt>
      <trkpt lat="53.799577010795474" lon="-1.331044966354966">
        <ele>55.409999999999997</ele>
        <time>2023-08-16T09:29:51Z</time>
      </trkpt>
      <trkpt lat="53.80077201873064" lon="-1.334029007703066">
        <ele>59.259999999999998</ele>
        <time>2023-08-16T09:30:00Z</time>
      </trkpt>
      <trkpt lat="53.802345972508192" lon="-1.33642103523016">
        <ele>64.069999999999993</ele>
        <time>2023-08-16T09:30:09Z</time>
      </trkpt>
      <trkpt lat="53.804761972278357" lon="-1.338951028883457">
        <ele>73.680000000000007</ele>
        <time>2023-08-16T09:30:21Z</time>
      </trkpt>
      <trkpt lat="53.806996000930667" lon="-1.340350974351168">
        <ele>80.409999999999997</ele>
        <time>2023-08-16T09:30:31Z</time>
      </trkpt>
      <trkpt lat="53.810006026178598" lon="-1.3416220061481">
        <ele>81.849999999999994</ele>
        <time>2023-08-16T09:30:44Z</time>
      </trkpt>
      <trkpt lat="53.812362011522055" lon="-1.342228017747402">
        <ele>79.930000000000007</ele>
        <time>2023-08-16T09:30:54Z</time>
      </trkpt>
      <trkpt lat="53.814520016312599" lon="-1.342141013592482">
        <ele>77.519999999999996</ele>
        <time>2023-08-16T09:31:03Z</time>
      </trkpt>
      <trkpt lat="53.816853035241365" lon="-1.341207018122077">
        <ele>71.760000000000005</ele>
        <time>2023-08-16T09:31:13Z</time>
      </trkpt>
      <trkpt lat="53.81944203749299" lon="-1.33994797244668">
        <ele>61.659999999999997</ele>
        <time>2023-08-16T09:31:25Z</time>
      </trkpt>
      <trkpt lat="53.822122989222407" lon="-1.339033003896475">
        <ele>52.049999999999997</ele>
        <time>2023-08-16T09:31:39Z</time>
      </trkpt>
      <trkpt lat="53.824594980105758" lon="-1.338618015870452">
        <ele>51.57</ele>
        <time>2023-08-16T09:31:52Z</time>
      </trkpt>
      <trkpt lat="53.826417038217187" lon="-1.338502010330558">
        <ele>51.57</ele>
        <time>2023-08-16T09:32:04Z</time>
      </trkpt>
      <trkpt lat="53.827914968132973" lon="-1.338397990912199">
        <ele>48.68</ele>
        <time>2023-08-16T09:32:15Z</time>
      </trkpt>
      <trkpt lat="53.829143000766635" lon="-1.338317021727562">
        <ele>46.280000000000001</ele>
        <time>2023-08-16T09:32:27Z</time>
      </trkpt>
      <trkpt lat="53.829437037929893" lon="-1.338315010070801">
        <ele>45.32</ele>
        <time>2023-08-16T09:32:34Z</time>
      </trkpt>
      <trkpt lat="53.829591013491154" lon="-1.338315010070801">
        <ele>45.32</ele>
        <time>2023-08-16T09:32:37Z</time>
      </trkpt>
      <trkpt lat="53.829698972404003" lon="-1.338315010070801">
        <ele>44.840000000000003</ele>
        <time>2023-08-16T09:32:39Z</time>
      </trkpt>
      <trkpt lat="53.829748006537557" lon="-1.338315010070801">
        <ele>44.359999999999999</ele>
        <time>2023-08-16T09:32:40Z</time>
      </trkpt>
      <trkpt lat="53.829963002353907" lon="-1.338315010070801">
        <ele>43.399999999999999</ele>
        <time>2023-08-16T09:32:44Z</time>
      </trkpt>
      <trkpt lat="53.830517968162894" lon="-1.338315010070801">
        <ele>41.469999999999999</ele>
        <time>2023-08-16T09:32:52Z</time>
      </trkpt>
      <trkpt lat="53.831781959161162" lon="-1.33837996982038">
        <ele>38.109999999999999</ele>
        <time>2023-08-16T09:33:03Z</time>
      </trkpt>
      <trkpt lat="53.833047961816192" lon="-1.338540986180306">
        <ele>35.710000000000001</ele>
        <time>2023-08-16T09:33:13Z</time>
      </trkpt>
      <trkpt lat="53.834733981639147" lon="-1.33887198753655">
        <ele>36.189999999999998</ele>
        <time>2023-08-16T09:33:24Z</time>
      </trkpt>
      <trkpt lat="53.836710015311837" lon="-1.339310025796294">
        <ele>42.920000000000002</ele>
        <time>2023-08-16T09:33:34Z</time>
      </trkpt>
      <trkpt lat="53.839023001492023" lon="-1.340112006291747">
        <ele>51.090000000000003</ele>
        <time>2023-08-16T09:33:45Z</time>
      </trkpt>
      <trkpt lat="53.841110011562705" lon="-1.341282036155462">
        <ele>58.299999999999997</ele>
        <time>2023-08-16T09:33:55Z</time>
      </trkpt>
      <trkpt lat="53.843492986634374" lon="-1.342563964426518">
        <ele>68.390000000000001</ele>
        <time>2023-08-16T09:34:06Z</time>
      </trkpt>
      <trkpt lat="53.84606203995645" lon="-1.343075009062886">
        <ele>75.120000000000005</ele>
        <time>2023-08-16T09:34:17Z</time>
      </trkpt>
      <trkpt lat="53.849270967766643" lon="-1.34351396933198">
        <ele>78</ele>
        <time>2023-08-16T09:34:30Z</time>
      </trkpt>
      <trkpt lat="53.851684033870697" lon="-1.344533963128924">
        <ele>76.560000000000002</ele>
        <time>2023-08-16T09:34:40Z</time>
      </trkpt>
      <trkpt lat="53.854510998353362" lon="-1.346178995445371">
        <ele>68.870000000000005</ele>
        <time>2023-08-16T09:34:52Z</time>
      </trkpt>
      <trkpt lat="53.856339007616043" lon="-1.346721975132823">
        <ele>65.989999999999995</ele>
        <time>2023-08-16T09:34:59Z</time>
      </trkpt>
      <trkpt lat="53.859034962952137" lon="-1.346705965697765">
        <ele>63.100000000000001</ele>
        <time>2023-08-16T09:35:09Z</time>
      </trkpt>
      <trkpt lat="53.862258978188038" lon="-1.346387034282088">
        <ele>59.740000000000002</ele>
        <time>2023-08-16T09:35:21Z</time>
      </trkpt>
      <trkpt lat="53.864381024613976" lon="-1.346949962899089">
        <ele>54.450000000000003</ele>
        <time>2023-08-16T09:35:29Z</time>
      </trkpt>
      <trkpt lat="53.865943998098373" lon="-1.347529990598559">
        <ele>48.200000000000003</ele>
        <time>2023-08-16T09:35:35Z</time>
      </trkpt>
      <trkpt lat="53.869574032723904" lon="-1.348727010190487">
        <ele>40.030000000000001</ele>
        <time>2023-08-16T09:35:49Z</time>
      </trkpt>
      <trkpt lat="53.872408038005233" lon="-1.350236004218459">
        <ele>42.439999999999998</ele>
        <time>2023-08-16T09:36:00Z</time>
      </trkpt>
      <trkpt lat="53.874563025310636" lon="-1.352239027619362">
        <ele>40.509999999999998</ele>
        <time>2023-08-16T09:36:09Z</time>
      </trkpt>
      <trkpt lat="53.877005008980632" lon="-1.355123994871974">
        <ele>31.859999999999999</ele>
        <time>2023-08-16T09:36:20Z</time>
      </trkpt>
      <trkpt lat="53.879151027649641" lon="-1.357806958258152">
        <ele>28.02</ele>
        <time>2023-08-16T09:36:30Z</time>
      </trkpt>
      <trkpt lat="53.88088901527226" lon="-1.359029039740562">
        <ele>29.940000000000001</ele>
        <time>2023-08-16T09:36:37Z</time>
      </trkpt>
      <trkpt lat="53.882753988727927" lon="-1.359508987516165">
        <ele>29.940000000000001</ele>
        <time>2023-08-16T09:36:44Z</time>
      </trkpt>
      <trkpt lat="53.884592978283763" lon="-1.360030006617308">
        <ele>26.57</ele>
        <time>2023-08-16T09:36:52Z</time>
      </trkpt>
      <trkpt lat="53.886243039742112" lon="-1.361262984573841">
        <ele>27.530000000000001</ele>
        <time>2023-08-16T09:36:59Z</time>
      </trkpt>
      <trkpt lat="53.889036979526281" lon="-1.363946031779051">
        <ele>39.549999999999997</ele>
        <time>2023-08-16T09:37:12Z</time>
      </trkpt>
      <trkpt lat="53.892006017267704" lon="-1.366505026817322">
        <ele>40.990000000000002</ele>
        <time>2023-08-16T09:37:25Z</time>
      </trkpt>
      <trkpt lat="53.89446803368628" lon="-1.368332030251622">
        <ele>40.030000000000001</ele>
        <time>2023-08-16T09:37:35Z</time>
      </trkpt>
      <trkpt lat="53.897063992917538" lon="-1.369999023154378">
        <ele>45.799999999999997</ele>
        <time>2023-08-16T09:37:46Z</time>
      </trkpt>
      <trkpt lat="53.899814011529088" lon="-1.371801970526576">
        <ele>51.57</ele>
        <time>2023-08-16T09:37:58Z</time>
      </trkpt>
      <trkpt lat="53.902766034007072" lon="-1.374147981405258">
        <ele>53.969999999999999</ele>
        <time>2023-08-16T09:38:11Z</time>
      </trkpt>
      <trkpt lat="53.904824964702129" lon="-1.37651402503252">
        <ele>53.490000000000002</ele>
        <time>2023-08-16T09:38:21Z</time>
      </trkpt>
      <trkpt lat="53.907318999990821" lon="-1.379695041105151">
        <ele>52.049999999999997</ele>
        <time>2023-08-16T09:38:33Z</time>
      </trkpt>
      <trkpt lat="53.909239964559674" lon="-1.382869016379118">
        <ele>49.159999999999997</ele>
        <time>2023-08-16T09:38:43Z</time>
      </trkpt>
      <trkpt lat="53.910766979679465" lon="-1.384791992604733">
        <ele>45.799999999999997</ele>
        <time>2023-08-16T09:38:50Z</time>
      </trkpt>
      <trkpt lat="53.912336993962526" lon="-1.385735962539911">
        <ele>41.469999999999999</ele>
        <time>2023-08-16T09:38:56Z</time>
      </trkpt>
      <trkpt lat="53.914229962974787" lon="-1.385826990008354">
        <ele>34.259999999999998</ele>
        <time>2023-08-16T09:39:03Z</time>
      </trkpt>
      <trkpt lat="53.917637960985303" lon="-1.385371014475822">
        <ele>27.050000000000001</ele>
        <time>2023-08-16T09:39:16Z</time>
      </trkpt>
      <trkpt lat="53.920228974893689" lon="-1.384605998173356">
        <ele>24.170000000000002</ele>
        <time>2023-08-16T09:39:26Z</time>
      </trkpt>
      <trkpt lat="53.922212971374393" lon="-1.383132040500641">
        <ele>20.809999999999999</ele>
        <time>2023-08-16T09:39:34Z</time>
      </trkpt>
      <trkpt lat="53.923385012894869" lon="-1.381494970992208">
        <ele>20.32</ele>
        <time>2023-08-16T09:39:40Z</time>
      </trkpt>
      <trkpt lat="53.924572980031371" lon="-1.378843020647764">
        <ele>20.809999999999999</ele>
        <time>2023-08-16T09:39:48Z</time>
      </trkpt>
      <trkpt lat="53.92609597183764" lon="-1.375789996236563">
        <ele>22.73</ele>
        <time>2023-08-16T09:39:58Z</time>
      </trkpt>
      <trkpt lat="53.927693981677294" lon="-1.374003980308771">
        <ele>25.129999999999999</ele>
        <time>2023-08-16T09:40:06Z</time>
      </trkpt>
      <trkpt lat="53.929438004270196" lon="-1.373093035072088">
        <ele>28.5</ele>
        <time>2023-08-16T09:40:14Z</time>
      </trkpt>
      <trkpt lat="53.931199964135885" lon="-1.373013993725181">
        <ele>28.5</ele>
        <time>2023-08-16T09:40:22Z</time>
      </trkpt>
      <trkpt lat="53.933126041665673" lon="-1.37367800809443">
        <ele>24.649999999999999</ele>
        <time>2023-08-16T09:40:31Z</time>
      </trkpt>
      <trkpt lat="53.935644971206784" lon="-1.374784000217915">
        <ele>23.210000000000001</ele>
        <time>2023-08-16T09:40:43Z</time>
      </trkpt>
      <trkpt lat="53.938658013939857" lon="-1.375779015943408">
        <ele>25.129999999999999</ele>
        <time>2023-08-16T09:40:57Z</time>
      </trkpt>
      <trkpt lat="53.941253973171115" lon="-1.375451032072306">
        <ele>23.690000000000001</ele>
        <time>2023-08-16T09:41:09Z</time>
      </trkpt>
      <trkpt lat="53.943252973258495" lon="-1.375170992687345">
        <ele>25.609999999999999</ele>
        <time>2023-08-16T09:41:19Z</time>
      </trkpt>
      <trkpt lat="53.943753959611058" lon="-1.375126987695694">
        <ele>28.98</ele>
        <time>2023-08-16T09:41:25Z</time>
      </trkpt>
      <trkpt lat="53.943817997351289" lon="-1.375121958553791">
        <ele>29.940000000000001</ele>
        <time>2023-08-16T09:41:33Z</time>
      </trkpt>
      <trkpt lat="53.943859990686178" lon="-1.375119024887681">
        <ele>30.420000000000002</ele>
        <time>2023-08-16T09:41:34Z</time>
      </trkpt>
      <trkpt lat="53.944084038957953" lon="-1.375198988243938">
        <ele>30.899999999999999</ele>
        <time>2023-08-16T09:41:37Z</time>
      </trkpt>
      <trkpt lat="53.944199960678816" lon="-1.375230001285672">
        <ele>30.899999999999999</ele>
        <time>2023-08-16T09:41:38Z</time>
      </trkpt>
      <trkpt lat="53.944287970662117" lon="-1.375165963545442">
        <ele>30.899999999999999</ele>
        <time>2023-08-16T09:41:39Z</time>
      </trkpt>
      <trkpt lat="53.944372963160276" lon="-1.375104021281004">
        <ele>30.420000000000002</ele>
        <time>2023-08-16T09:41:40Z</time>
      </trkpt>
      <trkpt lat="53.944457033649087" lon="-1.374968988820911">
        <ele>30.420000000000002</ele>
        <time>2023-08-16T09:41:41Z</time>
      </trkpt>
      <trkpt lat="53.944503972306848" lon="-1.374847032129765">
        <ele>30.420000000000002</ele>
        <time>2023-08-16T09:41:42Z</time>
      </trkpt>
      <trkpt lat="53.944548983126879" lon="-1.374731026589871">
        <ele>29.940000000000001</ele>
        <time>2023-08-16T09:41:43Z</time>
      </trkpt>
      <trkpt lat="53.944558035582304" lon="-1.374527011066675">
        <ele>29.940000000000001</ele>
        <time>2023-08-16T09:41:44Z</time>
      </trkpt>
      <trkpt lat="53.944548983126879" lon="-1.374372029677033">
        <ele>29.460000000000001</ele>
        <time>2023-08-16T09:41:45Z</time>
      </trkpt>
      <trkpt lat="53.944511013105512" lon="-1.374186035245657">
        <ele>29.460000000000001</ele>
        <time>2023-08-16T09:41:46Z</time>
      </trkpt>
      <trkpt lat="53.944458039477468" lon="-1.374012026935816">
        <ele>28.98</ele>
        <time>2023-08-16T09:41:47Z</time>
      </trkpt>
      <trkpt lat="53.94440003670752" lon="-1.373821003362536">
        <ele>28.5</ele>
        <time>2023-08-16T09:41:48Z</time>
      </trkpt>
      <trkpt lat="53.943900978192687" lon="-1.372530022636056">
        <ele>27.050000000000001</ele>
        <time>2023-08-16T09:41:57Z</time>
      </trkpt>
      <trkpt lat="53.943901984021068" lon="-1.372183011844754">
        <ele>26.57</ele>
        <time>2023-08-16T09:41:58Z</time>
      </trkpt>
      <trkpt lat="53.943911036476493" lon="-1.37204403989017">
        <ele>26.09</ele>
        <time>2023-08-16T09:41:59Z</time>
      </trkpt>
      <trkpt lat="53.943922016769648" lon="-1.371898027136922">
        <ele>25.609999999999999</ele>
        <time>2023-08-16T09:42:00Z</time>
      </trkpt>
      <trkpt lat="53.943963004276156" lon="-1.371747991070151">
        <ele>25.609999999999999</ele>
        <time>2023-08-16T09:42:01Z</time>
      </trkpt>
      <trkpt lat="53.944002985954285" lon="-1.371618993580341">
        <ele>24.649999999999999</ele>
        <time>2023-08-16T09:42:02Z</time>
      </trkpt>
      <trkpt lat="53.944070041179657" lon="-1.371506005525589">
        <ele>24.170000000000002</ele>
        <time>2023-08-16T09:42:03Z</time>
      </trkpt>
      <trkpt lat="53.944150004535913" lon="-1.371454959735274">
        <ele>23.690000000000001</ele>
        <time>2023-08-16T09:42:04Z</time>
      </trkpt>
      <trkpt lat="53.944233991205692" lon="-1.371399974450469">
        <ele>23.690000000000001</ele>
        <time>2023-08-16T09:42:05Z</time>
      </trkpt>
      <trkpt lat="53.944320995360613" lon="-1.371344989165664">
        <ele>23.210000000000001</ele>
        <time>2023-08-16T09:42:06Z</time>
      </trkpt>
      <trkpt lat="53.944406993687153" lon="-1.371327973902226">
        <ele>22.73</ele>
        <time>2023-08-16T09:42:07Z</time>
      </trkpt>
      <trkpt lat="53.944492992013693" lon="-1.371321016922593">
        <ele>22.25</ele>
        <time>2023-08-16T09:42:08Z</time>
      </trkpt>
      <trkpt lat="53.944584019482136" lon="-1.371351024135947">
        <ele>21.77</ele>
        <time>2023-08-16T09:42:09Z</time>
      </trkpt>
      <trkpt lat="53.944675968959928" lon="-1.371382037177682">
        <ele>21.289999999999999</ele>
        <time>2023-08-16T09:42:10Z</time>
      </trkpt>
      <trkpt lat="53.944768002256751" lon="-1.371412966400385">
        <ele>20.809999999999999</ele>
        <time>2023-08-16T09:42:11Z</time>
      </trkpt>
      <trkpt lat="53.94485198892653" lon="-1.371440039947629">
        <ele>19.84</ele>
        <time>2023-08-16T09:42:12Z</time>
      </trkpt>
      <trkpt lat="53.945354986935854" lon="-1.371542969718576">
        <ele>17.440000000000001</ele>
        <time>2023-08-16T09:42:18Z</time>
      </trkpt>
      <trkpt lat="53.945461018010974" lon="-1.371555039659143">
        <ele>16.960000000000001</ele>
        <time>2023-08-16T09:42:19Z</time>
      </trkpt>
      <trkpt lat="53.945569982752204" lon="-1.371567025780678">
        <ele>16.48</ele>
        <time>2023-08-16T09:42:20Z</time>
      </trkpt>
      <trkpt lat="53.945687999948859" lon="-1.371556967496872">
        <ele>16.48</ele>
        <time>2023-08-16T09:42:21Z</time>
      </trkpt>
      <trkpt lat="53.945800988003612" lon="-1.371516985818744">
        <ele>16</ele>
        <time>2023-08-16T09:42:22Z</time>
      </trkpt>
      <trkpt lat="53.945913976058364" lon="-1.371477004140616">
        <ele>16</ele>
        <time>2023-08-16T09:42:23Z</time>
      </trkpt>
      <trkpt lat="53.946026964113116" lon="-1.371384970843792">
        <ele>16</ele>
        <time>2023-08-16T09:42:24Z</time>
      </trkpt>
      <trkpt lat="53.946115979924798" lon="-1.371299978345633">
        <ele>16</ele>
        <time>2023-08-16T09:42:26Z</time>
      </trkpt>
      <trkpt lat="53.946265010163188" lon="-1.371160000562668">
        <ele>16</ele>
        <time>2023-08-16T09:42:27Z</time>
      </trkpt>
      <trkpt lat="53.946265010163188" lon="-1.371160000562668">
        <ele>16</ele>
        <time>2023-08-16T09:42:28Z</time>
      </trkpt>
      <trkpt lat="53.946368023753166" lon="-1.370998984202743">
        <ele>16</ele>
        <time>2023-08-16T09:42:29Z</time>
      </trkpt>
      <trkpt lat="53.946388978511095" lon="-1.370918015018106">
        <ele>16</ele>
        <time>2023-08-16T09:42:30Z</time>
      </trkpt>
      <trkpt lat="53.946405993774533" lon="-1.370778037235141">
        <ele>15.52</ele>
        <time>2023-08-16T09:42:31Z</time>
      </trkpt>
      <trkpt lat="53.946393001824617" lon="-1.370679968968034">
        <ele>15.039999999999999</ele>
        <time>2023-08-16T09:42:32Z</time>
      </trkpt>
      <trkpt lat="53.946379004046321" lon="-1.370571004226804">
        <ele>15.039999999999999</ele>
        <time>2023-08-16T09:42:33Z</time>
      </trkpt>
      <trkpt lat="53.946350002661347" lon="-1.370448963716626">
        <ele>15.039999999999999</ele>
        <time>2023-08-16T09:42:34Z</time>
      </trkpt>
      <trkpt lat="53.94631496630609" lon="-1.370357014238834">
        <ele>14.56</ele>
        <time>2023-08-16T09:42:35Z</time>
      </trkpt>
      <trkpt lat="53.946282025426626" lon="-1.370267998427153">
        <ele>14.56</ele>
        <time>2023-08-16T09:42:36Z</time>
      </trkpt>
      <trkpt lat="53.946091001853347" lon="-1.369755025953054">
        <ele>14.08</ele>
        <time>2023-08-16T09:42:45Z</time>
      </trkpt>
      <trkpt lat="53.945851027965546" lon="-1.369111966341734">
        <ele>14.08</ele>
        <time>2023-08-16T09:42:53Z</time>
      </trkpt>
      <trkpt lat="53.945833006873727" lon="-1.369064021855593">
        <ele>13.6</ele>
        <time>2023-08-16T09:42:54Z</time>
      </trkpt>
      <trkpt lat="53.94575203768909" lon="-1.36903703212738">
        <ele>13.6</ele>
        <time>2023-08-16T09:42:55Z</time>
      </trkpt>
      <trkpt lat="53.945684982463717" lon="-1.369014987722039">
        <ele>13.119999999999999</ele>
        <time>2023-08-16T09:42:57Z</time>
      </trkpt>
      <trkpt lat="53.945575011894107" lon="-1.369062010198832">
        <ele>13.119999999999999</ele>
        <time>2023-08-16T09:42:58Z</time>
      </trkpt>
      <trkpt lat="53.945504017174244" lon="-1.369128981605172">
        <ele>12.630000000000001</ele>
        <time>2023-08-16T09:42:59Z</time>
      </trkpt>
      <trkpt lat="53.945427993312478" lon="-1.369201987981796">
        <ele>12.630000000000001</ele>
        <time>2023-08-16T09:43:00Z</time>
      </trkpt>
      <trkpt lat="53.945149965584278" lon="-1.369473980739713">
        <ele>11.67</ele>
        <time>2023-08-16T09:43:04Z</time>
      </trkpt>
      <trkpt lat="53.945101015269756" lon="-1.369538018479943">
        <ele>11.67</ele>
        <time>2023-08-16T09:43:05Z</time>
      </trkpt>
      <trkpt lat="53.945133034139872" lon="-1.369676990434527">
        <ele>11.67</ele>
        <time>2023-08-16T09:43:06Z</time>
      </trkpt>
      <trkpt lat="53.945126999169588" lon="-1.369743961840868">
        <ele>11.67</ele>
        <time>2023-08-16T09:43:07Z</time>
      </trkpt>
      <trkpt lat="53.945137979462743" lon="-1.369838006794453">
        <ele>11.19</ele>
        <time>2023-08-16T09:43:08Z</time>
      </trkpt>
      <trkpt lat="53.945149965584278" lon="-1.369930962100625">
        <ele>11.19</ele>
        <time>2023-08-16T09:43:09Z</time>
      </trkpt>
      <trkpt lat="53.945160023868084" lon="-1.370011009275913">
        <ele>11.19</ele>
        <time>2023-08-16T09:43:10Z</time>
      </trkpt>
      <trkpt lat="53.945134961977601" lon="-1.370117962360382">
        <ele>11.19</ele>
        <time>2023-08-16T09:43:11Z</time>
      </trkpt>
      <trkpt lat="53.94511098973453" lon="-1.370150987058878">
        <ele>11.19</ele>
        <time>2023-08-16T09:43:12Z</time>
      </trkpt>
      <trkpt lat="53.945091040804982" lon="-1.370178982615471">
        <ele>11.19</ele>
        <time>2023-08-16T09:43:13Z</time>
      </trkpt>
      <trkpt lat="53.945074025541544" lon="-1.370203960686922">
        <ele>11.19</ele>
        <time>2023-08-16T09:43:14Z</time>
      </trkpt>
      <trkpt lat="53.945060027763247" lon="-1.370222987607122">
        <ele>11.19</ele>
        <time>2023-08-16T09:43:15Z</time>
      </trkpt>
      <trkpt lat="53.945060027763247" lon="-1.370222987607122">
        <ele>11.19</ele>
        <time>2023-08-16T09:43:16Z</time>
      </trkpt>
      <trkpt lat="53.945060027763247" lon="-1.370222987607122">
        <ele>11.19</ele>
        <time>2023-08-16T09:43:17Z</time>
      </trkpt>
      <trkpt lat="53.945060027763247" lon="-1.370222987607122">
        <ele>11.19</ele>
        <time>2023-08-16T09:43:18Z</time>
      </trkpt>
      <trkpt lat="53.945060027763247" lon="-1.370222987607122">
        <ele>10.710000000000001</ele>
        <time>2023-08-16T09:43:26Z</time>
      </trkpt>
      <trkpt lat="53.945060027763247" lon="-1.370222987607122">
        <ele>11.19</ele>
        <time>2023-08-16T09:44:10Z</time>
      </trkpt>
      <trkpt lat="53.944696001708508" lon="-1.370479976758361">
        <ele>12.15</ele>
        <time>2023-08-16T09:44:17Z</time>
      </trkpt>
      <trkpt lat="53.944696001708508" lon="-1.370479976758361">
        <ele>12.15</ele>
        <time>2023-08-16T09:44:18Z</time>
      </trkpt>
      <trkpt lat="53.944438006728888" lon="-1.370416022837162">
        <ele>12.630000000000001</ele>
        <time>2023-08-16T09:44:19Z</time>
      </trkpt>
      <trkpt lat="53.944438006728888" lon="-1.370416022837162">
        <ele>12.630000000000001</ele>
        <time>2023-08-16T09:44:21Z</time>
      </trkpt>
      <trkpt lat="53.944414034485817" lon="-1.370462961494923">
        <ele>13.119999999999999</ele>
        <time>2023-08-16T09:44:26Z</time>
      </trkpt>
      <trkpt lat="53.944374974817038" lon="-1.37054200284183">
        <ele>12.630000000000001</ele>
        <time>2023-08-16T09:44:27Z</time>
      </trkpt>
      <trkpt lat="53.944328036159277" lon="-1.370634958148003">
        <ele>12.630000000000001</ele>
        <time>2023-08-16T09:44:28Z</time>
      </trkpt>
      <trkpt lat="53.944015977904201" lon="-1.371579011902213">
        <ele>14.56</ele>
        <time>2023-08-16T09:44:36Z</time>
      </trkpt>
      <trkpt lat="53.943891003727913" lon="-1.372340004891157">
        <ele>16.48</ele>
        <time>2023-08-16T09:44:44Z</time>
      </trkpt>
      <trkpt lat="53.943886980414391" lon="-1.372392978519201">
        <ele>16.48</ele>
        <time>2023-08-16T09:44:45Z</time>
      </trkpt>
      <trkpt lat="53.943686988204718" lon="-1.37241099961102">
        <ele>16.960000000000001</ele>
        <time>2023-08-16T09:44:46Z</time>
      </trkpt>
      <trkpt lat="53.943686988204718" lon="-1.37241099961102">
        <ele>16.960000000000001</ele>
        <time>2023-08-16T09:44:47Z</time>
      </trkpt>
      <trkpt lat="53.943607024848461" lon="-1.372457016259432">
        <ele>16.960000000000001</ele>
        <time>2023-08-16T09:44:48Z</time>
      </trkpt>
      <trkpt lat="53.943511974066496" lon="-1.372541002929211">
        <ele>17.440000000000001</ele>
        <time>2023-08-16T09:44:49Z</time>
      </trkpt>
      <trkpt lat="53.943450031802058" lon="-1.372652985155582">
        <ele>17.440000000000001</ele>
        <time>2023-08-16T09:44:50Z</time>
      </trkpt>
      <trkpt lat="53.943416001275182" lon="-1.372826993465424">
        <ele>17.440000000000001</ele>
        <time>2023-08-16T09:44:51Z</time>
      </trkpt>
      <trkpt lat="53.943399991840124" lon="-1.372989015653729">
        <ele>17.440000000000001</ele>
        <time>2023-08-16T09:44:52Z</time>
      </trkpt>
      <trkpt lat="53.943397980183363" lon="-1.373182972893119">
        <ele>17.440000000000001</ele>
        <time>2023-08-16T09:44:53Z</time>
      </trkpt>
      <trkpt lat="53.943431004881859" lon="-1.373363016173244">
        <ele>17.440000000000001</ele>
        <time>2023-08-16T09:44:55Z</time>
      </trkpt>
      <trkpt lat="53.94384297542274" lon="-1.374987009912729">
        <ele>19.84</ele>
        <time>2023-08-16T09:45:03Z</time>
      </trkpt>
      <trkpt lat="53.943901984021068" lon="-1.375115001574159">
        <ele>19.84</ele>
        <time>2023-08-16T09:45:04Z</time>
      </trkpt>
      <trkpt lat="53.944002985954285" lon="-1.37516101822257">
        <ele>20.32</ele>
        <time>2023-08-16T09:45:05Z</time>
      </trkpt>
      <trkpt lat="53.944086972624063" lon="-1.375200999900699">
        <ele>20.809999999999999</ele>
        <time>2023-08-16T09:45:06Z</time>
      </trkpt>
      <trkpt lat="53.944181017577648" lon="-1.375243999063969">
        <ele>21.289999999999999</ele>
        <time>2023-08-16T09:45:07Z</time>
      </trkpt>
      <trkpt lat="53.944247988983989" lon="-1.375193959102035">
        <ele>21.77</ele>
        <time>2023-08-16T09:45:08Z</time>
      </trkpt>
      <trkpt lat="53.944328958168626" lon="-1.375136040151119">
        <ele>22.25</ele>
        <time>2023-08-16T09:45:09Z</time>
      </trkpt>
      <trkpt lat="53.944419985637069" lon="-1.375064039602876">
        <ele>23.210000000000001</ele>
        <time>2023-08-16T09:45:10Z</time>
      </trkpt>
      <trkpt lat="53.944471031427383" lon="-1.374932024627924">
        <ele>23.690000000000001</ele>
        <time>2023-08-16T09:45:11Z</time>
      </trkpt>
      <trkpt lat="53.944526016712189" lon="-1.374791041016579">
        <ele>24.170000000000002</ele>
        <time>2023-08-16T09:45:12Z</time>
      </trkpt>
      <trkpt lat="53.944587958976626" lon="-1.374642010778189">
        <ele>24.170000000000002</ele>
        <time>2023-08-16T09:45:13Z</time>
      </trkpt>
      <trkpt lat="53.944661971181631" lon="-1.374489041045308">
        <ele>24.649999999999999</ele>
        <time>2023-08-16T09:45:14Z</time>
      </trkpt>
      <trkpt lat="53.944741012528539" lon="-1.374324001371861">
        <ele>24.649999999999999</ele>
        <time>2023-08-16T09:45:15Z</time>
      </trkpt>
      <trkpt lat="53.944827010855079" lon="-1.374145969748497">
        <ele>25.129999999999999</ele>
        <time>2023-08-16T09:45:16Z</time>
      </trkpt>
      <trkpt lat="53.944945028051734" lon="-1.373990988358855">
        <ele>25.129999999999999</ele>
        <time>2023-08-16T09:45:17Z</time>
      </trkpt>
      <trkpt lat="53.94599100574851" lon="-1.372706964612007">
        <ele>21.289999999999999</ele>
        <time>2023-08-16T09:45:24Z</time>
      </trkpt>
      <trkpt lat="53.947881041094661" lon="-1.370922960340977">
        <ele>17.920000000000002</ele>
        <time>2023-08-16T09:45:34Z</time>
      </trkpt>
      <trkpt lat="53.949134973809123" lon="-1.370120979845524">
        <ele>19.359999999999999</ele>
        <time>2023-08-16T09:45:41Z</time>
      </trkpt>
      <trkpt lat="53.950968012213707" lon="-1.369281029328704">
        <ele>20.809999999999999</ele>
        <time>2023-08-16T09:45:51Z</time>
      </trkpt>
      <trkpt lat="53.952785041183233" lon="-1.368967965245247">
        <ele>21.289999999999999</ele>
        <time>2023-08-16T09:45:59Z</time>
      </trkpt>
      <trkpt lat="53.954838020727038" lon="-1.369124036282301">
        <ele>22.25</ele>
        <time>2023-08-16T09:46:08Z</time>
      </trkpt>
      <trkpt lat="53.956648008897901" lon="-1.369716972112656">
        <ele>22.73</ele>
        <time>2023-08-16T09:46:16Z</time>
      </trkpt>
      <trkpt lat="53.959244973957539" lon="-1.370548959821463">
        <ele>21.77</ele>
        <time>2023-08-16T09:46:26Z</time>
      </trkpt>
      <trkpt lat="53.962452979758382" lon="-1.37095196172595">
        <ele>19.359999999999999</ele>
        <time>2023-08-16T09:46:38Z</time>
      </trkpt>
      <trkpt lat="53.965944964438677" lon="-1.370636969804764">
        <ele>20.809999999999999</ele>
        <time>2023-08-16T09:46:51Z</time>
      </trkpt>
      <trkpt lat="53.969389004632831" lon="-1.369529971852899">
        <ele>21.77</ele>
        <time>2023-08-16T09:47:04Z</time>
      </trkpt>
      <trkpt lat="53.971955962479115" lon="-1.368130026385188">
        <ele>22.73</ele>
        <time>2023-08-16T09:47:14Z</time>
      </trkpt>
      <trkpt lat="53.975165979936719" lon="-1.365718971937895">
        <ele>24.170000000000002</ele>
        <time>2023-08-16T09:47:27Z</time>
      </trkpt>
      <trkpt lat="53.977648029103875" lon="-1.363963969051838">
        <ele>22.73</ele>
        <time>2023-08-16T09:47:37Z</time>
      </trkpt>
      <trkpt lat="53.979755993932486" lon="-1.363362986594439">
        <ele>22.25</ele>
        <time>2023-08-16T09:47:45Z</time>
      </trkpt>
      <trkpt lat="53.983781989663839" lon="-1.36299803853035">
        <ele>22.73</ele>
        <time>2023-08-16T09:48:00Z</time>
      </trkpt>
      <trkpt lat="53.987546972930431" lon="-1.363089988008142">
        <ele>24.170000000000002</ele>
        <time>2023-08-16T09:48:14Z</time>
      </trkpt>
      <trkpt lat="53.99076696485281" lon="-1.363498019054532">
        <ele>25.609999999999999</ele>
        <time>2023-08-16T09:48:26Z</time>
      </trkpt>
      <trkpt lat="53.993464009836316" lon="-1.364189023151994">
        <ele>30.899999999999999</ele>
        <time>2023-08-16T09:48:36Z</time>
      </trkpt>
      <trkpt lat="53.996606972068548" lon="-1.365457037463784">
        <ele>34.259999999999998</ele>
        <time>2023-08-16T09:48:48Z</time>
      </trkpt>
      <trkpt lat="53.999903993681073" lon="-1.367491995915771">
        <ele>38.109999999999999</ele>
        <time>2023-08-16T09:49:01Z</time>
      </trkpt>
      <trkpt lat="54.002198036760092" lon="-1.369949989020824">
        <ele>38.590000000000003</ele>
        <time>2023-08-16T09:49:11Z</time>
      </trkpt>
      <trkpt lat="54.004433993250132" lon="-1.37311901897192">
        <ele>33.780000000000001</ele>
        <time>2023-08-16T09:49:22Z</time>
      </trkpt>
      <trkpt lat="54.006348000839353" lon="-1.375412978231907">
        <ele>29.460000000000001</ele>
        <time>2023-08-16T09:49:32Z</time>
      </trkpt>
      <trkpt lat="54.008608013391495" lon="-1.377327991649509">
        <ele>29.940000000000001</ele>
        <time>2023-08-16T09:49:42Z</time>
      </trkpt>
      <trkpt lat="54.009084021672606" lon="-1.377668967470527">
        <ele>30.420000000000002</ele>
        <time>2023-08-16T09:49:44Z</time>
      </trkpt>
      <trkpt lat="54.009332964196801" lon="-1.377819003537297">
        <ele>30.420000000000002</ele>
        <time>2023-08-16T09:49:45Z</time>
      </trkpt>
      <trkpt lat="54.011065000668168" lon="-1.378745036199689">
        <ele>32.82</ele>
        <time>2023-08-16T09:49:52Z</time>
      </trkpt>
      <trkpt lat="54.012924022972584" lon="-1.379493959248066">
        <ele>35.710000000000001</ele>
        <time>2023-08-16T09:50:00Z</time>
      </trkpt>
      <trkpt lat="54.015864981338382" lon="-1.38057597912848">
        <ele>39.07</ele>
        <time>2023-08-16T09:50:12Z</time>
      </trkpt>
      <trkpt lat="54.019661983475089" lon="-1.381975002586842">
        <ele>43.399999999999999</ele>
        <time>2023-08-16T09:50:27Z</time>
      </trkpt>
      <trkpt lat="54.022989012300968" lon="-1.383201023563743">
        <ele>46.280000000000001</ele>
        <time>2023-08-16T09:50:40Z</time>
      </trkpt>
      <trkpt lat="54.026373038068414" lon="-1.384173994883895">
        <ele>50.130000000000003</ele>
        <time>2023-08-16T09:50:53Z</time>
      </trkpt>
      <trkpt lat="54.029538966715336" lon="-1.384803978726268">
        <ele>46.280000000000001</ele>
        <time>2023-08-16T09:51:05Z</time>
      </trkpt>
      <trkpt lat="54.033045032992959" lon="-1.385120982304215">
        <ele>44.840000000000003</ele>
        <time>2023-08-16T09:51:18Z</time>
      </trkpt>
      <trkpt lat="54.036617986857891" lon="-1.385102961212397">
        <ele>57.340000000000003</ele>
        <time>2023-08-16T09:51:31Z</time>
      </trkpt>
      <trkpt lat="54.039298016577959" lon="-1.38528099283576">
        <ele>59.740000000000002</ele>
        <time>2023-08-16T09:51:41Z</time>
      </trkpt>
      <trkpt lat="54.042219026014209" lon="-1.385991023853421">
        <ele>58.780000000000001</ele>
        <time>2023-08-16T09:51:52Z</time>
      </trkpt>
      <trkpt lat="54.045636998489499" lon="-1.387389963492751">
        <ele>56.859999999999999</ele>
        <time>2023-08-16T09:52:05Z</time>
      </trkpt>
      <trkpt lat="54.048535041511059" lon="-1.388352960348129">
        <ele>54.93</ele>
        <time>2023-08-16T09:52:16Z</time>
      </trkpt>
      <trkpt lat="54.050883986055851" lon="-1.388689996674657">
        <ele>47.240000000000002</ele>
        <time>2023-08-16T09:52:25Z</time>
      </trkpt>
      <trkpt lat="54.05382301658392" lon="-1.389041030779481">
        <ele>38.590000000000003</ele>
        <time>2023-08-16T09:52:36Z</time>
      </trkpt>
      <trkpt lat="54.056934965774417" lon="-1.389595996588469">
        <ele>39.549999999999997</ele>
        <time>2023-08-16T09:52:48Z</time>
      </trkpt>
      <trkpt lat="54.060200974345207" lon="-1.390297980979085">
        <ele>37.149999999999999</ele>
        <time>2023-08-16T09:53:02Z</time>
      </trkpt>
      <trkpt lat="54.063357012346387" lon="-1.391007006168366">
        <ele>37.630000000000003</ele>
        <time>2023-08-16T09:53:16Z</time>
      </trkpt>
      <trkpt lat="54.065910978242755" lon="-1.391582004725933">
        <ele>37.149999999999999</ele>
        <time>2023-08-16T09:53:27Z</time>
      </trkpt>
      <trkpt lat="54.068846991285682" lon="-1.392245013266802">
        <ele>32.340000000000003</ele>
        <time>2023-08-16T09:53:40Z</time>
      </trkpt>
      <trkpt lat="54.071439011022449" lon="-1.392834009602666">
        <ele>27.050000000000001</ele>
        <time>2023-08-16T09:53:52Z</time>
      </trkpt>
      <trkpt lat="54.07457803376019" lon="-1.393841011449695">
        <ele>27.530000000000001</ele>
        <time>2023-08-16T09:54:06Z</time>
      </trkpt>
      <trkpt lat="54.077152032405138" lon="-1.394973993301392">
        <ele>21.77</ele>
        <time>2023-08-16T09:54:18Z</time>
      </trkpt>
      <trkpt lat="54.079377008602023" lon="-1.396425990387797">
        <ele>15.039999999999999</ele>
        <time>2023-08-16T09:54:29Z</time>
      </trkpt>
      <trkpt lat="54.080581991001964" lon="-1.397595014423132">
        <ele>13.6</ele>
        <time>2023-08-16T09:54:37Z</time>
      </trkpt>
      <trkpt lat="54.081133017316461" lon="-1.398250982165337">
        <ele>14.56</ele>
        <time>2023-08-16T09:54:43Z</time>
      </trkpt>
      <trkpt lat="54.081311970949173" lon="-1.398479975759983">
        <ele>15.52</ele>
        <time>2023-08-16T09:54:49Z</time>
      </trkpt>
      <trkpt lat="54.081394029781222" lon="-1.398748029023409">
        <ele>16</ele>
        <time>2023-08-16T09:54:51Z</time>
      </trkpt>
      <trkpt lat="54.081401992589235" lon="-1.398868979886174">
        <ele>16.48</ele>
        <time>2023-08-16T09:54:52Z</time>
      </trkpt>
      <trkpt lat="54.08145597204566" lon="-1.398904016241431">
        <ele>16.960000000000001</ele>
        <time>2023-08-16T09:54:53Z</time>
      </trkpt>
      <trkpt lat="54.081515986472368" lon="-1.39894399791956">
        <ele>17.440000000000001</ele>
        <time>2023-08-16T09:54:54Z</time>
      </trkpt>
      <trkpt lat="54.081613970920444" lon="-1.398982973769307">
        <ele>17.440000000000001</ele>
        <time>2023-08-16T09:54:55Z</time>
      </trkpt>
      <trkpt lat="54.081677002832294" lon="-1.398936035111547">
        <ele>17.440000000000001</ele>
        <time>2023-08-16T09:54:56Z</time>
      </trkpt>
      <trkpt lat="54.081716984510422" lon="-1.39875297434628">
        <ele>17.920000000000002</ele>
        <time>2023-08-16T09:54:57Z</time>
      </trkpt>
      <trkpt lat="54.081740034744143" lon="-1.398637974634767">
        <ele>17.920000000000002</ele>
        <time>2023-08-16T09:54:58Z</time>
      </trkpt>
      <trkpt lat="54.081745985895395" lon="-1.398503025993705">
        <ele>18.399999999999999</ele>
        <time>2023-08-16T09:54:59Z</time>
      </trkpt>
      <trkpt lat="54.081745985895395" lon="-1.398353995755315">
        <ele>17.920000000000002</ele>
        <time>2023-08-16T09:55:00Z</time>
      </trkpt>
      <trkpt lat="54.081745985895395" lon="-1.398138999938965">
        <ele>18.399999999999999</ele>
        <time>2023-08-16T09:55:01Z</time>
      </trkpt>
      <trkpt lat="54.081771969795227" lon="-1.397987036034465">
        <ele>18.399999999999999</ele>
        <time>2023-08-16T09:55:02Z</time>
      </trkpt>
      <trkpt lat="54.081803988665342" lon="-1.397803975269198">
        <ele>18.879999999999999</ele>
        <time>2023-08-16T09:55:03Z</time>
      </trkpt>
      <trkpt lat="54.082172960042953" lon="-1.396343009546399">
        <ele>21.289999999999999</ele>
        <time>2023-08-16T09:55:12Z</time>
      </trkpt>
      <trkpt lat="54.082203973084688" lon="-1.396235972642899">
        <ele>21.289999999999999</ele>
        <time>2023-08-16T09:55:13Z</time>
      </trkpt>
      <trkpt lat="54.082228029146791" lon="-1.396149974316359">
        <ele>21.289999999999999</ele>
        <time>2023-08-16T09:55:14Z</time>
      </trkpt>
      <trkpt lat="54.082346968352795" lon="-1.396078979596496">
        <ele>21.77</ele>
        <time>2023-08-16T09:55:15Z</time>
      </trkpt>
      <trkpt lat="54.082346968352795" lon="-1.396078979596496">
        <ele>21.77</ele>
        <time>2023-08-16T09:55:16Z</time>
      </trkpt>
      <trkpt lat="54.082365995272994" lon="-1.396078979596496">
        <ele>21.77</ele>
        <time>2023-08-16T09:55:17Z</time>
      </trkpt>
      <trkpt lat="54.082411006093025" lon="-1.396078979596496">
        <ele>22.25</ele>
        <time>2023-08-16T09:55:18Z</time>
      </trkpt>
      <trkpt lat="54.082489041611552" lon="-1.396059030666947">
        <ele>22.25</ele>
        <time>2023-08-16T09:55:19Z</time>
      </trkpt>
      <trkpt lat="54.082534974440932" lon="-1.395989963784814">
        <ele>22.25</ele>
        <time>2023-08-16T09:55:20Z</time>
      </trkpt>
      <trkpt lat="54.082581996917725" lon="-1.395898014307022">
        <ele>22.25</ele>
        <time>2023-08-16T09:55:21Z</time>
      </trkpt>
      <trkpt lat="54.082604041323066" lon="-1.395843029022217">
        <ele>22.73</ele>
        <time>2023-08-16T09:55:22Z</time>
      </trkpt>
      <trkpt lat="54.082661038264632" lon="-1.395778991281986">
        <ele>22.73</ele>
        <time>2023-08-16T09:55:23Z</time>
      </trkpt>
      <trkpt lat="54.082713006064296" lon="-1.395718976855278">
        <ele>22.73</ele>
        <time>2023-08-16T09:55:24Z</time>
      </trkpt>
      <trkpt lat="54.082770003005862" lon="-1.395655022934079">
        <ele>22.73</ele>
        <time>2023-08-16T09:55:25Z</time>
      </trkpt>
      <trkpt lat="54.082948034629226" lon="-1.395473973825574">
        <ele>22.73</ele>
        <time>2023-08-16T09:55:28Z</time>
      </trkpt>
      <trkpt lat="54.083105027675629" lon="-1.395440027117729">
        <ele>23.210000000000001</ele>
        <time>2023-08-16T09:55:30Z</time>
      </trkpt>
      <trkpt lat="54.083188008517027" lon="-1.39542200602591">
        <ele>23.690000000000001</ele>
        <time>2023-08-16T09:55:31Z</time>
      </trkpt>
      <trkpt lat="54.08326000906527" lon="-1.395418988540769">
        <ele>23.690000000000001</ele>
        <time>2023-08-16T09:55:32Z</time>
      </trkpt>
      <trkpt lat="54.08420599065721" lon="-1.395660974085331">
        <ele>23.690000000000001</ele>
        <time>2023-08-16T09:55:42Z</time>
      </trkpt>
      <trkpt lat="54.085548017174006" lon="-1.396113010123372">
        <ele>19.359999999999999</ele>
        <time>2023-08-16T09:55:54Z</time>
      </trkpt>
      <trkpt lat="54.086016984656453" lon="-1.396265979856253">
        <ele>18.399999999999999</ele>
        <time>2023-08-16T09:56:00Z</time>
      </trkpt>
      <trkpt lat="54.086118992418051" lon="-1.396300010383129">
        <ele>16.48</ele>
        <time>2023-08-16T09:56:08Z</time>
      </trkpt>
      <trkpt lat="54.086118992418051" lon="-1.396300010383129">
        <ele>16.48</ele>
        <time>2023-08-16T09:56:54Z</time>
      </trkpt>
      <trkpt lat="54.086118992418051" lon="-1.396300010383129">
        <ele>16.48</ele>
        <time>2023-08-16T09:57:36Z</time>
      </trkpt>
      <trkpt lat="54.08613701350987" lon="-1.396305961534381">
        <ele>16.48</ele>
        <time>2023-08-16T09:58:20Z</time>
      </trkpt>
      <trkpt lat="54.086166014894843" lon="-1.396315013989806">
        <ele>16.48</ele>
        <time>2023-08-16T09:58:21Z</time>
      </trkpt>
      <trkpt lat="54.086198033764958" lon="-1.396325994282961">
        <ele>16.48</ele>
        <time>2023-08-16T09:58:22Z</time>
      </trkpt>
      <trkpt lat="54.086254024878144" lon="-1.39634401537478">
        <ele>16.960000000000001</ele>
        <time>2023-08-16T09:58:23Z</time>
      </trkpt>
      <trkpt lat="54.086322002112865" lon="-1.39636698178947">
        <ele>16.960000000000001</ele>
        <time>2023-08-16T09:58:24Z</time>
      </trkpt>
      <trkpt lat="54.086694996803999" lon="-1.39649698510766">
        <ele>16.960000000000001</ele>
        <time>2023-08-16T09:58:29Z</time>
      </trkpt>
      <trkpt lat="54.086747970432043" lon="-1.396537972614169">
        <ele>16.960000000000001</ele>
        <time>2023-08-16T09:58:30Z</time>
      </trkpt>
      <trkpt lat="54.086799016222358" lon="-1.396577032282949">
        <ele>16.960000000000001</ele>
        <time>2023-08-16T09:58:31Z</time>
      </trkpt>
      <trkpt lat="54.086856013163924" lon="-1.396621037274599">
        <ele>16.960000000000001</ele>
        <time>2023-08-16T09:58:32Z</time>
      </trkpt>
      <trkpt lat="54.086944023147225" lon="-1.396823963150382">
        <ele>16.960000000000001</ele>
        <time>2023-08-16T09:58:33Z</time>
      </trkpt>
      <trkpt lat="54.086917033419013" lon="-1.397023033350706">
        <ele>16.960000000000001</ele>
        <time>2023-08-16T09:58:34Z</time>
      </trkpt>
      <trkpt lat="54.086917033419013" lon="-1.397023033350706">
        <ele>16.960000000000001</ele>
        <time>2023-08-16T09:58:35Z</time>
      </trkpt>
      <trkpt lat="54.086958020925522" lon="-1.397081036120653">
        <ele>16.960000000000001</ele>
        <time>2023-08-16T09:58:36Z</time>
      </trkpt>
      <trkpt lat="54.086999008432031" lon="-1.39713803306222">
        <ele>16.960000000000001</ele>
        <time>2023-08-16T09:58:37Z</time>
      </trkpt>
      <trkpt lat="54.087076960131526" lon="-1.397155970335007">
        <ele>16.48</ele>
        <time>2023-08-16T09:58:38Z</time>
      </trkpt>
      <trkpt lat="54.087133035063744" lon="-1.397137027233839">
        <ele>16.48</ele>
        <time>2023-08-16T09:58:39Z</time>
      </trkpt>
      <trkpt lat="54.087174022570252" lon="-1.397035019472241">
        <ele>16.960000000000001</ele>
        <time>2023-08-16T09:58:40Z</time>
      </trkpt>
      <trkpt lat="54.08719195984304" lon="-1.39694700948894">
        <ele>16.960000000000001</ele>
        <time>2023-08-16T09:58:41Z</time>
      </trkpt>
      <trkpt lat="54.08727795816958" lon="-1.396829998120666">
        <ele>16.960000000000001</ele>
        <time>2023-08-16T09:58:42Z</time>
      </trkpt>
      <trkpt lat="54.087345013394952" lon="-1.396829998120666">
        <ele>17.440000000000001</ele>
        <time>2023-08-16T09:58:43Z</time>
      </trkpt>
      <trkpt lat="54.087422965094447" lon="-1.396829998120666">
        <ele>17.440000000000001</ele>
        <time>2023-08-16T09:58:44Z</time>
      </trkpt>
      <trkpt lat="54.087504018098116" lon="-1.396829998120666">
        <ele>17.440000000000001</ele>
        <time>2023-08-16T09:58:45Z</time>
      </trkpt>
      <trkpt lat="54.087595967575908" lon="-1.396829998120666">
        <ele>17.440000000000001</ele>
        <time>2023-08-16T09:58:46Z</time>
      </trkpt>
      <trkpt lat="54.087690012529492" lon="-1.396849025040865">
        <ele>17.440000000000001</ele>
        <time>2023-08-16T09:58:47Z</time>
      </trkpt>
      <trkpt lat="54.087791014462709" lon="-1.396871991455555">
        <ele>17.440000000000001</ele>
        <time>2023-08-16T09:58:48Z</time>
      </trkpt>
      <trkpt lat="54.088792987167835" lon="-1.397079024463892">
        <ele>16.48</ele>
        <time>2023-08-16T09:58:58Z</time>
      </trkpt>
      <trkpt lat="54.09004901535809" lon="-1.397320004180074">
        <ele>14.56</ele>
        <time>2023-08-16T09:59:09Z</time>
      </trkpt>
      <trkpt lat="54.09086499363184" lon="-1.397581016644836">
        <ele>13.6</ele>
        <time>2023-08-16T09:59:16Z</time>
      </trkpt>
      <trkpt lat="54.091106979176402" lon="-1.397738009691238">
        <ele>13.119999999999999</ele>
        <time>2023-08-16T09:59:19Z</time>
      </trkpt>
      <trkpt lat="54.091611988842487" lon="-1.397991981357336">
        <ele>12.15</ele>
        <time>2023-08-16T09:59:24Z</time>
      </trkpt>
      <trkpt lat="54.092882014811039" lon="-1.398138999938965">
        <ele>7.35</ele>
        <time>2023-08-16T09:59:34Z</time>
      </trkpt>
      <trkpt lat="54.093897985294461" lon="-1.397917969152331">
        <ele>5.91</ele>
        <time>2023-08-16T09:59:45Z</time>
      </trkpt>
      <trkpt lat="54.094879003241658" lon="-1.397588979452848">
        <ele>6.87</ele>
        <time>2023-08-16T09:59:55Z</time>
      </trkpt>
      <trkpt lat="54.095057034865022" lon="-1.397496024146676">
        <ele>6.39</ele>
        <time>2023-08-16T09:59:57Z</time>
      </trkpt>
      <trkpt lat="54.095874018967152" lon="-1.396960001438856">
        <ele>5.91</ele>
        <time>2023-08-16T10:00:06Z</time>
      </trkpt>
      <trkpt lat="54.096272997558117" lon="-1.396464966237545">
        <ele>6.39</ele>
        <time>2023-08-16T10:00:14Z</time>
      </trkpt>
      <trkpt lat="54.096496040001512" lon="-1.396100018173456">
        <ele>6.87</ele>
        <time>2023-08-16T10:00:15Z</time>
      </trkpt>
      <trkpt lat="54.096693014726043" lon="-1.39580799266696">
        <ele>6.87</ele>
        <time>2023-08-16T10:00:18Z</time>
      </trkpt>
      <trkpt lat="54.096872974187136" lon="-1.395543040707707">
        <ele>7.35</ele>
        <time>2023-08-16T10:00:20Z</time>
      </trkpt>
      <trkpt lat="54.096904993057251" lon="-1.39552803710103">
        <ele>7.35</ele>
        <time>2023-08-16T10:00:21Z</time>
      </trkpt>
      <trkpt lat="54.097003983333707" lon="-1.395483026280999">
        <ele>7.83</ele>
        <time>2023-08-16T10:00:22Z</time>
      </trkpt>
      <trkpt lat="54.097109008580446" lon="-1.395434997975826">
        <ele>7.83</ele>
        <time>2023-08-16T10:00:23Z</time>
      </trkpt>
      <trkpt lat="54.097207998856902" lon="-1.395428040996194">
        <ele>7.83</ele>
        <time>2023-08-16T10:00:24Z</time>
      </trkpt>
      <trkpt lat="54.09731101244688" lon="-1.39542100019753">
        <ele>8.310000000000001</ele>
        <time>2023-08-16T10:00:25Z</time>
      </trkpt>
      <trkpt lat="54.09763396717608" lon="-1.395451007410884">
        <ele>8.310000000000001</ele>
        <time>2023-08-16T10:00:28Z</time>
      </trkpt>
      <trkpt lat="54.097745027393103" lon="-1.395516972988844">
        <ele>8.310000000000001</ele>
        <time>2023-08-16T10:00:29Z</time>
      </trkpt>
      <trkpt lat="54.097960023209453" lon="-1.395706990733743">
        <ele>7.83</ele>
        <time>2023-08-16T10:00:31Z</time>
      </trkpt>
      <trkpt lat="54.098224975168705" lon="-1.395972026512027">
        <ele>7.83</ele>
        <time>2023-08-16T10:00:34Z</time>
      </trkpt>
      <trkpt lat="54.098333017900586" lon="-1.396078979596496">
        <ele>7.83</ele>
        <time>2023-08-16T10:00:35Z</time>
      </trkpt>
      <trkpt lat="54.09836302511394" lon="-1.396201020106673">
        <ele>7.83</ele>
        <time>2023-08-16T10:00:36Z</time>
      </trkpt>
      <trkpt lat="54.098397977650166" lon="-1.396342003718019">
        <ele>7.83</ele>
        <time>2023-08-16T10:00:37Z</time>
      </trkpt>
      <trkpt lat="54.098439970985055" lon="-1.396514000371099">
        <ele>7.83</ele>
        <time>2023-08-16T10:00:38Z</time>
      </trkpt>
      <trkpt lat="54.098439970985055" lon="-1.396507965400815">
        <ele>7.83</ele>
        <time>2023-08-16T10:00:39Z</time>
      </trkpt>
      <trkpt lat="54.098439970985055" lon="-1.396786998957396">
        <ele>7.83</ele>
        <time>2023-08-16T10:00:40Z</time>
      </trkpt>
      <trkpt lat="54.098474001511931" lon="-1.396854976192117">
        <ele>7.83</ele>
        <time>2023-08-16T10:00:41Z</time>
      </trkpt>
      <trkpt lat="54.098529992625117" lon="-1.39692597091198">
        <ele>7.83</ele>
        <time>2023-08-16T10:00:42Z</time>
      </trkpt>
      <trkpt lat="54.098586989566684" lon="-1.396949021145701">
        <ele>7.83</ele>
        <time>2023-08-16T10:00:43Z</time>
      </trkpt>
      <trkpt lat="54.098611967638135" lon="-1.396958995610476">
        <ele>7.83</ele>
        <time>2023-08-16T10:00:44Z</time>
      </trkpt>
      <trkpt lat="54.098714981228113" lon="-1.396854976192117">
        <ele>7.35</ele>
        <time>2023-08-16T10:00:45Z</time>
      </trkpt>
      <trkpt lat="54.09875001758337" lon="-1.396742993965745">
        <ele>7.35</ele>
        <time>2023-08-16T10:00:46Z</time>
      </trkpt>
      <trkpt lat="54.098760997876525" lon="-1.396638974547386">
        <ele>7.35</ele>
        <time>2023-08-16T10:00:47Z</time>
      </trkpt>
      <trkpt lat="54.098762003704906" lon="-1.396636962890625">
        <ele>6.87</ele>
        <time>2023-08-16T10:00:48Z</time>
      </trkpt>
      <trkpt lat="54.098739959299564" lon="-1.396487010642886">
        <ele>4.94</ele>
        <time>2023-08-16T10:00:55Z</time>
      </trkpt>
      <trkpt lat="54.098739959299564" lon="-1.396487010642886">
        <ele>3.98</ele>
        <time>2023-08-16T10:01:07Z</time>
      </trkpt>
      <trkpt lat="54.098739959299564" lon="-1.396487010642886">
        <ele>3.98</ele>
        <time>2023-08-16T10:01:30Z</time>
      </trkpt>
      <trkpt lat="54.098739959299564" lon="-1.396487010642886">
        <ele>3.98</ele>
        <time>2023-08-16T10:01:39Z</time>
      </trkpt>
      <trkpt lat="54.098794022575021" lon="-1.396198002621532">
        <ele>-5.63</ele>
        <time>2023-08-16T10:05:27Z</time>
      </trkpt>
      <trkpt lat="54.098767032846808" lon="-1.396267991513014">
        <ele>7.83</ele>
        <time>2023-08-16T10:06:08Z</time>
      </trkpt>
      <trkpt lat="54.098780024796724" lon="-1.396217029541731">
        <ele>5.91</ele>
        <time>2023-08-16T10:07:00Z</time>
      </trkpt>
      <trkpt lat="54.098779018968344" lon="-1.396210994571447">
        <ele>7.35</ele>
        <time>2023-08-16T10:07:49Z</time>
      </trkpt>
      <trkpt lat="54.09877298399806" lon="-1.39621602371335">
        <ele>7.83</ele>
        <time>2023-08-16T10:08:34Z</time>
      </trkpt>
      <trkpt lat="54.098769966512918" lon="-1.396221974864602">
        <ele>7.83</ele>
        <time>2023-08-16T10:09:23Z</time>
      </trkpt>
      <trkpt lat="54.098769966512918" lon="-1.396229015663266">
        <ele>8.310000000000001</ele>
        <time>2023-08-16T10:10:11Z</time>
      </trkpt>
      <trkpt lat="54.098768960684538" lon="-1.396233038976789">
        <ele>8.310000000000001</ele>
        <time>2023-08-16T10:11:01Z</time>
      </trkpt>
      <trkpt lat="54.098768038675189" lon="-1.396229015663266">
        <ele>8.310000000000001</ele>
        <time>2023-08-16T10:11:52Z</time>
      </trkpt>
      <trkpt lat="54.098766027018428" lon="-1.396235972642899">
        <ele>8.789999999999999</ele>
        <time>2023-08-16T10:12:45Z</time>
      </trkpt>
      <trkpt lat="54.098768960684538" lon="-1.39623798429966">
        <ele>9.27</ele>
        <time>2023-08-16T10:13:46Z</time>
      </trkpt>
      <trkpt lat="54.098744988441467" lon="-1.396266985684633">
        <ele>9.75</ele>
        <time>2023-08-16T10:14:21Z</time>
      </trkpt>
      <trkpt lat="54.098744988441467" lon="-1.396282995119691">
        <ele>9.27</ele>
        <time>2023-08-16T10:15:03Z</time>
      </trkpt>
      <trkpt lat="54.098744988441467" lon="-1.396282995119691">
        <ele>9.27</ele>
        <time>2023-08-16T10:15:33Z</time>
      </trkpt>
      <trkpt lat="54.098661001771688" lon="-1.3964310195297">
        <ele>10.23</ele>
        <time>2023-08-16T10:15:37Z</time>
      </trkpt>
      <trkpt lat="54.098619008436799" lon="-1.396401012316346">
        <ele>10.710000000000001</ele>
        <time>2023-08-16T10:15:38Z</time>
      </trkpt>
      <trkpt lat="54.098590007051826" lon="-1.396378967911005">
        <ele>10.710000000000001</ele>
        <time>2023-08-16T10:15:39Z</time>
      </trkpt>
      <trkpt lat="54.098518006503582" lon="-1.396277965977788">
        <ele>10.710000000000001</ele>
        <time>2023-08-16T10:15:40Z</time>
      </trkpt>
      <trkpt lat="54.098453968763351" lon="-1.396200014278293">
        <ele>10.710000000000001</ele>
        <time>2023-08-16T10:15:41Z</time>
      </trkpt>
      <trkpt lat="54.097691969946027" lon="-1.395475985482335">
        <ele>8.310000000000001</ele>
        <time>2023-08-16T10:15:49Z</time>
      </trkpt>
      <trkpt lat="54.097587028518319" lon="-1.39544396661222">
        <ele>8.310000000000001</ele>
        <time>2023-08-16T10:15:50Z</time>
      </trkpt>
      <trkpt lat="54.097474040463567" lon="-1.395425023511052">
        <ele>8.310000000000001</ele>
        <time>2023-08-16T10:15:51Z</time>
      </trkpt>
      <trkpt lat="54.097015969455242" lon="-1.395477997139096">
        <ele>7.83</ele>
        <time>2023-08-16T10:15:56Z</time>
      </trkpt>
      <trkpt lat="54.096931982785463" lon="-1.395515967160463">
        <ele>7.83</ele>
        <time>2023-08-16T10:15:57Z</time>
      </trkpt>
      <trkpt lat="54.09685998223722" lon="-1.395562989637256">
        <ele>7.83</ele>
        <time>2023-08-16T10:15:58Z</time>
      </trkpt>
      <trkpt lat="54.096797034144402" lon="-1.395655022934079">
        <ele>7.83</ele>
        <time>2023-08-16T10:15:59Z</time>
      </trkpt>
      <trkpt lat="54.096734002232552" lon="-1.395747978240252">
        <ele>7.83</ele>
        <time>2023-08-16T10:16:00Z</time>
      </trkpt>
      <trkpt lat="54.09666895866394" lon="-1.395843029022217">
        <ele>7.35</ele>
        <time>2023-08-16T10:16:01Z</time>
      </trkpt>
      <trkpt lat="54.096607016399503" lon="-1.395934978500009">
        <ele>7.35</ele>
        <time>2023-08-16T10:16:02Z</time>
      </trkpt>
      <trkpt lat="54.096551025286317" lon="-1.396016031503677">
        <ele>7.35</ele>
        <time>2023-08-16T10:16:03Z</time>
      </trkpt>
      <trkpt lat="54.096164032816887" lon="-1.396627994254232">
        <ele>6.87</ele>
        <time>2023-08-16T10:16:10Z</time>
      </trkpt>
      <trkpt lat="54.096110975369811" lon="-1.39670804142952">
        <ele>7.35</ele>
        <time>2023-08-16T10:16:11Z</time>
      </trkpt>
      <trkpt lat="54.096052972599864" lon="-1.396792028099299">
        <ele>7.35</ele>
        <time>2023-08-16T10:16:12Z</time>
      </trkpt>
      <trkpt lat="54.095384012907743" lon="-1.39731103554368">
        <ele>8.310000000000001</ele>
        <time>2023-08-16T10:16:23Z</time>
      </trkpt>
      <trkpt lat="54.094438031315804" lon="-1.397755024954677">
        <ele>10.23</ele>
        <time>2023-08-16T10:16:35Z</time>
      </trkpt>
      <trkpt lat="54.093474028632045" lon="-1.398037998005748">
        <ele>9.75</ele>
        <time>2023-08-16T10:16:46Z</time>
      </trkpt>
      <trkpt lat="54.09318401478231" lon="-1.398090971633792">
        <ele>9.27</ele>
        <time>2023-08-16T10:16:49Z</time>
      </trkpt>
      <trkpt lat="54.092266028746963" lon="-1.398090971633792">
        <ele>8.310000000000001</ele>
        <time>2023-08-16T10:16:57Z</time>
      </trkpt>
      <trkpt lat="54.09144502133131" lon="-1.397925009950995">
        <ele>9.27</ele>
        <time>2023-08-16T10:17:04Z</time>
      </trkpt>
      <trkpt lat="54.091098010540009" lon="-1.397732980549336">
        <ele>11.19</ele>
        <time>2023-08-16T10:17:07Z</time>
      </trkpt>
      <trkpt lat="54.090985022485256" lon="-1.397658968344331">
        <ele>11.67</ele>
        <time>2023-08-16T10:17:08Z</time>
      </trkpt>
      <trkpt lat="54.090743958950043" lon="-1.397537011653185">
        <ele>13.119999999999999</ele>
        <time>2023-08-16T10:17:10Z</time>
      </trkpt>
      <trkpt lat="54.090623008087277" lon="-1.397493006661534">
        <ele>13.6</ele>
        <time>2023-08-16T10:17:11Z</time>
      </trkpt>
      <trkpt lat="54.090503985062242" lon="-1.397450007498264">
        <ele>14.08</ele>
        <time>2023-08-16T10:17:12Z</time>
      </trkpt>
      <trkpt lat="54.089529002085328" lon="-1.397221013903618">
        <ele>17.440000000000001</ele>
        <time>2023-08-16T10:17:21Z</time>
      </trkpt>
      <trkpt lat="54.088847972452641" lon="-1.397090004757047">
        <ele>18.879999999999999</ele>
        <time>2023-08-16T10:17:31Z</time>
      </trkpt>
      <trkpt lat="54.088822994381189" lon="-1.397084975615144">
        <ele>19.359999999999999</ele>
        <time>2023-08-16T10:17:39Z</time>
      </trkpt>
      <trkpt lat="54.088822994381189" lon="-1.397084975615144">
        <ele>19.84</ele>
        <time>2023-08-16T10:18:27Z</time>
      </trkpt>
      <trkpt lat="54.088606992736459" lon="-1.397040970623493">
        <ele>20.809999999999999</ele>
        <time>2023-08-16T10:19:02Z</time>
      </trkpt>
      <trkpt lat="54.087844993919134" lon="-1.39688397757709">
        <ele>22.25</ele>
        <time>2023-08-16T10:19:11Z</time>
      </trkpt>
      <trkpt lat="54.087525978684425" lon="-1.396829998120666">
        <ele>22.73</ele>
        <time>2023-08-16T10:19:15Z</time>
      </trkpt>
      <trkpt lat="54.087456995621324" lon="-1.396829998120666">
        <ele>22.73</ele>
        <time>2023-08-16T10:19:16Z</time>
      </trkpt>
      <trkpt lat="54.087388012558222" lon="-1.396829998120666">
        <ele>22.73</ele>
        <time>2023-08-16T10:19:17Z</time>
      </trkpt>
      <trkpt lat="54.08731902949512" lon="-1.396829998120666">
        <ele>22.73</ele>
        <time>2023-08-16T10:19:18Z</time>
      </trkpt>
      <trkpt lat="54.087263960391283" lon="-1.396829998120666">
        <ele>22.73</ele>
        <time>2023-08-16T10:19:19Z</time>
      </trkpt>
      <trkpt lat="54.087219033390284" lon="-1.396829998120666">
        <ele>22.73</ele>
        <time>2023-08-16T10:19:20Z</time>
      </trkpt>
      <trkpt lat="54.087217021733522" lon="-1.396829998120666">
        <ele>22.73</ele>
        <time>2023-08-16T10:19:21Z</time>
      </trkpt>
      <trkpt lat="54.087217021733522" lon="-1.396829998120666">
        <ele>22.73</ele>
        <time>2023-08-16T10:19:22Z</time>
      </trkpt>
      <trkpt lat="54.087217021733522" lon="-1.396829998120666">
        <ele>22.73</ele>
        <time>2023-08-16T10:19:23Z</time>
      </trkpt>
      <trkpt lat="54.086988028138876" lon="-1.396693959832192">
        <ele>22.73</ele>
        <time>2023-08-16T10:19:24Z</time>
      </trkpt>
      <trkpt lat="54.086960032582283" lon="-1.396701000630856">
        <ele>22.73</ele>
        <time>2023-08-16T10:19:25Z</time>
      </trkpt>
      <trkpt lat="54.086960032582283" lon="-1.396701000630856">
        <ele>22.25</ele>
        <time>2023-08-16T10:19:26Z</time>
      </trkpt>
      <trkpt lat="54.086960032582283" lon="-1.396701000630856">
        <ele>22.25</ele>
        <time>2023-08-16T10:19:27Z</time>
      </trkpt>
      <trkpt lat="54.086741013452411" lon="-1.397222019731998">
        <ele>21.77</ele>
        <time>2023-08-16T10:19:29Z</time>
      </trkpt>
      <trkpt lat="54.08667697571218" lon="-1.397295026108623">
        <ele>21.77</ele>
        <time>2023-08-16T10:19:30Z</time>
      </trkpt>
      <trkpt lat="54.086607992649078" lon="-1.397371971979737">
        <ele>21.77</ele>
        <time>2023-08-16T10:19:31Z</time>
      </trkpt>
      <trkpt lat="54.086538003757596" lon="-1.397451013326645">
        <ele>21.77</ele>
        <time>2023-08-16T10:19:32Z</time>
      </trkpt>
      <trkpt lat="54.086467009037733" lon="-1.397531982511282">
        <ele>21.77</ele>
        <time>2023-08-16T10:19:33Z</time>
      </trkpt>
      <trkpt lat="54.086320996284485" lon="-1.397739015519619">
        <ele>21.77</ele>
        <time>2023-08-16T10:19:35Z</time>
      </trkpt>
      <trkpt lat="54.08549202606082" lon="-1.399057991802692">
        <ele>23.690000000000001</ele>
        <time>2023-08-16T10:19:46Z</time>
      </trkpt>
      <trkpt lat="54.08431202173233" lon="-1.400695983320475">
        <ele>23.690000000000001</ele>
        <time>2023-08-16T10:19:57Z</time>
      </trkpt>
      <trkpt lat="54.083128999918699" lon="-1.402099030092359">
        <ele>21.77</ele>
        <time>2023-08-16T10:20:07Z</time>
      </trkpt>
      <trkpt lat="54.082397008314729" lon="-1.402881983667612">
        <ele>22.73</ele>
        <time>2023-08-16T10:20:14Z</time>
      </trkpt>
      <trkpt lat="54.080940987914801" lon="-1.404161984100938">
        <ele>24.170000000000002</ele>
        <time>2023-08-16T10:20:24Z</time>
      </trkpt>
      <trkpt lat="54.080005986616015" lon="-1.404301039874554">
        <ele>25.609999999999999</ele>
        <time>2023-08-16T10:20:31Z</time>
      </trkpt>
      <trkpt lat="54.079555040225387" lon="-1.4041449688375">
        <ele>25.609999999999999</ele>
        <time>2023-08-16T10:20:36Z</time>
      </trkpt>
      <trkpt lat="54.079523021355271" lon="-1.404104987159371">
        <ele>25.609999999999999</ele>
        <time>2023-08-16T10:20:37Z</time>
      </trkpt>
      <trkpt lat="54.079501982778311" lon="-1.404077997431159">
        <ele>25.609999999999999</ele>
        <time>2023-08-16T10:20:38Z</time>
      </trkpt>
      <trkpt lat="54.079460995271802" lon="-1.404028041288257">
        <ele>25.129999999999999</ele>
        <time>2023-08-16T10:20:43Z</time>
      </trkpt>
      <trkpt lat="54.079367034137249" lon="-1.403878005221486">
        <ele>25.129999999999999</ele>
        <time>2023-08-16T10:20:45Z</time>
      </trkpt>
      <trkpt lat="54.079342978075147" lon="-1.403803993016481">
        <ele>25.129999999999999</ele>
        <time>2023-08-16T10:20:46Z</time>
      </trkpt>
      <trkpt lat="54.079323029145598" lon="-1.40352001413703">
        <ele>25.129999999999999</ele>
        <time>2023-08-16T10:20:47Z</time>
      </trkpt>
      <trkpt lat="54.079309031367302" lon="-1.403321027755737">
        <ele>25.129999999999999</ele>
        <time>2023-08-16T10:20:48Z</time>
      </trkpt>
      <trkpt lat="54.07930601388216" lon="-1.403117012232542">
        <ele>25.609999999999999</ele>
        <time>2023-08-16T10:20:49Z</time>
      </trkpt>
      <trkpt lat="54.079326968640089" lon="-1.402895981445909">
        <ele>25.609999999999999</ele>
        <time>2023-08-16T10:20:50Z</time>
      </trkpt>
      <trkpt lat="54.079364016652107" lon="-1.40266003087163">
        <ele>26.09</ele>
        <time>2023-08-16T10:20:51Z</time>
      </trkpt>
      <trkpt lat="54.079436017200351" lon="-1.40244796872139">
        <ele>26.09</ele>
        <time>2023-08-16T10:20:52Z</time>
      </trkpt>
      <trkpt lat="54.07952000387013" lon="-1.402249988168478">
        <ele>26.57</ele>
        <time>2023-08-16T10:20:53Z</time>
      </trkpt>
      <trkpt lat="54.07960600219667" lon="-1.402046978473663">
        <ele>26.57</ele>
        <time>2023-08-16T10:20:54Z</time>
      </trkpt>
      <trkpt lat="54.07969200052321" lon="-1.401843968778849">
        <ele>27.050000000000001</ele>
        <time>2023-08-16T10:20:55Z</time>
      </trkpt>
      <trkpt lat="54.079812029376626" lon="-1.401672977954149">
        <ele>27.050000000000001</ele>
        <time>2023-08-16T10:20:56Z</time>
      </trkpt>
      <trkpt lat="54.079934991896152" lon="-1.401515984907746">
        <ele>27.530000000000001</ele>
        <time>2023-08-16T10:20:57Z</time>
      </trkpt>
      <trkpt lat="54.081015000119805" lon="-1.400356013327837">
        <ele>27.050000000000001</ele>
        <time>2023-08-16T10:21:05Z</time>
      </trkpt>
      <trkpt lat="54.081121031194925" lon="-1.400160966441035">
        <ele>26.57</ele>
        <time>2023-08-16T10:21:06Z</time>
      </trkpt>
      <trkpt lat="54.081395035609603" lon="-1.399541962891817">
        <ele>25.129999999999999</ele>
        <time>2023-08-16T10:21:11Z</time>
      </trkpt>
      <trkpt lat="54.081441974267364" lon="-1.399413971230388">
        <ele>23.690000000000001</ele>
        <time>2023-08-16T10:21:17Z</time>
      </trkpt>
      <trkpt lat="54.081472987309098" lon="-1.399330990388989">
        <ele>23.210000000000001</ele>
        <time>2023-08-16T10:21:20Z</time>
      </trkpt>
      <trkpt lat="54.081499977037311" lon="-1.399255972355604">
        <ele>22.73</ele>
        <time>2023-08-16T10:21:21Z</time>
      </trkpt>
      <trkpt lat="54.081535013392568" lon="-1.399163017049432">
        <ele>22.73</ele>
        <time>2023-08-16T10:21:22Z</time>
      </trkpt>
      <trkpt lat="54.081596033647656" lon="-1.398996971547604">
        <ele>22.25</ele>
        <time>2023-08-16T10:21:23Z</time>
      </trkpt>
      <trkpt lat="54.081653030589223" lon="-1.398953972384334">
        <ele>22.25</ele>
        <time>2023-08-16T10:21:24Z</time>
      </trkpt>
      <trkpt lat="54.081745985895395" lon="-1.398913990706205">
        <ele>21.77</ele>
        <time>2023-08-16T10:21:25Z</time>
      </trkpt>
      <trkpt lat="54.081848999485373" lon="-1.398883983492851">
        <ele>21.77</ele>
        <time>2023-08-16T10:21:26Z</time>
      </trkpt>
      <trkpt lat="54.08196902833879" lon="-1.398848025128245">
        <ele>21.289999999999999</ele>
        <time>2023-08-16T10:21:27Z</time>
      </trkpt>
      <trkpt lat="54.082104982808232" lon="-1.398807959631085">
        <ele>20.809999999999999</ele>
        <time>2023-08-16T10:21:28Z</time>
      </trkpt>
      <trkpt lat="54.082258036360145" lon="-1.398762026801705">
        <ele>20.32</ele>
        <time>2023-08-16T10:21:29Z</time>
      </trkpt>
      <trkpt lat="54.083398981019855" lon="-1.399047011509538">
        <ele>16.960000000000001</ele>
        <time>2023-08-16T10:21:35Z</time>
      </trkpt>
      <trkpt lat="54.085283987224102" lon="-1.400268003344536">
        <ele>11.19</ele>
        <time>2023-08-16T10:21:45Z</time>
      </trkpt>
      <trkpt lat="54.087308971211314" lon="-1.402013031765819">
        <ele>9.75</ele>
        <time>2023-08-16T10:21:55Z</time>
      </trkpt>
      <trkpt lat="54.089506035670638" lon="-1.40388797968626">
        <ele>12.630000000000001</ele>
        <time>2023-08-16T10:22:04Z</time>
      </trkpt>
      <trkpt lat="54.093661028891802" lon="-1.407332019880414">
        <ele>19.84</ele>
        <time>2023-08-16T10:22:21Z</time>
      </trkpt>
      <trkpt lat="54.096828969195485" lon="-1.40992202796042">
        <ele>18.879999999999999</ele>
        <time>2023-08-16T10:22:34Z</time>
      </trkpt>
      <trkpt lat="54.100506026297808" lon="-1.412756033241749">
        <ele>20.32</ele>
        <time>2023-08-16T10:22:49Z</time>
      </trkpt>
      <trkpt lat="54.103094022721052" lon="-1.414096970111132">
        <ele>24.170000000000002</ele>
        <time>2023-08-16T10:22:59Z</time>
      </trkpt>
      <trkpt lat="54.10562502220273" lon="-1.414841031655669">
        <ele>27.530000000000001</ele>
        <time>2023-08-16T10:23:09Z</time>
      </trkpt>
      <trkpt lat="54.108111010864377" lon="-1.415069019421935">
        <ele>30.899999999999999</ele>
        <time>2023-08-16T10:23:20Z</time>
      </trkpt>
      <trkpt lat="54.110494991764426" lon="-1.41482200473547">
        <ele>32.340000000000003</ele>
        <time>2023-08-16T10:23:30Z</time>
      </trkpt>
      <trkpt lat="54.113765023648739" lon="-1.414196966215968">
        <ele>35.229999999999997</ele>
        <time>2023-08-16T10:23:43Z</time>
      </trkpt>
      <trkpt lat="54.116845959797502" lon="-1.413630014285445">
        <ele>34.740000000000002</ele>
        <time>2023-08-16T10:23:55Z</time>
      </trkpt>
      <trkpt lat="54.119492964819074" lon="-1.413259031251073">
        <ele>33.299999999999997</ele>
        <time>2023-08-16T10:24:05Z</time>
      </trkpt>
      <trkpt lat="54.122200990095735" lon="-1.413439996540546">
        <ele>31.379999999999999</ele>
        <time>2023-08-16T10:24:15Z</time>
      </trkpt>
      <trkpt lat="54.124812036752701" lon="-1.414275001734495">
        <ele>28.98</ele>
        <time>2023-08-16T10:24:25Z</time>
      </trkpt>
      <trkpt lat="54.127361979335546" lon="-1.415651980787516">
        <ele>26.57</ele>
        <time>2023-08-16T10:24:36Z</time>
      </trkpt>
      <trkpt lat="54.12936600856483" lon="-1.417209003120661">
        <ele>28.98</ele>
        <time>2023-08-16T10:24:45Z</time>
      </trkpt>
      <trkpt lat="54.13170799612999" lon="-1.419576974585652">
        <ele>29.940000000000001</ele>
        <time>2023-08-16T10:24:57Z</time>
      </trkpt>
      <trkpt lat="54.133976977318525" lon="-1.421990040689707">
        <ele>32.340000000000003</ele>
        <time>2023-08-16T10:25:09Z</time>
      </trkpt>
      <trkpt lat="54.135629972442985" lon="-1.423726016655564">
        <ele>33.299999999999997</ele>
        <time>2023-08-16T10:25:17Z</time>
      </trkpt>
      <trkpt lat="54.137141983956099" lon="-1.425310028716922">
        <ele>33.780000000000001</ele>
        <time>2023-08-16T10:25:23Z</time>
      </trkpt>
      <trkpt lat="54.139673989266157" lon="-1.427740026265383">
        <ele>35.710000000000001</ele>
        <time>2023-08-16T10:25:34Z</time>
      </trkpt>
      <trkpt lat="54.142879983410239" lon="-1.430339002981782">
        <ele>36.189999999999998</ele>
        <time>2023-08-16T10:25:47Z</time>
      </trkpt>
      <trkpt lat="54.145627990365028" lon="-1.432846030220389">
        <ele>38.590000000000003</ele>
        <time>2023-08-16T10:25:59Z</time>
      </trkpt>
      <trkpt lat="54.146795002743602" lon="-1.434521991759539">
        <ele>39.549999999999997</ele>
        <time>2023-08-16T10:26:06Z</time>
      </trkpt>
      <trkpt lat="54.147261958569288" lon="-1.435249960049987">
        <ele>39.549999999999997</ele>
        <time>2023-08-16T10:26:09Z</time>
      </trkpt>
      <trkpt lat="54.147448036819696" lon="-1.43544802442193">
        <ele>39.549999999999997</ele>
        <time>2023-08-16T10:26:10Z</time>
      </trkpt>
      <trkpt lat="54.147650962695479" lon="-1.435601999983192">
        <ele>39.07</ele>
        <time>2023-08-16T10:26:11Z</time>
      </trkpt>
      <trkpt lat="54.147862019017339" lon="-1.435730997473002">
        <ele>39.07</ele>
        <time>2023-08-16T10:26:12Z</time>
      </trkpt>
      <trkpt lat="54.148081038147211" lon="-1.4358139783144">
        <ele>39.07</ele>
        <time>2023-08-16T10:26:13Z</time>
      </trkpt>
      <trkpt lat="54.148299973458052" lon="-1.435883967205882">
        <ele>38.590000000000003</ele>
        <time>2023-08-16T10:26:14Z</time>
      </trkpt>
      <trkpt lat="54.148526033386588" lon="-1.435896037146449">
        <ele>38.590000000000003</ele>
        <time>2023-08-16T10:26:15Z</time>
      </trkpt>
      <trkpt lat="54.148751003667712" lon="-1.435885978862643">
        <ele>38.590000000000003</ele>
        <time>2023-08-16T10:26:16Z</time>
      </trkpt>
      <trkpt lat="54.148975973948836" lon="-1.43581498414278">
        <ele>38.109999999999999</ele>
        <time>2023-08-16T10:26:17Z</time>
      </trkpt>
      <trkpt lat="54.14919801056385" lon="-1.435718005523086">
        <ele>38.109999999999999</ele>
        <time>2023-08-16T10:26:18Z</time>
      </trkpt>
      <trkpt lat="54.149410994723439" lon="-1.435590013861656">
        <ele>37.630000000000003</ele>
        <time>2023-08-16T10:26:19Z</time>
      </trkpt>
      <trkpt lat="54.149619033560157" lon="-1.435445006936789">
        <ele>37.149999999999999</ele>
        <time>2023-08-16T10:26:20Z</time>
      </trkpt>
      <trkpt lat="54.149803016334772" lon="-1.435212995857">
        <ele>36.670000000000002</ele>
        <time>2023-08-16T10:26:21Z</time>
      </trkpt>
      <trkpt lat="54.149980964139104" lon="-1.434967992827296">
        <ele>36.670000000000002</ele>
        <time>2023-08-16T10:26:22Z</time>
      </trkpt>
      <trkpt lat="54.150157989934087" lon="-1.434725001454353">
        <ele>36.189999999999998</ele>
        <time>2023-08-16T10:26:23Z</time>
      </trkpt>
      <trkpt lat="54.152034027501941" lon="-1.431676000356674">
        <ele>35.710000000000001</ele>
        <time>2023-08-16T10:26:34Z</time>
      </trkpt>
      <trkpt lat="54.153735972940922" lon="-1.428007995709777">
        <ele>34.259999999999998</ele>
        <time>2023-08-16T10:26:45Z</time>
      </trkpt>
      <trkpt lat="54.155243961140513" lon="-1.423303987830877">
        <ele>30.420000000000002</ele>
        <time>2023-08-16T10:26:57Z</time>
      </trkpt>
      <trkpt lat="54.155881991609931" lon="-1.419342029839754">
        <ele>26.57</ele>
        <time>2023-08-16T10:27:06Z</time>
      </trkpt>
      <trkpt lat="54.156195977702737" lon="-1.415777960792184">
        <ele>24.170000000000002</ele>
        <time>2023-08-16T10:27:15Z</time>
      </trkpt>
      <trkpt lat="54.156681038439274" lon="-1.412492003291845">
        <ele>24.170000000000002</ele>
        <time>2023-08-16T10:27:23Z</time>
      </trkpt>
      <trkpt lat="54.157644035294652" lon="-1.409404026344419">
        <ele>25.129999999999999</ele>
        <time>2023-08-16T10:27:31Z</time>
      </trkpt>
      <trkpt lat="54.158987989649177" lon="-1.406961958855391">
        <ele>26.57</ele>
        <time>2023-08-16T10:27:39Z</time>
      </trkpt>
      <trkpt lat="54.160883976146579" lon="-1.40466095879674">
        <ele>27.050000000000001</ele>
        <time>2023-08-16T10:27:49Z</time>
      </trkpt>
      <trkpt lat="54.162750039249659" lon="-1.402422990649939">
        <ele>25.609999999999999</ele>
        <time>2023-08-16T10:27:58Z</time>
      </trkpt>
      <trkpt lat="54.164911983534694" lon="-1.399795012548566">
        <ele>22.25</ele>
        <time>2023-08-16T10:28:08Z</time>
      </trkpt>
      <trkpt lat="54.167021038010716" lon="-1.396833015605807">
        <ele>17.440000000000001</ele>
        <time>2023-08-16T10:28:18Z</time>
      </trkpt>
      <trkpt lat="54.168618964031339" lon="-1.393636995926499">
        <ele>14.08</ele>
        <time>2023-08-16T10:28:27Z</time>
      </trkpt>
      <trkpt lat="54.170257961377501" lon="-1.389854997396469">
        <ele>11.19</ele>
        <time>2023-08-16T10:28:37Z</time>
      </trkpt>
      <trkpt lat="54.171793023124337" lon="-1.387276975437999">
        <ele>9.75</ele>
        <time>2023-08-16T10:28:45Z</time>
      </trkpt>
      <trkpt lat="54.173846002668142" lon="-1.384925013408065">
        <ele>10.23</ele>
        <time>2023-08-16T10:28:54Z</time>
      </trkpt>
      <trkpt lat="54.176510022953153" lon="-1.38227297924459">
        <ele>13.6</ele>
        <time>2023-08-16T10:29:05Z</time>
      </trkpt>
      <trkpt lat="54.179064994677901" lon="-1.379677020013332">
        <ele>16.48</ele>
        <time>2023-08-16T10:29:16Z</time>
      </trkpt>
      <trkpt lat="54.183022007346153" lon="-1.375495959073305">
        <ele>15.52</ele>
        <time>2023-08-16T10:29:33Z</time>
      </trkpt>
      <trkpt lat="54.185690972954035" lon="-1.372647034004331">
        <ele>16.960000000000001</ele>
        <time>2023-08-16T10:29:45Z</time>
      </trkpt>
      <trkpt lat="54.188656993210316" lon="-1.369588980451226">
        <ele>17.440000000000001</ele>
        <time>2023-08-16T10:29:58Z</time>
      </trkpt>
      <trkpt lat="54.191699959337711" lon="-1.367203993722796">
        <ele>15.52</ele>
        <time>2023-08-16T10:30:10Z</time>
      </trkpt>
      <trkpt lat="54.194172034040093" lon="-1.36517096310854">
        <ele>16.960000000000001</ele>
        <time>2023-08-16T10:30:20Z</time>
      </trkpt>
      <trkpt lat="54.196756007149816" lon="-1.362899970263243">
        <ele>16.48</ele>
        <time>2023-08-16T10:30:31Z</time>
      </trkpt>
      <trkpt lat="54.199926964938641" lon="-1.360578015446663">
        <ele>17.920000000000002</ele>
        <time>2023-08-16T10:30:44Z</time>
      </trkpt>
      <trkpt lat="54.20269601047039" lon="-1.358556970953941">
        <ele>19.84</ele>
        <time>2023-08-16T10:30:55Z</time>
      </trkpt>
      <trkpt lat="54.205741994082928" lon="-1.356358984485269">
        <ele>21.77</ele>
        <time>2023-08-16T10:31:07Z</time>
      </trkpt>
      <trkpt lat="54.208271987736225" lon="-1.354398038238287">
        <ele>32.340000000000003</ele>
        <time>2023-08-16T10:31:17Z</time>
      </trkpt>
      <trkpt lat="54.210309963673353" lon="-1.352152023464441">
        <ele>36.189999999999998</ele>
        <time>2023-08-16T10:31:26Z</time>
      </trkpt>
      <trkpt lat="54.212076030671597" lon="-1.349289016798139">
        <ele>34.740000000000002</ele>
        <time>2023-08-16T10:31:35Z</time>
      </trkpt>
      <trkpt lat="54.213661970570683" lon="-1.345569966360927">
        <ele>28.98</ele>
        <time>2023-08-16T10:31:45Z</time>
      </trkpt>
      <trkpt lat="54.216023990884423" lon="-1.339390994980931">
        <ele>26.57</ele>
        <time>2023-08-16T10:32:01Z</time>
      </trkpt>
      <trkpt lat="54.217979991808534" lon="-1.335570020601153">
        <ele>28.02</ele>
        <time>2023-08-16T10:32:12Z</time>
      </trkpt>
      <trkpt lat="54.219782017171383" lon="-1.332797035574913">
        <ele>29.460000000000001</ele>
        <time>2023-08-16T10:32:21Z</time>
      </trkpt>
      <trkpt lat="54.221625030040741" lon="-1.330589996650815">
        <ele>29.940000000000001</ele>
        <time>2023-08-16T10:32:30Z</time>
      </trkpt>
      <trkpt lat="54.22370701096952" lon="-1.32877497933805">
        <ele>28.5</ele>
        <time>2023-08-16T10:32:41Z</time>
      </trkpt>
      <trkpt lat="54.225653037428856" lon="-1.327632023021579">
        <ele>30.420000000000002</ele>
        <time>2023-08-16T10:32:51Z</time>
      </trkpt>
      <trkpt lat="54.227411979809403" lon="-1.327370004728437">
        <ele>31.379999999999999</ele>
        <time>2023-08-16T10:33:00Z</time>
      </trkpt>
      <trkpt lat="54.228106001392007" lon="-1.327522974461317">
        <ele>31.379999999999999</ele>
        <time>2023-08-16T10:33:06Z</time>
      </trkpt>
      <trkpt lat="54.228159980848432" lon="-1.327588018029928">
        <ele>31.379999999999999</ele>
        <time>2023-08-16T10:33:07Z</time>
      </trkpt>
      <trkpt lat="54.228207003325224" lon="-1.327655995264649">
        <ele>31.379999999999999</ele>
        <time>2023-08-16T10:33:08Z</time>
      </trkpt>
      <trkpt lat="54.228245979174972" lon="-1.327739981934428">
        <ele>31.379999999999999</ele>
        <time>2023-08-16T10:33:09Z</time>
      </trkpt>
      <trkpt lat="54.22828696668148" lon="-1.327830003574491">
        <ele>31.379999999999999</ele>
        <time>2023-08-16T10:33:10Z</time>
      </trkpt>
      <trkpt lat="54.228323008865118" lon="-1.327908039093018">
        <ele>31.379999999999999</ele>
        <time>2023-08-16T10:33:11Z</time>
      </trkpt>
      <trkpt lat="54.228377994149923" lon="-1.327990014106035">
        <ele>31.379999999999999</ele>
        <time>2023-08-16T10:33:12Z</time>
      </trkpt>
      <trkpt lat="54.228430967777967" lon="-1.328054973855615">
        <ele>31.379999999999999</ele>
        <time>2023-08-16T10:33:13Z</time>
      </trkpt>
      <trkpt lat="54.228504979982972" lon="-1.328116999939084">
        <ele>31.859999999999999</ele>
        <time>2023-08-16T10:33:14Z</time>
      </trkpt>
      <trkpt lat="54.228538004681468" lon="-1.328143989667296">
        <ele>31.859999999999999</ele>
        <time>2023-08-16T10:33:15Z</time>
      </trkpt>
      <trkpt lat="54.228672031313181" lon="-1.328247003257275">
        <ele>32.340000000000003</ele>
        <time>2023-08-16T10:33:16Z</time>
      </trkpt>
      <trkpt lat="54.228770015761256" lon="-1.328321015462279">
        <ele>32.340000000000003</ele>
        <time>2023-08-16T10:33:17Z</time>
      </trkpt>
      <trkpt lat="54.228873029351234" lon="-1.328399972990155">
        <ele>32.82</ele>
        <time>2023-08-16T10:33:18Z</time>
      </trkpt>
      <trkpt lat="54.228988029062748" lon="-1.328486977145076">
        <ele>33.299999999999997</ele>
        <time>2023-08-16T10:33:19Z</time>
      </trkpt>
      <trkpt lat="54.229072015732527" lon="-1.328633995726705">
        <ele>33.780000000000001</ele>
        <time>2023-08-16T10:33:20Z</time>
      </trkpt>
      <trkpt lat="54.229160025715828" lon="-1.328787971287966">
        <ele>33.780000000000001</ele>
        <time>2023-08-16T10:33:21Z</time>
      </trkpt>
      <trkpt lat="54.230198040604591" lon="-1.330666020512581">
        <ele>33.299999999999997</ele>
        <time>2023-08-16T10:33:32Z</time>
      </trkpt>
      <trkpt lat="54.231046037748456" lon="-1.332237962633371">
        <ele>31.859999999999999</ele>
        <time>2023-08-16T10:33:42Z</time>
      </trkpt>
      <trkpt lat="54.232163010165095" lon="-1.334400996565819">
        <ele>32.340000000000003</ele>
        <time>2023-08-16T10:33:55Z</time>
      </trkpt>
      <trkpt lat="54.232899025082588" lon="-1.335664987564087">
        <ele>31.379999999999999</ele>
        <time>2023-08-16T10:34:05Z</time>
      </trkpt>
      <trkpt lat="54.233252992853522" lon="-1.336239986121655">
        <ele>32.340000000000003</ele>
        <time>2023-08-16T10:34:11Z</time>
      </trkpt>
      <trkpt lat="54.23328903503716" lon="-1.336298994719982">
        <ele>32.340000000000003</ele>
        <time>2023-08-16T10:34:12Z</time>
      </trkpt>
      <trkpt lat="54.233301021158695" lon="-1.336319027468562">
        <ele>32.340000000000003</ele>
        <time>2023-08-16T10:34:13Z</time>
      </trkpt>
      <trkpt lat="54.233299009501934" lon="-1.33650996722281">
        <ele>32.340000000000003</ele>
        <time>2023-08-16T10:34:14Z</time>
      </trkpt>
      <trkpt lat="54.233330022543669" lon="-1.336540980264545">
        <ele>32.340000000000003</ele>
        <time>2023-08-16T10:34:15Z</time>
      </trkpt>
      <trkpt lat="54.233394982293248" lon="-1.336492029950023">
        <ele>32.340000000000003</ele>
        <time>2023-08-16T10:34:16Z</time>
      </trkpt>
      <trkpt lat="54.233430018648505" lon="-1.336448024958372">
        <ele>31.859999999999999</ele>
        <time>2023-08-16T10:34:17Z</time>
      </trkpt>
      <trkpt lat="54.233396993950009" lon="-1.33627301082015">
        <ele>31.859999999999999</ele>
        <time>2023-08-16T10:34:18Z</time>
      </trkpt>
      <trkpt lat="54.233422977849841" lon="-1.336149964481592">
        <ele>31.379999999999999</ele>
        <time>2023-08-16T10:34:19Z</time>
      </trkpt>
      <trkpt lat="54.233453990891576" lon="-1.336007975041866">
        <ele>30.899999999999999</ele>
        <time>2023-08-16T10:34:20Z</time>
      </trkpt>
      <trkpt lat="54.233668986707926" lon="-1.334361014887691">
        <ele>28.5</ele>
        <time>2023-08-16T10:34:28Z</time>
      </trkpt>
      <trkpt lat="54.233842995017767" lon="-1.332160010933876">
        <ele>27.530000000000001</ele>
        <time>2023-08-16T10:34:38Z</time>
      </trkpt>
      <trkpt lat="54.233919018879533" lon="-1.329648038372397">
        <ele>28.02</ele>
        <time>2023-08-16T10:34:47Z</time>
      </trkpt>
      <trkpt lat="54.234138960018754" lon="-1.327564967796207">
        <ele>29.460000000000001</ele>
        <time>2023-08-16T10:34:55Z</time>
      </trkpt>
      <trkpt lat="54.234848991036415" lon="-1.32419703528285">
        <ele>32.82</ele>
        <time>2023-08-16T10:35:08Z</time>
      </trkpt>
      <trkpt lat="54.235060969367623" lon="-1.32181397639215">
        <ele>29.460000000000001</ele>
        <time>2023-08-16T10:35:17Z</time>
      </trkpt>
      <trkpt lat="54.234939012676477" lon="-1.318243034183979">
        <ele>39.07</ele>
        <time>2023-08-16T10:35:30Z</time>
      </trkpt>
      <trkpt lat="54.23460298217833" lon="-1.31584002636373">
        <ele>47.240000000000002</ele>
        <time>2023-08-16T10:35:38Z</time>
      </trkpt>
      <trkpt lat="54.234055979177356" lon="-1.313008032739162">
        <ele>50.609999999999999</ele>
        <time>2023-08-16T10:35:47Z</time>
      </trkpt>
      <trkpt lat="54.233549041673541" lon="-1.310263965278864">
        <ele>55.409999999999997</ele>
        <time>2023-08-16T10:35:56Z</time>
      </trkpt>
      <trkpt lat="54.233064986765385" lon="-1.306178038939834">
        <ele>59.740000000000002</ele>
        <time>2023-08-16T10:36:09Z</time>
      </trkpt>
      <trkpt lat="54.232651004567742" lon="-1.303016971796751">
        <ele>61.18</ele>
        <time>2023-08-16T10:36:19Z</time>
      </trkpt>
      <trkpt lat="54.232277004048228" lon="-1.300462000072002">
        <ele>63.100000000000001</ele>
        <time>2023-08-16T10:36:26Z</time>
      </trkpt>
      <trkpt lat="54.231751039624214" lon="-1.296843029558659">
        <ele>65.510000000000005</ele>
        <time>2023-08-16T10:36:37Z</time>
      </trkpt>
      <trkpt lat="54.23157099634409" lon="-1.294017992913723">
        <ele>61.659999999999997</ele>
        <time>2023-08-16T10:36:45Z</time>
      </trkpt>
      <trkpt lat="54.231581976637244" lon="-1.290779979899526">
        <ele>59.740000000000002</ele>
        <time>2023-08-16T10:36:54Z</time>
      </trkpt>
      <trkpt lat="54.231625981628895" lon="-1.286850962787867">
        <ele>61.18</ele>
        <time>2023-08-16T10:37:05Z</time>
      </trkpt>
      <trkpt lat="54.23165699467063" lon="-1.283484036102891">
        <ele>64.069999999999993</ele>
        <time>2023-08-16T10:37:14Z</time>
      </trkpt>
      <trkpt lat="54.231842989102006" lon="-1.279438007622957">
        <ele>64.549999999999997</ele>
        <time>2023-08-16T10:37:25Z</time>
      </trkpt>
      <trkpt lat="54.232260994613171" lon="-1.276547005400062">
        <ele>65.030000000000001</ele>
        <time>2023-08-16T10:37:33Z</time>
      </trkpt>
      <trkpt lat="54.232994997873902" lon="-1.274381959810853">
        <ele>65.030000000000001</ele>
        <time>2023-08-16T10:37:40Z</time>
      </trkpt>
      <trkpt lat="54.233724977821112" lon="-1.272639026865363">
        <ele>61.659999999999997</ele>
        <time>2023-08-16T10:37:47Z</time>
      </trkpt>
      <trkpt lat="54.233830003067851" lon="-1.272491002455354">
        <ele>60.700000000000003</ele>
        <time>2023-08-16T10:37:48Z</time>
      </trkpt>
      <trkpt lat="54.233946008607745" lon="-1.272379020228982">
        <ele>60.219999999999999</ele>
        <time>2023-08-16T10:37:49Z</time>
      </trkpt>
      <trkpt lat="54.23408598639071" lon="-1.272295033559203">
        <ele>59.740000000000002</ele>
        <time>2023-08-16T10:37:50Z</time>
      </trkpt>
      <trkpt lat="54.234241973608732" lon="-1.272199982777238">
        <ele>59.259999999999998</ele>
        <time>2023-08-16T10:37:51Z</time>
      </trkpt>
      <trkpt lat="54.234686968848109" lon="-1.271891025826335">
        <ele>58.780000000000001</ele>
        <time>2023-08-16T10:37:54Z</time>
      </trkpt>
      <trkpt lat="54.234797023236752" lon="-1.271694973111153">
        <ele>58.299999999999997</ele>
        <time>2023-08-16T10:37:55Z</time>
      </trkpt>
      <trkpt lat="54.234890984371305" lon="-1.271461034193635">
        <ele>58.299999999999997</ele>
        <time>2023-08-16T10:37:56Z</time>
      </trkpt>
      <trkpt lat="54.23558802343905" lon="-1.269544009119272">
        <ele>57.82</ele>
        <time>2023-08-16T10:38:03Z</time>
      </trkpt>
      <trkpt lat="54.235666980966926" lon="-1.269233040511608">
        <ele>57.82</ele>
        <time>2023-08-16T10:38:04Z</time>
      </trkpt>
      <trkpt lat="54.235722972080112" lon="-1.268903966993094">
        <ele>58.299999999999997</ele>
        <time>2023-08-16T10:38:05Z</time>
      </trkpt>
      <trkpt lat="54.236241979524493" lon="-1.26584398560226">
        <ele>60.700000000000003</ele>
        <time>2023-08-16T10:38:15Z</time>
      </trkpt>
      <trkpt lat="54.236435014754534" lon="-1.264418978244066">
        <ele>61.18</ele>
        <time>2023-08-16T10:38:21Z</time>
      </trkpt>
      <trkpt lat="54.236549008637667" lon="-1.263832999393344">
        <ele>61.659999999999997</ele>
        <time>2023-08-16T10:38:25Z</time>
      </trkpt>
      <trkpt lat="54.23657801002264" lon="-1.26369503326714">
        <ele>61.659999999999997</ele>
        <time>2023-08-16T10:38:26Z</time>
      </trkpt>
      <trkpt lat="54.236611034721136" lon="-1.263541979715228">
        <ele>61.659999999999997</ele>
        <time>2023-08-16T10:38:27Z</time>
      </trkpt>
      <trkpt lat="54.236714970320463" lon="-1.263062031939626">
        <ele>61.18</ele>
        <time>2023-08-16T10:38:30Z</time>
      </trkpt>
      <trkpt lat="54.23674900084734" lon="-1.262902021408081">
        <ele>61.18</ele>
        <time>2023-08-16T10:38:31Z</time>
      </trkpt>
      <trkpt lat="54.236739026382565" lon="-1.262718038633466">
        <ele>60.700000000000003</ele>
        <time>2023-08-16T10:38:32Z</time>
      </trkpt>
      <trkpt lat="54.236721005290747" lon="-1.262549981474876">
        <ele>61.18</ele>
        <time>2023-08-16T10:38:33Z</time>
      </trkpt>
      <trkpt lat="54.236701978370547" lon="-1.262371027842164">
        <ele>61.18</ele>
        <time>2023-08-16T10:38:34Z</time>
      </trkpt>
      <trkpt lat="54.236626960337162" lon="-1.261660996824503">
        <ele>62.140000000000001</ele>
        <time>2023-08-16T10:38:38Z</time>
      </trkpt>
      <trkpt lat="54.236626960337162" lon="-1.261485982686281">
        <ele>62.619999999999997</ele>
        <time>2023-08-16T10:38:39Z</time>
      </trkpt>
      <trkpt lat="54.236669959500432" lon="-1.259852014482021">
        <ele>66.469999999999999</ele>
        <time>2023-08-16T10:38:47Z</time>
      </trkpt>
      <trkpt lat="54.236482959240675" lon="-1.257853014394641">
        <ele>71.269999999999996</ele>
        <time>2023-08-16T10:38:57Z</time>
      </trkpt>
      <trkpt lat="54.236237034201622" lon="-1.255733985453844">
        <ele>72.719999999999999</ele>
        <time>2023-08-16T10:39:07Z</time>
      </trkpt>
      <trkpt lat="54.236205015331507" lon="-1.255299970507622">
        <ele>72.719999999999999</ele>
        <time>2023-08-16T10:39:09Z</time>
      </trkpt>
      <trkpt lat="54.236100995913148" lon="-1.253671031445265">
        <ele>72.239999999999995</ele>
        <time>2023-08-16T10:39:17Z</time>
      </trkpt>
      <trkpt lat="54.236034024506807" lon="-1.253526024520397">
        <ele>71.760000000000005</ele>
        <time>2023-08-16T10:39:18Z</time>
      </trkpt>
      <trkpt lat="54.235951965674758" lon="-1.253390992060304">
        <ele>72.239999999999995</ele>
        <time>2023-08-16T10:39:19Z</time>
      </trkpt>
      <trkpt lat="54.235862027853727" lon="-1.253260988742113">
        <ele>72.239999999999995</ele>
        <time>2023-08-16T10:39:20Z</time>
      </trkpt>
      <trkpt lat="54.235757002606988" lon="-1.253148000687361">
        <ele>72.719999999999999</ele>
        <time>2023-08-16T10:39:21Z</time>
      </trkpt>
      <trkpt lat="54.235645020380616" lon="-1.253026966005564">
        <ele>73.680000000000007</ele>
        <time>2023-08-16T10:39:22Z</time>
      </trkpt>
      <trkpt lat="54.235194995999336" lon="-1.252522962167859">
        <ele>76.560000000000002</ele>
        <time>2023-08-16T10:39:26Z</time>
      </trkpt>
      <trkpt lat="54.235087037086487" lon="-1.25239497050643">
        <ele>77.519999999999996</ele>
        <time>2023-08-16T10:39:27Z</time>
      </trkpt>
      <trkpt lat="54.234992992132902" lon="-1.252249041572213">
        <ele>78</ele>
        <time>2023-08-16T10:39:28Z</time>
      </trkpt>
      <trkpt lat="54.234917974099517" lon="-1.252055000513792">
        <ele>78.480000000000004</ele>
        <time>2023-08-16T10:39:29Z</time>
      </trkpt>
      <trkpt lat="54.234856031835079" lon="-1.251852996647358">
        <ele>78.969999999999999</ele>
        <time>2023-08-16T10:39:30Z</time>
      </trkpt>
      <trkpt lat="54.234818983823061" lon="-1.251616962254047">
        <ele>79.450000000000003</ele>
        <time>2023-08-16T10:39:31Z</time>
      </trkpt>
      <trkpt lat="54.234783025458455" lon="-1.25138402916491">
        <ele>79.930000000000007</ele>
        <time>2023-08-16T10:39:32Z</time>
      </trkpt>
      <trkpt lat="54.234754024073482" lon="-1.251164004206657">
        <ele>79.930000000000007</ele>
        <time>2023-08-16T10:39:33Z</time>
      </trkpt>
      <trkpt lat="54.234734997153282" lon="-1.250943979248405">
        <ele>80.409999999999997</ele>
        <time>2023-08-16T10:39:34Z</time>
      </trkpt>
      <trkpt lat="54.234639024361968" lon="-1.249483013525605">
        <ele>80.409999999999997</ele>
        <time>2023-08-16T10:39:40Z</time>
      </trkpt>
      <trkpt lat="54.234631983563304" lon="-1.249218983575702">
        <ele>79.930000000000007</ele>
        <time>2023-08-16T10:39:41Z</time>
      </trkpt>
      <trkpt lat="54.234652016311884" lon="-1.248939028009772">
        <ele>79.930000000000007</ele>
        <time>2023-08-16T10:39:42Z</time>
      </trkpt>
      <trkpt lat="54.234782019630075" lon="-1.245880974456668">
        <ele>84.25</ele>
        <time>2023-08-16T10:39:53Z</time>
      </trkpt>
      <trkpt lat="54.234707001596689" lon="-1.244502989575267">
        <ele>87.140000000000001</ele>
        <time>2023-08-16T10:39:58Z</time>
      </trkpt>
      <trkpt lat="54.2346650082618" lon="-1.244237031787634">
        <ele>87.620000000000005</ele>
        <time>2023-08-16T10:39:59Z</time>
      </trkpt>
      <trkpt lat="54.234624020755291" lon="-1.243975013494492">
        <ele>88.579999999999998</ele>
        <time>2023-08-16T10:40:00Z</time>
      </trkpt>
      <trkpt lat="54.234502986073494" lon="-1.243215026333928">
        <ele>90.980000000000004</ele>
        <time>2023-08-16T10:40:03Z</time>
      </trkpt>
      <trkpt lat="54.234490999951959" lon="-1.243001958355308">
        <ele>91.939999999999998</ele>
        <time>2023-08-16T10:40:04Z</time>
      </trkpt>
      <trkpt lat="54.234490999951959" lon="-1.242760978639126">
        <ele>92.420000000000002</ele>
        <time>2023-08-16T10:40:05Z</time>
      </trkpt>
      <trkpt lat="54.234526036307216" lon="-1.242525028064847">
        <ele>92.900000000000006</ele>
        <time>2023-08-16T10:40:06Z</time>
      </trkpt>
      <trkpt lat="54.234564006328583" lon="-1.242267033085227">
        <ele>92.900000000000006</ele>
        <time>2023-08-16T10:40:07Z</time>
      </trkpt>
      <trkpt lat="54.235034985467792" lon="-1.239160029217601">
        <ele>94.349999999999994</ele>
        <time>2023-08-16T10:40:17Z</time>
      </trkpt>
      <trkpt lat="54.235558016225696" lon="-1.235739961266518">
        <ele>104.44</ele>
        <time>2023-08-16T10:40:28Z</time>
      </trkpt>
      <trkpt lat="54.235850041732192" lon="-1.232386026531458">
        <ele>111.65000000000001</ele>
        <time>2023-08-16T10:40:38Z</time>
      </trkpt>
      <trkpt lat="54.236183976754546" lon="-1.229760982096195">
        <ele>118.38</ele>
        <time>2023-08-16T10:40:46Z</time>
      </trkpt>
      <trkpt lat="54.236283972859383" lon="-1.226808037608862">
        <ele>121.73999999999999</ele>
        <time>2023-08-16T10:40:55Z</time>
      </trkpt>
      <trkpt lat="54.236353961750865" lon="-1.223454019054771">
        <ele>117.90000000000001</ele>
        <time>2023-08-16T10:41:05Z</time>
      </trkpt>
      <trkpt lat="54.236429985612631" lon="-1.221867995336652">
        <ele>116.94</ele>
        <time>2023-08-16T10:41:10Z</time>
      </trkpt>
      <trkpt lat="54.236482037231326" lon="-1.221585022285581">
        <ele>117.90000000000001</ele>
        <time>2023-08-16T10:41:11Z</time>
      </trkpt>
      <trkpt lat="54.236530987545848" lon="-1.221321998164058">
        <ele>118.38</ele>
        <time>2023-08-16T10:41:12Z</time>
      </trkpt>
      <trkpt lat="54.236604999750853" lon="-1.221113037317991">
        <ele>118.86</ele>
        <time>2023-08-16T10:41:13Z</time>
      </trkpt>
      <trkpt lat="54.236690998077393" lon="-1.220911033451557">
        <ele>119.34</ele>
        <time>2023-08-16T10:41:14Z</time>
      </trkpt>
      <trkpt lat="54.236782025545835" lon="-1.220696959644556">
        <ele>119.81999999999999</ele>
        <time>2023-08-16T10:41:15Z</time>
      </trkpt>
      <trkpt lat="54.236880009993911" lon="-1.220494033768773">
        <ele>120.78</ele>
        <time>2023-08-16T10:41:16Z</time>
      </trkpt>
      <trkpt lat="54.236998027190566" lon="-1.220302004367113">
        <ele>121.26000000000001</ele>
        <time>2023-08-16T10:41:17Z</time>
      </trkpt>
      <trkpt lat="54.23750001937151" lon="-1.219490971416235">
        <ele>125.11</ele>
        <time>2023-08-16T10:41:21Z</time>
      </trkpt>
      <trkpt lat="54.237606972455978" lon="-1.219254015013576">
        <ele>126.55</ele>
        <time>2023-08-16T10:41:22Z</time>
      </trkpt>
      <trkpt lat="54.237686013802886" lon="-1.21898696757853">
        <ele>128.94999999999999</ele>
        <time>2023-08-16T10:41:23Z</time>
      </trkpt>
      <trkpt lat="54.237766982987523" lon="-1.218712041154504">
        <ele>130.88</ele>
        <time>2023-08-16T10:41:24Z</time>
      </trkpt>
      <trkpt lat="54.237849041819572" lon="-1.218435019254684">
        <ele>132.80000000000001</ele>
        <time>2023-08-16T10:41:25Z</time>
      </trkpt>
      <trkpt lat="54.238076023757458" lon="-1.217371020466089">
        <ele>143.37</ele>
        <time>2023-08-16T10:41:29Z</time>
      </trkpt>
      <trkpt lat="54.23810301348567" lon="-1.217104978859425">
        <ele>145.78</ele>
        <time>2023-08-16T10:41:30Z</time>
      </trkpt>
      <trkpt lat="54.238088009878993" lon="-1.216829968616366">
        <ele>148.18000000000001</ele>
        <time>2023-08-16T10:41:31Z</time>
      </trkpt>
      <trkpt lat="54.238031012937427" lon="-1.216564010828733">
        <ele>150.58000000000001</ele>
        <time>2023-08-16T10:41:32Z</time>
      </trkpt>
      <trkpt lat="54.237970998510718" lon="-1.216308027505875">
        <ele>152.99000000000001</ele>
        <time>2023-08-16T10:41:33Z</time>
      </trkpt>
      <trkpt lat="54.23790997825563" lon="-1.216051960363984">
        <ele>155.38999999999999</ele>
        <time>2023-08-16T10:41:34Z</time>
      </trkpt>
      <trkpt lat="54.237619964405894" lon="-1.21483700349927">
        <ele>166.93000000000001</ele>
        <time>2023-08-16T10:41:39Z</time>
      </trkpt>
      <trkpt lat="54.237593980506063" lon="-1.214596023783088">
        <ele>169.33000000000001</ele>
        <time>2023-08-16T10:41:40Z</time>
      </trkpt>
      <trkpt lat="54.23756598494947" lon="-1.214346997439861">
        <ele>171.25</ele>
        <time>2023-08-16T10:41:41Z</time>
      </trkpt>
      <trkpt lat="54.237537989392877" lon="-1.214098976925015">
        <ele>173.66</ele>
        <time>2023-08-16T10:41:42Z</time>
      </trkpt>
      <trkpt lat="54.237510999664664" lon="-1.213851040229201">
        <ele>175.58000000000001</ele>
        <time>2023-08-16T10:41:43Z</time>
      </trkpt>
      <trkpt lat="54.237484009936452" lon="-1.21361400000751">
        <ele>177.97999999999999</ele>
        <time>2023-08-16T10:41:44Z</time>
      </trkpt>
      <trkpt lat="54.237460037693381" lon="-1.213391041383147">
        <ele>179.90000000000001</ele>
        <time>2023-08-16T10:41:45Z</time>
      </trkpt>
      <trkpt lat="54.237282006070018" lon="-1.212906986474991">
        <ele>185.66999999999999</ele>
        <time>2023-08-16T10:41:48Z</time>
      </trkpt>
      <trkpt lat="54.237190978601575" lon="-1.212720992043614">
        <ele>187.59</ele>
        <time>2023-08-16T10:41:49Z</time>
      </trkpt>
      <trkpt lat="54.236725028604269" lon="-1.211790014058352">
        <ele>195.28</ele>
        <time>2023-08-16T10:41:55Z</time>
      </trkpt>
      <trkpt lat="54.236677000299096" lon="-1.211683982983232">
        <ele>197.21000000000001</ele>
        <time>2023-08-16T10:41:59Z</time>
      </trkpt>
      <trkpt lat="54.23666400834918" lon="-1.211656993255019">
        <ele>197.69</ele>
        <time>2023-08-16T10:42:00Z</time>
      </trkpt>
      <trkpt lat="54.236646993085742" lon="-1.211617011576891">
        <ele>198.16999999999999</ele>
        <time>2023-08-16T10:42:01Z</time>
      </trkpt>
      <trkpt lat="54.236626960337162" lon="-1.21157300658524">
        <ele>198.65000000000001</ele>
        <time>2023-08-16T10:42:02Z</time>
      </trkpt>
      <trkpt lat="54.236610028892756" lon="-1.211537970229983">
        <ele>198.65000000000001</ele>
        <time>2023-08-16T10:42:03Z</time>
      </trkpt>
      <trkpt lat="54.23659703694284" lon="-1.21150704100728">
        <ele>199.13</ele>
        <time>2023-08-16T10:42:04Z</time>
      </trkpt>
      <trkpt lat="54.23657801002264" lon="-1.21146596968174">
        <ele>199.61000000000001</ele>
        <time>2023-08-16T10:42:05Z</time>
      </trkpt>
      <trkpt lat="54.236278021708131" lon="-1.21099398471415">
        <ele>204.41999999999999</ele>
        <time>2023-08-16T10:42:14Z</time>
      </trkpt>
      <trkpt lat="54.236111976206303" lon="-1.210796004161239">
        <ele>209.22</ele>
        <time>2023-08-16T10:42:24Z</time>
      </trkpt>
      <trkpt lat="54.236069982871413" lon="-1.210701959207654">
        <ele>210.19</ele>
        <time>2023-08-16T10:42:26Z</time>
      </trkpt>
      <trkpt lat="54.236056990921497" lon="-1.210658960044384">
        <ele>210.19</ele>
        <time>2023-08-16T10:42:27Z</time>
      </trkpt>
      <trkpt lat="54.236080041155219" lon="-1.210227040573955">
        <ele>210.66999999999999</ele>
        <time>2023-08-16T10:42:36Z</time>
      </trkpt>
      <trkpt lat="54.236286990344524" lon="-1.210105000063777">
        <ele>211.15000000000001</ele>
        <time>2023-08-16T10:42:46Z</time>
      </trkpt>
      <trkpt lat="54.236570969223976" lon="-1.210105000063777">
        <ele>214.03</ele>
        <time>2023-08-16T10:42:59Z</time>
      </trkpt>
      <trkpt lat="54.236929966136813" lon="-1.210138024762273">
        <ele>226.05000000000001</ele>
        <time>2023-08-16T10:43:09Z</time>
      </trkpt>
      <trkpt lat="54.237020993605256" lon="-1.21017599478364">
        <ele>230.84999999999999</ele>
        <time>2023-08-16T10:43:19Z</time>
      </trkpt>
      <trkpt lat="54.237047983333468" lon="-1.21019896119833">
        <ele>230.84999999999999</ele>
        <time>2023-08-16T10:43:24Z</time>
      </trkpt>
      <trkpt lat="54.237382002174854" lon="-1.210487969219685">
        <ele>234.22</ele>
        <time>2023-08-16T10:43:35Z</time>
      </trkpt>
      <trkpt lat="54.237572019919753" lon="-1.210663989186287">
        <ele>239.02000000000001</ele>
        <time>2023-08-16T10:43:44Z</time>
      </trkpt>
      <trkpt lat="54.237855998799205" lon="-1.210947968065739">
        <ele>244.78999999999999</ele>
        <time>2023-08-16T10:43:54Z</time>
      </trkpt>
      <trkpt lat="54.238193035125732" lon="-1.211285004392266">
        <ele>255.84999999999999</ele>
        <time>2023-08-16T10:44:08Z</time>
      </trkpt>
      <trkpt lat="54.238498974591494" lon="-1.211591027677059">
        <ele>265.94</ele>
        <time>2023-08-16T10:44:21Z</time>
      </trkpt>
      <trkpt lat="54.238841962069273" lon="-1.2119169998914">
        <ele>276.51999999999998</ele>
        <time>2023-08-16T10:44:36Z</time>
      </trkpt>
      <trkpt lat="54.239258961752057" lon="-1.212184969335794">
        <ele>281.31999999999999</ele>
        <time>2023-08-16T10:44:48Z</time>
      </trkpt>
      <trkpt lat="54.239315958693624" lon="-1.212222017347813">
        <ele>281.80000000000001</ele>
        <time>2023-08-16T10:44:49Z</time>
      </trkpt>
      <trkpt lat="54.239395000040531" lon="-1.212272979319096">
        <ele>282.27999999999997</ele>
        <time>2023-08-16T10:44:50Z</time>
      </trkpt>
      <trkpt lat="54.239507988095284" lon="-1.212295023724437">
        <ele>283.73000000000002</ele>
        <time>2023-08-16T10:44:52Z</time>
      </trkpt>
      <trkpt lat="54.239655006676912" lon="-1.212300974875689">
        <ele>285.17000000000002</ele>
        <time>2023-08-16T10:44:54Z</time>
      </trkpt>
      <trkpt lat="54.239732958376408" lon="-1.212274990975857">
        <ele>286.61000000000001</ele>
        <time>2023-08-16T10:44:55Z</time>
      </trkpt>
      <trkpt lat="54.239811999723315" lon="-1.212248001247644">
        <ele>287.56999999999999</ele>
        <time>2023-08-16T10:44:56Z</time>
      </trkpt>
      <trkpt lat="54.23988601192832" lon="-1.212196033447981">
        <ele>289.00999999999999</ele>
        <time>2023-08-16T10:44:57Z</time>
      </trkpt>
      <trkpt lat="54.239934962242842" lon="-1.212104000151157">
        <ele>289.97000000000003</ele>
        <time>2023-08-16T10:44:58Z</time>
      </trkpt>
      <trkpt lat="54.240609034895897" lon="-1.21135700494051">
        <ele>300.06999999999999</ele>
        <time>2023-08-16T10:45:10Z</time>
      </trkpt>
      <trkpt lat="54.240782959386706" lon="-1.211141003295779">
        <ele>303.91000000000003</ele>
        <time>2023-08-16T10:45:19Z</time>
      </trkpt>
      <trkpt lat="54.240782959386706" lon="-1.211141003295779">
        <ele>303.91000000000003</ele>
        <time>2023-08-16T10:45:23Z</time>
      </trkpt>
      <trkpt lat="54.240652034059167" lon="-1.211147038266063">
        <ele>303.91000000000003</ele>
        <time>2023-08-16T10:45:31Z</time>
      </trkpt>
      <trkpt lat="54.24068002961576" lon="-1.211230019107461">
        <ele>314.97000000000003</ele>
        <time>2023-08-16T11:05:38Z</time>
      </trkpt>
      <trkpt lat="54.24070400185883" lon="-1.21116204187274">
        <ele>309.19999999999999</ele>
        <time>2023-08-16T11:06:09Z</time>
      </trkpt>
      <trkpt lat="54.240649016574025" lon="-1.211129017174244">
        <ele>304.88</ele>
        <time>2023-08-16T11:06:43Z</time>
      </trkpt>
      <trkpt lat="54.240673994645476" lon="-1.211157012730837">
        <ele>307.75999999999999</ele>
        <time>2023-08-16T11:07:29Z</time>
      </trkpt>
      <trkpt lat="54.240673994645476" lon="-1.211157012730837">
        <ele>307.75999999999999</ele>
        <time>2023-08-16T11:07:32Z</time>
      </trkpt>
      <trkpt lat="54.240720011293888" lon="-1.211219038814306">
        <ele>306.31999999999999</ele>
        <time>2023-08-16T11:07:37Z</time>
      </trkpt>
      <trkpt lat="54.240738032385707" lon="-1.211196994408965">
        <ele>306.31999999999999</ele>
        <time>2023-08-16T11:07:38Z</time>
      </trkpt>
      <trkpt lat="54.240758987143636" lon="-1.211171010509133">
        <ele>306.31999999999999</ele>
        <time>2023-08-16T11:07:39Z</time>
      </trkpt>
      <trkpt lat="54.240778014063835" lon="-1.211147960275412">
        <ele>305.83999999999997</ele>
        <time>2023-08-16T11:07:40Z</time>
      </trkpt>
      <trkpt lat="54.240797040984035" lon="-1.211123988032341">
        <ele>305.36000000000001</ele>
        <time>2023-08-16T11:07:41Z</time>
      </trkpt>
      <trkpt lat="54.240816989913583" lon="-1.211098004132509">
        <ele>305.36000000000001</ele>
        <time>2023-08-16T11:07:42Z</time>
      </trkpt>
      <trkpt lat="54.240842973813415" lon="-1.211065985262394">
        <ele>304.88</ele>
        <time>2023-08-16T11:07:43Z</time>
      </trkpt>
      <trkpt lat="54.24087599851191" lon="-1.211026003584266">
        <ele>304.88</ele>
        <time>2023-08-16T11:07:44Z</time>
      </trkpt>
      <trkpt lat="54.240916986018419" lon="-1.210975041612983">
        <ele>304.38999999999999</ele>
        <time>2023-08-16T11:07:45Z</time>
      </trkpt>
      <trkpt lat="54.24096099101007" lon="-1.210920978337526">
        <ele>303.91000000000003</ele>
        <time>2023-08-16T11:07:46Z</time>
      </trkpt>
      <trkpt lat="54.241542024537921" lon="-1.210200972855091">
        <ele>302.47000000000003</ele>
        <time>2023-08-16T11:07:57Z</time>
      </trkpt>
      <trkpt lat="54.241870008409023" lon="-1.209767963737249">
        <ele>301.50999999999999</ele>
        <time>2023-08-16T11:08:03Z</time>
      </trkpt>
      <trkpt lat="54.241904960945249" lon="-1.209721025079489">
        <ele>301.50999999999999</ele>
        <time>2023-08-16T11:08:04Z</time>
      </trkpt>
      <trkpt lat="54.241930022835732" lon="-1.209686994552612">
        <ele>301.50999999999999</ele>
        <time>2023-08-16T11:08:05Z</time>
      </trkpt>
      <trkpt lat="54.241947960108519" lon="-1.209468981251121">
        <ele>301.02999999999997</ele>
        <time>2023-08-16T11:08:06Z</time>
      </trkpt>
      <trkpt lat="54.241918036714196" lon="-1.209441991522908">
        <ele>301.02999999999997</ele>
        <time>2023-08-16T11:08:07Z</time>
      </trkpt>
      <trkpt lat="54.241870008409023" lon="-1.209398992359638">
        <ele>301.02999999999997</ele>
        <time>2023-08-16T11:08:08Z</time>
      </trkpt>
      <trkpt lat="54.241806976497173" lon="-1.209341995418072">
        <ele>301.02999999999997</ele>
        <time>2023-08-16T11:08:09Z</time>
      </trkpt>
      <trkpt lat="54.241733970120549" lon="-1.209276029840112">
        <ele>300.55000000000001</ele>
        <time>2023-08-16T11:08:10Z</time>
      </trkpt>
      <trkpt lat="54.241653000935912" lon="-1.209204029291868">
        <ele>300.55000000000001</ele>
        <time>2023-08-16T11:08:11Z</time>
      </trkpt>
      <trkpt lat="54.240889996290207" lon="-1.208514031022787">
        <ele>300.55000000000001</ele>
        <time>2023-08-16T11:08:19Z</time>
      </trkpt>
      <trkpt lat="54.240113999694586" lon="-1.2078330013901">
        <ele>300.06999999999999</ele>
        <time>2023-08-16T11:08:29Z</time>
      </trkpt>
      <trkpt lat="54.239862039685249" lon="-1.207553967833519">
        <ele>299.11000000000001</ele>
        <time>2023-08-16T11:08:35Z</time>
      </trkpt>
      <trkpt lat="54.239856004714966" lon="-1.207471992820501">
        <ele>299.11000000000001</ele>
        <time>2023-08-16T11:08:36Z</time>
      </trkpt>
      <trkpt lat="54.239786015823483" lon="-1.206444036215544">
        <ele>297.18000000000001</ele>
        <time>2023-08-16T11:08:42Z</time>
      </trkpt>
      <trkpt lat="54.239635979756713" lon="-1.204264992848039">
        <ele>292.86000000000001</ele>
        <time>2023-08-16T11:08:50Z</time>
      </trkpt>
      <trkpt lat="54.239589963108301" lon="-1.201101997867227">
        <ele>287.08999999999997</ele>
        <time>2023-08-16T11:09:00Z</time>
      </trkpt>
      <trkpt lat="54.240105031058192" lon="-1.198409982025623">
        <ele>282.27999999999997</ele>
        <time>2023-08-16T11:09:08Z</time>
      </trkpt>
      <trkpt lat="54.240485988557339" lon="-1.19548000395298">
        <ele>277.95999999999998</ele>
        <time>2023-08-16T11:09:16Z</time>
      </trkpt>
      <trkpt lat="54.240362020209432" lon="-1.191867990419269">
        <ele>272.19</ele>
        <time>2023-08-16T11:09:26Z</time>
      </trkpt>
      <trkpt lat="54.239819962531328" lon="-1.188949998468161">
        <ele>268.35000000000002</ele>
        <time>2023-08-16T11:09:35Z</time>
      </trkpt>
      <trkpt lat="54.239001972600818" lon="-1.186569035053253">
        <ele>266.42000000000002</ele>
        <time>2023-08-16T11:09:43Z</time>
      </trkpt>
      <trkpt lat="54.237182009965181" lon="-1.182467015460134">
        <ele>264.5</ele>
        <time>2023-08-16T11:09:57Z</time>
      </trkpt>
      <trkpt lat="54.235140010714531" lon="-1.178951980546117">
        <ele>262.10000000000002</ele>
        <time>2023-08-16T11:10:09Z</time>
      </trkpt>
      <trkpt lat="54.233424989506602" lon="-1.176051003858447">
        <ele>261.13999999999999</ele>
        <time>2023-08-16T11:10:19Z</time>
      </trkpt>
      <trkpt lat="54.232073994353414" lon="-1.174015961587429">
        <ele>259.69</ele>
        <time>2023-08-16T11:10:27Z</time>
      </trkpt>
      <trkpt lat="54.231350971385837" lon="-1.171991983428598">
        <ele>259.69</ele>
        <time>2023-08-16T11:10:33Z</time>
      </trkpt>
      <trkpt lat="54.230942018330097" lon="-1.169380014762282">
        <ele>261.13999999999999</ele>
        <time>2023-08-16T11:10:40Z</time>
      </trkpt>
      <trkpt lat="54.23051998950541" lon="-1.164816990494728">
        <ele>260.64999999999998</ele>
        <time>2023-08-16T11:10:52Z</time>
      </trkpt>
      <trkpt lat="54.2299800273031" lon="-1.159481992945075">
        <ele>256.32999999999998</ele>
        <time>2023-08-16T11:11:06Z</time>
      </trkpt>
      <trkpt lat="54.229517010971904" lon="-1.155078979209065">
        <ele>254.41</ele>
        <time>2023-08-16T11:11:17Z</time>
      </trkpt>
      <trkpt lat="54.228984005749226" lon="-1.150344964116812">
        <ele>250.56</ele>
        <time>2023-08-16T11:11:29Z</time>
      </trkpt>
      <trkpt lat="54.228405989706516" lon="-1.144942995160818">
        <ele>258.73000000000002</ele>
        <time>2023-08-16T11:11:43Z</time>
      </trkpt>
      <trkpt lat="54.227882958948612" lon="-1.139703970402479">
        <ele>255.84999999999999</ele>
        <time>2023-08-16T11:11:56Z</time>
      </trkpt>
      <trkpt lat="54.227208970114589" lon="-1.136752031743527">
        <ele>256.32999999999998</ele>
        <time>2023-08-16T11:12:04Z</time>
      </trkpt>
      <trkpt lat="54.226417969912291" lon="-1.134672984480858">
        <ele>260.17000000000002</ele>
        <time>2023-08-16T11:12:11Z</time>
      </trkpt>
      <trkpt lat="54.225467965006828" lon="-1.132496036589146">
        <ele>264.01999999999998</ele>
        <time>2023-08-16T11:12:19Z</time>
      </trkpt>
      <trkpt lat="54.224386028945446" lon="-1.129384003579617">
        <ele>264.01999999999998</ele>
        <time>2023-08-16T11:12:30Z</time>
      </trkpt>
      <trkpt lat="54.223510036244988" lon="-1.126752002164722">
        <ele>261.62</ele>
        <time>2023-08-16T11:12:41Z</time>
      </trkpt>
      <trkpt lat="54.223394030705094" lon="-1.12623400054872">
        <ele>261.62</ele>
        <time>2023-08-16T11:12:43Z</time>
      </trkpt>
      <trkpt lat="54.223360000178218" lon="-1.125961001962423">
        <ele>261.62</ele>
        <time>2023-08-16T11:12:44Z</time>
      </trkpt>
      <trkpt lat="54.223341979086399" lon="-1.125688003376126">
        <ele>261.62</ele>
        <time>2023-08-16T11:12:45Z</time>
      </trkpt>
      <trkpt lat="54.223338039591908" lon="-1.125410981476307">
        <ele>261.62</ele>
        <time>2023-08-16T11:12:46Z</time>
      </trkpt>
      <trkpt lat="54.223333010450006" lon="-1.125133959576488">
        <ele>262.10000000000002</ele>
        <time>2023-08-16T11:12:47Z</time>
      </trkpt>
      <trkpt lat="54.223567033186555" lon="-1.122900014743209">
        <ele>261.13999999999999</ele>
        <time>2023-08-16T11:12:55Z</time>
      </trkpt>
      <trkpt lat="54.224318973720074" lon="-1.120140021666884">
        <ele>261.13999999999999</ele>
        <time>2023-08-16T11:13:05Z</time>
      </trkpt>
      <trkpt lat="54.224734967574477" lon="-1.117629976943135">
        <ele>258.25</ele>
        <time>2023-08-16T11:13:13Z</time>
      </trkpt>
      <trkpt lat="54.224988017231226" lon="-1.11342997290194">
        <ele>252.47999999999999</ele>
        <time>2023-08-16T11:13:26Z</time>
      </trkpt>
      <trkpt lat="54.225181974470615" lon="-1.110455989837647">
        <ele>245.75</ele>
        <time>2023-08-16T11:13:36Z</time>
      </trkpt>
      <trkpt lat="54.225486991927028" lon="-1.107468008995056">
        <ele>235.66</ele>
        <time>2023-08-16T11:13:46Z</time>
      </trkpt>
      <trkpt lat="54.225956965237856" lon="-1.103266999125481">
        <ele>220.75999999999999</ele>
        <time>2023-08-16T11:13:59Z</time>
      </trkpt>
      <trkpt lat="54.226555014029145" lon="-1.098270965740085">
        <ele>200.56999999999999</ele>
        <time>2023-08-16T11:14:14Z</time>
      </trkpt>
      <trkpt lat="54.226945023983717" lon="-1.094310013577342">
        <ele>186.15000000000001</ele>
        <time>2023-08-16T11:14:26Z</time>
      </trkpt>
      <trkpt lat="54.226975031197071" lon="-1.090809982270002">
        <ele>172.69</ele>
        <time>2023-08-16T11:14:36Z</time>
      </trkpt>
      <trkpt lat="54.227263033390045" lon="-1.085441960021853">
        <ele>155.38999999999999</ele>
        <time>2023-08-16T11:14:52Z</time>
      </trkpt>
      <trkpt lat="54.227538965642452" lon="-1.080782962962985">
        <ele>140.49000000000001</ele>
        <time>2023-08-16T11:15:06Z</time>
      </trkpt>
      <trkpt lat="54.22774801030755" lon="-1.077322997152805">
        <ele>130.40000000000001</ele>
        <time>2023-08-16T11:15:16Z</time>
      </trkpt>
      <trkpt lat="54.228141959756613" lon="-1.072653019800782">
        <ele>120.3</ele>
        <time>2023-08-16T11:15:29Z</time>
      </trkpt>
      <trkpt lat="54.228132991120219" lon="-1.069473009556532">
        <ele>111.17</ele>
        <time>2023-08-16T11:15:38Z</time>
      </trkpt>
      <trkpt lat="54.227733006700873" lon="-1.065531000494957">
        <ele>100.59999999999999</ele>
        <time>2023-08-16T11:15:50Z</time>
      </trkpt>
      <trkpt lat="54.227478029206395" lon="-1.063072001561523">
        <ele>97.709999999999994</ele>
        <time>2023-08-16T11:15:59Z</time>
      </trkpt>
      <trkpt lat="54.227328998968005" lon="-1.061641965061426">
        <ele>97.709999999999994</ele>
        <time>2023-08-16T11:16:06Z</time>
      </trkpt>
      <trkpt lat="54.227310977876186" lon="-1.061466028913856">
        <ele>97.709999999999994</ele>
        <time>2023-08-16T11:16:07Z</time>
      </trkpt>
      <trkpt lat="54.227293040603399" lon="-1.061295960098505">
        <ele>97.709999999999994</ele>
        <time>2023-08-16T11:16:08Z</time>
      </trkpt>
      <trkpt lat="54.227353977039456" lon="-1.061042994260788">
        <ele>97.230000000000004</ele>
        <time>2023-08-16T11:16:10Z</time>
      </trkpt>
      <trkpt lat="54.227371998131275" lon="-1.060968982055783">
        <ele>97.230000000000004</ele>
        <time>2023-08-16T11:16:11Z</time>
      </trkpt>
      <trkpt lat="54.227371998131275" lon="-1.060968982055783">
        <ele>96.75</ele>
        <time>2023-08-16T11:16:12Z</time>
      </trkpt>
      <trkpt lat="54.227387001737952" lon="-1.060904022306204">
        <ele>96.75</ele>
        <time>2023-08-16T11:16:14Z</time>
      </trkpt>
      <trkpt lat="54.227387001737952" lon="-1.060904022306204">
        <ele>96.269999999999996</ele>
        <time>2023-08-16T11:16:30Z</time>
      </trkpt>
      <trkpt lat="54.22740401700139" lon="-1.060834033414722">
        <ele>96.269999999999996</ele>
        <time>2023-08-16T11:17:05Z</time>
      </trkpt>
      <trkpt lat="54.22740401700139" lon="-1.060834033414722">
        <ele>97.709999999999994</ele>
        <time>2023-08-16T11:17:17Z</time>
      </trkpt>
      <trkpt lat="54.22740401700139" lon="-1.060834033414722">
        <ele>97.709999999999994</ele>
        <time>2023-08-16T11:18:00Z</time>
      </trkpt>
      <trkpt lat="54.22748900949955" lon="-1.060635969042778">
        <ele>97.230000000000004</ele>
        <time>2023-08-16T11:18:43Z</time>
      </trkpt>
      <trkpt lat="54.228041041642427" lon="-1.060150992125273">
        <ele>94.829999999999998</ele>
        <time>2023-08-16T11:18:51Z</time>
      </trkpt>
      <trkpt lat="54.228598019108176" lon="-1.059800963848829">
        <ele>93.870000000000005</ele>
        <time>2023-08-16T11:19:01Z</time>
      </trkpt>
      <trkpt lat="54.229364041239023" lon="-1.05950097553432">
        <ele>95.310000000000002</ele>
        <time>2023-08-16T11:19:10Z</time>
      </trkpt>
      <trkpt lat="54.230558965355158" lon="-1.059173997491598">
        <ele>99.629999999999995</ele>
        <time>2023-08-16T11:19:20Z</time>
      </trkpt>
      <trkpt lat="54.231798984110355" lon="-1.058995965868235">
        <ele>103</ele>
        <time>2023-08-16T11:19:29Z</time>
      </trkpt>
      <trkpt lat="54.232615968212485" lon="-1.058869985863566">
        <ele>104.92</ele>
        <time>2023-08-16T11:19:37Z</time>
      </trkpt>
      <trkpt lat="54.2339379619807" lon="-1.058548958972096">
        <ele>107.31999999999999</ele>
        <time>2023-08-16T11:19:46Z</time>
      </trkpt>
      <trkpt lat="54.23502903431654" lon="-1.057829037308693">
        <ele>106.36</ele>
        <time>2023-08-16T11:19:54Z</time>
      </trkpt>
      <trkpt lat="54.235520968213677" lon="-1.057439027354121">
        <ele>104.92</ele>
        <time>2023-08-16T11:19:58Z</time>
      </trkpt>
      <trkpt lat="54.236046010628343" lon="-1.057205004617572">
        <ele>103.48</ele>
        <time>2023-08-16T11:20:02Z</time>
      </trkpt>
      <trkpt lat="54.237234983593225" lon="-1.056992020457983">
        <ele>98.670000000000002</ele>
        <time>2023-08-16T11:20:11Z</time>
      </trkpt>
      <trkpt lat="54.238680023699999" lon="-1.057079024612904">
        <ele>90.019999999999996</ele>
        <time>2023-08-16T11:20:21Z</time>
      </trkpt>
      <trkpt lat="54.239487033337355" lon="-1.057467022910714">
        <ele>84.730000000000004</ele>
        <time>2023-08-16T11:20:27Z</time>
      </trkpt>
      <trkpt lat="54.239620976150036" lon="-1.057507004588842">
        <ele>83.290000000000006</ele>
        <time>2023-08-16T11:20:28Z</time>
      </trkpt>
      <trkpt lat="54.239764977246523" lon="-1.057548997923732">
        <ele>81.849999999999994</ele>
        <time>2023-08-16T11:20:29Z</time>
      </trkpt>
      <trkpt lat="54.241231977939606" lon="-1.057986030355096">
        <ele>66.950000000000003</ele>
        <time>2023-08-16T11:20:39Z</time>
      </trkpt>
      <trkpt lat="54.24151998013258" lon="-1.058116033673286">
        <ele>64.069999999999993</ele>
        <time>2023-08-16T11:20:41Z</time>
      </trkpt>
      <trkpt lat="54.241800019517541" lon="-1.058337986469269">
        <ele>60.219999999999999</ele>
        <time>2023-08-16T11:20:43Z</time>
      </trkpt>
      <trkpt lat="54.242454981431365" lon="-1.058817012235522">
        <ele>50.609999999999999</ele>
        <time>2023-08-16T11:20:48Z</time>
      </trkpt>
      <trkpt lat="54.24259202554822" lon="-1.058871997520328">
        <ele>49.159999999999997</ele>
        <time>2023-08-16T11:20:49Z</time>
      </trkpt>
      <trkpt lat="54.242831999436021" lon="-1.058871997520328">
        <ele>46.280000000000001</ele>
        <time>2023-08-16T11:20:51Z</time>
      </trkpt>
      <trkpt lat="54.243224021047354" lon="-1.058879038318992">
        <ele>43.399999999999999</ele>
        <time>2023-08-16T11:20:56Z</time>
      </trkpt>
      <trkpt lat="54.243440022692084" lon="-1.058912985026836">
        <ele>41.950000000000003</ele>
        <time>2023-08-16T11:21:05Z</time>
      </trkpt>
      <trkpt lat="54.243981996551156" lon="-1.059166034683585">
        <ele>43.399999999999999</ele>
        <time>2023-08-16T11:21:18Z</time>
      </trkpt>
      <trkpt lat="54.244036981835961" lon="-1.059191012755036">
        <ele>43.399999999999999</ele>
        <time>2023-08-16T11:21:19Z</time>
      </trkpt>
      <trkpt lat="54.244146030396223" lon="-1.0592429805547">
        <ele>43.880000000000003</ele>
        <time>2023-08-16T11:21:21Z</time>
      </trkpt>
      <trkpt lat="54.24420403316617" lon="-1.059269970282912">
        <ele>43.880000000000003</ele>
        <time>2023-08-16T11:21:22Z</time>
      </trkpt>
      <trkpt lat="54.244253989309072" lon="-1.059298971667886">
        <ele>44.359999999999999</ele>
        <time>2023-08-16T11:21:23Z</time>
      </trkpt>
      <trkpt lat="54.244394972920418" lon="-1.059386981651187">
        <ele>44.359999999999999</ele>
        <time>2023-08-16T11:21:24Z</time>
      </trkpt>
      <trkpt lat="54.244394972920418" lon="-1.059386981651187">
        <ele>43.880000000000003</ele>
        <time>2023-08-16T11:21:25Z</time>
      </trkpt>
      <trkpt lat="54.244425985962152" lon="-1.059427969157696">
        <ele>43.880000000000003</ele>
        <time>2023-08-16T11:21:26Z</time>
      </trkpt>
      <trkpt lat="54.244470996782184" lon="-1.059488989412785">
        <ele>43.880000000000003</ele>
        <time>2023-08-16T11:21:27Z</time>
      </trkpt>
      <trkpt lat="54.244516007602215" lon="-1.059547998011112">
        <ele>44.359999999999999</ele>
        <time>2023-08-16T11:21:28Z</time>
      </trkpt>
      <trkpt lat="54.244561018422246" lon="-1.05960801243782">
        <ele>44.359999999999999</ele>
        <time>2023-08-16T11:21:29Z</time>
      </trkpt>
      <trkpt lat="54.244614997878671" lon="-1.059680012986064">
        <ele>43.880000000000003</ele>
        <time>2023-08-16T11:21:30Z</time>
      </trkpt>
      <trkpt lat="54.244674006476998" lon="-1.059757964685559">
        <ele>43.880000000000003</ele>
        <time>2023-08-16T11:21:31Z</time>
      </trkpt>
      <trkpt lat="54.244724968448281" lon="-1.05982300825417">
        <ele>43.880000000000003</ele>
        <time>2023-08-16T11:21:32Z</time>
      </trkpt>
      <trkpt lat="54.244790012016892" lon="-1.059881011024118">
        <ele>43.880000000000003</ele>
        <time>2023-08-16T11:21:33Z</time>
      </trkpt>
      <trkpt lat="54.244852960109711" lon="-1.059937002137303">
        <ele>44.359999999999999</ele>
        <time>2023-08-16T11:21:34Z</time>
      </trkpt>
      <trkpt lat="54.245663993060589" lon="-1.060556005686522">
        <ele>48.200000000000003</ele>
        <time>2023-08-16T11:21:46Z</time>
      </trkpt>
      <trkpt lat="54.246386010199785" lon="-1.06104601174593">
        <ele>51.090000000000003</ele>
        <time>2023-08-16T11:21:57Z</time>
      </trkpt>
      <trkpt lat="54.246428003534675" lon="-1.061083981767297">
        <ele>51.57</ele>
        <time>2023-08-16T11:21:58Z</time>
      </trkpt>
      <trkpt lat="54.246463039889932" lon="-1.061116000637412">
        <ele>51.57</ele>
        <time>2023-08-16T11:21:59Z</time>
      </trkpt>
      <trkpt lat="54.246519031003118" lon="-1.061167968437076">
        <ele>52.049999999999997</ele>
        <time>2023-08-16T11:22:00Z</time>
      </trkpt>
      <trkpt lat="54.246522970497608" lon="-1.061178026720882">
        <ele>52.530000000000001</ele>
        <time>2023-08-16T11:22:01Z</time>
      </trkpt>
      <trkpt lat="54.246543003246188" lon="-1.061227982863784">
        <ele>53.009999999999998</ele>
        <time>2023-08-16T11:22:02Z</time>
      </trkpt>
      <trkpt lat="54.246539985761046" lon="-1.061342982575297">
        <ele>53.490000000000002</ele>
        <time>2023-08-16T11:22:03Z</time>
      </trkpt>
      <trkpt lat="54.24652598798275" lon="-1.061425963416696">
        <ele>53.490000000000002</ele>
        <time>2023-08-16T11:22:04Z</time>
      </trkpt>
      <trkpt lat="54.246509978547692" lon="-1.061521014198661">
        <ele>53.969999999999999</ele>
        <time>2023-08-16T11:22:05Z</time>
      </trkpt>
      <trkpt lat="54.246493969112635" lon="-1.061618998646736">
        <ele>53.969999999999999</ele>
        <time>2023-08-16T11:22:06Z</time>
      </trkpt>
      <trkpt lat="54.246458010748029" lon="-1.061835000291467">
        <ele>54.450000000000003</ele>
        <time>2023-08-16T11:22:08Z</time>
      </trkpt>
      <trkpt lat="54.246438983827829" lon="-1.061947988346219">
        <ele>54.450000000000003</ele>
        <time>2023-08-16T11:22:09Z</time>
      </trkpt>
      <trkpt lat="54.246428003534675" lon="-1.06216499581933">
        <ele>54.93</ele>
        <time>2023-08-16T11:22:11Z</time>
      </trkpt>
      <trkpt lat="54.246424986049533" lon="-1.062265997752547">
        <ele>55.409999999999997</ele>
        <time>2023-08-16T11:22:12Z</time>
      </trkpt>
      <trkpt lat="54.246420962736011" lon="-1.062437994405627">
        <ele>56.369999999999997</ele>
        <time>2023-08-16T11:22:14Z</time>
      </trkpt>
      <trkpt lat="54.246419034898281" lon="-1.062497003003955">
        <ele>56.369999999999997</ele>
        <time>2023-08-16T11:22:15Z</time>
      </trkpt>
      <trkpt lat="54.246419034898281" lon="-1.062497003003955">
        <ele>56.859999999999999</ele>
        <time>2023-08-16T11:22:24Z</time>
      </trkpt>
      <trkpt lat="54.24641702324152" lon="-1.06257202103734">
        <ele>57.340000000000003</ele>
        <time>2023-08-16T11:22:28Z</time>
      </trkpt>
      <trkpt lat="54.246415011584759" lon="-1.062643015757203">
        <ele>57.82</ele>
        <time>2023-08-16T11:22:29Z</time>
      </trkpt>
      <trkpt lat="54.246422974392772" lon="-1.062757009640336">
        <ele>57.82</ele>
        <time>2023-08-16T11:22:30Z</time>
      </trkpt>
      <trkpt lat="54.246454993262887" lon="-1.062820041552186">
        <ele>57.340000000000003</ele>
        <time>2023-08-16T11:22:31Z</time>
      </trkpt>
      <trkpt lat="54.246537974104285" lon="-1.062903022393584">
        <ele>57.340000000000003</ele>
        <time>2023-08-16T11:22:32Z</time>
      </trkpt>
      <trkpt lat="54.246610980480909" lon="-1.062976028770208">
        <ele>57.340000000000003</ele>
        <time>2023-08-16T11:22:33Z</time>
      </trkpt>
      <trkpt lat="54.246693039312959" lon="-1.063058003783226">
        <ele>57.82</ele>
        <time>2023-08-16T11:22:34Z</time>
      </trkpt>
      <trkpt lat="54.24678398296237" lon="-1.063149031251669">
        <ele>57.82</ele>
        <time>2023-08-16T11:22:35Z</time>
      </trkpt>
      <trkpt lat="54.247270971536636" lon="-1.063579022884369">
        <ele>57.82</ele>
        <time>2023-08-16T11:22:40Z</time>
      </trkpt>
      <trkpt lat="54.247355964034796" lon="-1.0636689607054">
        <ele>57.82</ele>
        <time>2023-08-16T11:22:41Z</time>
      </trkpt>
      <trkpt lat="54.24768696539104" lon="-1.064100963994861">
        <ele>58.780000000000001</ele>
        <time>2023-08-16T11:22:45Z</time>
      </trkpt>
      <trkpt lat="54.24826699309051" lon="-1.065270993858576">
        <ele>60.219999999999999</ele>
        <time>2023-08-16T11:22:53Z</time>
      </trkpt>
      <trkpt lat="54.24837302416563" lon="-1.065621022135019">
        <ele>61.18</ele>
        <time>2023-08-16T11:22:55Z</time>
      </trkpt>
      <trkpt lat="54.248417029157281" lon="-1.06579695828259">
        <ele>61.18</ele>
        <time>2023-08-16T11:22:56Z</time>
      </trkpt>
      <trkpt lat="54.248436978086829" lon="-1.065984964370728">
        <ele>61.18</ele>
        <time>2023-08-16T11:22:57Z</time>
      </trkpt>
      <trkpt lat="54.248578967526555" lon="-1.068059988319874">
        <ele>69.349999999999994</ele>
        <time>2023-08-16T11:23:06Z</time>
      </trkpt>
      <trkpt lat="54.248686004430056" lon="-1.070771031081677">
        <ele>83.769999999999996</ele>
        <time>2023-08-16T11:23:16Z</time>
      </trkpt>
      <trkpt lat="54.248644011095166" lon="-1.073235981166363">
        <ele>93.870000000000005</ele>
        <time>2023-08-16T11:23:25Z</time>
      </trkpt>
      <trkpt lat="54.248612998053432" lon="-1.074382960796356">
        <ele>98.189999999999998</ele>
        <time>2023-08-16T11:23:29Z</time>
      </trkpt>
      <trkpt lat="54.248648034408689" lon="-1.075014034286141">
        <ele>100.11</ele>
        <time>2023-08-16T11:23:31Z</time>
      </trkpt>
      <trkpt lat="54.249156983569264" lon="-1.077871005982161">
        <ele>111.17</ele>
        <time>2023-08-16T11:23:40Z</time>
      </trkpt>
      <trkpt lat="54.249985031783581" lon="-1.08059898018837">
        <ele>125.11</ele>
        <time>2023-08-16T11:23:49Z</time>
      </trkpt>
      <trkpt lat="54.250935958698392" lon="-1.083215977996588">
        <ele>139.05000000000001</ele>
        <time>2023-08-16T11:23:58Z</time>
      </trkpt>
      <trkpt lat="54.251842964440584" lon="-1.086146039888263">
        <ele>141.93000000000001</ele>
        <time>2023-08-16T11:24:07Z</time>
      </trkpt>
      <trkpt lat="54.252509996294975" lon="-1.089088004082441">
        <ele>146.74000000000001</ele>
        <time>2023-08-16T11:24:16Z</time>
      </trkpt>
      <trkpt lat="54.253429993987083" lon="-1.092535983771086">
        <ele>158.75</ele>
        <time>2023-08-16T11:24:27Z</time>
      </trkpt>
      <trkpt lat="54.254598012194037" lon="-1.095099002122879">
        <ele>167.41</ele>
        <time>2023-08-16T11:24:36Z</time>
      </trkpt>
      <trkpt lat="54.256226029247046" lon="-1.097823036834598">
        <ele>176.53999999999999</ele>
        <time>2023-08-16T11:24:47Z</time>
      </trkpt>
      <trkpt lat="54.256352009251714" lon="-1.098037026822567">
        <ele>177.5</ele>
        <time>2023-08-16T11:24:48Z</time>
      </trkpt>
      <trkpt lat="54.25647203810513" lon="-1.098265014588833">
        <ele>178.46000000000001</ele>
        <time>2023-08-16T11:24:49Z</time>
      </trkpt>
      <trkpt lat="54.256575973704457" lon="-1.098525021225214">
        <ele>179.41999999999999</ele>
        <time>2023-08-16T11:24:50Z</time>
      </trkpt>
      <trkpt lat="54.256671024486423" lon="-1.098809000104666">
        <ele>179.90000000000001</ele>
        <time>2023-08-16T11:24:51Z</time>
      </trkpt>
      <trkpt lat="54.256768003106117" lon="-1.09909700229764">
        <ele>180.87</ele>
        <time>2023-08-16T11:24:52Z</time>
      </trkpt>
      <trkpt lat="54.257785985246301" lon="-1.102035026997328">
        <ele>187.11000000000001</ele>
        <time>2023-08-16T11:25:02Z</time>
      </trkpt>
      <trkpt lat="54.258899018168449" lon="-1.10500599257648">
        <ele>184.22999999999999</ele>
        <time>2023-08-16T11:25:13Z</time>
      </trkpt>
      <trkpt lat="54.259555991739035" lon="-1.106647001579404">
        <ele>179.90000000000001</ele>
        <time>2023-08-16T11:25:21Z</time>
      </trkpt>
      <trkpt lat="54.260217994451523" lon="-1.108467970043421">
        <ele>179.41999999999999</ele>
        <time>2023-08-16T11:25:28Z</time>
      </trkpt>
      <trkpt lat="54.261451978236437" lon="-1.110690012574196">
        <ele>176.53999999999999</ele>
        <time>2023-08-16T11:25:36Z</time>
      </trkpt>
      <trkpt lat="54.263007994741201" lon="-1.112587004899979">
        <ele>176.06</ele>
        <time>2023-08-16T11:25:44Z</time>
      </trkpt>
      <trkpt lat="54.264952009543777" lon="-1.115214983001351">
        <ele>190.47999999999999</ele>
        <time>2023-08-16T11:25:56Z</time>
      </trkpt>
      <trkpt lat="54.266511965543032" lon="-1.117051038891077">
        <ele>197.21000000000001</ele>
        <time>2023-08-16T11:26:05Z</time>
      </trkpt>
      <trkpt lat="54.268308039754629" lon="-1.118771005421877">
        <ele>200.56999999999999</ele>
        <time>2023-08-16T11:26:15Z</time>
      </trkpt>
      <trkpt lat="54.26977101713419" lon="-1.120160976424813">
        <ele>198.65000000000001</ele>
        <time>2023-08-16T11:26:22Z</time>
      </trkpt>
      <trkpt lat="54.271269030869007" lon="-1.121461009606719">
        <ele>193.84</ele>
        <time>2023-08-16T11:26:29Z</time>
      </trkpt>
      <trkpt lat="54.273384036496282" lon="-1.123077040538192">
        <ele>194.80000000000001</ele>
        <time>2023-08-16T11:26:39Z</time>
      </trkpt>
      <trkpt lat="54.274620031937957" lon="-1.123496973887086">
        <ele>196.72999999999999</ele>
        <time>2023-08-16T11:26:45Z</time>
      </trkpt>
      <trkpt lat="54.275006018579006" lon="-1.123523963615298">
        <ele>196.72999999999999</ele>
        <time>2023-08-16T11:26:47Z</time>
      </trkpt>
      <trkpt lat="54.275209028273821" lon="-1.123475013300777">
        <ele>196.25</ele>
        <time>2023-08-16T11:26:48Z</time>
      </trkpt>
      <trkpt lat="54.275412959977984" lon="-1.123408963903785">
        <ele>195.77000000000001</ele>
        <time>2023-08-16T11:26:49Z</time>
      </trkpt>
      <trkpt lat="54.276461033150554" lon="-1.122831031680107">
        <ele>195.28</ele>
        <time>2023-08-16T11:26:55Z</time>
      </trkpt>
      <trkpt lat="54.276602016761899" lon="-1.122770011425018">
        <ele>195.77000000000001</ele>
        <time>2023-08-16T11:26:56Z</time>
      </trkpt>
      <trkpt lat="54.27675599232316" lon="-1.122754001989961">
        <ele>196.25</ele>
        <time>2023-08-16T11:26:57Z</time>
      </trkpt>
      <trkpt lat="54.277984024956822" lon="-1.122832959517837">
        <ele>198.16999999999999</ele>
        <time>2023-08-16T11:27:04Z</time>
      </trkpt>
      <trkpt lat="54.280240014195442" lon="-1.123514994978905">
        <ele>197.69</ele>
        <time>2023-08-16T11:27:15Z</time>
      </trkpt>
      <trkpt lat="54.282574960961938" lon="-1.124305995181203">
        <ele>207.30000000000001</ele>
        <time>2023-08-16T11:27:26Z</time>
      </trkpt>
      <trkpt lat="54.284333987161517" lon="-1.125424979254603">
        <ele>217.40000000000001</ele>
        <time>2023-08-16T11:27:35Z</time>
      </trkpt>
      <trkpt lat="54.286138024181128" lon="-1.127679040655494">
        <ele>223.16</ele>
        <time>2023-08-16T11:27:45Z</time>
      </trkpt>
      <trkpt lat="54.287722958251834" lon="-1.129916002973914">
        <ele>230.37</ele>
        <time>2023-08-16T11:27:54Z</time>
      </trkpt>
      <trkpt lat="54.288948979228735" lon="-1.131676035001874">
        <ele>237.09999999999999</ele>
        <time>2023-08-16T11:28:01Z</time>
      </trkpt>
      <trkpt lat="54.290315983816981" lon="-1.133262980729342">
        <ele>242.87</ele>
        <time>2023-08-16T11:28:08Z</time>
      </trkpt>
      <trkpt lat="54.291899995878339" lon="-1.134663010016084">
        <ele>249.12</ele>
        <time>2023-08-16T11:28:16Z</time>
      </trkpt>
      <trkpt lat="54.29332097992301" lon="-1.135636987164617">
        <ele>249.12</ele>
        <time>2023-08-16T11:28:24Z</time>
      </trkpt>
      <trkpt lat="54.293469004333019" lon="-1.13568501546979">
        <ele>248.16</ele>
        <time>2023-08-16T11:28:25Z</time>
      </trkpt>
      <trkpt lat="54.293604036793113" lon="-1.135675041005015">
        <ele>247.19999999999999</ele>
        <time>2023-08-16T11:28:26Z</time>
      </trkpt>
      <trkpt lat="54.293734962120652" lon="-1.135634975507855">
        <ele>246.22999999999999</ele>
        <time>2023-08-16T11:28:27Z</time>
      </trkpt>
      <trkpt lat="54.293861025944352" lon="-1.135551994666457">
        <ele>244.78999999999999</ele>
        <time>2023-08-16T11:28:28Z</time>
      </trkpt>
      <trkpt lat="54.293995974585414" lon="-1.135462978854775">
        <ele>243.83000000000001</ele>
        <time>2023-08-16T11:28:29Z</time>
      </trkpt>
      <trkpt lat="54.294794015586376" lon="-1.134781027212739">
        <ele>237.09999999999999</ele>
        <time>2023-08-16T11:28:35Z</time>
      </trkpt>
      <trkpt lat="54.294925024732947" lon="-1.134625962004066">
        <ele>235.66</ele>
        <time>2023-08-16T11:28:36Z</time>
      </trkpt>
      <trkpt lat="54.295043963938951" lon="-1.134458994492889">
        <ele>234.69999999999999</ele>
        <time>2023-08-16T11:28:37Z</time>
      </trkpt>
      <trkpt lat="54.296064041554928" lon="-1.133031975477934">
        <ele>222.19999999999999</ele>
        <time>2023-08-16T11:28:46Z</time>
      </trkpt>
      <trkpt lat="54.297185959294438" lon="-1.131617026403546">
        <ele>202.49000000000001</ele>
        <time>2023-08-16T11:28:56Z</time>
      </trkpt>
      <trkpt lat="54.297952987253666" lon="-1.130927028134465">
        <ele>189.52000000000001</ele>
        <time>2023-08-16T11:29:03Z</time>
      </trkpt>
      <trkpt lat="54.298126995563507" lon="-1.130828959867358">
        <ele>187.59</ele>
        <time>2023-08-16T11:29:04Z</time>
      </trkpt>
      <trkpt lat="54.298260016366839" lon="-1.130754025653005">
        <ele>185.66999999999999</ele>
        <time>2023-08-16T11:29:05Z</time>
      </trkpt>
      <trkpt lat="54.298393959179521" lon="-1.130680013448">
        <ele>184.22999999999999</ele>
        <time>2023-08-16T11:29:06Z</time>
      </trkpt>
      <trkpt lat="54.298525974154472" lon="-1.130604995414615">
        <ele>182.78999999999999</ele>
        <time>2023-08-16T11:29:07Z</time>
      </trkpt>
      <trkpt lat="54.298653965815902" lon="-1.130534000694752">
        <ele>180.87</ele>
        <time>2023-08-16T11:29:08Z</time>
      </trkpt>
      <trkpt lat="54.298780029639602" lon="-1.130463005974889">
        <ele>179.41999999999999</ele>
        <time>2023-08-16T11:29:09Z</time>
      </trkpt>
      <trkpt lat="54.2991410382092" lon="-1.130343982949853">
        <ele>174.62</ele>
        <time>2023-08-16T11:29:12Z</time>
      </trkpt>
      <trkpt lat="54.299419987946749" lon="-1.130263013765216">
        <ele>171.25</ele>
        <time>2023-08-16T11:29:14Z</time>
      </trkpt>
      <trkpt lat="54.300350965932012" lon="-1.129819024354219">
        <ele>163.08000000000001</ele>
        <time>2023-08-16T11:29:22Z</time>
      </trkpt>
      <trkpt lat="54.300686996430159" lon="-1.129672005772591">
        <ele>162.12</ele>
        <time>2023-08-16T11:29:25Z</time>
      </trkpt>
      <trkpt lat="54.30079797282815" lon="-1.129622971639037">
        <ele>161.63999999999999</ele>
        <time>2023-08-16T11:29:26Z</time>
      </trkpt>
      <trkpt lat="54.300956977531314" lon="-1.129552982747555">
        <ele>161.16</ele>
        <time>2023-08-16T11:29:27Z</time>
      </trkpt>
      <trkpt lat="54.301934977993369" lon="-1.128901038318873">
        <ele>154.43000000000001</ele>
        <time>2023-08-16T11:29:34Z</time>
      </trkpt>
      <trkpt lat="54.302424984052777" lon="-1.128619993105531">
        <ele>148.66</ele>
        <time>2023-08-16T11:29:38Z</time>
      </trkpt>
      <trkpt lat="54.302536966279149" lon="-1.128594009205699">
        <ele>147.22</ele>
        <time>2023-08-16T11:29:39Z</time>
      </trkpt>
      <trkpt lat="54.30264400318265" lon="-1.128568025305867">
        <ele>145.78</ele>
        <time>2023-08-16T11:29:40Z</time>
      </trkpt>
      <trkpt lat="54.302846007049084" lon="-1.128637008368969">
        <ele>142.88999999999999</ele>
        <time>2023-08-16T11:29:42Z</time>
      </trkpt>
      <trkpt lat="54.302889006212354" lon="-1.128652011975646">
        <ele>141.44999999999999</ele>
        <time>2023-08-16T11:29:43Z</time>
      </trkpt>
      <trkpt lat="54.303050022572279" lon="-1.128796013072133">
        <ele>140.00999999999999</ele>
        <time>2023-08-16T11:29:44Z</time>
      </trkpt>
      <trkpt lat="54.303127974271774" lon="-1.128930039703846">
        <ele>139.05000000000001</ele>
        <time>2023-08-16T11:29:45Z</time>
      </trkpt>
      <trkpt lat="54.303209027275443" lon="-1.129117039963603">
        <ele>138.09</ele>
        <time>2023-08-16T11:29:46Z</time>
      </trkpt>
      <trkpt lat="54.303296031430364" lon="-1.129317032173276">
        <ele>137.13</ele>
        <time>2023-08-16T11:29:47Z</time>
      </trkpt>
      <trkpt lat="54.303354034200311" lon="-1.1295420024544">
        <ele>136.63999999999999</ele>
        <time>2023-08-16T11:29:48Z</time>
      </trkpt>
      <trkpt lat="54.303414970636368" lon="-1.129781976342201">
        <ele>135.68000000000001</ele>
        <time>2023-08-16T11:29:49Z</time>
      </trkpt>
      <trkpt lat="54.304042020812631" lon="-1.132039977237582">
        <ele>131.84</ele>
        <time>2023-08-16T11:29:58Z</time>
      </trkpt>
      <trkpt lat="54.304136987775564" lon="-1.132238041609526">
        <ele>131.36000000000001</ele>
        <time>2023-08-16T11:29:59Z</time>
      </trkpt>
      <trkpt lat="54.304232960566878" lon="-1.132410960271955">
        <ele>130.88</ele>
        <time>2023-08-16T11:30:00Z</time>
      </trkpt>
      <trkpt lat="54.304832015186548" lon="-1.133141024038196">
        <ele>130.88</ele>
        <time>2023-08-16T11:30:06Z</time>
      </trkpt>
      <trkpt lat="54.304937040433288" lon="-1.133219981566072">
        <ele>130.40000000000001</ele>
        <time>2023-08-16T11:30:07Z</time>
      </trkpt>
      <trkpt lat="54.305040976032615" lon="-1.133297011256218">
        <ele>129.91999999999999</ele>
        <time>2023-08-16T11:30:08Z</time>
      </trkpt>
      <trkpt lat="54.305139966309071" lon="-1.133302040398121">
        <ele>128.94999999999999</ele>
        <time>2023-08-16T11:30:09Z</time>
      </trkpt>
      <trkpt lat="54.305249014869332" lon="-1.133291982114315">
        <ele>128.47</ele>
        <time>2023-08-16T11:30:10Z</time>
      </trkpt>
      <trkpt lat="54.305344987660646" lon="-1.133270021528006">
        <ele>127.98999999999999</ele>
        <time>2023-08-16T11:30:11Z</time>
      </trkpt>
      <trkpt lat="54.305452024564147" lon="-1.133210007101297">
        <ele>127.03</ele>
        <time>2023-08-16T11:30:12Z</time>
      </trkpt>
      <trkpt lat="54.305564006790519" lon="-1.133148986846209">
        <ele>126.06999999999999</ele>
        <time>2023-08-16T11:30:13Z</time>
      </trkpt>
      <trkpt lat="54.305678000673652" lon="-1.13308503292501">
        <ele>125.59</ele>
        <time>2023-08-16T11:30:14Z</time>
      </trkpt>
      <trkpt lat="54.306853981688619" lon="-1.132631991058588">
        <ele>119.81999999999999</ele>
        <time>2023-08-16T11:30:23Z</time>
      </trkpt>
      <trkpt lat="54.308086037635803" lon="-1.132846986874938">
        <ele>122.70999999999999</ele>
        <time>2023-08-16T11:30:32Z</time>
      </trkpt>
      <trkpt lat="54.308205982670188" lon="-1.13289300352335">
        <ele>123.67</ele>
        <time>2023-08-16T11:30:33Z</time>
      </trkpt>
      <trkpt lat="54.30833900347352" lon="-1.132943965494633">
        <ele>125.11</ele>
        <time>2023-08-16T11:30:35Z</time>
      </trkpt>
      <trkpt lat="54.308452997356653" lon="-1.1330889724195">
        <ele>126.55</ele>
        <time>2023-08-16T11:30:36Z</time>
      </trkpt>
      <trkpt lat="54.308532038703561" lon="-1.133188968524337">
        <ele>127.51000000000001</ele>
        <time>2023-08-16T11:30:37Z</time>
      </trkpt>
      <trkpt lat="54.30857595987618" lon="-1.133245965465903">
        <ele>128.47</ele>
        <time>2023-08-16T11:30:38Z</time>
      </trkpt>
      <trkpt lat="54.308629017323256" lon="-1.133372029289603">
        <ele>129.91999999999999</ele>
        <time>2023-08-16T11:30:39Z</time>
      </trkpt>
      <trkpt lat="54.308680985122919" lon="-1.13349499180913">
        <ele>130.40000000000001</ele>
        <time>2023-08-16T11:30:40Z</time>
      </trkpt>
      <trkpt lat="54.309020033106208" lon="-1.134300995618105">
        <ele>135.19999999999999</ele>
        <time>2023-08-16T11:30:46Z</time>
      </trkpt>
      <trkpt lat="54.30909002199769" lon="-1.134467041119933">
        <ele>135.19999999999999</ele>
        <time>2023-08-16T11:30:48Z</time>
      </trkpt>
      <trkpt lat="54.309217007830739" lon="-1.13463400863111">
        <ele>135.68000000000001</ele>
        <time>2023-08-16T11:30:49Z</time>
      </trkpt>
      <trkpt lat="54.30928498506546" lon="-1.134723024442792">
        <ele>135.68000000000001</ele>
        <time>2023-08-16T11:30:50Z</time>
      </trkpt>
      <trkpt lat="54.30947600863874" lon="-1.134937014430761">
        <ele>137.13</ele>
        <time>2023-08-16T11:30:53Z</time>
      </trkpt>
      <trkpt lat="54.309556977823377" lon="-1.134973978623748">
        <ele>137.61000000000001</ele>
        <time>2023-08-16T11:30:54Z</time>
      </trkpt>
      <trkpt lat="54.309668960049748" lon="-1.135025024414063">
        <ele>138.09</ele>
        <time>2023-08-16T11:30:56Z</time>
      </trkpt>
      <trkpt lat="54.309783959761262" lon="-1.135011026635766">
        <ele>138.56999999999999</ele>
        <time>2023-08-16T11:30:57Z</time>
      </trkpt>
      <trkpt lat="54.309845985844731" lon="-1.134999040514231">
        <ele>139.05000000000001</ele>
        <time>2023-08-16T11:30:58Z</time>
      </trkpt>
      <trkpt lat="54.309930978342891" lon="-1.13491396419704">
        <ele>139.53</ele>
        <time>2023-08-16T11:30:59Z</time>
      </trkpt>
      <trkpt lat="54.310013959184289" lon="-1.134820003062487">
        <ele>139.53</ele>
        <time>2023-08-16T11:31:00Z</time>
      </trkpt>
      <trkpt lat="54.31009903550148" lon="-1.134695028886199">
        <ele>139.53</ele>
        <time>2023-08-16T11:31:01Z</time>
      </trkpt>
      <trkpt lat="54.310910990461707" lon="-1.133653996512294">
        <ele>140.97</ele>
        <time>2023-08-16T11:31:09Z</time>
      </trkpt>
      <trkpt lat="54.311004029586911" lon="-1.133567998185754">
        <ele>140.49000000000001</ele>
        <time>2023-08-16T11:31:10Z</time>
      </trkpt>
      <trkpt lat="54.311087010428309" lon="-1.133490968495607">
        <ele>140.00999999999999</ele>
        <time>2023-08-16T11:31:11Z</time>
      </trkpt>
      <trkpt lat="54.311677012592554" lon="-1.133196009323001">
        <ele>131.84</ele>
        <time>2023-08-16T11:31:16Z</time>
      </trkpt>
      <trkpt lat="54.312123013660312" lon="-1.13300196826458">
        <ele>124.15000000000001</ele>
        <time>2023-08-16T11:31:19Z</time>
      </trkpt>
      <trkpt lat="54.312285035848618" lon="-1.13291697576642">
        <ele>122.22</ele>
        <time>2023-08-16T11:31:20Z</time>
      </trkpt>
      <trkpt lat="54.312458960339427" lon="-1.132816979661584">
        <ele>120.3</ele>
        <time>2023-08-16T11:31:21Z</time>
      </trkpt>
      <trkpt lat="54.313633013516665" lon="-1.13151996396482">
        <ele>111.17</ele>
        <time>2023-08-16T11:31:27Z</time>
      </trkpt>
      <trkpt lat="54.314920976758003" lon="-1.129998983815312">
        <ele>118.86</ele>
        <time>2023-08-16T11:31:34Z</time>
      </trkpt>
      <trkpt lat="54.31643801741302" lon="-1.128332996740937">
        <ele>129.43000000000001</ele>
        <time>2023-08-16T11:31:43Z</time>
      </trkpt>
      <trkpt lat="54.316623006016016" lon="-1.12821196205914">
        <ele>130.88</ele>
        <time>2023-08-16T11:31:44Z</time>
      </trkpt>
      <trkpt lat="54.316809000447392" lon="-1.128090005367994">
        <ele>131.84</ele>
        <time>2023-08-16T11:31:45Z</time>
      </trkpt>
      <trkpt lat="54.318197965621948" lon="-1.127376034855843">
        <ele>139.05000000000001</ele>
        <time>2023-08-16T11:31:52Z</time>
      </trkpt>
      <trkpt lat="54.319269005209208" lon="-1.12670598551631">
        <ele>143.84999999999999</ele>
        <time>2023-08-16T11:31:57Z</time>
      </trkpt>
      <trkpt lat="54.32060700841248" lon="-1.125873997807503">
        <ele>146.74000000000001</ele>
        <time>2023-08-16T11:32:04Z</time>
      </trkpt>
      <trkpt lat="54.322391012683511" lon="-1.125415004789829">
        <ele>142.41</ele>
        <time>2023-08-16T11:32:12Z</time>
      </trkpt>
      <trkpt lat="54.323906963691115" lon="-1.125095989555121">
        <ele>139.05000000000001</ele>
        <time>2023-08-16T11:32:19Z</time>
      </trkpt>
      <trkpt lat="54.325090991333127" lon="-1.125361025333405">
        <ele>134.72</ele>
        <time>2023-08-16T11:32:25Z</time>
      </trkpt>
      <trkpt lat="54.325284026563168" lon="-1.125335963442922">
        <ele>134.24000000000001</ele>
        <time>2023-08-16T11:32:26Z</time>
      </trkpt>
      <trkpt lat="54.325485024601221" lon="-1.125295981764793">
        <ele>133.75999999999999</ele>
        <time>2023-08-16T11:32:27Z</time>
      </trkpt>
      <trkpt lat="54.325686022639275" lon="-1.125248037278652">
        <ele>132.80000000000001</ele>
        <time>2023-08-16T11:32:28Z</time>
      </trkpt>
      <trkpt lat="54.325881991535425" lon="-1.125162038952112">
        <ele>132.80000000000001</ele>
        <time>2023-08-16T11:32:29Z</time>
      </trkpt>
      <trkpt lat="54.327942011877894" lon="-1.124250004068017">
        <ele>136.16</ele>
        <time>2023-08-16T11:32:39Z</time>
      </trkpt>
      <trkpt lat="54.328348031267524" lon="-1.124039031565189">
        <ele>137.13</ele>
        <time>2023-08-16T11:32:41Z</time>
      </trkpt>
      <trkpt lat="54.329724004492164" lon="-1.122674960643053">
        <ele>140.00999999999999</ele>
        <time>2023-08-16T11:32:48Z</time>
      </trkpt>
      <trkpt lat="54.330084007233381" lon="-1.12223600037396">
        <ele>140.97</ele>
        <time>2023-08-16T11:32:50Z</time>
      </trkpt>
      <trkpt lat="54.330279976129532" lon="-1.122062997892499">
        <ele>141.93000000000001</ele>
        <time>2023-08-16T11:32:51Z</time>
      </trkpt>
      <trkpt lat="54.331662990152836" lon="-1.120650982484222">
        <ele>143.37</ele>
        <time>2023-08-16T11:32:58Z</time>
      </trkpt>
      <trkpt lat="54.332035984843969" lon="-1.120237000286579">
        <ele>142.88999999999999</ele>
        <time>2023-08-16T11:33:00Z</time>
      </trkpt>
      <trkpt lat="54.332237988710403" lon="-1.12008897587657">
        <ele>142.88999999999999</ele>
        <time>2023-08-16T11:33:01Z</time>
      </trkpt>
      <trkpt lat="54.332439992576838" lon="-1.119956960901618">
        <ele>142.88999999999999</ele>
        <time>2023-08-16T11:33:02Z</time>
      </trkpt>
      <trkpt lat="54.334255009889603" lon="-1.118828002363443">
        <ele>143.37</ele>
        <time>2023-08-16T11:33:11Z</time>
      </trkpt>
      <trkpt lat="54.335707006976008" lon="-1.118360040709376">
        <ele>140.00999999999999</ele>
        <time>2023-08-16T11:33:18Z</time>
      </trkpt>
      <trkpt lat="54.336685007438064" lon="-1.11826297827065">
        <ele>138.09</ele>
        <time>2023-08-16T11:33:23Z</time>
      </trkpt>
      <trkpt lat="54.336892040446401" lon="-1.118314024060965">
        <ele>137.61000000000001</ele>
        <time>2023-08-16T11:33:24Z</time>
      </trkpt>
      <trkpt lat="54.337658984586596" lon="-1.11860697157681">
        <ele>136.16</ele>
        <time>2023-08-16T11:33:28Z</time>
      </trkpt>
      <trkpt lat="54.337833998724818" lon="-1.118543017655611">
        <ele>136.16</ele>
        <time>2023-08-16T11:33:29Z</time>
      </trkpt>
      <trkpt lat="54.338012030348182" lon="-1.118478979915381">
        <ele>135.68000000000001</ele>
        <time>2023-08-16T11:33:30Z</time>
      </trkpt>
      <trkpt lat="54.33919102884829" lon="-1.118160970509052">
        <ele>132.31999999999999</ele>
        <time>2023-08-16T11:33:36Z</time>
      </trkpt>
      <trkpt lat="54.340649982914329" lon="-1.118312012404203">
        <ele>129.91999999999999</ele>
        <time>2023-08-16T11:33:43Z</time>
      </trkpt>
      <trkpt lat="54.342932039871812" lon="-1.11948698759079">
        <ele>130.40000000000001</ele>
        <time>2023-08-16T11:33:54Z</time>
      </trkpt>
      <trkpt lat="54.344638008624315" lon="-1.120599014684558">
        <ele>131.84</ele>
        <time>2023-08-16T11:34:03Z</time>
      </trkpt>
      <trkpt lat="54.344845041632652" lon="-1.120687024667859">
        <ele>132.80000000000001</ele>
        <time>2023-08-16T11:34:04Z</time>
      </trkpt>
      <trkpt lat="54.346027979627252" lon="-1.121192034333944">
        <ele>138.56999999999999</ele>
        <time>2023-08-16T11:34:10Z</time>
      </trkpt>
      <trkpt lat="54.347296999767423" lon="-1.121518006548286">
        <ele>143.84999999999999</ele>
        <time>2023-08-16T11:34:16Z</time>
      </trkpt>
      <trkpt lat="54.348140973597765" lon="-1.121745994314551">
        <ele>142.88999999999999</ele>
        <time>2023-08-16T11:34:20Z</time>
      </trkpt>
      <trkpt lat="54.348340965807438" lon="-1.12176401540637">
        <ele>142.41</ele>
        <time>2023-08-16T11:34:21Z</time>
      </trkpt>
      <trkpt lat="54.348531989380717" lon="-1.12176401540637">
        <ele>141.93000000000001</ele>
        <time>2023-08-16T11:34:22Z</time>
      </trkpt>
      <trkpt lat="54.348727036267519" lon="-1.121668964624405">
        <ele>141.44999999999999</ele>
        <time>2023-08-16T11:34:23Z</time>
      </trkpt>
      <trkpt lat="54.348910013213754" lon="-1.12157098017633">
        <ele>140.97</ele>
        <time>2023-08-16T11:34:24Z</time>
      </trkpt>
      <trkpt lat="54.349107993766665" lon="-1.121465032920241">
        <ele>140.97</ele>
        <time>2023-08-16T11:34:25Z</time>
      </trkpt>
      <trkpt lat="54.350986965000629" lon="-1.120563978329301">
        <ele>140.00999999999999</ele>
        <time>2023-08-16T11:34:34Z</time>
      </trkpt>
      <trkpt lat="54.351335987448692" lon="-1.120502036064863">
        <ele>140.00999999999999</ele>
        <time>2023-08-16T11:34:36Z</time>
      </trkpt>
      <trkpt lat="54.351514019072056" lon="-1.120488038286567">
        <ele>139.53</ele>
        <time>2023-08-16T11:34:37Z</time>
      </trkpt>
      <trkpt lat="54.352458994835615" lon="-1.120364991948009">
        <ele>140.97</ele>
        <time>2023-08-16T11:34:42Z</time>
      </trkpt>
      <trkpt lat="54.352611964568496" lon="-1.120264995843172">
        <ele>140.97</ele>
        <time>2023-08-16T11:34:43Z</time>
      </trkpt>
      <trkpt lat="54.352755965664983" lon="-1.12013298086822">
        <ele>141.44999999999999</ele>
        <time>2023-08-16T11:34:44Z</time>
      </trkpt>
      <trkpt lat="54.352883035317063" lon="-1.119955033063889">
        <ele>140.97</ele>
        <time>2023-08-16T11:34:45Z</time>
      </trkpt>
      <trkpt lat="54.353016978129745" lon="-1.119767026975751">
        <ele>141.44999999999999</ele>
        <time>2023-08-16T11:34:46Z</time>
      </trkpt>
      <trkpt lat="54.35315502807498" lon="-1.119570974260569">
        <ele>141.44999999999999</ele>
        <time>2023-08-16T11:34:47Z</time>
      </trkpt>
      <trkpt lat="54.35330699197948" lon="-1.119394032284617">
        <ele>141.93000000000001</ele>
        <time>2023-08-16T11:34:48Z</time>
      </trkpt>
      <trkpt lat="54.353472031652927" lon="-1.119240978732705">
        <ele>142.41</ele>
        <time>2023-08-16T11:34:49Z</time>
      </trkpt>
      <trkpt lat="54.353656014427543" lon="-1.119117010384798">
        <ele>143.37</ele>
        <time>2023-08-16T11:34:50Z</time>
      </trkpt>
      <trkpt lat="54.353847038000822" lon="-1.119025982916355">
        <ele>144.34</ele>
        <time>2023-08-16T11:34:51Z</time>
      </trkpt>
      <trkpt lat="54.354040995240211" lon="-1.118933027610183">
        <ele>144.81999999999999</ele>
        <time>2023-08-16T11:34:52Z</time>
      </trkpt>
      <trkpt lat="54.356038989499211" lon="-1.118056029081345">
        <ele>148.18000000000001</ele>
        <time>2023-08-16T11:35:02Z</time>
      </trkpt>
      <trkpt lat="54.356376025825739" lon="-1.117944968864322">
        <ele>148.66</ele>
        <time>2023-08-16T11:35:04Z</time>
      </trkpt>
      <trkpt lat="54.356520026922226" lon="-1.117944968864322">
        <ele>148.66</ele>
        <time>2023-08-16T11:35:05Z</time>
      </trkpt>
      <trkpt lat="54.35667903162539" lon="-1.117972964420915">
        <ele>148.18000000000001</ele>
        <time>2023-08-16T11:35:06Z</time>
      </trkpt>
      <trkpt lat="54.356820015236735" lon="-1.118074972182512">
        <ele>147.69999999999999</ele>
        <time>2023-08-16T11:35:07Z</time>
      </trkpt>
      <trkpt lat="54.356968961656094" lon="-1.118182009086013">
        <ele>147.22</ele>
        <time>2023-08-16T11:35:08Z</time>
      </trkpt>
      <trkpt lat="54.357112962752581" lon="-1.118322992697358">
        <ele>147.22</ele>
        <time>2023-08-16T11:35:09Z</time>
      </trkpt>
      <trkpt lat="54.357244977727532" lon="-1.118475962430239">
        <ele>146.25999999999999</ele>
        <time>2023-08-16T11:35:10Z</time>
      </trkpt>
      <trkpt lat="54.357370035722852" lon="-1.118673020973802">
        <ele>146.25999999999999</ele>
        <time>2023-08-16T11:35:11Z</time>
      </trkpt>
      <trkpt lat="54.35747598297894" lon="-1.118878964334726">
        <ele>145.78</ele>
        <time>2023-08-16T11:35:12Z</time>
      </trkpt>
      <trkpt lat="54.357581008225679" lon="-1.119084991514683">
        <ele>145.78</ele>
        <time>2023-08-16T11:35:13Z</time>
      </trkpt>
      <trkpt lat="54.357684021815658" lon="-1.119285989552736">
        <ele>145.78</ele>
        <time>2023-08-16T11:35:14Z</time>
      </trkpt>
      <trkpt lat="54.357783012092113" lon="-1.119480030611157">
        <ele>145.78</ele>
        <time>2023-08-16T11:35:15Z</time>
      </trkpt>
      <trkpt lat="54.358060033991933" lon="-1.120034996420145">
        <ele>146.25999999999999</ele>
        <time>2023-08-16T11:35:18Z</time>
      </trkpt>
      <trkpt lat="54.358176039531827" lon="-1.120173968374729">
        <ele>146.25999999999999</ele>
        <time>2023-08-16T11:35:19Z</time>
      </trkpt>
      <trkpt lat="54.35829003341496" lon="-1.120311012491584">
        <ele>146.74000000000001</ele>
        <time>2023-08-16T11:35:20Z</time>
      </trkpt>
      <trkpt lat="54.358406038954854" lon="-1.120428023859859">
        <ele>147.22</ele>
        <time>2023-08-16T11:35:21Z</time>
      </trkpt>
      <trkpt lat="54.358539981767535" lon="-1.120529025793076">
        <ele>147.69999999999999</ele>
        <time>2023-08-16T11:35:22Z</time>
      </trkpt>
      <trkpt lat="54.358817003667355" lon="-1.120757013559341">
        <ele>148.18000000000001</ele>
        <time>2023-08-16T11:35:24Z</time>
      </trkpt>
      <trkpt lat="54.358938038349152" lon="-1.12092599272728">
        <ele>148.66</ele>
        <time>2023-08-16T11:35:25Z</time>
      </trkpt>
      <trkpt lat="54.359063012525439" lon="-1.121101006865501">
        <ele>148.66</ele>
        <time>2023-08-16T11:35:26Z</time>
      </trkpt>
      <trkpt lat="54.359185975044966" lon="-1.121308961883187">
        <ele>149.13999999999999</ele>
        <time>2023-08-16T11:35:27Z</time>
      </trkpt>
      <trkpt lat="54.359309021383524" lon="-1.121536027640104">
        <ele>149.62</ele>
        <time>2023-08-16T11:35:28Z</time>
      </trkpt>
      <trkpt lat="54.359859963878989" lon="-1.122352005913854">
        <ele>150.09999999999999</ele>
        <time>2023-08-16T11:35:32Z</time>
      </trkpt>
      <trkpt lat="54.360022991895676" lon="-1.12251402810216">
        <ele>150.58000000000001</ele>
        <time>2023-08-16T11:35:33Z</time>
      </trkpt>
      <trkpt lat="54.36114901676774" lon="-1.123465038836002">
        <ele>155.38999999999999</ele>
        <time>2023-08-16T11:35:40Z</time>
      </trkpt>
      <trkpt lat="54.36230999417603" lon="-1.124271964654326">
        <ele>158.75</ele>
        <time>2023-08-16T11:35:45Z</time>
      </trkpt>
      <trkpt lat="54.364225007593632" lon="-1.125433025881648">
        <ele>160.19999999999999</ele>
        <time>2023-08-16T11:35:53Z</time>
      </trkpt>
      <trkpt lat="54.365076022222638" lon="-1.125679034739733">
        <ele>165</ele>
        <time>2023-08-16T11:35:57Z</time>
      </trkpt>
      <trkpt lat="54.36647898517549" lon="-1.126549998298287">
        <ele>170.77000000000001</ele>
        <time>2023-08-16T11:36:04Z</time>
      </trkpt>
      <trkpt lat="54.366699010133743" lon="-1.126647982746363">
        <ele>170.77000000000001</ele>
        <time>2023-08-16T11:36:05Z</time>
      </trkpt>
      <trkpt lat="54.368706978857517" lon="-1.127725979313254">
        <ele>174.13999999999999</ele>
        <time>2023-08-16T11:36:14Z</time>
      </trkpt>
      <trkpt lat="54.369738958775997" lon="-1.128396028652787">
        <ele>176.53999999999999</ele>
        <time>2023-08-16T11:36:19Z</time>
      </trkpt>
      <trkpt lat="54.369914978742599" lon="-1.12855201587081">
        <ele>176.53999999999999</ele>
        <time>2023-08-16T11:36:20Z</time>
      </trkpt>
      <trkpt lat="54.370072977617383" lon="-1.128738010302186">
        <ele>176.53999999999999</ele>
        <time>2023-08-16T11:36:21Z</time>
      </trkpt>
      <trkpt lat="54.370227959007025" lon="-1.128988964483142">
        <ele>176.06</ele>
        <time>2023-08-16T11:36:22Z</time>
      </trkpt>
      <trkpt lat="54.37038604170084" lon="-1.129244025796652">
        <ele>176.06</ele>
        <time>2023-08-16T11:36:23Z</time>
      </trkpt>
      <trkpt lat="54.371517011895776" lon="-1.130540035665035">
        <ele>170.77000000000001</ele>
        <time>2023-08-16T11:36:29Z</time>
      </trkpt>
      <trkpt lat="54.373458009213209" lon="-1.131951967254281">
        <ele>167.88999999999999</ele>
        <time>2023-08-16T11:36:38Z</time>
      </trkpt>
      <trkpt lat="54.375276966020465" lon="-1.133225010707974">
        <ele>164.03999999999999</ele>
        <time>2023-08-16T11:36:47Z</time>
      </trkpt>
      <trkpt lat="54.377049989998341" lon="-1.133877038955689">
        <ele>161.16</ele>
        <time>2023-08-16T11:36:55Z</time>
      </trkpt>
      <trkpt lat="54.378022039309144" lon="-1.134507022798061">
        <ele>160.19999999999999</ele>
        <time>2023-08-16T11:37:00Z</time>
      </trkpt>
      <trkpt lat="54.379642009735107" lon="-1.135805966332555">
        <ele>158.27000000000001</ele>
        <time>2023-08-16T11:37:08Z</time>
      </trkpt>
      <trkpt lat="54.381977040320635" lon="-1.13734002225101">
        <ele>159.72</ele>
        <time>2023-08-16T11:37:19Z</time>
      </trkpt>
      <trkpt lat="54.383937986567616" lon="-1.138022979721427">
        <ele>159.72</ele>
        <time>2023-08-16T11:37:28Z</time>
      </trkpt>
      <trkpt lat="54.38495303504169" lon="-1.137969000265002">
        <ele>163.08000000000001</ele>
        <time>2023-08-16T11:37:33Z</time>
      </trkpt>
      <trkpt lat="54.385123020038009" lon="-1.13804804161191">
        <ele>163.56</ele>
        <time>2023-08-16T11:37:34Z</time>
      </trkpt>
      <trkpt lat="54.385291999205947" lon="-1.138148959726095">
        <ele>164.52000000000001</ele>
        <time>2023-08-16T11:37:35Z</time>
      </trkpt>
      <trkpt lat="54.385460978373885" lon="-1.138280974701047">
        <ele>165</ele>
        <time>2023-08-16T11:37:36Z</time>
      </trkpt>
      <trkpt lat="54.385619983077049" lon="-1.13845900632441">
        <ele>165.47999999999999</ele>
        <time>2023-08-16T11:37:37Z</time>
      </trkpt>
      <trkpt lat="54.385769013315439" lon="-1.138655981048942">
        <ele>165.96000000000001</ele>
        <time>2023-08-16T11:37:38Z</time>
      </trkpt>
      <trkpt lat="54.385920977219939" lon="-1.138855973258615">
        <ele>166.44999999999999</ele>
        <time>2023-08-16T11:37:39Z</time>
      </trkpt>
      <trkpt lat="54.38607101328671" lon="-1.139064012095332">
        <ele>166.44999999999999</ele>
        <time>2023-08-16T11:37:40Z</time>
      </trkpt>
      <trkpt lat="54.386193975806236" lon="-1.139313960447907">
        <ele>165.96000000000001</ele>
        <time>2023-08-16T11:37:41Z</time>
      </trkpt>
      <trkpt lat="54.38630897551775" lon="-1.139547983184457">
        <ele>165.96000000000001</ele>
        <time>2023-08-16T11:37:42Z</time>
      </trkpt>
      <trkpt lat="54.386766040697694" lon="-1.140334038063884">
        <ele>164.52000000000001</ele>
        <time>2023-08-16T11:37:47Z</time>
      </trkpt>
      <trkpt lat="54.386870982125401" lon="-1.140445014461875">
        <ele>164.52000000000001</ele>
        <time>2023-08-16T11:37:48Z</time>
      </trkpt>
      <trkpt lat="54.386976007372141" lon="-1.140546016395092">
        <ele>164.03999999999999</ele>
        <time>2023-08-16T11:37:49Z</time>
      </trkpt>
      <trkpt lat="54.387096036225557" lon="-1.140591027215123">
        <ele>164.03999999999999</ele>
        <time>2023-08-16T11:37:50Z</time>
      </trkpt>
      <trkpt lat="54.387211035937071" lon="-1.140634026378393">
        <ele>164.03999999999999</ele>
        <time>2023-08-16T11:37:51Z</time>
      </trkpt>
      <trkpt lat="54.388329014182091" lon="-1.141022024676204">
        <ele>168.84999999999999</ele>
        <time>2023-08-16T11:38:02Z</time>
      </trkpt>
      <trkpt lat="54.389286981895566" lon="-1.140939965844154">
        <ele>171.72999999999999</ele>
        <time>2023-08-16T11:38:10Z</time>
      </trkpt>
      <trkpt lat="54.38963801600039" lon="-1.140826977789402">
        <ele>173.16999999999999</ele>
        <time>2023-08-16T11:38:13Z</time>
      </trkpt>
      <trkpt lat="54.389760978519917" lon="-1.140812980011106">
        <ele>174.13999999999999</ele>
        <time>2023-08-16T11:38:14Z</time>
      </trkpt>
      <trkpt lat="54.389881007373333" lon="-1.140805017203093">
        <ele>174.13999999999999</ele>
        <time>2023-08-16T11:38:15Z</time>
      </trkpt>
      <trkpt lat="54.390309993177652" lon="-1.14077802747488">
        <ele>175.58000000000001</ele>
        <time>2023-08-16T11:38:19Z</time>
      </trkpt>
      <trkpt lat="54.390414012596011" lon="-1.140728993341327">
        <ele>176.06</ele>
        <time>2023-08-16T11:38:20Z</time>
      </trkpt>
      <trkpt lat="54.390517026185989" lon="-1.140653975307941">
        <ele>176.53999999999999</ele>
        <time>2023-08-16T11:38:21Z</time>
      </trkpt>
      <trkpt lat="54.390620961785316" lon="-1.14056495949626">
        <ele>177.5</ele>
        <time>2023-08-16T11:38:22Z</time>
      </trkpt>
      <trkpt lat="54.390721963718534" lon="-1.140453983098269">
        <ele>178.46000000000001</ele>
        <time>2023-08-16T11:38:23Z</time>
      </trkpt>
      <trkpt lat="54.391800966113806" lon="-1.139207007363439">
        <ele>183.75</ele>
        <time>2023-08-16T11:38:33Z</time>
      </trkpt>
      <trkpt lat="54.391915965825319" lon="-1.139069041237235">
        <ele>183.75</ele>
        <time>2023-08-16T11:38:34Z</time>
      </trkpt>
      <trkpt lat="54.392044963315129" lon="-1.138976002112031">
        <ele>183.75</ele>
        <time>2023-08-16T11:38:35Z</time>
      </trkpt>
      <trkpt lat="54.392183013260365" lon="-1.13891095854342">
        <ele>183.75</ele>
        <time>2023-08-16T11:38:36Z</time>
      </trkpt>
      <trkpt lat="54.392317039892077" lon="-1.138848010450602">
        <ele>183.27000000000001</ele>
        <time>2023-08-16T11:38:37Z</time>
      </trkpt>
      <trkpt lat="54.392445031553507" lon="-1.138787996023893">
        <ele>182.78999999999999</ele>
        <time>2023-08-16T11:38:38Z</time>
      </trkpt>
      <trkpt lat="54.392561037093401" lon="-1.138733010739088">
        <ele>182.31</ele>
        <time>2023-08-16T11:38:39Z</time>
      </trkpt>
      <trkpt lat="54.393151961266994" lon="-1.138476021587849">
        <ele>182.78999999999999</ele>
        <time>2023-08-16T11:38:45Z</time>
      </trkpt>
      <trkpt lat="54.393233014270663" lon="-1.138404021039605">
        <ele>182.31</ele>
        <time>2023-08-16T11:38:46Z</time>
      </trkpt>
      <trkpt lat="54.393292022868991" lon="-1.138306958600879">
        <ele>182.31</ele>
        <time>2023-08-16T11:38:47Z</time>
      </trkpt>
      <trkpt lat="54.393353965133429" lon="-1.138135967776179">
        <ele>182.31</ele>
        <time>2023-08-16T11:38:48Z</time>
      </trkpt>
      <trkpt lat="54.393367040902376" lon="-1.138057010248303">
        <ele>182.31</ele>
        <time>2023-08-16T11:38:49Z</time>
      </trkpt>
      <trkpt lat="54.393387995660305" lon="-1.137922983616591">
        <ele>181.83000000000001</ele>
        <time>2023-08-16T11:38:50Z</time>
      </trkpt>
      <trkpt lat="54.393409034237266" lon="-1.137787029147148">
        <ele>181.34999999999999</ele>
        <time>2023-08-16T11:38:51Z</time>
      </trkpt>
      <trkpt lat="54.393493020907044" lon="-1.137386038899422">
        <ele>179.90000000000001</ele>
        <time>2023-08-16T11:38:54Z</time>
      </trkpt>
      <trkpt lat="54.393519004806876" lon="-1.137267015874386">
        <ele>179.41999999999999</ele>
        <time>2023-08-16T11:38:55Z</time>
      </trkpt>
      <trkpt lat="54.393562003970146" lon="-1.137175988405943">
        <ele>178.94</ele>
        <time>2023-08-16T11:38:56Z</time>
      </trkpt>
      <trkpt lat="54.393617995083332" lon="-1.13708202727139">
        <ele>178.94</ele>
        <time>2023-08-16T11:38:57Z</time>
      </trkpt>
      <trkpt lat="54.39367700368166" lon="-1.136983036994934">
        <ele>178.46000000000001</ele>
        <time>2023-08-16T11:38:58Z</time>
      </trkpt>
      <trkpt lat="54.393739029765129" lon="-1.136894021183252">
        <ele>177.97999999999999</ele>
        <time>2023-08-16T11:38:59Z</time>
      </trkpt>
      <trkpt lat="54.393817987293005" lon="-1.136817997321487">
        <ele>177.5</ele>
        <time>2023-08-16T11:39:00Z</time>
      </trkpt>
      <trkpt lat="54.393900968134403" lon="-1.136737028136849">
        <ele>177.02000000000001</ele>
        <time>2023-08-16T11:39:01Z</time>
      </trkpt>
      <trkpt lat="54.394420981407166" lon="-1.136232018470764">
        <ele>173.16999999999999</ele>
        <time>2023-08-16T11:39:07Z</time>
      </trkpt>
      <trkpt lat="54.39451502636075" lon="-1.136173009872437">
        <ele>172.69</ele>
        <time>2023-08-16T11:39:08Z</time>
      </trkpt>
      <trkpt lat="54.39470898360014" lon="-1.136054992675781">
        <ele>172.21000000000001</ele>
        <time>2023-08-16T11:39:10Z</time>
      </trkpt>
      <trkpt lat="54.394928002730012" lon="-1.136002019047737">
        <ele>171.25</ele>
        <time>2023-08-16T11:39:12Z</time>
      </trkpt>
      <trkpt lat="54.395050965249538" lon="-1.136014005169272">
        <ele>171.25</ele>
        <time>2023-08-16T11:39:13Z</time>
      </trkpt>
      <trkpt lat="54.395297979936004" lon="-1.136038983240724">
        <ele>170.28999999999999</ele>
        <time>2023-08-16T11:39:15Z</time>
      </trkpt>
      <trkpt lat="54.396414030343294" lon="-1.136203017085791">
        <ele>166.93000000000001</ele>
        <time>2023-08-16T11:39:23Z</time>
      </trkpt>
      <trkpt lat="54.397788997739553" lon="-1.135979974642396">
        <ele>165.96000000000001</ele>
        <time>2023-08-16T11:39:32Z</time>
      </trkpt>
      <trkpt lat="54.398066019639373" lon="-1.135928006842732">
        <ele>165.96000000000001</ele>
        <time>2023-08-16T11:39:34Z</time>
      </trkpt>
      <trkpt lat="54.399336967617273" lon="-1.135703036561608">
        <ele>166.44999999999999</ele>
        <time>2023-08-16T11:39:42Z</time>
      </trkpt>
      <trkpt lat="54.400603976100683" lon="-1.13581501878798">
        <ele>168.37</ele>
        <time>2023-08-16T11:39:50Z</time>
      </trkpt>
      <trkpt lat="54.402070976793766" lon="-1.135720973834395">
        <ele>171.72999999999999</ele>
        <time>2023-08-16T11:39:58Z</time>
      </trkpt>
      <trkpt lat="54.403056018054485" lon="-1.13555601797998">
        <ele>175.09999999999999</ele>
        <time>2023-08-16T11:40:03Z</time>
      </trkpt>
      <trkpt lat="54.403242012485862" lon="-1.135523999109864">
        <ele>176.06</ele>
        <time>2023-08-16T11:40:04Z</time>
      </trkpt>
      <trkpt lat="54.404781013727188" lon="-1.134886974468827">
        <ele>180.87</ele>
        <time>2023-08-16T11:40:12Z</time>
      </trkpt>
      <trkpt lat="54.406729973852634" lon="-1.134113995358348">
        <ele>181.34999999999999</ele>
        <time>2023-08-16T11:40:22Z</time>
      </trkpt>
      <trkpt lat="54.408729979768395" lon="-1.133499015122652">
        <ele>182.78999999999999</ele>
        <time>2023-08-16T11:40:32Z</time>
      </trkpt>
      <trkpt lat="54.410768961533904" lon="-1.13252998329699">
        <ele>184.22999999999999</ele>
        <time>2023-08-16T11:40:42Z</time>
      </trkpt>
      <trkpt lat="54.411916024982929" lon="-1.132051963359118">
        <ele>186.63</ele>
        <time>2023-08-16T11:40:48Z</time>
      </trkpt>
      <trkpt lat="54.412103025242686" lon="-1.131980968639255">
        <ele>187.11000000000001</ele>
        <time>2023-08-16T11:40:49Z</time>
      </trkpt>
      <trkpt lat="54.413471035659313" lon="-1.130971033126116">
        <ele>188.56</ele>
        <time>2023-08-16T11:40:57Z</time>
      </trkpt>
      <trkpt lat="54.414211995899677" lon="-1.130127981305122">
        <ele>189.03999999999999</ele>
        <time>2023-08-16T11:41:02Z</time>
      </trkpt>
      <trkpt lat="54.414525981992483" lon="-1.129517024382949">
        <ele>190</ele>
        <time>2023-08-16T11:41:05Z</time>
      </trkpt>
      <trkpt lat="54.414624972268939" lon="-1.129261963069439">
        <ele>190.47999999999999</ele>
        <time>2023-08-16T11:41:06Z</time>
      </trkpt>
      <trkpt lat="54.415195025503635" lon="-1.127502014860511">
        <ele>193.36000000000001</ele>
        <time>2023-08-16T11:41:12Z</time>
      </trkpt>
      <trkpt lat="54.415912013500929" lon="-1.124981995671988">
        <ele>199.13</ele>
        <time>2023-08-16T11:41:21Z</time>
      </trkpt>
      <trkpt lat="54.416275033727288" lon="-1.124328961595893">
        <ele>202.97999999999999</ele>
        <time>2023-08-16T11:41:24Z</time>
      </trkpt>
      <trkpt lat="54.416569992899895" lon="-1.123960996046662">
        <ele>206.34</ele>
        <time>2023-08-16T11:41:26Z</time>
      </trkpt>
      <trkpt lat="54.416726985946298" lon="-1.123780030757189">
        <ele>207.78</ele>
        <time>2023-08-16T11:41:27Z</time>
      </trkpt>
      <trkpt lat="54.418166996911168" lon="-1.12236600369215">
        <ele>221.24000000000001</ele>
        <time>2023-08-16T11:41:35Z</time>
      </trkpt>
      <trkpt lat="54.418351985514164" lon="-1.122234994545579">
        <ele>223.16</ele>
        <time>2023-08-16T11:41:36Z</time>
      </trkpt>
      <trkpt lat="54.418679969385266" lon="-1.122003989294171">
        <ele>227.00999999999999</ele>
        <time>2023-08-16T11:41:38Z</time>
      </trkpt>
      <trkpt lat="54.41883503459394" lon="-1.121895024552941">
        <ele>228.93000000000001</ele>
        <time>2023-08-16T11:41:39Z</time>
      </trkpt>
      <trkpt lat="54.41896797157824" lon="-1.121725039556623">
        <ele>230.84999999999999</ele>
        <time>2023-08-16T11:41:40Z</time>
      </trkpt>
      <trkpt lat="54.419100992381573" lon="-1.121533010154963">
        <ele>232.78</ele>
        <time>2023-08-16T11:41:41Z</time>
      </trkpt>
      <trkpt lat="54.419238036498427" lon="-1.121335029602051">
        <ele>234.22</ele>
        <time>2023-08-16T11:41:42Z</time>
      </trkpt>
      <trkpt lat="54.419380025938153" lon="-1.121129002422094">
        <ele>236.13999999999999</ele>
        <time>2023-08-16T11:41:43Z</time>
      </trkpt>
      <trkpt lat="54.419534001499414" lon="-1.12092699855566">
        <ele>238.06</ele>
        <time>2023-08-16T11:41:44Z</time>
      </trkpt>
      <trkpt lat="54.419702980667353" lon="-1.120763970538974">
        <ele>239.99000000000001</ele>
        <time>2023-08-16T11:41:45Z</time>
      </trkpt>
      <trkpt lat="54.420028030872345" lon="-1.120449984446168">
        <ele>243.34999999999999</ele>
        <time>2023-08-16T11:41:47Z</time>
      </trkpt>
      <trkpt lat="54.420172031968832" lon="-1.120248986408114">
        <ele>244.78999999999999</ele>
        <time>2023-08-16T11:41:48Z</time>
      </trkpt>
      <trkpt lat="54.420292982831597" lon="-1.120008006691933">
        <ele>246.22999999999999</ele>
        <time>2023-08-16T11:41:49Z</time>
      </trkpt>
      <trkpt lat="54.420518958941102" lon="-1.119554964825511">
        <ele>248.63999999999999</ele>
        <time>2023-08-16T11:41:51Z</time>
      </trkpt>
      <trkpt lat="54.420639993622899" lon="-1.119377017021179">
        <ele>250.08000000000001</ele>
        <time>2023-08-16T11:41:52Z</time>
      </trkpt>
      <trkpt lat="54.420772008597851" lon="-1.119221029803157">
        <ele>251.03999999999999</ele>
        <time>2023-08-16T11:41:53Z</time>
      </trkpt>
      <trkpt lat="54.42092196084559" lon="-1.11912103369832">
        <ele>252.47999999999999</ele>
        <time>2023-08-16T11:41:54Z</time>
      </trkpt>
      <trkpt lat="54.421090018004179" lon="-1.119029000401497">
        <ele>253.93000000000001</ele>
        <time>2023-08-16T11:41:55Z</time>
      </trkpt>
      <trkpt lat="54.421785967424512" lon="-1.118645025417209">
        <ele>258.25</ele>
        <time>2023-08-16T11:41:59Z</time>
      </trkpt>
      <trkpt lat="54.421927034854889" lon="-1.118602026253939">
        <ele>259.20999999999998</ele>
        <time>2023-08-16T11:42:00Z</time>
      </trkpt>
      <trkpt lat="54.422063995152712" lon="-1.118588028475642">
        <ele>260.17000000000002</ele>
        <time>2023-08-16T11:42:01Z</time>
      </trkpt>
      <trkpt lat="54.42223196849227" lon="-1.118622981011868">
        <ele>260.64999999999998</ele>
        <time>2023-08-16T11:42:02Z</time>
      </trkpt>
      <trkpt lat="54.422406982630491" lon="-1.118660029023886">
        <ele>260.64999999999998</ele>
        <time>2023-08-16T11:42:03Z</time>
      </trkpt>
      <trkpt lat="54.423051970079541" lon="-1.118803024291992">
        <ele>259.69</ele>
        <time>2023-08-16T11:42:07Z</time>
      </trkpt>
      <trkpt lat="54.423179961740971" lon="-1.118903020396829">
        <ele>259.20999999999998</ele>
        <time>2023-08-16T11:42:08Z</time>
      </trkpt>
      <trkpt lat="54.423311976715922" lon="-1.1190340295434">
        <ele>259.20999999999998</ele>
        <time>2023-08-16T11:42:09Z</time>
      </trkpt>
      <trkpt lat="54.423751020804048" lon="-1.119516994804144">
        <ele>257.76999999999998</ele>
        <time>2023-08-16T11:42:12Z</time>
      </trkpt>
      <trkpt lat="54.425063040107489" lon="-1.120675038546324">
        <ele>246.72</ele>
        <time>2023-08-16T11:42:20Z</time>
      </trkpt>
      <trkpt lat="54.425400998443365" lon="-1.120907971635461">
        <ele>243.34999999999999</ele>
        <time>2023-08-16T11:42:22Z</time>
      </trkpt>
      <trkpt lat="54.425576012581587" lon="-1.12094895914197">
        <ele>241.91</ele>
        <time>2023-08-16T11:42:23Z</time>
      </trkpt>
      <trkpt lat="54.426947040483356" lon="-1.121400995180011">
        <ele>229.41</ele>
        <time>2023-08-16T11:42:30Z</time>
      </trkpt>
      <trkpt lat="54.427134040743113" lon="-1.121465032920241">
        <ele>227.49000000000001</ele>
        <time>2023-08-16T11:42:31Z</time>
      </trkpt>
      <trkpt lat="54.427318023517728" lon="-1.121469978243113">
        <ele>225.56999999999999</ele>
        <time>2023-08-16T11:42:32Z</time>
      </trkpt>
      <trkpt lat="54.427654976025224" lon="-1.121480958536267">
        <ele>221.72</ele>
        <time>2023-08-16T11:42:34Z</time>
      </trkpt>
      <trkpt lat="54.427814986556768" lon="-1.121514989063144">
        <ele>219.80000000000001</ele>
        <time>2023-08-16T11:42:35Z</time>
      </trkpt>
      <trkpt lat="54.427974997088313" lon="-1.121627977117896">
        <ele>218.36000000000001</ele>
        <time>2023-08-16T11:42:36Z</time>
      </trkpt>
      <trkpt lat="54.428145987913013" lon="-1.121748005971313">
        <ele>216.43000000000001</ele>
        <time>2023-08-16T11:42:37Z</time>
      </trkpt>
      <trkpt lat="54.428325025364757" lon="-1.121873985975981">
        <ele>214.99000000000001</ele>
        <time>2023-08-16T11:42:38Z</time>
      </trkpt>
      <trkpt lat="54.428501967340708" lon="-1.122056040912867">
        <ele>213.06999999999999</ele>
        <time>2023-08-16T11:42:39Z</time>
      </trkpt>
      <trkpt lat="54.429702004417777" lon="-1.123471995815635">
        <ele>199.13</ele>
        <time>2023-08-16T11:42:46Z</time>
      </trkpt>
      <trkpt lat="54.430630970746279" lon="-1.125387009233236">
        <ele>186.63</ele>
        <time>2023-08-16T11:42:53Z</time>
      </trkpt>
      <trkpt lat="54.430747982114553" lon="-1.12567400559783">
        <ele>185.19</ele>
        <time>2023-08-16T11:42:54Z</time>
      </trkpt>
      <trkpt lat="54.430887037888169" lon="-1.125907022505999">
        <ele>183.27000000000001</ele>
        <time>2023-08-16T11:42:55Z</time>
      </trkpt>
      <trkpt lat="54.431025004014373" lon="-1.126134004443884">
        <ele>181.83000000000001</ele>
        <time>2023-08-16T11:42:56Z</time>
      </trkpt>
      <trkpt lat="54.431420965120196" lon="-1.126783015206456">
        <ele>177.02000000000001</ele>
        <time>2023-08-16T11:42:59Z</time>
      </trkpt>
      <trkpt lat="54.431539988145232" lon="-1.126995999366045">
        <ele>175.58000000000001</ele>
        <time>2023-08-16T11:43:00Z</time>
      </trkpt>
      <trkpt lat="54.43162196315825" lon="-1.127247959375382">
        <ele>173.66</ele>
        <time>2023-08-16T11:43:01Z</time>
      </trkpt>
      <trkpt lat="54.43170603364706" lon="-1.127507966011763">
        <ele>172.21000000000001</ele>
        <time>2023-08-16T11:43:02Z</time>
      </trkpt>
      <trkpt lat="54.431793037801981" lon="-1.127785993739963">
        <ele>170.77000000000001</ele>
        <time>2023-08-16T11:43:03Z</time>
      </trkpt>
      <trkpt lat="54.431995963677764" lon="-1.128609012812376">
        <ele>165.96000000000001</ele>
        <time>2023-08-16T11:43:06Z</time>
      </trkpt>
      <trkpt lat="54.432099983096123" lon="-1.128852004185319">
        <ele>164.03999999999999</ele>
        <time>2023-08-16T11:43:07Z</time>
      </trkpt>
      <trkpt lat="54.432218000292778" lon="-1.129085021093488">
        <ele>162.59999999999999</ele>
        <time>2023-08-16T11:43:08Z</time>
      </trkpt>
      <trkpt lat="54.432370970025659" lon="-1.129309991374612">
        <ele>161.63999999999999</ele>
        <time>2023-08-16T11:43:09Z</time>
      </trkpt>
      <trkpt lat="54.432532992213964" lon="-1.129545019939542">
        <ele>159.72</ele>
        <time>2023-08-16T11:43:10Z</time>
      </trkpt>
      <trkpt lat="54.433279987424612" lon="-1.130608012899756">
        <ele>152.50999999999999</ele>
        <time>2023-08-16T11:43:15Z</time>
      </trkpt>
      <trkpt lat="54.433372020721436" lon="-1.130866007879376">
        <ele>151.53999999999999</ele>
        <time>2023-08-16T11:43:16Z</time>
      </trkpt>
      <trkpt lat="54.433451984077692" lon="-1.131135988980532">
        <ele>150.58000000000001</ele>
        <time>2023-08-16T11:43:17Z</time>
      </trkpt>
      <trkpt lat="54.433533037081361" lon="-1.131424997001886">
        <ele>149.62</ele>
        <time>2023-08-16T11:43:18Z</time>
      </trkpt>
      <trkpt lat="54.433600008487701" lon="-1.131738983094692">
        <ele>148.66</ele>
        <time>2023-08-16T11:43:19Z</time>
      </trkpt>
      <trkpt lat="54.434236027300358" lon="-1.13429001532495">
        <ele>141.93000000000001</ele>
        <time>2023-08-16T11:43:27Z</time>
      </trkpt>
      <trkpt lat="54.434902975335717" lon="-1.136086005717516">
        <ele>135.68000000000001</ele>
        <time>2023-08-16T11:43:33Z</time>
      </trkpt>
      <trkpt lat="54.434991991147399" lon="-1.136313993483782">
        <ele>135.19999999999999</ele>
        <time>2023-08-16T11:43:34Z</time>
      </trkpt>
      <trkpt lat="54.435111014172435" lon="-1.136509962379932">
        <ele>134.72</ele>
        <time>2023-08-16T11:43:35Z</time>
      </trkpt>
      <trkpt lat="54.435243029147387" lon="-1.136681959033012">
        <ele>134.24000000000001</ele>
        <time>2023-08-16T11:43:36Z</time>
      </trkpt>
      <trkpt lat="54.436199991032481" lon="-1.138009987771511">
        <ele>130.88</ele>
        <time>2023-08-16T11:43:42Z</time>
      </trkpt>
      <trkpt lat="54.437451995909214" lon="-1.139899017289281">
        <ele>125.11</ele>
        <time>2023-08-16T11:43:50Z</time>
      </trkpt>
      <trkpt lat="54.437602031975985" lon="-1.140047963708639">
        <ele>124.63</ele>
        <time>2023-08-16T11:43:51Z</time>
      </trkpt>
      <trkpt lat="54.437757013365626" lon="-1.140191964805126">
        <ele>124.15000000000001</ele>
        <time>2023-08-16T11:43:52Z</time>
      </trkpt>
      <trkpt lat="54.43851700052619" lon="-1.140848016366363">
        <ele>119.34</ele>
        <time>2023-08-16T11:43:57Z</time>
      </trkpt>
      <trkpt lat="54.438639041036367" lon="-1.141004003584385">
        <ele>118.38</ele>
        <time>2023-08-16T11:43:58Z</time>
      </trkpt>
      <trkpt lat="54.43948301486671" lon="-1.142791025340557">
        <ele>112.61</ele>
        <time>2023-08-16T11:44:06Z</time>
      </trkpt>
      <trkpt lat="54.439660040661693" lon="-1.143545983359218">
        <ele>112.13</ele>
        <time>2023-08-16T11:44:09Z</time>
      </trkpt>
      <trkpt lat="54.439660040661693" lon="-1.143767014145851">
        <ele>112.13</ele>
        <time>2023-08-16T11:44:10Z</time>
      </trkpt>
      <trkpt lat="54.439660040661693" lon="-1.143987039104104">
        <ele>112.13</ele>
        <time>2023-08-16T11:44:11Z</time>
      </trkpt>
      <trkpt lat="54.439626010134816" lon="-1.144234975799918">
        <ele>112.13</ele>
        <time>2023-08-16T11:44:12Z</time>
      </trkpt>
      <trkpt lat="54.439585022628307" lon="-1.144478973001242">
        <ele>111.65000000000001</ele>
        <time>2023-08-16T11:44:13Z</time>
      </trkpt>
      <trkpt lat="54.43935502320528" lon="-1.145890988409519">
        <ele>110.69</ele>
        <time>2023-08-16T11:44:17Z</time>
      </trkpt>
      <trkpt lat="54.439157964661717" lon="-1.147238966077566">
        <ele>109.25</ele>
        <time>2023-08-16T11:44:21Z</time>
      </trkpt>
      <trkpt lat="54.439080012962222" lon="-1.14799995906651">
        <ele>108.77</ele>
        <time>2023-08-16T11:44:24Z</time>
      </trkpt>
      <trkpt lat="54.439080012962222" lon="-1.148236999288201">
        <ele>108.29000000000001</ele>
        <time>2023-08-16T11:44:25Z</time>
      </trkpt>
      <trkpt lat="54.439080012962222" lon="-1.148435985669494">
        <ele>108.29000000000001</ele>
        <time>2023-08-16T11:44:26Z</time>
      </trkpt>
      <trkpt lat="54.43914296105504" lon="-1.148617034777999">
        <ele>107.81</ele>
        <time>2023-08-16T11:44:27Z</time>
      </trkpt>
      <trkpt lat="54.439206998795271" lon="-1.148802023380995">
        <ele>107.81</ele>
        <time>2023-08-16T11:44:28Z</time>
      </trkpt>
      <trkpt lat="54.439273970201612" lon="-1.148993968963623">
        <ele>107.31999999999999</ele>
        <time>2023-08-16T11:44:29Z</time>
      </trkpt>
      <trkpt lat="54.439364997670054" lon="-1.149069992825389">
        <ele>106.84</ele>
        <time>2023-08-16T11:44:30Z</time>
      </trkpt>
      <trkpt lat="54.439477985724807" lon="-1.149164037778974">
        <ele>106.84</ele>
        <time>2023-08-16T11:44:31Z</time>
      </trkpt>
      <trkpt lat="54.439600026234984" lon="-1.14922296255827">
        <ele>106.84</ele>
        <time>2023-08-16T11:44:32Z</time>
      </trkpt>
      <trkpt lat="54.43974100984633" lon="-1.149253975600004">
        <ele>106.36</ele>
        <time>2023-08-16T11:44:33Z</time>
      </trkpt>
      <trkpt lat="54.43989004008472" lon="-1.1492870002985">
        <ele>106.36</ele>
        <time>2023-08-16T11:44:34Z</time>
      </trkpt>
      <trkpt lat="54.440804002806544" lon="-1.149439970031381">
        <ele>103.95999999999999</ele>
        <time>2023-08-16T11:44:39Z</time>
      </trkpt>
      <trkpt lat="54.442004039883614" lon="-1.149381967261434">
        <ele>99.629999999999995</ele>
        <time>2023-08-16T11:44:44Z</time>
      </trkpt>
      <trkpt lat="54.442418022081256" lon="-1.149391019716859">
        <ele>98.670000000000002</ele>
        <time>2023-08-16T11:44:46Z</time>
      </trkpt>
      <trkpt lat="54.443433992564678" lon="-1.149678016081452">
        <ele>95.790000000000006</ele>
        <time>2023-08-16T11:44:52Z</time>
      </trkpt>
      <trkpt lat="54.444173024967313" lon="-1.150087974965572">
        <ele>94.829999999999998</ele>
        <time>2023-08-16T11:45:00Z</time>
      </trkpt>
      <trkpt lat="54.444267991930246" lon="-1.150195011869073">
        <ele>95.310000000000002</ele>
        <time>2023-08-16T11:45:01Z</time>
      </trkpt>
      <trkpt lat="54.444348961114883" lon="-1.150314034894109">
        <ele>95.310000000000002</ele>
        <time>2023-08-16T11:45:02Z</time>
      </trkpt>
      <trkpt lat="54.444964025169611" lon="-1.151491021737456">
        <ele>96.75</ele>
        <time>2023-08-16T11:45:11Z</time>
      </trkpt>
      <trkpt lat="54.445504993200302" lon="-1.153152985498309">
        <ele>95.310000000000002</ele>
        <time>2023-08-16T11:45:21Z</time>
      </trkpt>
      <trkpt lat="54.445828031748533" lon="-1.154198963195086">
        <ele>94.349999999999994</ele>
        <time>2023-08-16T11:45:27Z</time>
      </trkpt>
      <trkpt lat="54.446348967030644" lon="-1.155244018882513">
        <ele>93.390000000000001</ele>
        <time>2023-08-16T11:45:34Z</time>
      </trkpt>
      <trkpt lat="54.446439994499087" lon="-1.155388019979">
        <ele>92.900000000000006</ele>
        <time>2023-08-16T11:45:35Z</time>
      </trkpt>
      <trkpt lat="54.446537978947163" lon="-1.155486004427075">
        <ele>92.900000000000006</ele>
        <time>2023-08-16T11:45:36Z</time>
      </trkpt>
      <trkpt lat="54.447744973003864" lon="-1.156546985730529">
        <ele>93.390000000000001</ele>
        <time>2023-08-16T11:45:48Z</time>
      </trkpt>
      <trkpt lat="54.448565980419517" lon="-1.157091977074742">
        <ele>91.939999999999998</ele>
        <time>2023-08-16T11:45:56Z</time>
      </trkpt>
      <trkpt lat="54.448778964579105" lon="-1.157199013978243">
        <ele>90.980000000000004</ele>
        <time>2023-08-16T11:45:58Z</time>
      </trkpt>
      <trkpt lat="54.448882983997464" lon="-1.157249975949526">
        <ele>90.5</ele>
        <time>2023-08-16T11:45:59Z</time>
      </trkpt>
      <trkpt lat="54.448978034779429" lon="-1.157295992597938">
        <ele>90.019999999999996</ele>
        <time>2023-08-16T11:46:00Z</time>
      </trkpt>
      <trkpt lat="54.449066966772079" lon="-1.157339997589588">
        <ele>89.540000000000006</ele>
        <time>2023-08-16T11:46:01Z</time>
      </trkpt>
      <trkpt lat="54.449141984805465" lon="-1.157376039773226">
        <ele>89.060000000000002</ele>
        <time>2023-08-16T11:46:02Z</time>
      </trkpt>
      <trkpt lat="54.449304006993771" lon="-1.157454997301102">
        <ele>87.140000000000001</ele>
        <time>2023-08-16T11:46:06Z</time>
      </trkpt>
      <trkpt lat="54.44934600032866" lon="-1.157475030049682">
        <ele>86.659999999999997</ele>
        <time>2023-08-16T11:46:07Z</time>
      </trkpt>
      <trkpt lat="54.449397968128324" lon="-1.157501013949513">
        <ele>86.180000000000007</ele>
        <time>2023-08-16T11:46:08Z</time>
      </trkpt>
      <trkpt lat="54.449459994211793" lon="-1.157531021162868">
        <ele>85.689999999999998</ele>
        <time>2023-08-16T11:46:09Z</time>
      </trkpt>
      <trkpt lat="54.449529983103275" lon="-1.157564967870712">
        <ele>85.689999999999998</ele>
        <time>2023-08-16T11:46:10Z</time>
      </trkpt>
      <trkpt lat="54.449605001136661" lon="-1.15760101005435">
        <ele>85.689999999999998</ele>
        <time>2023-08-16T11:46:11Z</time>
      </trkpt>
      <trkpt lat="54.449687981978059" lon="-1.157640991732478">
        <ele>85.689999999999998</ele>
        <time>2023-08-16T11:46:12Z</time>
      </trkpt>
      <trkpt lat="54.449780015274882" lon="-1.157686002552509">
        <ele>86.180000000000007</ele>
        <time>2023-08-16T11:46:13Z</time>
      </trkpt>
      <trkpt lat="54.450822975486517" lon="-1.158272987231612">
        <ele>90.019999999999996</ele>
        <time>2023-08-16T11:46:22Z</time>
      </trkpt>
      <trkpt lat="54.451486989855766" lon="-1.158745978027582">
        <ele>90.980000000000004</ele>
        <time>2023-08-16T11:46:28Z</time>
      </trkpt>
      <trkpt lat="54.451827965676785" lon="-1.158988969400525">
        <ele>90.019999999999996</ele>
        <time>2023-08-16T11:46:31Z</time>
      </trkpt>
      <trkpt lat="54.452583007514477" lon="-1.159272026270628">
        <ele>88.579999999999998</ele>
        <time>2023-08-16T11:46:37Z</time>
      </trkpt>
      <trkpt lat="54.452706975862384" lon="-1.159272026270628">
        <ele>88.579999999999998</ele>
        <time>2023-08-16T11:46:38Z</time>
      </trkpt>
      <trkpt lat="54.453071001917124" lon="-1.159272026270628">
        <ele>87.620000000000005</ele>
        <time>2023-08-16T11:46:41Z</time>
      </trkpt>
      <trkpt lat="54.453183989971876" lon="-1.15932097658515">
        <ele>87.140000000000001</ele>
        <time>2023-08-16T11:46:42Z</time>
      </trkpt>
      <trkpt lat="54.453960992395878" lon="-1.159745017066598">
        <ele>86.180000000000007</ele>
        <time>2023-08-16T11:46:48Z</time>
      </trkpt>
      <trkpt lat="54.454109016805887" lon="-1.15979396738112">
        <ele>86.180000000000007</ele>
        <time>2023-08-16T11:46:49Z</time>
      </trkpt>
      <trkpt lat="54.455308970063925" lon="-1.160033019259572">
        <ele>88.579999999999998</ele>
        <time>2023-08-16T11:46:57Z</time>
      </trkpt>
      <trkpt lat="54.455474009737372" lon="-1.160088004544377">
        <ele>88.099999999999994</ele>
        <time>2023-08-16T11:46:58Z</time>
      </trkpt>
      <trkpt lat="54.455609964206815" lon="-1.160226976498961">
        <ele>88.099999999999994</ele>
        <time>2023-08-16T11:46:59Z</time>
      </trkpt>
      <trkpt lat="54.456874961033463" lon="-1.161509994417429">
        <ele>84.730000000000004</ele>
        <time>2023-08-16T11:47:06Z</time>
      </trkpt>
      <trkpt lat="54.45858403109014" lon="-1.162756970152259">
        <ele>80.409999999999997</ele>
        <time>2023-08-16T11:47:14Z</time>
      </trkpt>
      <trkpt lat="54.460138035938144" lon="-1.163638997823">
        <ele>78</ele>
        <time>2023-08-16T11:47:22Z</time>
      </trkpt>
      <trkpt lat="54.461372019723058" lon="-1.164783965796232">
        <ele>76.079999999999998</ele>
        <time>2023-08-16T11:47:29Z</time>
      </trkpt>
      <trkpt lat="54.462561998516321" lon="-1.166192041710019">
        <ele>73.680000000000007</ele>
        <time>2023-08-16T11:47:38Z</time>
      </trkpt>
      <trkpt lat="54.463109001517296" lon="-1.166607029736042">
        <ele>73.200000000000003</ele>
        <time>2023-08-16T11:47:42Z</time>
      </trkpt>
      <trkpt lat="54.463236993178725" lon="-1.166735021397471">
        <ele>72.719999999999999</ele>
        <time>2023-08-16T11:47:43Z</time>
      </trkpt>
      <trkpt lat="54.463356016203761" lon="-1.166897965595126">
        <ele>72.719999999999999</ele>
        <time>2023-08-16T11:47:44Z</time>
      </trkpt>
      <trkpt lat="54.463465986773372" lon="-1.167107010260224">
        <ele>72.239999999999995</ele>
        <time>2023-08-16T11:47:45Z</time>
      </trkpt>
      <trkpt lat="54.463580986484885" lon="-1.167325023561716">
        <ele>72.239999999999995</ele>
        <time>2023-08-16T11:47:46Z</time>
      </trkpt>
      <trkpt lat="54.463696992024779" lon="-1.167545970529318">
        <ele>72.239999999999995</ele>
        <time>2023-08-16T11:47:47Z</time>
      </trkpt>
      <trkpt lat="54.46380402892828" lon="-1.167794996872544">
        <ele>72.239999999999995</ele>
        <time>2023-08-16T11:47:48Z</time>
      </trkpt>
      <trkpt lat="54.464637022465467" lon="-1.170002035796642">
        <ele>73.200000000000003</ele>
        <time>2023-08-16T11:47:57Z</time>
      </trkpt>
      <trkpt lat="54.465201962739229" lon="-1.171925012022257">
        <ele>71.760000000000005</ele>
        <time>2023-08-16T11:48:05Z</time>
      </trkpt>
      <trkpt lat="54.465279998257756" lon="-1.172189963981509">
        <ele>71.269999999999996</ele>
        <time>2023-08-16T11:48:06Z</time>
      </trkpt>
      <trkpt lat="54.465358033776283" lon="-1.17236296646297">
        <ele>71.269999999999996</ele>
        <time>2023-08-16T11:48:07Z</time>
      </trkpt>
      <trkpt lat="54.465450989082456" lon="-1.172569999471307">
        <ele>71.269999999999996</ele>
        <time>2023-08-16T11:48:08Z</time>
      </trkpt>
      <trkpt lat="54.465540004894137" lon="-1.172768985852599">
        <ele>71.269999999999996</ele>
        <time>2023-08-16T11:48:09Z</time>
      </trkpt>
      <trkpt lat="54.465713007375598" lon="-1.173152960836887">
        <ele>70.790000000000006</ele>
        <time>2023-08-16T11:48:11Z</time>
      </trkpt>
      <trkpt lat="54.465786013752222" lon="-1.173378014937043">
        <ele>70.790000000000006</ele>
        <time>2023-08-16T11:48:12Z</time>
      </trkpt>
      <trkpt lat="54.46584502235055" lon="-1.173615977168083">
        <ele>70.790000000000006</ele>
        <time>2023-08-16T11:48:13Z</time>
      </trkpt>
      <trkpt lat="54.466412980109453" lon="-1.175544988363981">
        <ele>70.310000000000002</ele>
        <time>2023-08-16T11:48:21Z</time>
      </trkpt>
      <trkpt lat="54.466965012252331" lon="-1.177191026508808">
        <ele>70.310000000000002</ele>
        <time>2023-08-16T11:48:29Z</time>
      </trkpt>
      <trkpt lat="54.467617962509394" lon="-1.179048959165812">
        <ele>68.870000000000005</ele>
        <time>2023-08-16T11:48:36Z</time>
      </trkpt>
      <trkpt lat="54.468584982678294" lon="-1.180448988452554">
        <ele>68.390000000000001</ele>
        <time>2023-08-16T11:48:44Z</time>
      </trkpt>
      <trkpt lat="54.469251008704305" lon="-1.181176034733653">
        <ele>67.909999999999997</ele>
        <time>2023-08-16T11:48:51Z</time>
      </trkpt>
      <trkpt lat="54.469311023131013" lon="-1.181240994483233">
        <ele>67.909999999999997</ele>
        <time>2023-08-16T11:48:52Z</time>
      </trkpt>
      <trkpt lat="54.469362990930676" lon="-1.181297991424799">
        <ele>67.430000000000007</ele>
        <time>2023-08-16T11:48:53Z</time>
      </trkpt>
      <trkpt lat="54.469408001750708" lon="-1.181347025558353">
        <ele>67.430000000000007</ele>
        <time>2023-08-16T11:48:54Z</time>
      </trkpt>
      <trkpt lat="54.469447983428836" lon="-1.181391030550003">
        <ele>67.430000000000007</ele>
        <time>2023-08-16T11:48:55Z</time>
      </trkpt>
      <trkpt lat="54.469463992863894" lon="-1.181760001927614">
        <ele>66.950000000000003</ele>
        <time>2023-08-16T11:48:56Z</time>
      </trkpt>
      <trkpt lat="54.469476984813809" lon="-1.181723037734628">
        <ele>66.950000000000003</ele>
        <time>2023-08-16T11:48:57Z</time>
      </trkpt>
      <trkpt lat="54.469463992863894" lon="-1.181760001927614">
        <ele>66.950000000000003</ele>
        <time>2023-08-16T11:48:58Z</time>
      </trkpt>
      <trkpt lat="54.469463992863894" lon="-1.181760001927614">
        <ele>66.950000000000003</ele>
        <time>2023-08-16T11:48:59Z</time>
      </trkpt>
      <trkpt lat="54.469318985939026" lon="-1.182198040187359">
        <ele>67.430000000000007</ele>
        <time>2023-08-16T11:49:00Z</time>
      </trkpt>
      <trkpt lat="54.46921999566257" lon="-1.182305999100208">
        <ele>67.430000000000007</ele>
        <time>2023-08-16T11:49:01Z</time>
      </trkpt>
      <trkpt lat="54.46911396458745" lon="-1.182422004640102">
        <ele>67.909999999999997</ele>
        <time>2023-08-16T11:49:02Z</time>
      </trkpt>
      <trkpt lat="54.468897040933371" lon="-1.182701960206032">
        <ele>68.870000000000005</ele>
        <time>2023-08-16T11:49:04Z</time>
      </trkpt>
      <trkpt lat="54.468782963231206" lon="-1.182869011536241">
        <ele>68.870000000000005</ele>
        <time>2023-08-16T11:49:05Z</time>
      </trkpt>
      <trkpt lat="54.467697003856301" lon="-1.184826018288732">
        <ele>72.239999999999995</ele>
        <time>2023-08-16T11:49:14Z</time>
      </trkpt>
      <trkpt lat="54.466645997017622" lon="-1.187462965026498">
        <ele>73.680000000000007</ele>
        <time>2023-08-16T11:49:23Z</time>
      </trkpt>
      <trkpt lat="54.465771010145545" lon="-1.189509993419051">
        <ele>71.269999999999996</ele>
        <time>2023-08-16T11:49:30Z</time>
      </trkpt>
      <trkpt lat="54.464940028265119" lon="-1.191305983811617">
        <ele>69.829999999999998</ele>
        <time>2023-08-16T11:49:38Z</time>
      </trkpt>
      <trkpt lat="54.463764969259501" lon="-1.19384896941483">
        <ele>70.790000000000006</ele>
        <time>2023-08-16T11:49:49Z</time>
      </trkpt>
      <trkpt lat="54.463090980425477" lon="-1.19511497206986">
        <ele>72.239999999999995</ele>
        <time>2023-08-16T11:49:56Z</time>
      </trkpt>
      <trkpt lat="54.462556969374418" lon="-1.196088027209044">
        <ele>74.159999999999997</ele>
        <time>2023-08-16T11:50:02Z</time>
      </trkpt>
      <trkpt lat="54.461662033572793" lon="-1.197663992643356">
        <ele>76.079999999999998</ele>
        <time>2023-08-16T11:50:13Z</time>
      </trkpt>
      <trkpt lat="54.46079702116549" lon="-1.199126970022917">
        <ele>77.040000000000006</ele>
        <time>2023-08-16T11:50:24Z</time>
      </trkpt>
      <trkpt lat="54.460701970383525" lon="-1.199286980554462">
        <ele>77.040000000000006</ele>
        <time>2023-08-16T11:50:26Z</time>
      </trkpt>
      <trkpt lat="54.460669029504061" lon="-1.199342971667647">
        <ele>76.560000000000002</ele>
        <time>2023-08-16T11:50:27Z</time>
      </trkpt>
      <trkpt lat="54.460657965391874" lon="-1.199464006349444">
        <ele>76.560000000000002</ele>
        <time>2023-08-16T11:50:28Z</time>
      </trkpt>
      <trkpt lat="54.460695013403893" lon="-1.199513040482998">
        <ele>76.560000000000002</ele>
        <time>2023-08-16T11:50:29Z</time>
      </trkpt>
      <trkpt lat="54.460746981203556" lon="-1.199581017717719">
        <ele>76.560000000000002</ele>
        <time>2023-08-16T11:50:30Z</time>
      </trkpt>
      <trkpt lat="54.460808001458645" lon="-1.199659975245595">
        <ele>76.079999999999998</ele>
        <time>2023-08-16T11:50:31Z</time>
      </trkpt>
      <trkpt lat="54.460871033370495" lon="-1.199742034077644">
        <ele>76.079999999999998</ele>
        <time>2023-08-16T11:50:32Z</time>
      </trkpt>
      <trkpt lat="54.460959965363145" lon="-1.199759971350431">
        <ele>75.599999999999994</ele>
        <time>2023-08-16T11:50:33Z</time>
      </trkpt>
      <trkpt lat="54.46105401031673" lon="-1.199718983843923">
        <ele>75.599999999999994</ele>
        <time>2023-08-16T11:50:34Z</time>
      </trkpt>
      <trkpt lat="54.461160963401198" lon="-1.199672967195511">
        <ele>75.599999999999994</ele>
        <time>2023-08-16T11:50:35Z</time>
      </trkpt>
      <trkpt lat="54.461277974769473" lon="-1.199622005224228">
        <ele>75.120000000000005</ele>
        <time>2023-08-16T11:50:36Z</time>
      </trkpt>
      <trkpt lat="54.462350020185113" lon="-1.199298966675997">
        <ele>75.599999999999994</ele>
        <time>2023-08-16T11:50:43Z</time>
      </trkpt>
      <trkpt lat="54.464080967009068" lon="-1.198808960616589">
        <ele>75.599999999999994</ele>
        <time>2023-08-16T11:50:52Z</time>
      </trkpt>
      <trkpt lat="54.465621979907155" lon="-1.197743033990264">
        <ele>74.640000000000001</ele>
        <time>2023-08-16T11:51:00Z</time>
      </trkpt>
      <trkpt lat="54.46657701395452" lon="-1.197204999625683">
        <ele>75.120000000000005</ele>
        <time>2023-08-16T11:51:07Z</time>
      </trkpt>
      <trkpt lat="54.467525007203221" lon="-1.196947004646063">
        <ele>74.159999999999997</ele>
        <time>2023-08-16T11:51:16Z</time>
      </trkpt>
      <trkpt lat="54.467665990814567" lon="-1.196912974119186">
        <ele>74.159999999999997</ele>
        <time>2023-08-16T11:51:21Z</time>
      </trkpt>
      <trkpt lat="54.467703038826585" lon="-1.196832004934549">
        <ele>74.640000000000001</ele>
        <time>2023-08-16T11:51:22Z</time>
      </trkpt>
      <trkpt lat="54.467729022726417" lon="-1.196725973859429">
        <ele>74.640000000000001</ele>
        <time>2023-08-16T11:51:23Z</time>
      </trkpt>
      <trkpt lat="54.467763975262642" lon="-1.196592031046748">
        <ele>74.640000000000001</ele>
        <time>2023-08-16T11:51:24Z</time>
      </trkpt>
      <trkpt lat="54.467804040759802" lon="-1.196441994979978">
        <ele>74.640000000000001</ele>
        <time>2023-08-16T11:51:25Z</time>
      </trkpt>
      <trkpt lat="54.467847961932421" lon="-1.196276033297181">
        <ele>74.640000000000001</ele>
        <time>2023-08-16T11:51:26Z</time>
      </trkpt>
      <trkpt lat="54.467895990237594" lon="-1.196098001673818">
        <ele>74.640000000000001</ele>
        <time>2023-08-16T11:51:27Z</time>
      </trkpt>
      <trkpt lat="54.467943012714386" lon="-1.195922987535596">
        <ele>75.120000000000005</ele>
        <time>2023-08-16T11:51:28Z</time>
      </trkpt>
      <trkpt lat="54.468043008819222" lon="-1.195653006434441">
        <ele>75.120000000000005</ele>
        <time>2023-08-16T11:51:30Z</time>
      </trkpt>
      <trkpt lat="54.468108974397182" lon="-1.195613024756312">
        <ele>75.120000000000005</ele>
        <time>2023-08-16T11:51:31Z</time>
      </trkpt>
      <trkpt lat="54.468161026015878" lon="-1.1955860350281">
        <ele>75.120000000000005</ele>
        <time>2023-08-16T11:51:32Z</time>
      </trkpt>
      <trkpt lat="54.468207964673638" lon="-1.195589974522591">
        <ele>75.120000000000005</ele>
        <time>2023-08-16T11:51:33Z</time>
      </trkpt>
      <trkpt lat="54.468281976878643" lon="-1.195617970079184">
        <ele>75.120000000000005</ele>
        <time>2023-08-16T11:51:34Z</time>
      </trkpt>
      <trkpt lat="54.468371998518705" lon="-1.19565200060606">
        <ele>75.120000000000005</ele>
        <time>2023-08-16T11:51:35Z</time>
      </trkpt>
      <trkpt lat="54.468692019581795" lon="-1.195749985054135">
        <ele>74.640000000000001</ele>
        <time>2023-08-16T11:51:38Z</time>
      </trkpt>
      <trkpt lat="54.468825040385127" lon="-1.195712015032768">
        <ele>74.640000000000001</ele>
        <time>2023-08-16T11:51:39Z</time>
      </trkpt>
      <trkpt lat="54.468929981812835" lon="-1.195682007819414">
        <ele>74.640000000000001</ele>
        <time>2023-08-16T11:51:40Z</time>
      </trkpt>
      <trkpt lat="54.469029977917671" lon="-1.195619981735945">
        <ele>74.640000000000001</ele>
        <time>2023-08-16T11:51:41Z</time>
      </trkpt>
      <trkpt lat="54.469117987900972" lon="-1.195517973974347">
        <ele>74.640000000000001</ele>
        <time>2023-08-16T11:51:42Z</time>
      </trkpt>
      <trkpt lat="54.469202980399132" lon="-1.195418983697891">
        <ele>74.640000000000001</ele>
        <time>2023-08-16T11:51:43Z</time>
      </trkpt>
      <trkpt lat="54.469282021746039" lon="-1.195305995643139">
        <ele>74.640000000000001</ele>
        <time>2023-08-16T11:51:44Z</time>
      </trkpt>
      <trkpt lat="54.469449995085597" lon="-1.194934006780386">
        <ele>74.640000000000001</ele>
        <time>2023-08-16T11:51:47Z</time>
      </trkpt>
      <trkpt lat="54.469486037269235" lon="-1.194797968491912">
        <ele>74.640000000000001</ele>
        <time>2023-08-16T11:51:48Z</time>
      </trkpt>
      <trkpt lat="54.469519983977079" lon="-1.194666959345341">
        <ele>74.640000000000001</ele>
        <time>2023-08-16T11:51:49Z</time>
      </trkpt>
      <trkpt lat="54.469553008675575" lon="-1.194538967683911">
        <ele>75.120000000000005</ele>
        <time>2023-08-16T11:51:50Z</time>
      </trkpt>
      <trkpt lat="54.469586033374071" lon="-1.194414999336004">
        <ele>74.640000000000001</ele>
        <time>2023-08-16T11:51:51Z</time>
      </trkpt>
      <trkpt lat="54.469706984236836" lon="-1.193924993276596">
        <ele>74.640000000000001</ele>
        <time>2023-08-16T11:51:56Z</time>
      </trkpt>
      <trkpt lat="54.469728022813797" lon="-1.193832037970424">
        <ele>74.640000000000001</ele>
        <time>2023-08-16T11:51:57Z</time>
      </trkpt>
      <trkpt lat="54.469765992835164" lon="-1.193661969155073">
        <ele>74.640000000000001</ele>
        <time>2023-08-16T11:51:59Z</time>
      </trkpt>
      <trkpt lat="54.469840005040169" lon="-1.193271037191153">
        <ele>74.640000000000001</ele>
        <time>2023-08-16T11:52:07Z</time>
      </trkpt>
      <trkpt lat="54.469852996990085" lon="-1.193199958652258">
        <ele>74.159999999999997</ele>
        <time>2023-08-16T11:52:08Z</time>
      </trkpt>
      <trkpt lat="54.469866994768381" lon="-1.193121001124382">
        <ele>74.159999999999997</ele>
        <time>2023-08-16T11:52:09Z</time>
      </trkpt>
      <trkpt lat="54.469943018630147" lon="-1.192711964249611">
        <ele>73.680000000000007</ele>
        <time>2023-08-16T11:52:13Z</time>
      </trkpt>
      <trkpt lat="54.469981994479895" lon="-1.192500991746783">
        <ele>73.200000000000003</ele>
        <time>2023-08-16T11:52:15Z</time>
      </trkpt>
      <trkpt lat="54.470000015571713" lon="-1.192405018955469">
        <ele>73.200000000000003</ele>
        <time>2023-08-16T11:52:16Z</time>
      </trkpt>
      <trkpt lat="54.470018036663532" lon="-1.192308040335774">
        <ele>73.200000000000003</ele>
        <time>2023-08-16T11:52:17Z</time>
      </trkpt>
      <trkpt lat="54.470314001664519" lon="-1.191242029890418">
        <ele>72.239999999999995</ele>
        <time>2023-08-16T11:52:27Z</time>
      </trkpt>
      <trkpt lat="54.470352977514267" lon="-1.191114960238338">
        <ele>72.239999999999995</ele>
        <time>2023-08-16T11:52:28Z</time>
      </trkpt>
      <trkpt lat="54.470564033836126" lon="-1.190335024148226">
        <ele>72.239999999999995</ele>
        <time>2023-08-16T11:52:34Z</time>
      </trkpt>
      <trkpt lat="54.470614995807409" lon="-1.189415026456118">
        <ele>73.200000000000003</ele>
        <time>2023-08-16T11:52:40Z</time>
      </trkpt>
      <trkpt lat="54.470620024949312" lon="-1.189264990389347">
        <ele>73.680000000000007</ele>
        <time>2023-08-16T11:52:41Z</time>
      </trkpt>
      <trkpt lat="54.47065900079906" lon="-1.188898030668497">
        <ele>74.159999999999997</ele>
        <time>2023-08-16T11:52:44Z</time>
      </trkpt>
      <trkpt lat="54.470669981092215" lon="-1.188801974058151">
        <ele>74.159999999999997</ele>
        <time>2023-08-16T11:52:45Z</time>
      </trkpt>
      <trkpt lat="54.470677021890879" lon="-1.188730979338288">
        <ele>74.159999999999997</ele>
        <time>2023-08-16T11:52:46Z</time>
      </trkpt>
      <trkpt lat="54.470694959163666" lon="-1.188554959371686">
        <ele>74.640000000000001</ele>
        <time>2023-08-16T11:52:53Z</time>
      </trkpt>
      <trkpt lat="54.470772994682193" lon="-1.18839000351727">
        <ele>74.640000000000001</ele>
        <time>2023-08-16T11:52:54Z</time>
      </trkpt>
      <trkpt lat="54.470783974975348" lon="-1.188365025445819">
        <ele>74.640000000000001</ele>
        <time>2023-08-16T11:52:55Z</time>
      </trkpt>
      <trkpt lat="54.470772994682193" lon="-1.18839000351727">
        <ele>74.640000000000001</ele>
        <time>2023-08-16T11:52:56Z</time>
      </trkpt>
      <trkpt lat="54.47093702852726" lon="-1.188335018232465">
        <ele>74.640000000000001</ele>
        <time>2023-08-16T11:52:57Z</time>
      </trkpt>
      <trkpt lat="54.471022021025419" lon="-1.188370976597071">
        <ele>74.640000000000001</ele>
        <time>2023-08-16T11:52:58Z</time>
      </trkpt>
      <trkpt lat="54.471115982159972" lon="-1.188410958275199">
        <ele>74.640000000000001</ele>
        <time>2023-08-16T11:52:59Z</time>
      </trkpt>
      <trkpt lat="54.471439020708203" lon="-1.18851900100708">
        <ele>73.680000000000007</ele>
        <time>2023-08-16T11:53:03Z</time>
      </trkpt>
      <trkpt lat="54.472100017592311" lon="-1.188738020136952">
        <ele>71.760000000000005</ele>
        <time>2023-08-16T11:53:12Z</time>
      </trkpt>
      <trkpt lat="54.472253993153572" lon="-1.188740031793714">
        <ele>71.760000000000005</ele>
        <time>2023-08-16T11:53:14Z</time>
      </trkpt>
      <trkpt lat="54.472415009513497" lon="-1.188716981559992">
        <ele>71.760000000000005</ele>
        <time>2023-08-16T11:53:16Z</time>
      </trkpt>
      <trkpt lat="54.472488015890121" lon="-1.18868999183178">
        <ele>72.239999999999995</ele>
        <time>2023-08-16T11:53:17Z</time>
      </trkpt>
      <trkpt lat="54.472563033923507" lon="-1.18864799849689">
        <ele>72.239999999999995</ele>
        <time>2023-08-16T11:53:18Z</time>
      </trkpt>
      <trkpt lat="54.473068965598941" lon="-1.188290007412434">
        <ele>72.719999999999999</ele>
        <time>2023-08-16T11:53:25Z</time>
      </trkpt>
      <trkpt lat="54.473691992461681" lon="-1.18772498331964">
        <ele>75.120000000000005</ele>
        <time>2023-08-16T11:53:33Z</time>
      </trkpt>
      <trkpt lat="54.473772961646318" lon="-1.187550975009799">
        <ele>75.120000000000005</ele>
        <time>2023-08-16T11:53:34Z</time>
      </trkpt>
      <trkpt lat="54.473845968022943" lon="-1.187391970306635">
        <ele>75.120000000000005</ele>
        <time>2023-08-16T11:53:35Z</time>
      </trkpt>
      <trkpt lat="54.473919980227947" lon="-1.187232965603471">
        <ele>75.120000000000005</ele>
        <time>2023-08-16T11:53:36Z</time>
      </trkpt>
      <trkpt lat="54.47398996911943" lon="-1.187082007527351">
        <ele>75.599999999999994</ele>
        <time>2023-08-16T11:53:37Z</time>
      </trkpt>
      <trkpt lat="54.474057024344802" lon="-1.186943035572767">
        <ele>75.599999999999994</ele>
        <time>2023-08-16T11:53:38Z</time>
      </trkpt>
      <trkpt lat="54.474115027114749" lon="-1.186818983405829">
        <ele>75.599999999999994</ele>
        <time>2023-08-16T11:53:39Z</time>
      </trkpt>
      <trkpt lat="54.474163977429271" lon="-1.186716975644231">
        <ele>76.079999999999998</ele>
        <time>2023-08-16T11:53:40Z</time>
      </trkpt>
      <trkpt lat="54.474240001291037" lon="-1.186702977865934">
        <ele>76.079999999999998</ele>
        <time>2023-08-16T11:53:41Z</time>
      </trkpt>
      <trkpt lat="54.474321976304054" lon="-1.186688980087638">
        <ele>76.079999999999998</ele>
        <time>2023-08-16T11:53:42Z</time>
      </trkpt>
      <trkpt lat="54.474486010149121" lon="-1.186659978702664">
        <ele>76.079999999999998</ele>
        <time>2023-08-16T11:53:44Z</time>
      </trkpt>
      <trkpt lat="54.474561028182507" lon="-1.186647992581129">
        <ele>75.599999999999994</ele>
        <time>2023-08-16T11:53:45Z</time>
      </trkpt>
      <trkpt lat="54.474700000137091" lon="-1.186630977317691">
        <ele>75.120000000000005</ele>
        <time>2023-08-16T11:53:47Z</time>
      </trkpt>
      <trkpt lat="54.474828997626901" lon="-1.186630977317691">
        <ele>75.120000000000005</ele>
        <time>2023-08-16T11:53:48Z</time>
      </trkpt>
      <trkpt lat="54.47487099096179" lon="-1.186630977317691">
        <ele>74.640000000000001</ele>
        <time>2023-08-16T11:53:49Z</time>
      </trkpt>
      <trkpt lat="54.474954977631569" lon="-1.186630977317691">
        <ele>74.640000000000001</ele>
        <time>2023-08-16T11:53:50Z</time>
      </trkpt>
      <trkpt lat="54.47504298761487" lon="-1.186630977317691">
        <ele>74.640000000000001</ele>
        <time>2023-08-16T11:53:51Z</time>
      </trkpt>
      <trkpt lat="54.475152958184481" lon="-1.186687974259257">
        <ele>73.680000000000007</ele>
        <time>2023-08-16T11:53:52Z</time>
      </trkpt>
      <trkpt lat="54.475261000916362" lon="-1.186743965372443">
        <ele>73.200000000000003</ele>
        <time>2023-08-16T11:53:53Z</time>
      </trkpt>
      <trkpt lat="54.475378012284636" lon="-1.186805991455913">
        <ele>72.239999999999995</ele>
        <time>2023-08-16T11:53:54Z</time>
      </trkpt>
      <trkpt lat="54.476722972467542" lon="-1.187288034707308">
        <ele>69.349999999999994</ele>
        <time>2023-08-16T11:54:05Z</time>
      </trkpt>
      <trkpt lat="54.477829970419407" lon="-1.187930004671216">
        <ele>67.430000000000007</ele>
        <time>2023-08-16T11:54:15Z</time>
      </trkpt>
      <trkpt lat="54.478904027491808" lon="-1.188357984647155">
        <ele>67.430000000000007</ele>
        <time>2023-08-16T11:54:25Z</time>
      </trkpt>
      <trkpt lat="54.479015003889799" lon="-1.188327977433801">
        <ele>67.909999999999997</ele>
        <time>2023-08-16T11:54:26Z</time>
      </trkpt>
      <trkpt lat="54.479120029136539" lon="-1.188284978270531">
        <ele>67.909999999999997</ele>
        <time>2023-08-16T11:54:27Z</time>
      </trkpt>
      <trkpt lat="54.47921097278595" lon="-1.188198979943991">
        <ele>67.909999999999997</ele>
        <time>2023-08-16T11:54:28Z</time>
      </trkpt>
      <trkpt lat="54.479292025789618" lon="-1.188123039901257">
        <ele>67.909999999999997</ele>
        <time>2023-08-16T11:54:29Z</time>
      </trkpt>
      <trkpt lat="54.479362014681101" lon="-1.188056990504265">
        <ele>68.390000000000001</ele>
        <time>2023-08-16T11:54:30Z</time>
      </trkpt>
      <trkpt lat="54.479464022442698" lon="-1.187961017712951">
        <ele>68.390000000000001</ele>
        <time>2023-08-16T11:54:32Z</time>
      </trkpt>
      <trkpt lat="54.479464022442698" lon="-1.187961017712951">
        <ele>68.870000000000005</ele>
        <time>2023-08-16T11:54:33Z</time>
      </trkpt>
      <trkpt lat="54.479615986347198" lon="-1.187883988022804">
        <ele>68.870000000000005</ele>
        <time>2023-08-16T11:54:34Z</time>
      </trkpt>
      <trkpt lat="54.479656973853707" lon="-1.187968980520964">
        <ele>68.390000000000001</ele>
        <time>2023-08-16T11:54:35Z</time>
      </trkpt>
      <trkpt lat="54.479713970795274" lon="-1.18808900937438">
        <ele>68.390000000000001</ele>
        <time>2023-08-16T11:54:36Z</time>
      </trkpt>
      <trkpt lat="54.479783037677407" lon="-1.188232004642487">
        <ele>67.909999999999997</ele>
        <time>2023-08-16T11:54:37Z</time>
      </trkpt>
      <trkpt lat="54.480603039264679" lon="-1.189360963180661">
        <ele>67.909999999999997</ele>
        <time>2023-08-16T11:54:44Z</time>
      </trkpt>
      <trkpt lat="54.481906006112695" lon="-1.190355978906155">
        <ele>67.430000000000007</ele>
        <time>2023-08-16T11:54:51Z</time>
      </trkpt>
      <trkpt lat="54.483412988483906" lon="-1.190940029919148">
        <ele>68.390000000000001</ele>
        <time>2023-08-16T11:54:59Z</time>
      </trkpt>
      <trkpt lat="54.48552799411118" lon="-1.191623993217945">
        <ele>70.790000000000006</ele>
        <time>2023-08-16T11:55:10Z</time>
      </trkpt>
      <trkpt lat="54.485905012115836" lon="-1.191525002941489">
        <ele>70.790000000000006</ele>
        <time>2023-08-16T11:55:12Z</time>
      </trkpt>
      <trkpt lat="54.486974040046334" lon="-1.191157959401608">
        <ele>72.719999999999999</ele>
        <time>2023-08-16T11:55:19Z</time>
      </trkpt>
      <trkpt lat="54.48707303032279" lon="-1.191177992150188">
        <ele>73.200000000000003</ele>
        <time>2023-08-16T11:55:20Z</time>
      </trkpt>
      <trkpt lat="54.487170008942485" lon="-1.191198024898768">
        <ele>73.680000000000007</ele>
        <time>2023-08-16T11:55:21Z</time>
      </trkpt>
      <trkpt lat="54.487243015319109" lon="-1.191272037103772">
        <ele>73.680000000000007</ele>
        <time>2023-08-16T11:55:22Z</time>
      </trkpt>
      <trkpt lat="54.487338988110423" lon="-1.191393993794918">
        <ele>73.680000000000007</ele>
        <time>2023-08-16T11:55:23Z</time>
      </trkpt>
      <trkpt lat="54.487383998930454" lon="-1.191540006548166">
        <ele>73.680000000000007</ele>
        <time>2023-08-16T11:55:24Z</time>
      </trkpt>
      <trkpt lat="54.487444013357162" lon="-1.191732035949826">
        <ele>73.680000000000007</ele>
        <time>2023-08-16T11:55:25Z</time>
      </trkpt>
      <trkpt lat="54.487621961161494" lon="-1.192328995093703">
        <ele>72.719999999999999</ele>
        <time>2023-08-16T11:55:28Z</time>
      </trkpt>
      <trkpt lat="54.487676024436951" lon="-1.192525969818234">
        <ele>72.239999999999995</ele>
        <time>2023-08-16T11:55:29Z</time>
      </trkpt>
      <trkpt lat="54.487725980579853" lon="-1.192723028361797">
        <ele>72.239999999999995</ele>
        <time>2023-08-16T11:55:30Z</time>
      </trkpt>
      <trkpt lat="54.487734027206898" lon="-1.192925032228231">
        <ele>71.760000000000005</ele>
        <time>2023-08-16T11:55:31Z</time>
      </trkpt>
      <trkpt lat="54.487741990014911" lon="-1.19311697781086">
        <ele>71.269999999999996</ele>
        <time>2023-08-16T11:55:32Z</time>
      </trkpt>
      <trkpt lat="54.487750958651304" lon="-1.19328897446394">
        <ele>70.790000000000006</ele>
        <time>2023-08-16T11:55:33Z</time>
      </trkpt>
      <trkpt lat="54.487763028591871" lon="-1.193449990823865">
        <ele>70.310000000000002</ele>
        <time>2023-08-16T11:55:34Z</time>
      </trkpt>
      <trkpt lat="54.487792029976845" lon="-1.193586029112339">
        <ele>69.349999999999994</ele>
        <time>2023-08-16T11:55:35Z</time>
      </trkpt>
      <trkpt lat="54.487838968634605" lon="-1.193714020773768">
        <ele>68.870000000000005</ele>
        <time>2023-08-16T11:55:36Z</time>
      </trkpt>
      <trkpt lat="54.487917004153132" lon="-1.193772023543716">
        <ele>68.390000000000001</ele>
        <time>2023-08-16T11:55:37Z</time>
      </trkpt>
      <trkpt lat="54.488010965287685" lon="-1.193798007443547">
        <ele>68.390000000000001</ele>
        <time>2023-08-16T11:55:38Z</time>
      </trkpt>
      <trkpt lat="54.488119008019567" lon="-1.193794989958406">
        <ele>68.390000000000001</ele>
        <time>2023-08-16T11:55:39Z</time>
      </trkpt>
      <trkpt lat="54.488212969154119" lon="-1.19371703825891">
        <ele>68.870000000000005</ele>
        <time>2023-08-16T11:55:40Z</time>
      </trkpt>
      <trkpt lat="54.488312965258956" lon="-1.193635985255241">
        <ele>69.829999999999998</ele>
        <time>2023-08-16T11:55:41Z</time>
      </trkpt>
      <trkpt lat="54.488411033526063" lon="-1.193555016070604">
        <ele>70.310000000000002</ele>
        <time>2023-08-16T11:55:42Z</time>
      </trkpt>
      <trkpt lat="54.488498959690332" lon="-1.193507993593812">
        <ele>71.269999999999996</ele>
        <time>2023-08-16T11:55:43Z</time>
      </trkpt>
      <trkpt lat="54.488585963845253" lon="-1.193486033007503">
        <ele>71.760000000000005</ele>
        <time>2023-08-16T11:55:44Z</time>
      </trkpt>
      <trkpt lat="54.488679002970457" lon="-1.193498019129038">
        <ele>72.719999999999999</ele>
        <time>2023-08-16T11:55:45Z</time>
      </trkpt>
      <trkpt lat="54.488787967711687" lon="-1.19354403577745">
        <ele>73.200000000000003</ele>
        <time>2023-08-16T11:55:46Z</time>
      </trkpt>
      <trkpt lat="54.488900033757091" lon="-1.19359097443521">
        <ele>74.159999999999997</ele>
        <time>2023-08-16T11:55:47Z</time>
      </trkpt>
      <trkpt lat="54.489016961306334" lon="-1.193640008568764">
        <ele>74.640000000000001</ele>
        <time>2023-08-16T11:55:48Z</time>
      </trkpt>
      <trkpt lat="54.489141013473272" lon="-1.193669009953737">
        <ele>75.120000000000005</ele>
        <time>2023-08-16T11:55:49Z</time>
      </trkpt>
      <trkpt lat="54.489261964336038" lon="-1.193687031045556">
        <ele>75.599999999999994</ele>
        <time>2023-08-16T11:55:50Z</time>
      </trkpt>
      <trkpt lat="54.489376964047551" lon="-1.193662974983454">
        <ele>75.599999999999994</ele>
        <time>2023-08-16T11:55:51Z</time>
      </trkpt>
      <trkpt lat="54.48950101621449" lon="-1.193635985255241">
        <ele>76.079999999999998</ele>
        <time>2023-08-16T11:55:52Z</time>
      </trkpt>
      <trkpt lat="54.489635964855552" lon="-1.193588962778449">
        <ele>76.079999999999998</ele>
        <time>2023-08-16T11:55:53Z</time>
      </trkpt>
      <trkpt lat="54.490708010271192" lon="-1.193217979744077">
        <ele>76.079999999999998</ele>
        <time>2023-08-16T11:56:00Z</time>
      </trkpt>
      <trkpt lat="54.490859974175692" lon="-1.193241029977799">
        <ele>76.079999999999998</ele>
        <time>2023-08-16T11:56:01Z</time>
      </trkpt>
      <trkpt lat="54.491021996363997" lon="-1.193265002220869">
        <ele>76.079999999999998</ele>
        <time>2023-08-16T11:56:02Z</time>
      </trkpt>
      <trkpt lat="54.491181001067162" lon="-1.193305989727378">
        <ele>75.599999999999994</ele>
        <time>2023-08-16T11:56:03Z</time>
      </trkpt>
      <trkpt lat="54.491335982456803" lon="-1.193388970568776">
        <ele>75.599999999999994</ele>
        <time>2023-08-16T11:56:04Z</time>
      </trkpt>
      <trkpt lat="54.491493981331587" lon="-1.193473041057587">
        <ele>75.599999999999994</ele>
        <time>2023-08-16T11:56:05Z</time>
      </trkpt>
      <trkpt lat="54.491656003519893" lon="-1.193559039384127">
        <ele>75.120000000000005</ele>
        <time>2023-08-16T11:56:06Z</time>
      </trkpt>
      <trkpt lat="54.491819031536579" lon="-1.193664986640215">
        <ele>75.120000000000005</ele>
        <time>2023-08-16T11:56:07Z</time>
      </trkpt>
      <trkpt lat="54.491968983784318" lon="-1.193815022706986">
        <ele>75.120000000000005</ele>
        <time>2023-08-16T11:56:08Z</time>
      </trkpt>
      <trkpt lat="54.492755038663745" lon="-1.194599987939">
        <ele>76.560000000000002</ele>
        <time>2023-08-16T11:56:13Z</time>
      </trkpt>
      <trkpt lat="54.493108000606298" lon="-1.194881033152342">
        <ele>78</ele>
        <time>2023-08-16T11:56:15Z</time>
      </trkpt>
      <trkpt lat="54.494247017428279" lon="-1.195620987564325">
        <ele>81.370000000000005</ele>
        <time>2023-08-16T11:56:21Z</time>
      </trkpt>
      <trkpt lat="54.494418008252978" lon="-1.195791978389025">
        <ele>81.370000000000005</ele>
        <time>2023-08-16T11:56:22Z</time>
      </trkpt>
      <trkpt lat="54.49590596370399" lon="-1.197037026286125">
        <ele>81.849999999999994</ele>
        <time>2023-08-16T11:56:30Z</time>
      </trkpt>
      <trkpt lat="54.49717003852129" lon="-1.198524981737137">
        <ele>83.769999999999996</ele>
        <time>2023-08-16T11:56:38Z</time>
      </trkpt>
      <trkpt lat="54.49783899821341" lon="-1.199829038232565">
        <ele>86.659999999999997</ele>
        <time>2023-08-16T11:56:44Z</time>
      </trkpt>
      <trkpt lat="54.497899012640119" lon="-1.200020983815193">
        <ele>87.620000000000005</ele>
        <time>2023-08-16T11:56:45Z</time>
      </trkpt>
      <trkpt lat="54.497938994318247" lon="-1.200238997116685">
        <ele>88.099999999999994</ele>
        <time>2023-08-16T11:56:46Z</time>
      </trkpt>
      <trkpt lat="54.497938994318247" lon="-1.200447035953403">
        <ele>88.579999999999998</ele>
        <time>2023-08-16T11:56:47Z</time>
      </trkpt>
      <trkpt lat="54.497919967398047" lon="-1.200687009841204">
        <ele>88.579999999999998</ele>
        <time>2023-08-16T11:56:48Z</time>
      </trkpt>
      <trkpt lat="54.497869005426764" lon="-1.200934024527669">
        <ele>89.060000000000002</ele>
        <time>2023-08-16T11:56:49Z</time>
      </trkpt>
      <trkpt lat="54.497821982949972" lon="-1.20119302533567">
        <ele>89.060000000000002</ele>
        <time>2023-08-16T11:56:50Z</time>
      </trkpt>
      <trkpt lat="54.497743025422096" lon="-1.201665010303259">
        <ele>89.060000000000002</ele>
        <time>2023-08-16T11:56:52Z</time>
      </trkpt>
      <trkpt lat="54.497734978795052" lon="-1.201854022219777">
        <ele>88.579999999999998</ele>
        <time>2023-08-16T11:56:53Z</time>
      </trkpt>
      <trkpt lat="54.497757023200393" lon="-1.202007997781038">
        <ele>88.099999999999994</ele>
        <time>2023-08-16T11:56:54Z</time>
      </trkpt>
      <trkpt lat="54.497805973514915" lon="-1.20211897417903">
        <ele>87.620000000000005</ele>
        <time>2023-08-16T11:56:55Z</time>
      </trkpt>
      <trkpt lat="54.497885014861822" lon="-1.202190974727273">
        <ele>87.140000000000001</ele>
        <time>2023-08-16T11:56:56Z</time>
      </trkpt>
      <trkpt lat="54.49799096211791" lon="-1.202220981940627">
        <ele>87.140000000000001</ele>
        <time>2023-08-16T11:56:57Z</time>
      </trkpt>
      <trkpt lat="54.498113002628088" lon="-1.202215030789375">
        <ele>87.620000000000005</ele>
        <time>2023-08-16T11:56:58Z</time>
      </trkpt>
      <trkpt lat="54.4991260394454" lon="-1.202038004994392">
        <ele>87.620000000000005</ele>
        <time>2023-08-16T11:57:04Z</time>
      </trkpt>
      <trkpt lat="54.500473011285067" lon="-1.201310036703944">
        <ele>88.099999999999994</ele>
        <time>2023-08-16T11:57:11Z</time>
      </trkpt>
      <trkpt lat="54.501973958685994" lon="-1.200546026229858">
        <ele>86.180000000000007</ele>
        <time>2023-08-16T11:57:19Z</time>
      </trkpt>
      <trkpt lat="54.502160036936402" lon="-1.200590031221509">
        <ele>85.689999999999998</ele>
        <time>2023-08-16T11:57:20Z</time>
      </trkpt>
      <trkpt lat="54.502348965033889" lon="-1.200635964050889">
        <ele>85.209999999999994</ele>
        <time>2023-08-16T11:57:21Z</time>
      </trkpt>
      <trkpt lat="54.502536971122026" lon="-1.200706958770752">
        <ele>85.209999999999994</ele>
        <time>2023-08-16T11:57:22Z</time>
      </trkpt>
      <trkpt lat="54.502725983038545" lon="-1.200822964310646">
        <ele>85.209999999999994</ele>
        <time>2023-08-16T11:57:23Z</time>
      </trkpt>
      <trkpt lat="54.504554998129606" lon="-1.201777998358011">
        <ele>87.620000000000005</ele>
        <time>2023-08-16T11:57:32Z</time>
      </trkpt>
      <trkpt lat="54.506380995735526" lon="-1.202262975275517">
        <ele>91.459999999999994</ele>
        <time>2023-08-16T11:57:41Z</time>
      </trkpt>
      <trkpt lat="54.50654000043869" lon="-1.202331036329269">
        <ele>91.459999999999994</ele>
        <time>2023-08-16T11:57:42Z</time>
      </trkpt>
      <trkpt lat="54.506682995706797" lon="-1.202461961656809">
        <ele>91.459999999999994</ele>
        <time>2023-08-16T11:57:43Z</time>
      </trkpt>
      <trkpt lat="54.506819033995271" lon="-1.202622978016734">
        <ele>91.459999999999994</ele>
        <time>2023-08-16T11:57:44Z</time>
      </trkpt>
      <trkpt lat="54.506944008171558" lon="-1.202808972448111">
        <ele>91.459999999999994</ele>
        <time>2023-08-16T11:57:45Z</time>
      </trkpt>
      <trkpt lat="54.507919996976852" lon="-1.204498009756208">
        <ele>95.310000000000002</ele>
        <time>2023-08-16T11:57:54Z</time>
      </trkpt>
      <trkpt lat="54.50800197198987" lon="-1.204725997522473">
        <ele>95.790000000000006</ele>
        <time>2023-08-16T11:57:55Z</time>
      </trkpt>
      <trkpt lat="54.508068021386862" lon="-1.204966977238655">
        <ele>96.269999999999996</ele>
        <time>2023-08-16T11:57:56Z</time>
      </trkpt>
      <trkpt lat="54.508376978337765" lon="-1.206014966592193">
        <ele>94.829999999999998</ele>
        <time>2023-08-16T11:58:00Z</time>
      </trkpt>
      <trkpt lat="54.508490972220898" lon="-1.206261981278658">
        <ele>94.829999999999998</ele>
        <time>2023-08-16T11:58:01Z</time>
      </trkpt>
      <trkpt lat="54.508609995245934" lon="-1.206504972651601">
        <ele>94.829999999999998</ele>
        <time>2023-08-16T11:58:02Z</time>
      </trkpt>
      <trkpt lat="54.509129002690315" lon="-1.207428993657231">
        <ele>94.349999999999994</ele>
        <time>2023-08-16T11:58:06Z</time>
      </trkpt>
      <trkpt lat="54.509233022108674" lon="-1.207687994465232">
        <ele>94.349999999999994</ele>
        <time>2023-08-16T11:58:07Z</time>
      </trkpt>
      <trkpt lat="54.509337963536382" lon="-1.207966022193432">
        <ele>94.349999999999994</ele>
        <time>2023-08-16T11:58:08Z</time>
      </trkpt>
      <trkpt lat="54.509399989619851" lon="-1.208277996629477">
        <ele>94.349999999999994</ele>
        <time>2023-08-16T11:58:09Z</time>
      </trkpt>
      <trkpt lat="54.509463021531701" lon="-1.208601035177708">
        <ele>93.870000000000005</ele>
        <time>2023-08-16T11:58:10Z</time>
      </trkpt>
      <trkpt lat="54.510101974010468" lon="-1.211835024878383">
        <ele>89.060000000000002</ele>
        <time>2023-08-16T11:58:20Z</time>
      </trkpt>
      <trkpt lat="54.510530959814787" lon="-1.21327000670135">
        <ele>86.659999999999997</ele>
        <time>2023-08-16T11:58:25Z</time>
      </trkpt>
      <trkpt lat="54.510602038353682" lon="-1.213549040257931">
        <ele>85.689999999999998</ele>
        <time>2023-08-16T11:58:26Z</time>
      </trkpt>
      <trkpt lat="54.51062299311161" lon="-1.213851040229201">
        <ele>85.209999999999994</ele>
        <time>2023-08-16T11:58:27Z</time>
      </trkpt>
      <trkpt lat="54.510644031688571" lon="-1.214157985523343">
        <ele>85.209999999999994</ele>
        <time>2023-08-16T11:58:28Z</time>
      </trkpt>
      <trkpt lat="54.510662974789739" lon="-1.214464008808136">
        <ele>84.730000000000004</ele>
        <time>2023-08-16T11:58:29Z</time>
      </trkpt>
      <trkpt lat="54.510671021416783" lon="-1.215930003672838">
        <ele>81.849999999999994</ele>
        <time>2023-08-16T11:58:35Z</time>
      </trkpt>
      <trkpt lat="54.510762970894575" lon="-1.217401027679443">
        <ele>79.930000000000007</ele>
        <time>2023-08-16T11:58:42Z</time>
      </trkpt>
      <trkpt lat="54.51081401668489" lon="-1.217646030709148">
        <ele>79.450000000000003</ele>
        <time>2023-08-16T11:58:43Z</time>
      </trkpt>
      <trkpt lat="54.510873025283217" lon="-1.217893967404962">
        <ele>78.969999999999999</ele>
        <time>2023-08-16T11:58:44Z</time>
      </trkpt>
      <trkpt lat="54.51096698641777" lon="-1.218138970434666">
        <ele>78.480000000000004</ele>
        <time>2023-08-16T11:58:45Z</time>
      </trkpt>
      <trkpt lat="54.511063965037465" lon="-1.218386990949512">
        <ele>78</ele>
        <time>2023-08-16T11:58:46Z</time>
      </trkpt>
      <trkpt lat="54.511177036911249" lon="-1.218611961230636">
        <ele>77.519999999999996</ele>
        <time>2023-08-16T11:58:47Z</time>
      </trkpt>
      <trkpt lat="54.51130704022944" lon="-1.218807008117437">
        <ele>77.040000000000006</ele>
        <time>2023-08-16T11:58:48Z</time>
      </trkpt>
      <trkpt lat="54.51143897138536" lon="-1.218959977850318">
        <ele>76.560000000000002</ele>
        <time>2023-08-16T11:58:49Z</time>
      </trkpt>
      <trkpt lat="54.511563023552299" lon="-1.219087969511747">
        <ele>75.599999999999994</ele>
        <time>2023-08-16T11:58:50Z</time>
      </trkpt>
      <trkpt lat="54.51169503852725" lon="-1.21917899698019">
        <ele>75.120000000000005</ele>
        <time>2023-08-16T11:58:51Z</time>
      </trkpt>
      <trkpt lat="54.51182596385479" lon="-1.219269018620253">
        <ele>74.640000000000001</ele>
        <time>2023-08-16T11:58:52Z</time>
      </trkpt>
      <trkpt lat="54.511968959122896" lon="-1.219334984198213">
        <ele>74.159999999999997</ele>
        <time>2023-08-16T11:58:53Z</time>
      </trkpt>
      <trkpt lat="54.512120001018047" lon="-1.219381000846624">
        <ele>73.680000000000007</ele>
        <time>2023-08-16T11:58:54Z</time>
      </trkpt>
      <trkpt lat="54.513421040028334" lon="-1.21988701634109">
        <ele>71.760000000000005</ele>
        <time>2023-08-16T11:59:02Z</time>
      </trkpt>
      <trkpt lat="54.514719983562827" lon="-1.220528986304998">
        <ele>66.469999999999999</ele>
        <time>2023-08-16T11:59:10Z</time>
      </trkpt>
      <trkpt lat="54.514875970780849" lon="-1.220624959096313">
        <ele>65.510000000000005</ele>
        <time>2023-08-16T11:59:11Z</time>
      </trkpt>
      <trkpt lat="54.515348961576819" lon="-1.220942968502641">
        <ele>62.619999999999997</ele>
        <time>2023-08-16T11:59:14Z</time>
      </trkpt>
      <trkpt lat="54.515512995421886" lon="-1.221054028719664">
        <ele>61.659999999999997</ele>
        <time>2023-08-16T11:59:15Z</time>
      </trkpt>
      <trkpt lat="54.515676023438573" lon="-1.221163999289274">
        <ele>60.700000000000003</ele>
        <time>2023-08-16T11:59:16Z</time>
      </trkpt>
      <trkpt lat="54.515835028141737" lon="-1.221271036192775">
        <ele>59.259999999999998</ele>
        <time>2023-08-16T11:59:17Z</time>
      </trkpt>
      <trkpt lat="54.51599202118814" lon="-1.22139098122716">
        <ele>58.299999999999997</ele>
        <time>2023-08-16T11:59:18Z</time>
      </trkpt>
      <trkpt lat="54.517314014956355" lon="-1.222422039136291">
        <ele>50.130000000000003</ele>
        <time>2023-08-16T11:59:27Z</time>
      </trkpt>
      <trkpt lat="54.51840098015964" lon="-1.223116982728243">
        <ele>44.840000000000003</ele>
        <time>2023-08-16T11:59:35Z</time>
      </trkpt>
      <trkpt lat="54.518534000962973" lon="-1.223201975226402">
        <ele>44.359999999999999</ele>
        <time>2023-08-16T11:59:36Z</time>
      </trkpt>
      <trkpt lat="54.519461039453745" lon="-1.223794994875789">
        <ele>42.439999999999998</ele>
        <time>2023-08-16T11:59:44Z</time>
      </trkpt>
      <trkpt lat="54.520485978573561" lon="-1.224539978429675">
        <ele>42.920000000000002</ele>
        <time>2023-08-16T11:59:52Z</time>
      </trkpt>
      <trkpt lat="54.521809983998537" lon="-1.225916035473347">
        <ele>39.07</ele>
        <time>2023-08-16T12:00:04Z</time>
      </trkpt>
      <trkpt lat="54.522053981199861" lon="-1.226261034607887">
        <ele>38.590000000000003</ele>
        <time>2023-08-16T12:00:07Z</time>
      </trkpt>
      <trkpt lat="54.522147020325065" lon="-1.226412998512387">
        <ele>39.07</ele>
        <time>2023-08-16T12:00:12Z</time>
      </trkpt>
      <trkpt lat="54.52235396951437" lon="-1.226751040667296">
        <ele>40.030000000000001</ele>
        <time>2023-08-16T12:00:23Z</time>
      </trkpt>
      <trkpt lat="54.522422030568123" lon="-1.226950027048588">
        <ele>40.509999999999998</ele>
        <time>2023-08-16T12:00:24Z</time>
      </trkpt>
      <trkpt lat="54.52248003333807" lon="-1.22701901011169">
        <ele>40.509999999999998</ele>
        <time>2023-08-16T12:00:25Z</time>
      </trkpt>
      <trkpt lat="54.522853028029203" lon="-1.227246997877955">
        <ele>43.399999999999999</ele>
        <time>2023-08-16T12:00:31Z</time>
      </trkpt>
      <trkpt lat="54.522873982787132" lon="-1.227265018969774">
        <ele>43.880000000000003</ele>
        <time>2023-08-16T12:00:40Z</time>
      </trkpt>
      <trkpt lat="54.522901978343725" lon="-1.227289997041225">
        <ele>44.359999999999999</ele>
        <time>2023-08-16T12:00:41Z</time>
      </trkpt>
      <trkpt lat="54.522956963628531" lon="-1.227338025346398">
        <ele>44.359999999999999</ele>
        <time>2023-08-16T12:00:42Z</time>
      </trkpt>
      <trkpt lat="54.523593988269567" lon="-1.22794596478343">
        <ele>45.799999999999997</ele>
        <time>2023-08-16T12:00:48Z</time>
      </trkpt>
      <trkpt lat="54.524799976497889" lon="-1.229389999061823">
        <ele>48.68</ele>
        <time>2023-08-16T12:00:57Z</time>
      </trkpt>
      <trkpt lat="54.526152983307838" lon="-1.231410037726164">
        <ele>47.719999999999999</ele>
        <time>2023-08-16T12:01:09Z</time>
      </trkpt>
      <trkpt lat="54.526699986308813" lon="-1.232374962419272">
        <ele>48.68</ele>
        <time>2023-08-16T12:01:17Z</time>
      </trkpt>
      <trkpt lat="54.526767963543534" lon="-1.23249800875783">
        <ele>49.649999999999999</ele>
        <time>2023-08-16T12:01:21Z</time>
      </trkpt>
      <trkpt lat="54.52686402015388" lon="-1.232743011787534">
        <ele>49.649999999999999</ele>
        <time>2023-08-16T12:01:23Z</time>
      </trkpt>
      <trkpt lat="54.52699201181531" lon="-1.232829010114074">
        <ele>50.609999999999999</ele>
        <time>2023-08-16T12:01:25Z</time>
      </trkpt>
      <trkpt lat="54.527126038447022" lon="-1.232915008440614">
        <ele>50.609999999999999</ele>
        <time>2023-08-16T12:01:26Z</time>
      </trkpt>
      <trkpt lat="54.527964983135462" lon="-1.234004991129041">
        <ele>49.159999999999997</ele>
        <time>2023-08-16T12:01:33Z</time>
      </trkpt>
      <trkpt lat="54.52935503795743" lon="-1.236251005902886">
        <ele>43.880000000000003</ele>
        <time>2023-08-16T12:01:45Z</time>
      </trkpt>
      <trkpt lat="54.530771998688579" lon="-1.238846965134144">
        <ele>40.030000000000001</ele>
        <time>2023-08-16T12:01:58Z</time>
      </trkpt>
      <trkpt lat="54.531756034120917" lon="-1.240544971078634">
        <ele>37.630000000000003</ele>
        <time>2023-08-16T12:02:08Z</time>
      </trkpt>
      <trkpt lat="54.532111007720232" lon="-1.241259025409818">
        <ele>35.229999999999997</ele>
        <time>2023-08-16T12:02:15Z</time>
      </trkpt>
      <trkpt lat="54.532168004661798" lon="-1.241343012079597">
        <ele>34.740000000000002</ele>
        <time>2023-08-16T12:02:16Z</time>
      </trkpt>
      <trkpt lat="54.532242016866803" lon="-1.241379976272583">
        <ele>34.740000000000002</ele>
        <time>2023-08-16T12:02:17Z</time>
      </trkpt>
      <trkpt lat="54.532292978838086" lon="-1.241391040384769">
        <ele>34.259999999999998</ele>
        <time>2023-08-16T12:02:18Z</time>
      </trkpt>
      <trkpt lat="54.532443014904857" lon="-1.241407971829176">
        <ele>33.780000000000001</ele>
        <time>2023-08-16T12:02:19Z</time>
      </trkpt>
      <trkpt lat="54.532542005181313" lon="-1.241498999297619">
        <ele>33.299999999999997</ele>
        <time>2023-08-16T12:02:20Z</time>
      </trkpt>
      <trkpt lat="54.532657004892826" lon="-1.241605030372739">
        <ele>32.82</ele>
        <time>2023-08-16T12:02:21Z</time>
      </trkpt>
      <trkpt lat="54.532763035967946" lon="-1.241698991507292">
        <ele>32.82</ele>
        <time>2023-08-16T12:02:22Z</time>
      </trkpt>
      <trkpt lat="54.534130040556192" lon="-1.243051998317242">
        <ele>31.379999999999999</ele>
        <time>2023-08-16T12:02:34Z</time>
      </trkpt>
      <trkpt lat="54.534906959161162" lon="-1.244213981553912">
        <ele>29.460000000000001</ele>
        <time>2023-08-16T12:02:43Z</time>
      </trkpt>
      <trkpt lat="54.53578001819551" lon="-1.245489958673716">
        <ele>26.09</ele>
        <time>2023-08-16T12:02:53Z</time>
      </trkpt>
      <trkpt lat="54.536629021167755" lon="-1.247243033722043">
        <ele>23.210000000000001</ele>
        <time>2023-08-16T12:03:05Z</time>
      </trkpt>
      <trkpt lat="54.537470983341336" lon="-1.248696958646178">
        <ele>23.690000000000001</ele>
        <time>2023-08-16T12:03:15Z</time>
      </trkpt>
      <trkpt lat="54.537751022726297" lon="-1.249116975814104">
        <ele>23.210000000000001</ele>
        <time>2023-08-16T12:03:18Z</time>
      </trkpt>
      <trkpt lat="54.537837021052837" lon="-1.249245973303914">
        <ele>23.210000000000001</ele>
        <time>2023-08-16T12:03:19Z</time>
      </trkpt>
      <trkpt lat="54.538721982389688" lon="-1.250637033954263">
        <ele>20.809999999999999</ele>
        <time>2023-08-16T12:03:29Z</time>
      </trkpt>
      <trkpt lat="54.539451962336898" lon="-1.251858025789261">
        <ele>19.359999999999999</ele>
        <time>2023-08-16T12:03:37Z</time>
      </trkpt>
      <trkpt lat="54.539537960663438" lon="-1.252004038542509">
        <ele>19.359999999999999</ele>
        <time>2023-08-16T12:03:38Z</time>
      </trkpt>
      <trkpt lat="54.540552003309131" lon="-1.253759963437915">
        <ele>20.809999999999999</ele>
        <time>2023-08-16T12:03:50Z</time>
      </trkpt>
      <trkpt lat="54.541067993268371" lon="-1.254525985568762">
        <ele>19.84</ele>
        <time>2023-08-16T12:03:56Z</time>
      </trkpt>
      <trkpt lat="54.541149968281388" lon="-1.25462799333036">
        <ele>19.359999999999999</ele>
        <time>2023-08-16T12:03:57Z</time>
      </trkpt>
      <trkpt lat="54.541470995172858" lon="-1.255035018548369">
        <ele>17.440000000000001</ele>
        <time>2023-08-16T12:04:04Z</time>
      </trkpt>
      <trkpt lat="54.541491027921438" lon="-1.25505899079144">
        <ele>17.440000000000001</ele>
        <time>2023-08-16T12:04:05Z</time>
      </trkpt>
      <trkpt lat="54.541491027921438" lon="-1.25505899079144">
        <ele>17.440000000000001</ele>
        <time>2023-08-16T12:04:15Z</time>
      </trkpt>
      <trkpt lat="54.541545007377863" lon="-1.255127973854542">
        <ele>16</ele>
        <time>2023-08-16T12:04:33Z</time>
      </trkpt>
      <trkpt lat="54.541756985709071" lon="-1.255395021289587">
        <ele>14.56</ele>
        <time>2023-08-16T12:04:40Z</time>
      </trkpt>
      <trkpt lat="54.541825968772173" lon="-1.255483031272888">
        <ele>12.15</ele>
        <time>2023-08-16T12:04:52Z</time>
      </trkpt>
      <trkpt lat="54.541825968772173" lon="-1.255483031272888">
        <ele>11.67</ele>
        <time>2023-08-16T12:05:09Z</time>
      </trkpt>
      <trkpt lat="54.542088992893696" lon="-1.255801962688565">
        <ele>13.6</ele>
        <time>2023-08-16T12:05:20Z</time>
      </trkpt>
      <trkpt lat="54.542107013985515" lon="-1.255820989608765">
        <ele>14.56</ele>
        <time>2023-08-16T12:05:31Z</time>
      </trkpt>
      <trkpt lat="54.54227096401155" lon="-1.255990974605084">
        <ele>11.67</ele>
        <time>2023-08-16T12:05:40Z</time>
      </trkpt>
      <trkpt lat="54.542411025613546" lon="-1.256135981529951">
        <ele>8.310000000000001</ele>
        <time>2023-08-16T12:05:52Z</time>
      </trkpt>
      <trkpt lat="54.542411025613546" lon="-1.256135981529951">
        <ele>7.83</ele>
        <time>2023-08-16T12:06:32Z</time>
      </trkpt>
      <trkpt lat="54.542646976187825" lon="-1.256379978731275">
        <ele>10.710000000000001</ele>
        <time>2023-08-16T12:06:42Z</time>
      </trkpt>
      <trkpt lat="54.542872030287981" lon="-1.256577959284186">
        <ele>10.23</ele>
        <time>2023-08-16T12:06:46Z</time>
      </trkpt>
      <trkpt lat="54.54293699003756" lon="-1.256634034216404">
        <ele>9.27</ele>
        <time>2023-08-16T12:06:53Z</time>
      </trkpt>
      <trkpt lat="54.54293699003756" lon="-1.256634034216404">
        <ele>9.27</ele>
        <time>2023-08-16T12:07:36Z</time>
      </trkpt>
      <trkpt lat="54.543204959481955" lon="-1.256867973133922">
        <ele>11.67</ele>
        <time>2023-08-16T12:07:46Z</time>
      </trkpt>
      <trkpt lat="54.54340604133904" lon="-1.257037036120892">
        <ele>13.119999999999999</ele>
        <time>2023-08-16T12:07:54Z</time>
      </trkpt>
      <trkpt lat="54.543698988854885" lon="-1.257286984473467">
        <ele>14.08</ele>
        <time>2023-08-16T12:08:01Z</time>
      </trkpt>
      <trkpt lat="54.543939968571067" lon="-1.257496029138565">
        <ele>15.52</ele>
        <time>2023-08-16T12:08:10Z</time>
      </trkpt>
      <trkpt lat="54.544006017968059" lon="-1.257554031908512">
        <ele>16.48</ele>
        <time>2023-08-16T12:08:21Z</time>
      </trkpt>
      <trkpt lat="54.54413996078074" lon="-1.257670037448406">
        <ele>19.359999999999999</ele>
        <time>2023-08-16T12:08:39Z</time>
      </trkpt>
      <trkpt lat="54.544468028470874" lon="-1.257954016327858">
        <ele>18.879999999999999</ele>
        <time>2023-08-16T12:08:47Z</time>
      </trkpt>
      <trkpt lat="54.544513039290905" lon="-1.257991986349225">
        <ele>18.879999999999999</ele>
        <time>2023-08-16T12:08:48Z</time>
      </trkpt>
      <trkpt lat="54.544811015948653" lon="-1.258179992437363">
        <ele>17.920000000000002</ele>
        <time>2023-08-16T12:08:53Z</time>
      </trkpt>
      <trkpt lat="54.54551400616765" lon="-1.258407980203629">
        <ele>16.960000000000001</ele>
        <time>2023-08-16T12:09:04Z</time>
      </trkpt>
      <trkpt lat="54.546230994164944" lon="-1.258698999881744">
        <ele>18.879999999999999</ele>
        <time>2023-08-16T12:09:14Z</time>
      </trkpt>
      <trkpt lat="54.546423023566604" lon="-1.258845012634993">
        <ele>18.399999999999999</ele>
        <time>2023-08-16T12:09:17Z</time>
      </trkpt>
      <trkpt lat="54.54647901467979" lon="-1.258935034275055">
        <ele>18.879999999999999</ele>
        <time>2023-08-16T12:09:18Z</time>
      </trkpt>
      <trkpt lat="54.546538023278117" lon="-1.259028995409608">
        <ele>18.879999999999999</ele>
        <time>2023-08-16T12:09:19Z</time>
      </trkpt>
      <trkpt lat="54.546604994684458" lon="-1.259136032313108">
        <ele>18.879999999999999</ele>
        <time>2023-08-16T12:09:20Z</time>
      </trkpt>
      <trkpt lat="54.546636007726192" lon="-1.259261006489396">
        <ele>18.879999999999999</ele>
        <time>2023-08-16T12:09:21Z</time>
      </trkpt>
      <trkpt lat="54.546670960262418" lon="-1.259401990100741">
        <ele>18.879999999999999</ele>
        <time>2023-08-16T12:09:22Z</time>
      </trkpt>
      <trkpt lat="54.54701797105372" lon="-1.261097984388471">
        <ele>18.879999999999999</ele>
        <time>2023-08-16T12:09:31Z</time>
      </trkpt>
      <trkpt lat="54.547510994598269" lon="-1.263418011367321">
        <ele>16.48</ele>
        <time>2023-08-16T12:09:43Z</time>
      </trkpt>
      <trkpt lat="54.54804802313447" lon="-1.266197031363845">
        <ele>17.440000000000001</ele>
        <time>2023-08-16T12:09:58Z</time>
      </trkpt>
      <trkpt lat="54.548396961763501" lon="-1.268515968695283">
        <ele>17.920000000000002</ele>
        <time>2023-08-16T12:10:10Z</time>
      </trkpt>
      <trkpt lat="54.548479020595551" lon="-1.269870987161994">
        <ele>18.399999999999999</ele>
        <time>2023-08-16T12:10:18Z</time>
      </trkpt>
      <trkpt lat="54.548482038080692" lon="-1.269924966618419">
        <ele>18.879999999999999</ele>
        <time>2023-08-16T12:10:19Z</time>
      </trkpt>
      <trkpt lat="54.548422023653984" lon="-1.270091012120247">
        <ele>18.879999999999999</ele>
        <time>2023-08-16T12:10:20Z</time>
      </trkpt>
      <trkpt lat="54.548382963985205" lon="-1.270096963271499">
        <ele>18.879999999999999</ele>
        <time>2023-08-16T12:10:21Z</time>
      </trkpt>
      <trkpt lat="54.548337031155825" lon="-1.270105009898543">
        <ele>18.879999999999999</ele>
        <time>2023-08-16T12:10:22Z</time>
      </trkpt>
      <trkpt lat="54.548284979537129" lon="-1.270112972706556">
        <ele>19.359999999999999</ele>
        <time>2023-08-16T12:10:23Z</time>
      </trkpt>
      <trkpt lat="54.548232005909085" lon="-1.270122025161982">
        <ele>19.359999999999999</ele>
        <time>2023-08-16T12:10:24Z</time>
      </trkpt>
      <trkpt lat="54.54813402146101" lon="-1.270138034597039">
        <ele>18.879999999999999</ele>
        <time>2023-08-16T12:10:31Z</time>
      </trkpt>
      <trkpt lat="54.54813402146101" lon="-1.270138034597039">
        <ele>19.359999999999999</ele>
        <time>2023-08-16T12:11:11Z</time>
      </trkpt>
      <trkpt lat="54.54813402146101" lon="-1.270138034597039">
        <ele>19.359999999999999</ele>
        <time>2023-08-16T12:12:01Z</time>
      </trkpt>
      <trkpt lat="54.54813402146101" lon="-1.270138034597039">
        <ele>19.359999999999999</ele>
        <time>2023-08-16T12:12:39Z</time>
      </trkpt>
      <trkpt lat="54.54813402146101" lon="-1.270138034597039">
        <ele>19.359999999999999</ele>
        <time>2023-08-16T12:13:20Z</time>
      </trkpt>
      <trkpt lat="54.54813402146101" lon="-1.270138034597039">
        <ele>20.32</ele>
        <time>2023-08-16T12:13:33Z</time>
      </trkpt>
      <trkpt lat="54.54813402146101" lon="-1.270138034597039">
        <ele>20.32</ele>
        <time>2023-08-16T12:13:54Z</time>
      </trkpt>
      <trkpt lat="54.548395033925772" lon="-1.27009604126215">
        <ele>18.879999999999999</ele>
        <time>2023-08-16T12:14:01Z</time>
      </trkpt>
      <trkpt lat="54.548497041687369" lon="-1.270111966878176">
        <ele>18.879999999999999</ele>
        <time>2023-08-16T12:14:02Z</time>
      </trkpt>
      <trkpt lat="54.548503998667002" lon="-1.270181033760309">
        <ele>18.399999999999999</ele>
        <time>2023-08-16T12:14:03Z</time>
      </trkpt>
      <trkpt lat="54.548575999215245" lon="-1.270620999857783">
        <ele>15.52</ele>
        <time>2023-08-16T12:14:09Z</time>
      </trkpt>
      <trkpt lat="54.548596031963825" lon="-1.270697023719549">
        <ele>15.52</ele>
        <time>2023-08-16T12:14:10Z</time>
      </trkpt>
      <trkpt lat="54.548641964793205" lon="-1.270872037857771">
        <ele>14.56</ele>
        <time>2023-08-16T12:14:12Z</time>
      </trkpt>
      <trkpt lat="54.548599971458316" lon="-1.271067000925541">
        <ele>14.08</ele>
        <time>2023-08-16T12:14:13Z</time>
      </trkpt>
      <trkpt lat="54.548579016700387" lon="-1.271303035318852">
        <ele>13.119999999999999</ele>
        <time>2023-08-16T12:14:15Z</time>
      </trkpt>
      <trkpt lat="54.548581028357148" lon="-1.271347040310502">
        <ele>13.119999999999999</ele>
        <time>2023-08-16T12:14:16Z</time>
      </trkpt>
      <trkpt lat="54.548640036955476" lon="-1.271424992009997">
        <ele>12.630000000000001</ele>
        <time>2023-08-16T12:14:17Z</time>
      </trkpt>
      <trkpt lat="54.548698039725423" lon="-1.271470002830029">
        <ele>12.15</ele>
        <time>2023-08-16T12:14:18Z</time>
      </trkpt>
      <trkpt lat="54.548764005303383" lon="-1.271460028365254">
        <ele>11.67</ele>
        <time>2023-08-16T12:14:19Z</time>
      </trkpt>
      <trkpt lat="54.548835000023246" lon="-1.271396996453404">
        <ele>11.67</ele>
        <time>2023-08-16T12:14:20Z</time>
      </trkpt>
      <trkpt lat="54.548866013064981" lon="-1.271312003955245">
        <ele>11.19</ele>
        <time>2023-08-16T12:14:21Z</time>
      </trkpt>
      <trkpt lat="54.548895014449954" lon="-1.271232962608337">
        <ele>10.710000000000001</ele>
        <time>2023-08-16T12:14:22Z</time>
      </trkpt>
      <trkpt lat="54.548900965601206" lon="-1.271217036992312">
        <ele>10.710000000000001</ele>
        <time>2023-08-16T12:14:23Z</time>
      </trkpt>
      <trkpt lat="54.548879005014896" lon="-1.270981002599001">
        <ele>10.710000000000001</ele>
        <time>2023-08-16T12:14:24Z</time>
      </trkpt>
      <trkpt lat="54.548900965601206" lon="-1.270902967080474">
        <ele>10.710000000000001</ele>
        <time>2023-08-16T12:14:25Z</time>
      </trkpt>
      <trkpt lat="54.548928961157799" lon="-1.270804982632399">
        <ele>10.710000000000001</ele>
        <time>2023-08-16T12:14:26Z</time>
      </trkpt>
      <trkpt lat="54.549325006082654" lon="-1.269201021641493">
        <ele>12.630000000000001</ele>
        <time>2023-08-16T12:14:40Z</time>
      </trkpt>
      <trkpt lat="54.549513012170792" lon="-1.268427036702633">
        <ele>14.56</ele>
        <time>2023-08-16T12:14:48Z</time>
      </trkpt>
      <trkpt lat="54.549480993300676" lon="-1.268353024497628">
        <ele>15.52</ele>
        <time>2023-08-16T12:14:52Z</time>
      </trkpt>
      <trkpt lat="54.549461966380477" lon="-1.268339026719332">
        <ele>15.52</ele>
        <time>2023-08-16T12:14:53Z</time>
      </trkpt>
      <trkpt lat="54.549436988309026" lon="-1.268319999799132">
        <ele>15.52</ele>
        <time>2023-08-16T12:14:54Z</time>
      </trkpt>
      <trkpt lat="54.549411004409194" lon="-1.268345983698964">
        <ele>15.52</ele>
        <time>2023-08-16T12:14:55Z</time>
      </trkpt>
      <trkpt lat="54.549379991367459" lon="-1.268376996740699">
        <ele>15.52</ele>
        <time>2023-08-16T12:14:56Z</time>
      </trkpt>
      <trkpt lat="54.54935903660953" lon="-1.26844204030931">
        <ele>15.52</ele>
        <time>2023-08-16T12:14:57Z</time>
      </trkpt>
      <trkpt lat="54.549332968890667" lon="-1.268546981737018">
        <ele>16</ele>
        <time>2023-08-16T12:14:58Z</time>
      </trkpt>
      <trkpt lat="54.549303967505693" lon="-1.268667010590434">
        <ele>16</ele>
        <time>2023-08-16T12:14:59Z</time>
      </trkpt>
      <trkpt lat="54.549088971689343" lon="-1.269559012725949">
        <ele>16.960000000000001</ele>
        <time>2023-08-16T12:15:06Z</time>
      </trkpt>
      <trkpt lat="54.549068016931415" lon="-1.269645011052489">
        <ele>16.960000000000001</ele>
        <time>2023-08-16T12:15:07Z</time>
      </trkpt>
      <trkpt lat="54.549070028588176" lon="-1.269745007157326">
        <ele>16.48</ele>
        <time>2023-08-16T12:15:08Z</time>
      </trkpt>
      <trkpt lat="54.549152003601193" lon="-1.26990501768887">
        <ele>16</ele>
        <time>2023-08-16T12:15:13Z</time>
      </trkpt>
      <trkpt lat="54.548957962542772" lon="-1.27070096321404">
        <ele>15.52</ele>
        <time>2023-08-16T12:15:21Z</time>
      </trkpt>
      <trkpt lat="54.548927033320069" lon="-1.270810011774302">
        <ele>15.039999999999999</ele>
        <time>2023-08-16T12:15:22Z</time>
      </trkpt>
      <trkpt lat="54.548879005014896" lon="-1.270981002599001">
        <ele>15.039999999999999</ele>
        <time>2023-08-16T12:15:23Z</time>
      </trkpt>
      <trkpt lat="54.548800969496369" lon="-1.271004974842072">
        <ele>15.039999999999999</ele>
        <time>2023-08-16T12:15:24Z</time>
      </trkpt>
      <trkpt lat="54.548737015575171" lon="-1.270984020084143">
        <ele>15.039999999999999</ele>
        <time>2023-08-16T12:15:25Z</time>
      </trkpt>
      <trkpt lat="54.548660991713405" lon="-1.270964993163943">
        <ele>15.52</ele>
        <time>2023-08-16T12:15:26Z</time>
      </trkpt>
      <trkpt lat="54.548614975064993" lon="-1.27104302868247">
        <ele>15.039999999999999</ele>
        <time>2023-08-16T12:15:27Z</time>
      </trkpt>
      <trkpt lat="54.548594020307064" lon="-1.271139001473784">
        <ele>15.039999999999999</ele>
        <time>2023-08-16T12:15:28Z</time>
      </trkpt>
      <trkpt lat="54.548583040013909" lon="-1.27126095816493">
        <ele>15.039999999999999</ele>
        <time>2023-08-16T12:15:29Z</time>
      </trkpt>
      <trkpt lat="54.548583040013909" lon="-1.271381992846727">
        <ele>14.56</ele>
        <time>2023-08-16T12:15:30Z</time>
      </trkpt>
      <trkpt lat="54.548591002821922" lon="-1.271547032520175">
        <ele>14.08</ele>
        <time>2023-08-16T12:15:31Z</time>
      </trkpt>
      <trkpt lat="54.548600977286696" lon="-1.27173101529479">
        <ele>13.6</ele>
        <time>2023-08-16T12:15:32Z</time>
      </trkpt>
      <trkpt lat="54.548665015026927" lon="-1.2729980237782">
        <ele>11.19</ele>
        <time>2023-08-16T12:15:39Z</time>
      </trkpt>
      <trkpt lat="54.548627967014909" lon="-1.273190975189209">
        <ele>11.19</ele>
        <time>2023-08-16T12:15:40Z</time>
      </trkpt>
      <trkpt lat="54.548597959801555" lon="-1.273349979892373">
        <ele>10.710000000000001</ele>
        <time>2023-08-16T12:15:41Z</time>
      </trkpt>
      <trkpt lat="54.548554038628936" lon="-1.273498004302383">
        <ele>10.23</ele>
        <time>2023-08-16T12:15:42Z</time>
      </trkpt>
      <trkpt lat="54.548482038080692" lon="-1.273633036762476">
        <ele>10.23</ele>
        <time>2023-08-16T12:15:43Z</time>
      </trkpt>
      <trkpt lat="54.548391010612249" lon="-1.273734960705042">
        <ele>9.75</ele>
        <time>2023-08-16T12:15:44Z</time>
      </trkpt>
      <trkpt lat="54.548305012285709" lon="-1.273855995386839">
        <ele>9.75</ele>
        <time>2023-08-16T12:15:45Z</time>
      </trkpt>
      <trkpt lat="54.54824298620224" lon="-1.274018017575145">
        <ele>9.27</ele>
        <time>2023-08-16T12:15:46Z</time>
      </trkpt>
      <trkpt lat="54.548206022009254" lon="-1.274194959551096">
        <ele>9.27</ele>
        <time>2023-08-16T12:15:47Z</time>
      </trkpt>
      <trkpt lat="54.548194035887718" lon="-1.274381959810853">
        <ele>9.27</ele>
        <time>2023-08-16T12:15:48Z</time>
      </trkpt>
      <trkpt lat="54.548204010352492" lon="-1.274563008919358">
        <ele>9.75</ele>
        <time>2023-08-16T12:15:49Z</time>
      </trkpt>
      <trkpt lat="54.548217002302408" lon="-1.274747997522354">
        <ele>9.75</ele>
        <time>2023-08-16T12:15:50Z</time>
      </trkpt>
      <trkpt lat="54.548258995637298" lon="-1.274913959205151">
        <ele>9.75</ele>
        <time>2023-08-16T12:15:51Z</time>
      </trkpt>
      <trkpt lat="54.548298977315426" lon="-1.275074975565076">
        <ele>10.23</ele>
        <time>2023-08-16T12:15:52Z</time>
      </trkpt>
      <trkpt lat="54.548353040590882" lon="-1.275225011631846">
        <ele>10.710000000000001</ele>
        <time>2023-08-16T12:15:53Z</time>
      </trkpt>
      <trkpt lat="54.548410037532449" lon="-1.275380998849869">
        <ele>10.710000000000001</ele>
        <time>2023-08-16T12:15:54Z</time>
      </trkpt>
      <trkpt lat="54.548471979796886" lon="-1.275550983846188">
        <ele>10.23</ele>
        <time>2023-08-16T12:15:55Z</time>
      </trkpt>
      <trkpt lat="54.548556972295046" lon="-1.275616027414799">
        <ele>9.75</ele>
        <time>2023-08-16T12:15:56Z</time>
      </trkpt>
      <trkpt lat="54.548663003370166" lon="-1.275637988001108">
        <ele>9.27</ele>
        <time>2023-08-16T12:15:57Z</time>
      </trkpt>
      <trkpt lat="54.548766016960144" lon="-1.275660032406449">
        <ele>8.789999999999999</ele>
        <time>2023-08-16T12:15:58Z</time>
      </trkpt>
      <trkpt lat="54.548872970044613" lon="-1.275666989386082">
        <ele>8.789999999999999</ele>
        <time>2023-08-16T12:15:59Z</time>
      </trkpt>
      <trkpt lat="54.548966009169817" lon="-1.275580991059542">
        <ele>8.789999999999999</ele>
        <time>2023-08-16T12:16:00Z</time>
      </trkpt>
      <trkpt lat="54.549057958647609" lon="-1.275497004389763">
        <ele>8.789999999999999</ele>
        <time>2023-08-16T12:16:01Z</time>
      </trkpt>
      <trkpt lat="54.549141023308039" lon="-1.275360966101289">
        <ele>8.789999999999999</ele>
        <time>2023-08-16T12:16:02Z</time>
      </trkpt>
      <trkpt lat="54.549190979450941" lon="-1.275201961398125">
        <ele>9.27</ele>
        <time>2023-08-16T12:16:03Z</time>
      </trkpt>
      <trkpt lat="54.549281001091003" lon="-1.27506198361516">
        <ele>9.75</ele>
        <time>2023-08-16T12:16:04Z</time>
      </trkpt>
      <trkpt lat="54.549385020509362" lon="-1.274991994723678">
        <ele>9.75</ele>
        <time>2023-08-16T12:16:05Z</time>
      </trkpt>
      <trkpt lat="54.549500020220876" lon="-1.274918988347054">
        <ele>10.23</ele>
        <time>2023-08-16T12:16:06Z</time>
      </trkpt>
      <trkpt lat="54.549620971083641" lon="-1.274841958656907">
        <ele>10.23</ele>
        <time>2023-08-16T12:16:07Z</time>
      </trkpt>
      <trkpt lat="54.549749968573451" lon="-1.274750009179115">
        <ele>10.710000000000001</ele>
        <time>2023-08-16T12:16:08Z</time>
      </trkpt>
      <trkpt lat="54.550994010642171" lon="-1.273803021758795">
        <ele>10.710000000000001</ele>
        <time>2023-08-16T12:16:16Z</time>
      </trkpt>
      <trkpt lat="54.55307599157095" lon="-1.27200803719461">
        <ele>8.310000000000001</ele>
        <time>2023-08-16T12:16:27Z</time>
      </trkpt>
      <trkpt lat="54.555572038516402" lon="-1.270589986816049">
        <ele>5.91</ele>
        <time>2023-08-16T12:16:39Z</time>
      </trkpt>
      <trkpt lat="54.557661982253194" lon="-1.270014988258481">
        <ele>6.39</ele>
        <time>2023-08-16T12:16:48Z</time>
      </trkpt>
      <trkpt lat="54.559975974261761" lon="-1.269083004444838">
        <ele>6.39</ele>
        <time>2023-08-16T12:16:58Z</time>
      </trkpt>
      <trkpt lat="54.56313100643456" lon="-1.267565041780472">
        <ele>9.27</ele>
        <time>2023-08-16T12:17:11Z</time>
      </trkpt>
      <trkpt lat="54.565076027065516" lon="-1.267064977437258">
        <ele>17.920000000000002</ele>
        <time>2023-08-16T12:17:19Z</time>
      </trkpt>
      <trkpt lat="54.566878974437714" lon="-1.267565041780472">
        <ele>24.170000000000002</ele>
        <time>2023-08-16T12:17:27Z</time>
      </trkpt>
      <trkpt lat="54.569807024672627" lon="-1.268832972273231">
        <ele>25.129999999999999</ele>
        <time>2023-08-16T12:17:40Z</time>
      </trkpt>
      <trkpt lat="54.572988962754607" lon="-1.269951034337282">
        <ele>18.399999999999999</ele>
        <time>2023-08-16T12:17:54Z</time>
      </trkpt>
      <trkpt lat="54.575089970603585" lon="-1.27104202285409">
        <ele>13.119999999999999</ele>
        <time>2023-08-16T12:18:03Z</time>
      </trkpt>
      <trkpt lat="54.576471978798509" lon="-1.272898027673364">
        <ele>12.630000000000001</ele>
        <time>2023-08-16T12:18:10Z</time>
      </trkpt>
      <trkpt lat="54.577452996745706" lon="-1.275347974151373">
        <ele>14.08</ele>
        <time>2023-08-16T12:18:17Z</time>
      </trkpt>
      <trkpt lat="54.577965969219804" lon="-1.277999002486467">
        <ele>13.119999999999999</ele>
        <time>2023-08-16T12:18:24Z</time>
      </trkpt>
      <trkpt lat="54.578568963333964" lon="-1.282053999602795">
        <ele>8.789999999999999</ele>
        <time>2023-08-16T12:18:35Z</time>
      </trkpt>
      <trkpt lat="54.579599015414715" lon="-1.286231959238648">
        <ele>10.23</ele>
        <time>2023-08-16T12:18:46Z</time>
      </trkpt>
      <trkpt lat="54.581410009413958" lon="-1.292601032182574">
        <ele>11.19</ele>
        <time>2023-08-16T12:19:02Z</time>
      </trkpt>
      <trkpt lat="54.582730997353792" lon="-1.295757992193103">
        <ele>14.56</ele>
        <time>2023-08-16T12:19:11Z</time>
      </trkpt>
      <trkpt lat="54.584275027737021" lon="-1.298248004168272">
        <ele>13.6</ele>
        <time>2023-08-16T12:19:19Z</time>
      </trkpt>
      <trkpt lat="54.585748985409737" lon="-1.299781976267695">
        <ele>9.27</ele>
        <time>2023-08-16T12:19:26Z</time>
      </trkpt>
      <trkpt lat="54.587884023785591" lon="-1.301115034148097">
        <ele>6.39</ele>
        <time>2023-08-16T12:19:35Z</time>
      </trkpt>
      <trkpt lat="54.59041896276176" lon="-1.301804026588798">
        <ele>5.91</ele>
        <time>2023-08-16T12:19:45Z</time>
      </trkpt>
      <trkpt lat="54.592833034694195" lon="-1.302221026271582">
        <ele>8.310000000000001</ele>
        <time>2023-08-16T12:19:54Z</time>
      </trkpt>
      <trkpt lat="54.595529995858669" lon="-1.303264992311597">
        <ele>8.789999999999999</ele>
        <time>2023-08-16T12:20:04Z</time>
      </trkpt>
      <trkpt lat="54.597741980105639" lon="-1.304827965795994">
        <ele>9.27</ele>
        <time>2023-08-16T12:20:13Z</time>
      </trkpt>
      <trkpt lat="54.600027976557612" lon="-1.307244971394539">
        <ele>15.039999999999999</ele>
        <time>2023-08-16T12:20:23Z</time>
      </trkpt>
      <trkpt lat="54.602252030745149" lon="-1.310623968020082">
        <ele>16.960000000000001</ele>
        <time>2023-08-16T12:20:34Z</time>
      </trkpt>
      <trkpt lat="54.605311006307602" lon="-1.315811024978757">
        <ele>15.52</ele>
        <time>2023-08-16T12:20:50Z</time>
      </trkpt>
      <trkpt lat="54.606951009482145" lon="-1.317740036174655">
        <ele>18.399999999999999</ele>
        <time>2023-08-16T12:20:58Z</time>
      </trkpt>
      <trkpt lat="54.60889502428472" lon="-1.319223968312144">
        <ele>24.649999999999999</ele>
        <time>2023-08-16T12:21:06Z</time>
      </trkpt>
      <trkpt lat="54.610998965799809" lon="-1.319946991279721">
        <ele>29.940000000000001</ele>
        <time>2023-08-16T12:21:14Z</time>
      </trkpt>
      <trkpt lat="54.613153031095862" lon="-1.319950008764863">
        <ele>34.740000000000002</ele>
        <time>2023-08-16T12:21:22Z</time>
      </trkpt>
      <trkpt lat="54.615073995664716" lon="-1.319323964416981">
        <ele>36.670000000000002</ele>
        <time>2023-08-16T12:21:30Z</time>
      </trkpt>
      <trkpt lat="54.617603989318013" lon="-1.317835003137589">
        <ele>38.109999999999999</ele>
        <time>2023-08-16T12:21:41Z</time>
      </trkpt>
      <trkpt lat="54.620534973219037" lon="-1.315855029970408">
        <ele>43.880000000000003</ele>
        <time>2023-08-16T12:21:54Z</time>
      </trkpt>
      <trkpt lat="54.622787022963166" lon="-1.314170015975833">
        <ele>44.359999999999999</ele>
        <time>2023-08-16T12:22:04Z</time>
      </trkpt>
      <trkpt lat="54.624896999448538" lon="-1.312433034181595">
        <ele>42.439999999999998</ele>
        <time>2023-08-16T12:22:14Z</time>
      </trkpt>
      <trkpt lat="54.627122981473804" lon="-1.31044602021575">
        <ele>40.990000000000002</ele>
        <time>2023-08-16T12:22:24Z</time>
      </trkpt>
      <trkpt lat="54.628753010183573" lon="-1.308884974569082">
        <ele>37.630000000000003</ele>
        <time>2023-08-16T12:22:31Z</time>
      </trkpt>
      <trkpt lat="54.6319480240345" lon="-1.305561969056726">
        <ele>35.710000000000001</ele>
        <time>2023-08-16T12:22:45Z</time>
      </trkpt>
      <trkpt lat="54.634898034855723" lon="-1.302329991012812">
        <ele>34.259999999999998</ele>
        <time>2023-08-16T12:22:58Z</time>
      </trkpt>
      <trkpt lat="54.637070959433913" lon="-1.30058697424829">
        <ele>34.259999999999998</ele>
        <time>2023-08-16T12:23:07Z</time>
      </trkpt>
      <trkpt lat="54.639431973919272" lon="-1.299715004861355">
        <ele>36.670000000000002</ele>
        <time>2023-08-16T12:23:16Z</time>
      </trkpt>
      <trkpt lat="54.642103035002947" lon="-1.29976999014616">
        <ele>40.990000000000002</ele>
        <time>2023-08-16T12:23:26Z</time>
      </trkpt>
      <trkpt lat="54.645257983356714" lon="-1.300613963976502">
        <ele>46.280000000000001</ele>
        <time>2023-08-16T12:23:38Z</time>
      </trkpt>
      <trkpt lat="54.647642970085144" lon="-1.301303962245584">
        <ele>50.130000000000003</ele>
        <time>2023-08-16T12:23:47Z</time>
      </trkpt>
      <trkpt lat="54.651626972481608" lon="-1.302465023472905">
        <ele>49.159999999999997</ele>
        <time>2023-08-16T12:24:02Z</time>
      </trkpt>
      <trkpt lat="54.654073985293508" lon="-1.303177988156676">
        <ele>47.719999999999999</ele>
        <time>2023-08-16T12:24:12Z</time>
      </trkpt>
      <trkpt lat="54.657126003876328" lon="-1.304060015827417">
        <ele>52.530000000000001</ele>
        <time>2023-08-16T12:24:25Z</time>
      </trkpt>
      <trkpt lat="54.659320972859859" lon="-1.304267970845103">
        <ele>53.969999999999999</ele>
        <time>2023-08-16T12:24:33Z</time>
      </trkpt>
      <trkpt lat="54.66142700985074" lon="-1.303638992831111">
        <ele>48.200000000000003</ele>
        <time>2023-08-16T12:24:41Z</time>
      </trkpt>
      <trkpt lat="54.663947029039264" lon="-1.30224097520113">
        <ele>49.649999999999999</ele>
        <time>2023-08-16T12:24:51Z</time>
      </trkpt>
      <trkpt lat="54.66671003960073" lon="-1.300497958436608">
        <ele>59.740000000000002</ele>
        <time>2023-08-16T12:25:02Z</time>
      </trkpt>
      <trkpt lat="54.668803000822663" lon="-1.299970988184214">
        <ele>65.030000000000001</ele>
        <time>2023-08-16T12:25:10Z</time>
      </trkpt>
      <trkpt lat="54.671743959188461" lon="-1.299431025981903">
        <ele>73.200000000000003</ele>
        <time>2023-08-16T12:25:22Z</time>
      </trkpt>
      <trkpt lat="54.674108996987343" lon="-1.299327006563544">
        <ele>81.849999999999994</ele>
        <time>2023-08-16T12:25:32Z</time>
      </trkpt>
      <trkpt lat="54.675947986543179" lon="-1.300002001225948">
        <ele>84.730000000000004</ele>
        <time>2023-08-16T12:25:40Z</time>
      </trkpt>
      <trkpt lat="54.678096016868949" lon="-1.301060970872641">
        <ele>90.019999999999996</ele>
        <time>2023-08-16T12:25:50Z</time>
      </trkpt>
      <trkpt lat="54.680890962481499" lon="-1.302161011844873">
        <ele>95.310000000000002</ele>
        <time>2023-08-16T12:26:03Z</time>
      </trkpt>
      <trkpt lat="54.683308973908424" lon="-1.302827037870884">
        <ele>97.709999999999994</ele>
        <time>2023-08-16T12:26:13Z</time>
      </trkpt>
      <trkpt lat="54.686123030260205" lon="-1.304189013317227">
        <ele>99.150000000000006</ele>
        <time>2023-08-16T12:26:24Z</time>
      </trkpt>
      <trkpt lat="54.689223999157548" lon="-1.305493991822004">
        <ele>105.88</ele>
        <time>2023-08-16T12:26:36Z</time>
      </trkpt>
      <trkpt lat="54.692340977489948" lon="-1.306814979761839">
        <ele>115.01000000000001</ele>
        <time>2023-08-16T12:26:48Z</time>
      </trkpt>
      <trkpt lat="54.693962959572673" lon="-1.308002024888992">
        <ele>117.90000000000001</ele>
        <time>2023-08-16T12:26:55Z</time>
      </trkpt>
      <trkpt lat="54.695998001843691" lon="-1.310248039662838">
        <ele>124.15000000000001</ele>
        <time>2023-08-16T12:27:04Z</time>
      </trkpt>
      <trkpt lat="54.698741985484958" lon="-1.313125966116786">
        <ele>129.43000000000001</ele>
        <time>2023-08-16T12:27:16Z</time>
      </trkpt>
      <trkpt lat="54.7022919729352" lon="-1.316384011879563">
        <ele>127.03</ele>
        <time>2023-08-16T12:27:31Z</time>
      </trkpt>
      <trkpt lat="54.704349981620908" lon="-1.317465025931597">
        <ele>124.63</ele>
        <time>2023-08-16T12:27:39Z</time>
      </trkpt>
      <trkpt lat="54.706987012177706" lon="-1.318162987008691">
        <ele>123.19</ele>
        <time>2023-08-16T12:27:49Z</time>
      </trkpt>
      <trkpt lat="54.709613984450698" lon="-1.319116009399295">
        <ele>129.43000000000001</ele>
        <time>2023-08-16T12:27:59Z</time>
      </trkpt>
      <trkpt lat="54.710837993770838" lon="-1.320110019296408">
        <ele>131.36000000000001</ele>
        <time>2023-08-16T12:28:04Z</time>
      </trkpt>
      <trkpt lat="54.713336974382401" lon="-1.322859032079577">
        <ele>129.91999999999999</ele>
        <time>2023-08-16T12:28:15Z</time>
      </trkpt>
      <trkpt lat="54.716742960736156" lon="-1.326525025069714">
        <ele>117.42</ele>
        <time>2023-08-16T12:28:30Z</time>
      </trkpt>
      <trkpt lat="54.719206988811493" lon="-1.328282039612532">
        <ele>111.17</ele>
        <time>2023-08-16T12:28:40Z</time>
      </trkpt>
      <trkpt lat="54.721838990226388" lon="-1.330456975847483">
        <ele>103.95999999999999</ele>
        <time>2023-08-16T12:28:51Z</time>
      </trkpt>
      <trkpt lat="54.723581001162529" lon="-1.332667032256723">
        <ele>103.48</ele>
        <time>2023-08-16T12:28:59Z</time>
      </trkpt>
      <trkpt lat="54.724952029064298" lon="-1.335529033094645">
        <ele>102.52</ele>
        <time>2023-08-16T12:29:07Z</time>
      </trkpt>
      <trkpt lat="54.726520031690598" lon="-1.339239031076431">
        <ele>102.04000000000001</ele>
        <time>2023-08-16T12:29:17Z</time>
      </trkpt>
      <trkpt lat="54.729110961779952" lon="-1.345694018527865">
        <ele>112.61</ele>
        <time>2023-08-16T12:29:34Z</time>
      </trkpt>
      <trkpt lat="54.731551017612219" lon="-1.351798977702856">
        <ele>124.63</ele>
        <time>2023-08-16T12:29:50Z</time>
      </trkpt>
      <trkpt lat="54.733994007110596" lon="-1.357922963798046">
        <ele>131.36000000000001</ele>
        <time>2023-08-16T12:30:06Z</time>
      </trkpt>
      <trkpt lat="54.735670974478126" lon="-1.361580993980169">
        <ele>128.94999999999999</ele>
        <time>2023-08-16T12:30:16Z</time>
      </trkpt>
      <trkpt lat="54.737408962100744" lon="-1.363783003762364">
        <ele>125.59</ele>
        <time>2023-08-16T12:30:24Z</time>
      </trkpt>
      <trkpt lat="54.739383989945054" lon="-1.365123018622398">
        <ele>121.26000000000001</ele>
        <time>2023-08-16T12:30:32Z</time>
      </trkpt>
      <trkpt lat="54.741504024714231" lon="-1.365609001368284">
        <ele>115.98</ele>
        <time>2023-08-16T12:30:40Z</time>
      </trkpt>
      <trkpt lat="54.74337000399828" lon="-1.365242963656783">
        <ele>113.09</ele>
        <time>2023-08-16T12:30:47Z</time>
      </trkpt>
      <trkpt lat="54.746195040643215" lon="-1.364104030653834">
        <ele>113.09</ele>
        <time>2023-08-16T12:30:58Z</time>
      </trkpt>
      <trkpt lat="54.750080974772573" lon="-1.362492023035884">
        <ele>122.22</ele>
        <time>2023-08-16T12:31:13Z</time>
      </trkpt>
      <trkpt lat="54.753178004175425" lon="-1.360985040664673">
        <ele>129.91999999999999</ele>
        <time>2023-08-16T12:31:25Z</time>
      </trkpt>
      <trkpt lat="54.755987031385303" lon="-1.359322993084788">
        <ele>132.31999999999999</ele>
        <time>2023-08-16T12:31:36Z</time>
      </trkpt>
      <trkpt lat="54.759142985567451" lon="-1.35807802900672">
        <ele>129.43000000000001</ele>
        <time>2023-08-16T12:31:48Z</time>
      </trkpt>
      <trkpt lat="54.762258036062121" lon="-1.35735098272562">
        <ele>131.84</ele>
        <time>2023-08-16T12:32:00Z</time>
      </trkpt>
      <trkpt lat="54.764860030263662" lon="-1.357089970260859">
        <ele>141.44999999999999</ele>
        <time>2023-08-16T12:32:10Z</time>
      </trkpt>
      <trkpt lat="54.766895994544029" lon="-1.357185021042824">
        <ele>146.25999999999999</ele>
        <time>2023-08-16T12:32:19Z</time>
      </trkpt>
      <trkpt lat="54.76969001814723" lon="-1.357532031834126">
        <ele>149.62</ele>
        <time>2023-08-16T12:32:30Z</time>
      </trkpt>
      <trkpt lat="54.771418031305075" lon="-1.357792038470507">
        <ele>150.58000000000001</ele>
        <time>2023-08-16T12:32:38Z</time>
      </trkpt>
      <trkpt lat="54.774406012147665" lon="-1.358299981802702">
        <ele>152.50999999999999</ele>
        <time>2023-08-16T12:32:51Z</time>
      </trkpt>
      <trkpt lat="54.777174973860383" lon="-1.359135992825031">
        <ele>153.94999999999999</ele>
        <time>2023-08-16T12:33:02Z</time>
      </trkpt>
      <trkpt lat="54.779428029432893" lon="-1.360779013484716">
        <ele>150.58000000000001</ele>
        <time>2023-08-16T12:33:11Z</time>
      </trkpt>
      <trkpt lat="54.781569018959999" lon="-1.362408036366105">
        <ele>146.25999999999999</ele>
        <time>2023-08-16T12:33:20Z</time>
      </trkpt>
      <trkpt lat="54.783772034570575" lon="-1.364079974591732">
        <ele>140.49000000000001</ele>
        <time>2023-08-16T12:33:29Z</time>
      </trkpt>
      <trkpt lat="54.786270009353757" lon="-1.365588968619704">
        <ele>129.91999999999999</ele>
        <time>2023-08-16T12:33:39Z</time>
      </trkpt>
      <trkpt lat="54.788920031860471" lon="-1.366281984373927">
        <ele>119.34</ele>
        <time>2023-08-16T12:33:49Z</time>
      </trkpt>
      <trkpt lat="54.79158204048872" lon="-1.366086015477777">
        <ele>109.73</ele>
        <time>2023-08-16T12:33:59Z</time>
      </trkpt>
      <trkpt lat="54.793931990861893" lon="-1.365170041099191">
        <ele>104.44</ele>
        <time>2023-08-16T12:34:08Z</time>
      </trkpt>
      <trkpt lat="54.79671997949481" lon="-1.363535989075899">
        <ele>101.56</ele>
        <time>2023-08-16T12:34:19Z</time>
      </trkpt>
      <trkpt lat="54.800250018015504" lon="-1.361416038125753">
        <ele>103</ele>
        <time>2023-08-16T12:34:33Z</time>
      </trkpt>
      <trkpt lat="54.802570967003703" lon="-1.360211977735162">
        <ele>107.31999999999999</ele>
        <time>2023-08-16T12:34:42Z</time>
      </trkpt>
      <trkpt lat="54.805232975631952" lon="-1.359579982236028">
        <ele>112.61</ele>
        <time>2023-08-16T12:34:52Z</time>
      </trkpt>
      <trkpt lat="54.807635983452201" lon="-1.359792966395617">
        <ele>115.5</ele>
        <time>2023-08-16T12:35:01Z</time>
      </trkpt>
      <trkpt lat="54.809727016836405" lon="-1.360603999346495">
        <ele>118.86</ele>
        <time>2023-08-16T12:35:09Z</time>
      </trkpt>
      <trkpt lat="54.812222979962826" lon="-1.362408958375454">
        <ele>115.01000000000001</ele>
        <time>2023-08-16T12:35:19Z</time>
      </trkpt>
      <trkpt lat="54.814262967556715" lon="-1.364631000906229">
        <ele>106.84</ele>
        <time>2023-08-16T12:35:28Z</time>
      </trkpt>
      <trkpt lat="54.81712999753654" lon="-1.368100019171834">
        <ele>89.060000000000002</ele>
        <time>2023-08-16T12:35:41Z</time>
      </trkpt>
      <trkpt lat="54.819113994017243" lon="-1.369266025722027">
        <ele>81.849999999999994</ele>
        <time>2023-08-16T12:35:49Z</time>
      </trkpt>
      <trkpt lat="54.821210978552699" lon="-1.369609013199806">
        <ele>79.450000000000003</ele>
        <time>2023-08-16T12:35:57Z</time>
      </trkpt>
      <trkpt lat="54.824089994654059" lon="-1.369978990405798">
        <ele>80.890000000000001</ele>
        <time>2023-08-16T12:36:08Z</time>
      </trkpt>
      <trkpt lat="54.82638998888433" lon="-1.371139967814088">
        <ele>85.689999999999998</ele>
        <time>2023-08-16T12:36:17Z</time>
      </trkpt>
      <trkpt lat="54.829169008880854" lon="-1.372836967930198">
        <ele>93.390000000000001</ele>
        <time>2023-08-16T12:36:28Z</time>
      </trkpt>
      <trkpt lat="54.831801010295749" lon="-1.374055026099086">
        <ele>100.59999999999999</ele>
        <time>2023-08-16T12:36:38Z</time>
      </trkpt>
      <trkpt lat="54.835298024117947" lon="-1.375107960775495">
        <ele>101.56</ele>
        <time>2023-08-16T12:36:51Z</time>
      </trkpt>
      <trkpt lat="54.83872203156352" lon="-1.376042040064931">
        <ele>93.390000000000001</ele>
        <time>2023-08-16T12:37:04Z</time>
      </trkpt>
      <trkpt lat="54.84216095879674" lon="-1.377063039690256">
        <ele>87.140000000000001</ele>
        <time>2023-08-16T12:37:17Z</time>
      </trkpt>
      <trkpt lat="54.844227014109492" lon="-1.378164002671838">
        <ele>85.689999999999998</ele>
        <time>2023-08-16T12:37:25Z</time>
      </trkpt>
      <trkpt lat="54.846101962029934" lon="-1.379949012771249">
        <ele>86.180000000000007</ele>
        <time>2023-08-16T12:37:33Z</time>
      </trkpt>
      <trkpt lat="54.847674993798137" lon="-1.382365012541413">
        <ele>89.060000000000002</ele>
        <time>2023-08-16T12:37:41Z</time>
      </trkpt>
      <trkpt lat="54.848830020055175" lon="-1.385019980370998">
        <ele>93.390000000000001</ele>
        <time>2023-08-16T12:37:48Z</time>
      </trkpt>
      <trkpt lat="54.849809026345611" lon="-1.388428984209895">
        <ele>98.670000000000002</ele>
        <time>2023-08-16T12:37:56Z</time>
      </trkpt>
      <trkpt lat="54.850374972447753" lon="-1.392066981643438">
        <ele>102.52</ele>
        <time>2023-08-16T12:38:04Z</time>
      </trkpt>
      <trkpt lat="54.851087015122175" lon="-1.397969014942646">
        <ele>111.17</ele>
        <time>2023-08-16T12:38:17Z</time>
      </trkpt>
      <trkpt lat="54.851989997550845" lon="-1.403795024380088">
        <ele>120.3</ele>
        <time>2023-08-16T12:38:30Z</time>
      </trkpt>
      <trkpt lat="54.853392038494349" lon="-1.410339027643204">
        <ele>130.40000000000001</ele>
        <time>2023-08-16T12:38:45Z</time>
      </trkpt>
      <trkpt lat="54.855004968121648" lon="-1.416718997061253">
        <ele>139.05000000000001</ele>
        <time>2023-08-16T12:39:00Z</time>
      </trkpt>
      <trkpt lat="54.855762021616101" lon="-1.419666996225715">
        <ele>141.93000000000001</ele>
        <time>2023-08-16T12:39:07Z</time>
      </trkpt>
      <trkpt lat="54.857612997293472" lon="-1.426928993314505">
        <ele>139.53</ele>
        <time>2023-08-16T12:39:24Z</time>
      </trkpt>
      <trkpt lat="54.85902601853013" lon="-1.432474963366985">
        <ele>129.43000000000001</ele>
        <time>2023-08-16T12:39:37Z</time>
      </trkpt>
      <trkpt lat="54.860570970922709" lon="-1.437901994213462">
        <ele>112.13</ele>
        <time>2023-08-16T12:39:50Z</time>
      </trkpt>
      <trkpt lat="54.862285992130637" lon="-1.4420669618994">
        <ele>98.670000000000002</ele>
        <time>2023-08-16T12:40:01Z</time>
      </trkpt>
      <trkpt lat="54.864146020263433" lon="-1.445369012653828">
        <ele>86.659999999999997</ele>
        <time>2023-08-16T12:40:11Z</time>
      </trkpt>
      <trkpt lat="54.865589970722795" lon="-1.447385028004646">
        <ele>80.409999999999997</ele>
        <time>2023-08-16T12:40:18Z</time>
      </trkpt>
      <trkpt lat="54.86766398884356" lon="-1.449463991448283">
        <ele>76.560000000000002</ele>
        <time>2023-08-16T12:40:27Z</time>
      </trkpt>
      <trkpt lat="54.869936993345618" lon="-1.450828984379768">
        <ele>75.599999999999994</ele>
        <time>2023-08-16T12:40:36Z</time>
      </trkpt>
      <trkpt lat="54.872531024739146" lon="-1.451517976820469">
        <ele>76.079999999999998</ele>
        <time>2023-08-16T12:40:46Z</time>
      </trkpt>
      <trkpt lat="54.875372992828488" lon="-1.4519929792732">
        <ele>78.480000000000004</ele>
        <time>2023-08-16T12:40:57Z</time>
      </trkpt>
      <trkpt lat="54.878301965072751" lon="-1.452748021110892">
        <ele>84.25</ele>
        <time>2023-08-16T12:41:08Z</time>
      </trkpt>
      <trkpt lat="54.881684985011816" lon="-1.454387018457055">
        <ele>88.579999999999998</ele>
        <time>2023-08-16T12:41:21Z</time>
      </trkpt>
      <trkpt lat="54.883919013664126" lon="-1.455925013870001">
        <ele>92.420000000000002</ele>
        <time>2023-08-16T12:41:30Z</time>
      </trkpt>
      <trkpt lat="54.886199980974197" lon="-1.45742797292769">
        <ele>97.230000000000004</ele>
        <time>2023-08-16T12:41:39Z</time>
      </trkpt>
      <trkpt lat="54.888608017936349" lon="-1.458356017246842">
        <ele>97.709999999999994</ele>
        <time>2023-08-16T12:41:48Z</time>
      </trkpt>
      <trkpt lat="54.889691965654492" lon="-1.45848099142313">
        <ele>95.790000000000006</ele>
        <time>2023-08-16T12:41:52Z</time>
      </trkpt>
      <trkpt lat="54.891557022929192" lon="-1.45833196118474">
        <ele>94.349999999999994</ele>
        <time>2023-08-16T12:41:59Z</time>
      </trkpt>
      <trkpt lat="54.893944021314383" lon="-1.457441970705986">
        <ele>89.060000000000002</ele>
        <time>2023-08-16T12:42:08Z</time>
      </trkpt>
      <trkpt lat="54.896636959165335" lon="-1.456047976389527">
        <ele>76.079999999999998</ele>
        <time>2023-08-16T12:42:19Z</time>
      </trkpt>
      <trkpt lat="54.898735033348203" lon="-1.455502985045314">
        <ele>65.989999999999995</ele>
        <time>2023-08-16T12:42:28Z</time>
      </trkpt>
      <trkpt lat="54.900505961850286" lon="-1.45581697113812">
        <ele>56.859999999999999</ele>
        <time>2023-08-16T12:42:36Z</time>
      </trkpt>
      <trkpt lat="54.902791958302259" lon="-1.457223035395145">
        <ele>44.840000000000003</ele>
        <time>2023-08-16T12:42:47Z</time>
      </trkpt>
      <trkpt lat="54.904987011104822" lon="-1.458811992779374">
        <ele>37.149999999999999</ele>
        <time>2023-08-16T12:42:59Z</time>
      </trkpt>
      <trkpt lat="54.907125988975167" lon="-1.460556015372276">
        <ele>34.259999999999998</ele>
        <time>2023-08-16T12:43:12Z</time>
      </trkpt>
      <trkpt lat="54.908229969441891" lon="-1.461368976160884">
        <ele>37.630000000000003</ele>
        <time>2023-08-16T12:43:20Z</time>
      </trkpt>
      <trkpt lat="54.908455023542047" lon="-1.461566034704447">
        <ele>39.07</ele>
        <time>2023-08-16T12:43:22Z</time>
      </trkpt>
      <trkpt lat="54.908545967191458" lon="-1.461685979738832">
        <ele>39.549999999999997</ele>
        <time>2023-08-16T12:43:23Z</time>
      </trkpt>
      <trkpt lat="54.908591983839869" lon="-1.461849007755518">
        <ele>40.030000000000001</ele>
        <time>2023-08-16T12:43:24Z</time>
      </trkpt>
      <trkpt lat="54.908639006316662" lon="-1.462014969438314">
        <ele>40.509999999999998</ele>
        <time>2023-08-16T12:43:25Z</time>
      </trkpt>
      <trkpt lat="54.908685022965074" lon="-1.462191995233297">
        <ele>40.990000000000002</ele>
        <time>2023-08-16T12:43:26Z</time>
      </trkpt>
      <trkpt lat="54.908713018521667" lon="-1.462399028241634">
        <ele>40.990000000000002</ele>
        <time>2023-08-16T12:43:27Z</time>
      </trkpt>
      <trkpt lat="54.908745959401131" lon="-1.462641013786197">
        <ele>41.469999999999999</ele>
        <time>2023-08-16T12:43:28Z</time>
      </trkpt>
      <trkpt lat="54.908745959401131" lon="-1.462869001552463">
        <ele>40.990000000000002</ele>
        <time>2023-08-16T12:43:29Z</time>
      </trkpt>
      <trkpt lat="54.908718969672918" lon="-1.46311903372407">
        <ele>40.990000000000002</ele>
        <time>2023-08-16T12:43:30Z</time>
      </trkpt>
      <trkpt lat="54.908680999651551" lon="-1.46337702870369">
        <ele>40.990000000000002</ele>
        <time>2023-08-16T12:43:31Z</time>
      </trkpt>
      <trkpt lat="54.908117987215519" lon="-1.466381018981338">
        <ele>38.109999999999999</ele>
        <time>2023-08-16T12:43:41Z</time>
      </trkpt>
      <trkpt lat="54.907693024724722" lon="-1.468949988484383">
        <ele>37.149999999999999</ele>
        <time>2023-08-16T12:43:49Z</time>
      </trkpt>
      <trkpt lat="54.907241994515061" lon="-1.472289003431797">
        <ele>35.229999999999997</ele>
        <time>2023-08-16T12:43:58Z</time>
      </trkpt>
      <trkpt lat="54.906683005392551" lon="-1.476880023255944">
        <ele>33.299999999999997</ele>
        <time>2023-08-16T12:44:09Z</time>
      </trkpt>
      <trkpt lat="54.90624999627471" lon="-1.480676019564271">
        <ele>31.379999999999999</ele>
        <time>2023-08-16T12:44:18Z</time>
      </trkpt>
      <trkpt lat="54.905835008248687" lon="-1.486100032925606">
        <ele>34.740000000000002</ele>
        <time>2023-08-16T12:44:30Z</time>
      </trkpt>
      <trkpt lat="54.905712967738509" lon="-1.488439003005624">
        <ele>35.710000000000001</ele>
        <time>2023-08-16T12:44:35Z</time>
      </trkpt>
      <trkpt lat="54.905696036294103" lon="-1.488928003236651">
        <ele>35.710000000000001</ele>
        <time>2023-08-16T12:44:36Z</time>
      </trkpt>
      <trkpt lat="54.905622024089098" lon="-1.493095988407731">
        <ele>33.780000000000001</ele>
        <time>2023-08-16T12:44:45Z</time>
      </trkpt>
      <trkpt lat="54.905525967478752" lon="-1.500036958605051">
        <ele>42.920000000000002</ele>
        <time>2023-08-16T12:45:00Z</time>
      </trkpt>
      <trkpt lat="54.905449021607637" lon="-1.506072012707591">
        <ele>50.130000000000003</ele>
        <time>2023-08-16T12:45:13Z</time>
      </trkpt>
      <trkpt lat="54.905441980808973" lon="-1.513034021481872">
        <ele>57.340000000000003</ele>
        <time>2023-08-16T12:45:28Z</time>
      </trkpt>
      <trkpt lat="54.905706010758877" lon="-1.516739996150136">
        <ele>56.859999999999999</ele>
        <time>2023-08-16T12:45:36Z</time>
      </trkpt>
      <trkpt lat="54.906047992408276" lon="-1.520892977714539">
        <ele>52.530000000000001</ele>
        <time>2023-08-16T12:45:45Z</time>
      </trkpt>
      <trkpt lat="54.906044974923134" lon="-1.524559976533055">
        <ele>44.840000000000003</ele>
        <time>2023-08-16T12:45:53Z</time>
      </trkpt>
      <trkpt lat="54.905559998005629" lon="-1.527648959308863">
        <ele>40.990000000000002</ele>
        <time>2023-08-16T12:46:00Z</time>
      </trkpt>
      <trkpt lat="54.904679981991649" lon="-1.530502997338772">
        <ele>41.469999999999999</ele>
        <time>2023-08-16T12:46:07Z</time>
      </trkpt>
      <trkpt lat="54.90382301621139" lon="-1.532372999936342">
        <ele>41.950000000000003</ele>
        <time>2023-08-16T12:46:13Z</time>
      </trkpt>
      <trkpt lat="54.903315994888544" lon="-1.533580999821425">
        <ele>42.439999999999998</ele>
        <time>2023-08-16T12:46:19Z</time>
      </trkpt>
      <trkpt lat="54.902798999100924" lon="-1.534985974431038">
        <ele>45.32</ele>
        <time>2023-08-16T12:46:28Z</time>
      </trkpt>
      <trkpt lat="54.902705037966371" lon="-1.535293003544211">
        <ele>44.840000000000003</ele>
        <time>2023-08-16T12:46:31Z</time>
      </trkpt>
      <trkpt lat="54.90268399938941" lon="-1.535362992435694">
        <ele>44.840000000000003</ele>
        <time>2023-08-16T12:46:32Z</time>
      </trkpt>
      <trkpt lat="54.902659021317959" lon="-1.535443961620331">
        <ele>44.359999999999999</ele>
        <time>2023-08-16T12:46:40Z</time>
      </trkpt>
      <trkpt lat="54.902516026049852" lon="-1.535909995436668">
        <ele>45.32</ele>
        <time>2023-08-16T12:46:52Z</time>
      </trkpt>
      <trkpt lat="54.902265993878245" lon="-1.536712981760502">
        <ele>44.359999999999999</ele>
        <time>2023-08-16T12:46:59Z</time>
      </trkpt>
      <trkpt lat="54.902237998321652" lon="-1.536752041429281">
        <ele>45.799999999999997</ele>
        <time>2023-08-16T12:47:12Z</time>
      </trkpt>
      <trkpt lat="54.902037000283599" lon="-1.537040965631604">
        <ele>48.68</ele>
        <time>2023-08-16T12:47:23Z</time>
      </trkpt>
      <trkpt lat="54.901592005044222" lon="-1.537533989176154">
        <ele>48.68</ele>
        <time>2023-08-16T12:47:28Z</time>
      </trkpt>
      <trkpt lat="54.901517992839217" lon="-1.537672039121389">
        <ele>48.68</ele>
        <time>2023-08-16T12:47:29Z</time>
      </trkpt>
      <trkpt lat="54.90148002281785" lon="-1.537815034389496">
        <ele>49.159999999999997</ele>
        <time>2023-08-16T12:47:30Z</time>
      </trkpt>
      <trkpt lat="54.901367034763098" lon="-1.538601005449891">
        <ele>48.200000000000003</ele>
        <time>2023-08-16T12:47:35Z</time>
      </trkpt>
      <trkpt lat="54.901380026713014" lon="-1.538697984069586">
        <ele>48.68</ele>
        <time>2023-08-16T12:47:36Z</time>
      </trkpt>
      <trkpt lat="54.901405004784465" lon="-1.538823964074254">
        <ele>49.159999999999997</ele>
        <time>2023-08-16T12:47:37Z</time>
      </trkpt>
      <trkpt lat="54.901438029482961" lon="-1.538960002362728">
        <ele>49.159999999999997</ele>
        <time>2023-08-16T12:47:38Z</time>
      </trkpt>
      <trkpt lat="54.901475999504328" lon="-1.539112972095609">
        <ele>49.159999999999997</ele>
        <time>2023-08-16T12:47:39Z</time>
      </trkpt>
      <trkpt lat="54.901511035859585" lon="-1.539253033697605">
        <ele>48.200000000000003</ele>
        <time>2023-08-16T12:47:40Z</time>
      </trkpt>
      <trkpt lat="54.901514975354075" lon="-1.539266025647521">
        <ele>47.719999999999999</ele>
        <time>2023-08-16T12:47:41Z</time>
      </trkpt>
      <trkpt lat="54.901603991165757" lon="-1.539538018405438">
        <ele>46.759999999999998</ele>
        <time>2023-08-16T12:47:42Z</time>
      </trkpt>
      <trkpt lat="54.90160801447928" lon="-1.539679002016783">
        <ele>45.799999999999997</ele>
        <time>2023-08-16T12:47:43Z</time>
      </trkpt>
      <trkpt lat="54.901612037792802" lon="-1.539832977578044">
        <ele>44.840000000000003</ele>
        <time>2023-08-16T12:47:44Z</time>
      </trkpt>
      <trkpt lat="54.901615977287292" lon="-1.540006985887885">
        <ele>43.880000000000003</ele>
        <time>2023-08-16T12:47:45Z</time>
      </trkpt>
      <trkpt lat="54.901622012257576" lon="-1.540232039988041">
        <ele>42.439999999999998</ele>
        <time>2023-08-16T12:47:46Z</time>
      </trkpt>
      <trkpt lat="54.901602985337377" lon="-1.540394984185696">
        <ele>41.469999999999999</ele>
        <time>2023-08-16T12:47:47Z</time>
      </trkpt>
      <trkpt lat="54.901354964822531" lon="-1.542491968721151">
        <ele>31.859999999999999</ele>
        <time>2023-08-16T12:47:56Z</time>
      </trkpt>
      <trkpt lat="54.901153966784477" lon="-1.545089017599821">
        <ele>25.609999999999999</ele>
        <time>2023-08-16T12:48:04Z</time>
      </trkpt>
      <trkpt lat="54.901331998407841" lon="-1.54775102622807">
        <ele>29.940000000000001</ele>
        <time>2023-08-16T12:48:11Z</time>
      </trkpt>
      <trkpt lat="54.902054015547037" lon="-1.550716962665319">
        <ele>49.159999999999997</ele>
        <time>2023-08-16T12:48:19Z</time>
      </trkpt>
      <trkpt lat="54.902925984933972" lon="-1.552594006061554">
        <ele>60.700000000000003</ele>
        <time>2023-08-16T12:48:26Z</time>
      </trkpt>
      <trkpt lat="54.904394997283816" lon="-1.555144032463431">
        <ele>78.480000000000004</ele>
        <time>2023-08-16T12:48:38Z</time>
      </trkpt>
      <trkpt lat="54.904527012258768" lon="-1.555372020229697">
        <ele>85.209999999999994</ele>
        <time>2023-08-16T12:48:44Z</time>
      </trkpt>
      <trkpt lat="54.904541010037065" lon="-1.555398004129529">
        <ele>86.659999999999997</ele>
        <time>2023-08-16T12:48:48Z</time>
      </trkpt>
      <trkpt lat="54.904747037217021" lon="-1.555752977728844">
        <ele>93.870000000000005</ele>
        <time>2023-08-16T12:48:56Z</time>
      </trkpt>
      <trkpt lat="54.905334021896124" lon="-1.556771965697408">
        <ele>98.670000000000002</ele>
        <time>2023-08-16T12:49:04Z</time>
      </trkpt>
      <trkpt lat="54.905848000198603" lon="-1.557789025828242">
        <ele>103.95999999999999</ele>
        <time>2023-08-16T12:49:10Z</time>
      </trkpt>
      <trkpt lat="54.905911032110453" lon="-1.558005027472973">
        <ele>104.92</ele>
        <time>2023-08-16T12:49:11Z</time>
      </trkpt>
      <trkpt lat="54.90597297437489" lon="-1.558220023289323">
        <ele>105.40000000000001</ele>
        <time>2023-08-16T12:49:12Z</time>
      </trkpt>
      <trkpt lat="54.906032988801599" lon="-1.558436024934053">
        <ele>105.88</ele>
        <time>2023-08-16T12:49:13Z</time>
      </trkpt>
      <trkpt lat="54.906086968258023" lon="-1.558660995215178">
        <ele>105.88</ele>
        <time>2023-08-16T12:49:14Z</time>
      </trkpt>
      <trkpt lat="54.906130973249674" lon="-1.558900969102979">
        <ele>105.88</ele>
        <time>2023-08-16T12:49:15Z</time>
      </trkpt>
      <trkpt lat="54.90614396519959" lon="-1.559157036244869">
        <ele>105.88</ele>
        <time>2023-08-16T12:49:16Z</time>
      </trkpt>
      <trkpt lat="54.906157040968537" lon="-1.55941997654736">
        <ele>105.88</ele>
        <time>2023-08-16T12:49:17Z</time>
      </trkpt>
      <trkpt lat="54.906171038746834" lon="-1.559715019538999">
        <ele>105.88</ele>
        <time>2023-08-16T12:49:18Z</time>
      </trkpt>
      <trkpt lat="54.906161986291409" lon="-1.559951975941658">
        <ele>105.88</ele>
        <time>2023-08-16T12:49:19Z</time>
      </trkpt>
      <trkpt lat="54.906150000169873" lon="-1.560251964256167">
        <ele>105.88</ele>
        <time>2023-08-16T12:49:20Z</time>
      </trkpt>
      <trkpt lat="54.906113035976887" lon="-1.560493027791381">
        <ele>105.88</ele>
        <time>2023-08-16T12:49:21Z</time>
      </trkpt>
      <trkpt lat="54.906072970479727" lon="-1.560756973922253">
        <ele>105.40000000000001</ele>
        <time>2023-08-16T12:49:22Z</time>
      </trkpt>
      <trkpt lat="54.906032988801599" lon="-1.561017986387014">
        <ele>105.88</ele>
        <time>2023-08-16T12:49:23Z</time>
      </trkpt>
      <trkpt lat="54.90597196854651" lon="-1.561303976923227">
        <ele>105.88</ele>
        <time>2023-08-16T12:49:24Z</time>
      </trkpt>
      <trkpt lat="54.905874989926815" lon="-1.561532970517874">
        <ele>105.88</ele>
        <time>2023-08-16T12:49:25Z</time>
      </trkpt>
      <trkpt lat="54.904936971142888" lon="-1.563301971182227">
        <ele>105.88</ele>
        <time>2023-08-16T12:49:33Z</time>
      </trkpt>
      <trkpt lat="54.904314028099179" lon="-1.563784014433622">
        <ele>106.84</ele>
        <time>2023-08-16T12:49:37Z</time>
      </trkpt>
      <trkpt lat="54.904172960668802" lon="-1.563875041902065">
        <ele>106.84</ele>
        <time>2023-08-16T12:49:38Z</time>
      </trkpt>
      <trkpt lat="54.904025020077825" lon="-1.563950981944799">
        <ele>106.84</ele>
        <time>2023-08-16T12:49:39Z</time>
      </trkpt>
      <trkpt lat="54.902838980779052" lon="-1.563953999429941">
        <ele>105.88</ele>
        <time>2023-08-16T12:49:47Z</time>
      </trkpt>
      <trkpt lat="54.902374036610126" lon="-1.563582010567188">
        <ele>104.44</ele>
        <time>2023-08-16T12:49:52Z</time>
      </trkpt>
      <trkpt lat="54.902303963899612" lon="-1.563460975885391">
        <ele>104.44</ele>
        <time>2023-08-16T12:49:53Z</time>
      </trkpt>
      <trkpt lat="54.902237998321652" lon="-1.56332996673882">
        <ele>103.95999999999999</ele>
        <time>2023-08-16T12:49:54Z</time>
      </trkpt>
      <trkpt lat="54.902179995551705" lon="-1.563175991177559">
        <ele>103.95999999999999</ele>
        <time>2023-08-16T12:49:55Z</time>
      </trkpt>
      <trkpt lat="54.902138002216816" lon="-1.563014974817634">
        <ele>104.44</ele>
        <time>2023-08-16T12:49:56Z</time>
      </trkpt>
      <trkpt lat="54.902097014710307" lon="-1.562858987599611">
        <ele>104.44</ele>
        <time>2023-08-16T12:49:57Z</time>
      </trkpt>
      <trkpt lat="54.902103971689939" lon="-1.562678022310138">
        <ele>104.44</ele>
        <time>2023-08-16T12:49:58Z</time>
      </trkpt>
      <trkpt lat="54.902113024145365" lon="-1.562534021213651">
        <ele>104.44</ele>
        <time>2023-08-16T12:49:59Z</time>
      </trkpt>
      <trkpt lat="54.902121992781758" lon="-1.562391025945544">
        <ele>104.44</ele>
        <time>2023-08-16T12:50:00Z</time>
      </trkpt>
      <trkpt lat="54.902130961418152" lon="-1.562236966565251">
        <ele>104.44</ele>
        <time>2023-08-16T12:50:01Z</time>
      </trkpt>
      <trkpt lat="54.902231963351369" lon="-1.561895990744233">
        <ele>104.92</ele>
        <time>2023-08-16T12:50:03Z</time>
      </trkpt>
      <trkpt lat="54.902299018576741" lon="-1.561735980212688">
        <ele>104.92</ele>
        <time>2023-08-16T12:50:04Z</time>
      </trkpt>
      <trkpt lat="54.902384011074901" lon="-1.561599019914866">
        <ele>104.92</ele>
        <time>2023-08-16T12:50:05Z</time>
      </trkpt>
      <trkpt lat="54.90248903632164" lon="-1.561540011316538">
        <ele>105.40000000000001</ele>
        <time>2023-08-16T12:50:06Z</time>
      </trkpt>
      <trkpt lat="54.902599006891251" lon="-1.561490977182984">
        <ele>105.88</ele>
        <time>2023-08-16T12:50:07Z</time>
      </trkpt>
      <trkpt lat="54.902707971632481" lon="-1.561443032696843">
        <ele>106.36</ele>
        <time>2023-08-16T12:50:08Z</time>
      </trkpt>
      <trkpt lat="54.902780978009105" lon="-1.561410007998347">
        <ele>106.36</ele>
        <time>2023-08-16T12:50:09Z</time>
      </trkpt>
      <trkpt lat="54.902903018519282" lon="-1.561456024646759">
        <ele>107.31999999999999</ele>
        <time>2023-08-16T12:50:10Z</time>
      </trkpt>
      <trkpt lat="54.903020029887557" lon="-1.56150002963841">
        <ele>107.81</ele>
        <time>2023-08-16T12:50:11Z</time>
      </trkpt>
      <trkpt lat="54.903123965486884" lon="-1.561539005488157">
        <ele>108.29000000000001</ele>
        <time>2023-08-16T12:50:12Z</time>
      </trkpt>
      <trkpt lat="54.903248017653823" lon="-1.561648976057768">
        <ele>108.29000000000001</ele>
        <time>2023-08-16T12:50:13Z</time>
      </trkpt>
      <trkpt lat="54.903752021491528" lon="-1.562093971297145">
        <ele>108.29000000000001</ele>
        <time>2023-08-16T12:50:17Z</time>
      </trkpt>
      <trkpt lat="54.903879007324576" lon="-1.562206959351897">
        <ele>108.29000000000001</ele>
        <time>2023-08-16T12:50:18Z</time>
      </trkpt>
      <trkpt lat="54.904758017510176" lon="-1.563549991697073">
        <ele>106.36</ele>
        <time>2023-08-16T12:50:25Z</time>
      </trkpt>
      <trkpt lat="54.905593022704124" lon="-1.565719982609153">
        <ele>102.52</ele>
        <time>2023-08-16T12:50:34Z</time>
      </trkpt>
      <trkpt lat="54.906494999304414" lon="-1.568394983187318">
        <ele>97.709999999999994</ele>
        <time>2023-08-16T12:50:45Z</time>
      </trkpt>
      <trkpt lat="54.90762404166162" lon="-1.571800969541073">
        <ele>89.060000000000002</ele>
        <time>2023-08-16T12:50:58Z</time>
      </trkpt>
      <trkpt lat="54.908770015463233" lon="-1.575229000300169">
        <ele>83.769999999999996</ele>
        <time>2023-08-16T12:51:11Z</time>
      </trkpt>
      <trkpt lat="54.909952031448483" lon="-1.578845959156752">
        <ele>83.290000000000006</ele>
        <time>2023-08-16T12:51:24Z</time>
      </trkpt>
      <trkpt lat="54.910575980320573" lon="-1.581333037465811">
        <ele>84.25</ele>
        <time>2023-08-16T12:51:33Z</time>
      </trkpt>
      <trkpt lat="54.911587005481124" lon="-1.585331037640572">
        <ele>86.659999999999997</ele>
        <time>2023-08-16T12:51:47Z</time>
      </trkpt>
      <trkpt lat="54.912390997633338" lon="-1.588324969634414">
        <ele>83.769999999999996</ele>
        <time>2023-08-16T12:51:58Z</time>
      </trkpt>
      <trkpt lat="54.913460025563836" lon="-1.59140900708735">
        <ele>76.560000000000002</ele>
        <time>2023-08-16T12:52:10Z</time>
      </trkpt>
      <trkpt lat="54.914959967136383" lon="-1.594551969319582">
        <ele>62.619999999999997</ele>
        <time>2023-08-16T12:52:22Z</time>
      </trkpt>
      <trkpt lat="54.91671497002244" lon="-1.597259994596243">
        <ele>49.159999999999997</ele>
        <time>2023-08-16T12:52:34Z</time>
      </trkpt>
      <trkpt lat="54.918832993134856" lon="-1.600271025672555">
        <ele>34.259999999999998</ele>
        <time>2023-08-16T12:52:48Z</time>
      </trkpt>
      <trkpt lat="54.920046022161841" lon="-1.602920964360237">
        <ele>29.460000000000001</ele>
        <time>2023-08-16T12:52:58Z</time>
      </trkpt>
      <trkpt lat="54.920704001560807" lon="-1.605333024635911">
        <ele>27.050000000000001</ele>
        <time>2023-08-16T12:53:06Z</time>
      </trkpt>
      <trkpt lat="54.920912040397525" lon="-1.607363959774375">
        <ele>25.129999999999999</ele>
        <time>2023-08-16T12:53:14Z</time>
      </trkpt>
      <trkpt lat="54.92096702568233" lon="-1.60997299477458">
        <ele>22.25</ele>
        <time>2023-08-16T12:53:25Z</time>
      </trkpt>
      <trkpt lat="54.921026034280658" lon="-1.612684959545732">
        <ele>19.84</ele>
        <time>2023-08-16T12:53:35Z</time>
      </trkpt>
      <trkpt lat="54.921173974871635" lon="-1.615531034767628">
        <ele>16.960000000000001</ele>
        <time>2023-08-16T12:53:46Z</time>
      </trkpt>
      <trkpt lat="54.921387964859605" lon="-1.618181979283691">
        <ele>16.960000000000001</ele>
        <time>2023-08-16T12:53:56Z</time>
      </trkpt>
      <trkpt lat="54.921871013939381" lon="-1.621696008369327">
        <ele>20.32</ele>
        <time>2023-08-16T12:54:09Z</time>
      </trkpt>
      <trkpt lat="54.922619014978409" lon="-1.623729038983584">
        <ele>24.649999999999999</ele>
        <time>2023-08-16T12:54:17Z</time>
      </trkpt>
      <trkpt lat="54.923636997118592" lon="-1.625081961974502">
        <ele>27.530000000000001</ele>
        <time>2023-08-16T12:54:24Z</time>
      </trkpt>
      <trkpt lat="54.9251579772681" lon="-1.626093992963433">
        <ele>28.98</ele>
        <time>2023-08-16T12:54:32Z</time>
      </trkpt>
      <trkpt lat="54.927266025915742" lon="-1.627065958455205">
        <ele>28.02</ele>
        <time>2023-08-16T12:54:42Z</time>
      </trkpt>
      <trkpt lat="54.92887401022017" lon="-1.627554036676884">
        <ele>27.530000000000001</ele>
        <time>2023-08-16T12:54:50Z</time>
      </trkpt>
      <trkpt lat="54.931271988898516" lon="-1.627823011949658">
        <ele>27.530000000000001</ele>
        <time>2023-08-16T12:55:02Z</time>
      </trkpt>
      <trkpt lat="54.933619005605578" lon="-1.628229031339288">
        <ele>28.98</ele>
        <time>2023-08-16T12:55:14Z</time>
      </trkpt>
      <trkpt lat="54.936297023668885" lon="-1.629261011257768">
        <ele>29.940000000000001</ele>
        <time>2023-08-16T12:55:28Z</time>
      </trkpt>
      <trkpt lat="54.938813019543886" lon="-1.630132980644703">
        <ele>29.940000000000001</ele>
        <time>2023-08-16T12:55:41Z</time>
      </trkpt>
      <trkpt lat="54.941145032644272" lon="-1.630829013884068">
        <ele>23.690000000000001</ele>
        <time>2023-08-16T12:55:53Z</time>
      </trkpt>
      <trkpt lat="54.943131040781736" lon="-1.632206998765469">
        <ele>25.129999999999999</ele>
        <time>2023-08-16T12:56:04Z</time>
      </trkpt>
      <trkpt lat="54.944915967062116" lon="-1.63435896858573">
        <ele>28.98</ele>
        <time>2023-08-16T12:56:15Z</time>
      </trkpt>
      <trkpt lat="54.946291018277407" lon="-1.636779997497797">
        <ele>23.690000000000001</ele>
        <time>2023-08-16T12:56:25Z</time>
      </trkpt>
      <trkpt lat="54.947690041735768" lon="-1.639587013050914">
        <ele>20.32</ele>
        <time>2023-08-16T12:56:36Z</time>
      </trkpt>
      <trkpt lat="54.949596002697945" lon="-1.643968988209963">
        <ele>17.440000000000001</ele>
        <time>2023-08-16T12:56:52Z</time>
      </trkpt>
      <trkpt lat="54.950267979875207" lon="-1.646019034087658">
        <ele>16</ele>
        <time>2023-08-16T12:56:59Z</time>
      </trkpt>
      <trkpt lat="54.951039031147957" lon="-1.649410016834736">
        <ele>18.399999999999999</ele>
        <time>2023-08-16T12:57:10Z</time>
      </trkpt>
      <trkpt lat="54.951087981462479" lon="-1.649724002927542">
        <ele>18.879999999999999</ele>
        <time>2023-08-16T12:57:11Z</time>
      </trkpt>
      <trkpt lat="54.951722994446754" lon="-1.653983015567064">
        <ele>20.809999999999999</ele>
        <time>2023-08-16T12:57:24Z</time>
      </trkpt>
      <trkpt lat="54.95237996801734" lon="-1.658153012394905">
        <ele>19.84</ele>
        <time>2023-08-16T12:57:37Z</time>
      </trkpt>
      <trkpt lat="54.953296026214957" lon="-1.663251975551248">
        <ele>18.399999999999999</ele>
        <time>2023-08-16T12:57:53Z</time>
      </trkpt>
      <trkpt lat="54.954193979501724" lon="-1.667778035625815">
        <ele>15.039999999999999</ele>
        <time>2023-08-16T12:58:08Z</time>
      </trkpt>
      <trkpt lat="54.954257011413574" lon="-1.668095961213112">
        <ele>14.56</ele>
        <time>2023-08-16T12:58:09Z</time>
      </trkpt>
      <trkpt lat="54.954320965334773" lon="-1.668414976447821">
        <ele>13.6</ele>
        <time>2023-08-16T12:58:10Z</time>
      </trkpt>
      <trkpt lat="54.955026973038912" lon="-1.672376012429595">
        <ele>11.19</ele>
        <time>2023-08-16T12:58:22Z</time>
      </trkpt>
      <trkpt lat="54.955465011298656" lon="-1.675087977200747">
        <ele>11.67</ele>
        <time>2023-08-16T12:58:31Z</time>
      </trkpt>
      <trkpt lat="54.955787966027856" lon="-1.677546976134181">
        <ele>15.039999999999999</ele>
        <time>2023-08-16T12:58:40Z</time>
      </trkpt>
      <trkpt lat="54.956148974597454" lon="-1.680492963641882">
        <ele>16.960000000000001</ele>
        <time>2023-08-16T12:58:50Z</time>
      </trkpt>
      <trkpt lat="54.956491040065885" lon="-1.683846982195973">
        <ele>18.399999999999999</ele>
        <time>2023-08-16T12:59:00Z</time>
      </trkpt>
      <trkpt lat="54.957043994218111" lon="-1.687805000692606">
        <ele>18.879999999999999</ele>
        <time>2023-08-16T12:59:12Z</time>
      </trkpt>
      <trkpt lat="54.957929039373994" lon="-1.690052021294832">
        <ele>18.399999999999999</ele>
        <time>2023-08-16T12:59:20Z</time>
      </trkpt>
      <trkpt lat="54.959395034238696" lon="-1.692040041089058">
        <ele>16.960000000000001</ele>
        <time>2023-08-16T12:59:29Z</time>
      </trkpt>
      <trkpt lat="54.961884962394834" lon="-1.695069009438157">
        <ele>16</ele>
        <time>2023-08-16T12:59:43Z</time>
      </trkpt>
      <trkpt lat="54.964073980227113" lon="-1.697260960936546">
        <ele>16.960000000000001</ele>
        <time>2023-08-16T12:59:55Z</time>
      </trkpt>
      <trkpt lat="54.965851027518511" lon="-1.698139971122146">
        <ele>19.359999999999999</ele>
        <time>2023-08-16T13:00:04Z</time>
      </trkpt>
      <trkpt lat="54.967636959627271" lon="-1.698246002197266">
        <ele>20.32</ele>
        <time>2023-08-16T13:00:13Z</time>
      </trkpt>
      <trkpt lat="54.97010400518775" lon="-1.697971997782588">
        <ele>21.77</ele>
        <time>2023-08-16T13:00:25Z</time>
      </trkpt>
      <trkpt lat="54.973212014883757" lon="-1.697666980326176">
        <ele>23.210000000000001</ele>
        <time>2023-08-16T13:00:39Z</time>
      </trkpt>
      <trkpt lat="54.97534504160285" lon="-1.697878958657384">
        <ele>27.050000000000001</ele>
        <time>2023-08-16T13:00:48Z</time>
      </trkpt>
      <trkpt lat="54.977722987532616" lon="-1.698247008025646">
        <ele>38.590000000000003</ele>
        <time>2023-08-16T13:00:58Z</time>
      </trkpt>
      <trkpt lat="54.979770015925169" lon="-1.697795977815986">
        <ele>48.200000000000003</ele>
        <time>2023-08-16T13:01:07Z</time>
      </trkpt>
      <trkpt lat="54.981226958334446" lon="-1.696831975132227">
        <ele>56.369999999999997</ele>
        <time>2023-08-16T13:01:15Z</time>
      </trkpt>
      <trkpt lat="54.983117999508977" lon="-1.695306971669197">
        <ele>65.030000000000001</ele>
        <time>2023-08-16T13:01:26Z</time>
      </trkpt>
      <trkpt lat="54.984643002972007" lon="-1.694069970399141">
        <ele>71.269999999999996</ele>
        <time>2023-08-16T13:01:34Z</time>
      </trkpt>
      <trkpt lat="54.98482396826148" lon="-1.693909959867597">
        <ele>71.760000000000005</ele>
        <time>2023-08-16T13:01:35Z</time>
      </trkpt>
      <trkpt lat="54.986168006435037" lon="-1.692499034106731">
        <ele>78</ele>
        <time>2023-08-16T13:01:42Z</time>
      </trkpt>
      <trkpt lat="54.988458026200533" lon="-1.689649019390345">
        <ele>89.540000000000006</ele>
        <time>2023-08-16T13:01:54Z</time>
      </trkpt>
      <trkpt lat="54.991666032001376" lon="-1.685439040884376">
        <ele>101.08</ele>
        <time>2023-08-16T13:02:11Z</time>
      </trkpt>
      <trkpt lat="54.994153026491404" lon="-1.682293983176351">
        <ele>103.95999999999999</ele>
        <time>2023-08-16T13:02:23Z</time>
      </trkpt>
      <trkpt lat="54.995926972478628" lon="-1.680103037506342">
        <ele>101.08</ele>
        <time>2023-08-16T13:02:32Z</time>
      </trkpt>
      <trkpt lat="54.997996967285872" lon="-1.677644038572907">
        <ele>104.92</ele>
        <time>2023-08-16T13:02:43Z</time>
      </trkpt>
      <trkpt lat="55.000683031976223" lon="-1.674499986693263">
        <ele>113.09</ele>
        <time>2023-08-16T13:02:57Z</time>
      </trkpt>
      <trkpt lat="55.002872971817851" lon="-1.672197980806232">
        <ele>116.45999999999999</ele>
        <time>2023-08-16T13:03:08Z</time>
      </trkpt>
      <trkpt lat="55.004065968096256" lon="-1.670976988971233">
        <ele>117.42</ele>
        <time>2023-08-16T13:03:15Z</time>
      </trkpt>
      <trkpt lat="55.004644989967346" lon="-1.670413976535201">
        <ele>118.86</ele>
        <time>2023-08-16T13:03:21Z</time>
      </trkpt>
      <trkpt lat="55.004813969135284" lon="-1.67028296738863">
        <ele>119.34</ele>
        <time>2023-08-16T13:03:28Z</time>
      </trkpt>
      <trkpt lat="55.004861997440457" lon="-1.670244997367263">
        <ele>119.81999999999999</ele>
        <time>2023-08-16T13:03:41Z</time>
      </trkpt>
      <trkpt lat="55.005065007135272" lon="-1.670086998492479">
        <ele>119.81999999999999</ele>
        <time>2023-08-16T13:03:52Z</time>
      </trkpt>
      <trkpt lat="55.005128039047122" lon="-1.670038970187306">
        <ele>119.81999999999999</ele>
        <time>2023-08-16T13:03:53Z</time>
      </trkpt>
      <trkpt lat="55.00519098713994" lon="-1.669989014044404">
        <ele>119.34</ele>
        <time>2023-08-16T13:03:54Z</time>
      </trkpt>
      <trkpt lat="55.005304981023073" lon="-1.669899998232722">
        <ele>119.34</ele>
        <time>2023-08-16T13:03:55Z</time>
      </trkpt>
      <trkpt lat="55.005354015156627" lon="-1.669912990182638">
        <ele>119.34</ele>
        <time>2023-08-16T13:03:56Z</time>
      </trkpt>
      <trkpt lat="55.005451999604702" lon="-1.669979961588979">
        <ele>119.34</ele>
        <time>2023-08-16T13:03:57Z</time>
      </trkpt>
      <trkpt lat="55.005531962960958" lon="-1.670055985450745">
        <ele>119.34</ele>
        <time>2023-08-16T13:03:58Z</time>
      </trkpt>
      <trkpt lat="55.006301002576947" lon="-1.670989980921149">
        <ele>116.45999999999999</ele>
        <time>2023-08-16T13:04:06Z</time>
      </trkpt>
      <trkpt lat="55.007348991930485" lon="-1.673085959628224">
        <ele>112.61</ele>
        <time>2023-08-16T13:04:15Z</time>
      </trkpt>
      <trkpt lat="55.008527990430593" lon="-1.675904039293528">
        <ele>104.44</ele>
        <time>2023-08-16T13:04:24Z</time>
      </trkpt>
      <trkpt lat="55.009678993374109" lon="-1.679085977375507">
        <ele>96.75</ele>
        <time>2023-08-16T13:04:32Z</time>
      </trkpt>
      <trkpt lat="55.011125961318612" lon="-1.682529011741281">
        <ele>90.019999999999996</ele>
        <time>2023-08-16T13:04:41Z</time>
      </trkpt>
      <trkpt lat="55.01318103633821" lon="-1.686295000836253">
        <ele>82.329999999999998</ele>
        <time>2023-08-16T13:04:52Z</time>
      </trkpt>
      <trkpt lat="55.015913033857942" lon="-1.69090798124671">
        <ele>75.120000000000005</ele>
        <time>2023-08-16T13:05:06Z</time>
      </trkpt>
      <trkpt lat="55.018964968621731" lon="-1.695665968582034">
        <ele>70.790000000000006</ele>
        <time>2023-08-16T13:05:21Z</time>
      </trkpt>
      <trkpt lat="55.022128969430923" lon="-1.700164033100009">
        <ele>69.829999999999998</ele>
        <time>2023-08-16T13:05:36Z</time>
      </trkpt>
      <trkpt lat="55.024931039661169" lon="-1.703929016366601">
        <ele>73.680000000000007</ele>
        <time>2023-08-16T13:05:49Z</time>
      </trkpt>
      <trkpt lat="55.028523020446301" lon="-1.708243014290929">
        <ele>78.480000000000004</ele>
        <time>2023-08-16T13:06:05Z</time>
      </trkpt>
      <trkpt lat="55.032184990122914" lon="-1.712255012243986">
        <ele>85.209999999999994</ele>
        <time>2023-08-16T13:06:21Z</time>
      </trkpt>
      <trkpt lat="55.033448981121182" lon="-1.71355496160686">
        <ele>86.659999999999997</ele>
        <time>2023-08-16T13:06:28Z</time>
      </trkpt>
      <trkpt lat="55.035178000107408" lon="-1.714826999232173">
        <ele>84.730000000000004</ele>
        <time>2023-08-16T13:06:37Z</time>
      </trkpt>
      <trkpt lat="55.036035971716046" lon="-1.715178033336997">
        <ele>84.25</ele>
        <time>2023-08-16T13:06:43Z</time>
      </trkpt>
      <trkpt lat="55.036205034703016" lon="-1.715230001136661">
        <ele>84.25</ele>
        <time>2023-08-16T13:06:48Z</time>
      </trkpt>
      <trkpt lat="55.036311987787485" lon="-1.715262020006776">
        <ele>84.25</ele>
        <time>2023-08-16T13:06:51Z</time>
      </trkpt>
      <trkpt lat="55.036345012485981" lon="-1.715346006676555">
        <ele>84.25</ele>
        <time>2023-08-16T13:06:52Z</time>
      </trkpt>
      <trkpt lat="55.036393962800503" lon="-1.715468969196081">
        <ele>84.25</ele>
        <time>2023-08-16T13:06:53Z</time>
      </trkpt>
      <trkpt lat="55.03647300414741" lon="-1.71552998945117">
        <ele>83.769999999999996</ele>
        <time>2023-08-16T13:06:54Z</time>
      </trkpt>
      <trkpt lat="55.036566965281963" lon="-1.715583968907595">
        <ele>83.769999999999996</ele>
        <time>2023-08-16T13:06:55Z</time>
      </trkpt>
      <trkpt lat="55.036689005792141" lon="-1.715583968907595">
        <ele>83.769999999999996</ele>
        <time>2023-08-16T13:06:56Z</time>
      </trkpt>
      <trkpt lat="55.036821020767093" lon="-1.715606013312936">
        <ele>83.769999999999996</ele>
        <time>2023-08-16T13:06:57Z</time>
      </trkpt>
      <trkpt lat="55.03696602769196" lon="-1.715633003041148">
        <ele>83.769999999999996</ele>
        <time>2023-08-16T13:06:58Z</time>
      </trkpt>
      <trkpt lat="55.037114974111319" lon="-1.715659992769361">
        <ele>83.769999999999996</ele>
        <time>2023-08-16T13:06:59Z</time>
      </trkpt>
      <trkpt lat="55.037255035713315" lon="-1.715728975832462">
        <ele>83.769999999999996</ele>
        <time>2023-08-16T13:07:00Z</time>
      </trkpt>
      <trkpt lat="55.037394007667899" lon="-1.715826038271189">
        <ele>83.769999999999996</ele>
        <time>2023-08-16T13:07:01Z</time>
      </trkpt>
      <trkpt lat="55.037533985450864" lon="-1.715924022719264">
        <ele>83.769999999999996</ele>
        <time>2023-08-16T13:07:02Z</time>
      </trkpt>
      <trkpt lat="55.038905013352633" lon="-1.717020962387323">
        <ele>83.290000000000006</ele>
        <time>2023-08-16T13:07:11Z</time>
      </trkpt>
      <trkpt lat="55.039211958646774" lon="-1.717436034232378">
        <ele>82.329999999999998</ele>
        <time>2023-08-16T13:07:14Z</time>
      </trkpt>
      <trkpt lat="55.039277002215385" lon="-1.717566959559917">
        <ele>82.329999999999998</ele>
        <time>2023-08-16T13:07:15Z</time>
      </trkpt>
      <trkpt lat="55.039326958358288" lon="-1.717719007283449">
        <ele>81.849999999999994</ele>
        <time>2023-08-16T13:07:16Z</time>
      </trkpt>
      <trkpt lat="55.039347996935248" lon="-1.717868037521839">
        <ele>81.370000000000005</ele>
        <time>2023-08-16T13:07:17Z</time>
      </trkpt>
      <trkpt lat="55.039395019412041" lon="-1.718015978112817">
        <ele>80.890000000000001</ele>
        <time>2023-08-16T13:07:18Z</time>
      </trkpt>
      <trkpt lat="55.039423014968634" lon="-1.718072975054383">
        <ele>80.409999999999997</ele>
        <time>2023-08-16T13:07:19Z</time>
      </trkpt>
      <trkpt lat="55.039604986086488" lon="-1.718166014179587">
        <ele>80.409999999999997</ele>
        <time>2023-08-16T13:07:20Z</time>
      </trkpt>
      <trkpt lat="55.03967204131186" lon="-1.718320995569229">
        <ele>79.930000000000007</ele>
        <time>2023-08-16T13:07:21Z</time>
      </trkpt>
      <trkpt lat="55.039744041860104" lon="-1.718484023585916">
        <ele>79.450000000000003</ele>
        <time>2023-08-16T13:07:22Z</time>
      </trkpt>
      <trkpt lat="55.040551973506808" lon="-1.720452010631561">
        <ele>75.599999999999994</ele>
        <time>2023-08-16T13:07:32Z</time>
      </trkpt>
      <trkpt lat="55.041184974834323" lon="-1.722261998802424">
        <ele>72.719999999999999</ele>
        <time>2023-08-16T13:07:40Z</time>
      </trkpt>
      <trkpt lat="55.041976980865002" lon="-1.72371600754559">
        <ele>67.430000000000007</ele>
        <time>2023-08-16T13:07:48Z</time>
      </trkpt>
      <trkpt lat="55.042407978326082" lon="-1.724298968911171">
        <ele>65.510000000000005</ele>
        <time>2023-08-16T13:07:53Z</time>
      </trkpt>
      <trkpt lat="55.042471010237932" lon="-1.7244269605726">
        <ele>65.030000000000001</ele>
        <time>2023-08-16T13:07:54Z</time>
      </trkpt>
      <trkpt lat="55.04253395833075" lon="-1.72455201856792">
        <ele>65.030000000000001</ele>
        <time>2023-08-16T13:07:55Z</time>
      </trkpt>
      <trkpt lat="55.042494982481003" lon="-1.724784029647708">
        <ele>65.030000000000001</ele>
        <time>2023-08-16T13:07:56Z</time>
      </trkpt>
      <trkpt lat="55.042511997744441" lon="-1.724949991330504">
        <ele>65.030000000000001</ele>
        <time>2023-08-16T13:07:57Z</time>
      </trkpt>
      <trkpt lat="55.042567988857627" lon="-1.725089969113469">
        <ele>65.030000000000001</ele>
        <time>2023-08-16T13:07:58Z</time>
      </trkpt>
      <trkpt lat="55.04263998940587" lon="-1.725153001025319">
        <ele>65.030000000000001</ele>
        <time>2023-08-16T13:07:59Z</time>
      </trkpt>
      <trkpt lat="55.042706038802862" lon="-1.72519700601697">
        <ele>65.030000000000001</ele>
        <time>2023-08-16T13:08:00Z</time>
      </trkpt>
      <trkpt lat="55.042749037966132" lon="-1.72519700601697">
        <ele>65.030000000000001</ele>
        <time>2023-08-16T13:08:01Z</time>
      </trkpt>
      <trkpt lat="55.042907036840916" lon="-1.725243022665381">
        <ele>65.030000000000001</ele>
        <time>2023-08-16T13:08:02Z</time>
      </trkpt>
      <trkpt lat="55.042995968833566" lon="-1.725347964093089">
        <ele>65.030000000000001</ele>
        <time>2023-08-16T13:08:03Z</time>
      </trkpt>
      <trkpt lat="55.043093031272292" lon="-1.725467992946506">
        <ele>65.030000000000001</ele>
        <time>2023-08-16T13:08:04Z</time>
      </trkpt>
      <trkpt lat="55.043192021548748" lon="-1.725595984607935">
        <ele>64.549999999999997</ele>
        <time>2023-08-16T13:08:05Z</time>
      </trkpt>
      <trkpt lat="55.043291011825204" lon="-1.725738979876041">
        <ele>64.549999999999997</ele>
        <time>2023-08-16T13:08:06Z</time>
      </trkpt>
      <trkpt lat="55.043380027636886" lon="-1.725901002064347">
        <ele>64.549999999999997</ele>
        <time>2023-08-16T13:08:07Z</time>
      </trkpt>
      <trkpt lat="55.044509992003441" lon="-1.727863037958741">
        <ele>62.619999999999997</ele>
        <time>2023-08-16T13:08:20Z</time>
      </trkpt>
      <trkpt lat="55.045443987473845" lon="-1.729597002267838">
        <ele>62.140000000000001</ele>
        <time>2023-08-16T13:08:30Z</time>
      </trkpt>
      <trkpt lat="55.046490970999002" lon="-1.731134997680783">
        <ele>64.069999999999993</ele>
        <time>2023-08-16T13:08:42Z</time>
      </trkpt>
      <trkpt lat="55.047658989205956" lon="-1.732707023620606">
        <ele>65.510000000000005</ele>
        <time>2023-08-16T13:08:54Z</time>
      </trkpt>
      <trkpt lat="55.049206037074327" lon="-1.734840972349048">
        <ele>60.219999999999999</ele>
        <time>2023-08-16T13:09:10Z</time>
      </trkpt>
      <trkpt lat="55.049294969066978" lon="-1.734981033951044">
        <ele>59.740000000000002</ele>
        <time>2023-08-16T13:09:11Z</time>
      </trkpt>
      <trkpt lat="55.049469983205199" lon="-1.735537005588412">
        <ele>58.299999999999997</ele>
        <time>2023-08-16T13:09:14Z</time>
      </trkpt>
      <trkpt lat="55.049522034823895" lon="-1.735730962827802">
        <ele>58.299999999999997</ele>
        <time>2023-08-16T13:09:15Z</time>
      </trkpt>
      <trkpt lat="55.049561010673642" lon="-1.735927015542984">
        <ele>57.82</ele>
        <time>2023-08-16T13:09:16Z</time>
      </trkpt>
      <trkpt lat="55.049625970423222" lon="-1.736495979130268">
        <ele>57.340000000000003</ele>
        <time>2023-08-16T13:09:19Z</time>
      </trkpt>
      <trkpt lat="55.049787992611527" lon="-1.737906988710165">
        <ele>56.369999999999997</ele>
        <time>2023-08-16T13:09:28Z</time>
      </trkpt>
      <trkpt lat="55.049927970394492" lon="-1.739158993586898">
        <ele>54.450000000000003</ele>
        <time>2023-08-16T13:09:39Z</time>
      </trkpt>
      <trkpt lat="55.049970969557762" lon="-1.739555960521102">
        <ele>54.450000000000003</ele>
        <time>2023-08-16T13:09:43Z</time>
      </trkpt>
      <trkpt lat="55.050085969269276" lon="-1.740606967359781">
        <ele>53.969999999999999</ele>
        <time>2023-08-16T13:09:54Z</time>
      </trkpt>
      <trkpt lat="55.050088986754417" lon="-1.740631023421884">
        <ele>53.969999999999999</ele>
        <time>2023-08-16T13:10:10Z</time>
      </trkpt>
      <trkpt lat="55.050095021724701" lon="-1.741345999762416">
        <ele>54.93</ele>
        <time>2023-08-16T13:10:17Z</time>
      </trkpt>
      <trkpt lat="55.050087980926037" lon="-1.7416110355407">
        <ele>54.450000000000003</ele>
        <time>2023-08-16T13:10:19Z</time>
      </trkpt>
      <trkpt lat="55.050065014511347" lon="-1.741718994453549">
        <ele>54.450000000000003</ele>
        <time>2023-08-16T13:10:20Z</time>
      </trkpt>
      <trkpt lat="55.050036013126373" lon="-1.741827959194779">
        <ele>54.450000000000003</ele>
        <time>2023-08-16T13:10:21Z</time>
      </trkpt>
      <trkpt lat="55.050005000084639" lon="-1.741946982219815">
        <ele>54.450000000000003</ele>
        <time>2023-08-16T13:10:22Z</time>
      </trkpt>
      <trkpt lat="55.049968035891652" lon="-1.742077991366386">
        <ele>54.450000000000003</ele>
        <time>2023-08-16T13:10:23Z</time>
      </trkpt>
      <trkpt lat="55.049887988716364" lon="-1.742350989952683">
        <ele>53.490000000000002</ele>
        <time>2023-08-16T13:10:25Z</time>
      </trkpt>
      <trkpt lat="55.049849012866616" lon="-1.74249398522079">
        <ele>53.009999999999998</ele>
        <time>2023-08-16T13:10:26Z</time>
      </trkpt>
      <trkpt lat="55.049809031188488" lon="-1.74264301545918">
        <ele>52.530000000000001</ele>
        <time>2023-08-16T13:10:27Z</time>
      </trkpt>
      <trkpt lat="55.049484986811876" lon="-1.744327023625374">
        <ele>49.649999999999999</ele>
        <time>2023-08-16T13:10:37Z</time>
      </trkpt>
      <trkpt lat="55.049488004297018" lon="-1.74612301401794">
        <ele>52.049999999999997</ele>
        <time>2023-08-16T13:10:47Z</time>
      </trkpt>
      <trkpt lat="55.049541983753443" lon="-1.747204028069973">
        <ele>52.530000000000001</ele>
        <time>2023-08-16T13:10:52Z</time>
      </trkpt>
      <trkpt lat="55.049565033987164" lon="-1.747432015836239">
        <ele>52.530000000000001</ele>
        <time>2023-08-16T13:10:53Z</time>
      </trkpt>
      <trkpt lat="55.049773994833231" lon="-1.749482983723283">
        <ele>53.009999999999998</ele>
        <time>2023-08-16T13:11:02Z</time>
      </trkpt>
      <trkpt lat="55.04998697899282" lon="-1.751563958823681">
        <ele>56.859999999999999</ele>
        <time>2023-08-16T13:11:11Z</time>
      </trkpt>
      <trkpt lat="55.050010029226542" lon="-1.751787001267076">
        <ele>57.340000000000003</ele>
        <time>2023-08-16T13:11:12Z</time>
      </trkpt>
      <trkpt lat="55.050109019502997" lon="-1.753133973106742">
        <ele>59.740000000000002</ele>
        <time>2023-08-16T13:11:18Z</time>
      </trkpt>
      <trkpt lat="55.050109019502997" lon="-1.753373024985194">
        <ele>60.219999999999999</ele>
        <time>2023-08-16T13:11:19Z</time>
      </trkpt>
      <trkpt lat="55.050053028389812" lon="-1.755293989554048">
        <ele>62.140000000000001</ele>
        <time>2023-08-16T13:11:28Z</time>
      </trkpt>
      <trkpt lat="55.050069959834218" lon="-1.755504040047526">
        <ele>62.140000000000001</ele>
        <time>2023-08-16T13:11:29Z</time>
      </trkpt>
      <trkpt lat="55.050087980926037" lon="-1.755709983408451">
        <ele>62.140000000000001</ele>
        <time>2023-08-16T13:11:30Z</time>
      </trkpt>
      <trkpt lat="55.050123017281294" lon="-1.75590000115335">
        <ele>62.140000000000001</ele>
        <time>2023-08-16T13:11:31Z</time>
      </trkpt>
      <trkpt lat="55.050168028101325" lon="-1.756090018898249">
        <ele>62.619999999999997</ele>
        <time>2023-08-16T13:11:32Z</time>
      </trkpt>
      <trkpt lat="55.05024204030633" lon="-1.756255980581045">
        <ele>62.619999999999997</ele>
        <time>2023-08-16T13:11:33Z</time>
      </trkpt>
      <trkpt lat="55.050324015319347" lon="-1.756439041346312">
        <ele>63.100000000000001</ele>
        <time>2023-08-16T13:11:34Z</time>
      </trkpt>
      <trkpt lat="55.050409007817507" lon="-1.756558986380696">
        <ele>63.100000000000001</ele>
        <time>2023-08-16T13:11:35Z</time>
      </trkpt>
      <trkpt lat="55.050509003922343" lon="-1.75669795833528">
        <ele>63.579999999999998</ele>
        <time>2023-08-16T13:11:36Z</time>
      </trkpt>
      <trkpt lat="55.050616962835193" lon="-1.756828967481852">
        <ele>63.579999999999998</ele>
        <time>2023-08-16T13:11:37Z</time>
      </trkpt>
      <trkpt lat="55.051713986322284" lon="-1.75796203315258">
        <ele>66.950000000000003</ele>
        <time>2023-08-16T13:11:45Z</time>
      </trkpt>
      <trkpt lat="55.05310102365911" lon="-1.759608993306756">
        <ele>68.870000000000005</ele>
        <time>2023-08-16T13:11:53Z</time>
      </trkpt>
      <trkpt lat="55.054408013820648" lon="-1.761762974783778">
        <ele>69.349999999999994</ele>
        <time>2023-08-16T13:12:01Z</time>
      </trkpt>
      <trkpt lat="55.054536005482078" lon="-1.762075033038855">
        <ele>69.349999999999994</ele>
        <time>2023-08-16T13:12:02Z</time>
      </trkpt>
      <trkpt lat="55.055607967078686" lon="-1.7649220302701">
        <ele>69.829999999999998</ele>
        <time>2023-08-16T13:12:11Z</time>
      </trkpt>
      <trkpt lat="55.056802975013852" lon="-1.766691030934453">
        <ele>69.349999999999994</ele>
        <time>2023-08-16T13:12:18Z</time>
      </trkpt>
      <trkpt lat="55.058440966531634" lon="-1.769153969362378">
        <ele>67.430000000000007</ele>
        <time>2023-08-16T13:12:27Z</time>
      </trkpt>
      <trkpt lat="55.059850970283151" lon="-1.771389003843069">
        <ele>67.909999999999997</ele>
        <time>2023-08-16T13:12:35Z</time>
      </trkpt>
      <trkpt lat="55.061186039820313" lon="-1.773784970864654">
        <ele>69.829999999999998</ele>
        <time>2023-08-16T13:12:43Z</time>
      </trkpt>
      <trkpt lat="55.062483977526426" lon="-1.776259979233146">
        <ele>69.349999999999994</ele>
        <time>2023-08-16T13:12:51Z</time>
      </trkpt>
      <trkpt lat="55.065157972276211" lon="-1.782156983390451">
        <ele>66.950000000000003</ele>
        <time>2023-08-16T13:13:09Z</time>
      </trkpt>
      <trkpt lat="55.066547021269798" lon="-1.784457983449101">
        <ele>74.640000000000001</ele>
        <time>2023-08-16T13:13:17Z</time>
      </trkpt>
      <trkpt lat="55.068322978913784" lon="-1.78784997202456">
        <ele>80.890000000000001</ele>
        <time>2023-08-16T13:13:28Z</time>
      </trkpt>
      <trkpt lat="55.069800959900022" lon="-1.790869971737266">
        <ele>86.180000000000007</ele>
        <time>2023-08-16T13:13:38Z</time>
      </trkpt>
      <trkpt lat="55.07108498364687" lon="-1.792899984866381">
        <ele>91.939999999999998</ele>
        <time>2023-08-16T13:13:47Z</time>
      </trkpt>
      <trkpt lat="55.072463974356651" lon="-1.794549040496349">
        <ele>98.670000000000002</ele>
        <time>2023-08-16T13:13:56Z</time>
      </trkpt>
      <trkpt lat="55.073743974789977" lon="-1.796051999554038">
        <ele>102.04000000000001</ele>
        <time>2023-08-16T13:14:03Z</time>
      </trkpt>
      <trkpt lat="55.074895983561873" lon="-1.797405006363988">
        <ele>101.56</ele>
        <time>2023-08-16T13:14:10Z</time>
      </trkpt>
      <trkpt lat="55.076796999201179" lon="-1.799683962017298">
        <ele>98.189999999999998</ele>
        <time>2023-08-16T13:14:22Z</time>
      </trkpt>
      <trkpt lat="55.077997958287597" lon="-1.801519012078643">
        <ele>95.310000000000002</ele>
        <time>2023-08-16T13:14:30Z</time>
      </trkpt>
      <trkpt lat="55.07888300344348" lon="-1.80376997217536">
        <ele>91.939999999999998</ele>
        <time>2023-08-16T13:14:38Z</time>
      </trkpt>
      <trkpt lat="55.079278964549303" lon="-1.804504981264472">
        <ele>91.459999999999994</ele>
        <time>2023-08-16T13:14:41Z</time>
      </trkpt>
      <trkpt lat="55.079444004222751" lon="-1.804715031757951">
        <ele>91.459999999999994</ele>
        <time>2023-08-16T13:14:42Z</time>
      </trkpt>
      <trkpt lat="55.080733979120851" lon="-1.806204998865724">
        <ele>93.390000000000001</ele>
        <time>2023-08-16T13:14:48Z</time>
      </trkpt>
      <trkpt lat="55.082067037001252" lon="-1.807369999587536">
        <ele>95.790000000000006</ele>
        <time>2023-08-16T13:14:54Z</time>
      </trkpt>
      <trkpt lat="55.083621041849256" lon="-1.808470962569118">
        <ele>101.08</ele>
        <time>2023-08-16T13:15:03Z</time>
      </trkpt>
      <trkpt lat="55.085142021998763" lon="-1.80937796831131">
        <ele>106.84</ele>
        <time>2023-08-16T13:15:13Z</time>
      </trkpt>
      <trkpt lat="55.086711030453444" lon="-1.810247004032135">
        <ele>111.65000000000001</ele>
        <time>2023-08-16T13:15:22Z</time>
      </trkpt>
      <trkpt lat="55.08846796117723" lon="-1.81116197258234">
        <ele>112.13</ele>
        <time>2023-08-16T13:15:31Z</time>
      </trkpt>
      <trkpt lat="55.090280966833234" lon="-1.812441973015666">
        <ele>108.77</ele>
        <time>2023-08-16T13:15:41Z</time>
      </trkpt>
      <trkpt lat="55.091949971392751" lon="-1.813768995925784">
        <ele>107.31999999999999</ele>
        <time>2023-08-16T13:15:50Z</time>
      </trkpt>
      <trkpt lat="55.093294009566307" lon="-1.814837018027902">
        <ele>102.52</ele>
        <time>2023-08-16T13:15:57Z</time>
      </trkpt>
      <trkpt lat="55.093489978462458" lon="-1.814993005245924">
        <ele>101.56</ele>
        <time>2023-08-16T13:15:58Z</time>
      </trkpt>
      <trkpt lat="55.095423012971878" lon="-1.816548015922308">
        <ele>102.52</ele>
        <time>2023-08-16T13:16:08Z</time>
      </trkpt>
      <trkpt lat="55.096785994246602" lon="-1.817943016067147">
        <ele>107.31999999999999</ele>
        <time>2023-08-16T13:16:16Z</time>
      </trkpt>
      <trkpt lat="55.097872959449887" lon="-1.819957019761205">
        <ele>103.95999999999999</ele>
        <time>2023-08-16T13:16:24Z</time>
      </trkpt>
      <trkpt lat="55.099146002903581" lon="-1.822787001729012">
        <ele>99.629999999999995</ele>
        <time>2023-08-16T13:16:34Z</time>
      </trkpt>
      <trkpt lat="55.100840991362929" lon="-1.826601019129157">
        <ele>104.44</ele>
        <time>2023-08-16T13:16:48Z</time>
      </trkpt>
      <trkpt lat="55.101342983543873" lon="-1.828765980899334">
        <ele>108.29000000000001</ele>
        <time>2023-08-16T13:16:55Z</time>
      </trkpt>
      <trkpt lat="55.101651018485427" lon="-1.831775000318885">
        <ele>111.65000000000001</ele>
        <time>2023-08-16T13:17:05Z</time>
      </trkpt>
      <trkpt lat="55.101850004866719" lon="-1.83481402695179">
        <ele>110.20999999999999</ele>
        <time>2023-08-16T13:17:16Z</time>
      </trkpt>
      <trkpt lat="55.101950000971556" lon="-1.836831970140338">
        <ele>112.61</ele>
        <time>2023-08-16T13:17:25Z</time>
      </trkpt>
      <trkpt lat="55.101835001260042" lon="-1.839496996253729">
        <ele>117.42</ele>
        <time>2023-08-16T13:17:38Z</time>
      </trkpt>
      <trkpt lat="55.101840030401945" lon="-1.840996015816927">
        <ele>118.86</ele>
        <time>2023-08-16T13:17:47Z</time>
      </trkpt>
      <trkpt lat="55.101865008473396" lon="-1.841129958629608">
        <ele>118.86</ele>
        <time>2023-08-16T13:17:48Z</time>
      </trkpt>
      <trkpt lat="55.101897027343512" lon="-1.84125903993845">
        <ele>119.34</ele>
        <time>2023-08-16T13:17:49Z</time>
      </trkpt>
      <trkpt lat="55.101962992921472" lon="-1.841374039649963">
        <ele>119.34</ele>
        <time>2023-08-16T13:17:50Z</time>
      </trkpt>
      <trkpt lat="55.102054020389915" lon="-1.841450985521078">
        <ele>119.34</ele>
        <time>2023-08-16T13:17:51Z</time>
      </trkpt>
      <trkpt lat="55.102155022323132" lon="-1.841527009382844">
        <ele>119.34</ele>
        <time>2023-08-16T13:17:52Z</time>
      </trkpt>
      <trkpt lat="55.102255018427968" lon="-1.841600015759468">
        <ele>119.81999999999999</ele>
        <time>2023-08-16T13:17:53Z</time>
      </trkpt>
      <trkpt lat="55.103281969204545" lon="-1.842309040948749">
        <ele>119.81999999999999</ele>
        <time>2023-08-16T13:18:02Z</time>
      </trkpt>
      <trkpt lat="55.104148993268609" lon="-1.842962997034192">
        <ele>119.34</ele>
        <time>2023-08-16T13:18:10Z</time>
      </trkpt>
      <trkpt lat="55.104258041828871" lon="-1.84304497204721">
        <ele>119.34</ele>
        <time>2023-08-16T13:18:11Z</time>
      </trkpt>
      <trkpt lat="55.104367006570101" lon="-1.843127030879259">
        <ele>119.81999999999999</ele>
        <time>2023-08-16T13:18:12Z</time>
      </trkpt>
      <trkpt lat="55.105399992316961" lon="-1.843745028600097">
        <ele>121.73999999999999</ele>
        <time>2023-08-16T13:18:21Z</time>
      </trkpt>
      <trkpt lat="55.105498982593417" lon="-1.843844018876553">
        <ele>121.73999999999999</ele>
        <time>2023-08-16T13:18:22Z</time>
      </trkpt>
      <trkpt lat="55.105620017275214" lon="-1.843964969739318">
        <ele>121.73999999999999</ele>
        <time>2023-08-16T13:18:23Z</time>
      </trkpt>
      <trkpt lat="55.105693023651838" lon="-1.844109976664186">
        <ele>122.22</ele>
        <time>2023-08-16T13:18:24Z</time>
      </trkpt>
      <trkpt lat="55.106043973937631" lon="-1.844759993255138">
        <ele>123.19</ele>
        <time>2023-08-16T13:18:28Z</time>
      </trkpt>
      <trkpt lat="55.106684016063809" lon="-1.846593031659722">
        <ele>124.15000000000001</ele>
        <time>2023-08-16T13:18:37Z</time>
      </trkpt>
      <trkpt lat="55.106995990499854" lon="-1.849041972309351">
        <ele>122.22</ele>
        <time>2023-08-16T13:18:46Z</time>
      </trkpt>
      <trkpt lat="55.107347024604678" lon="-1.851955018937588">
        <ele>121.26000000000001</ele>
        <time>2023-08-16T13:18:56Z</time>
      </trkpt>
      <trkpt lat="55.107917999848723" lon="-1.856506979092956">
        <ele>123.19</ele>
        <time>2023-08-16T13:19:11Z</time>
      </trkpt>
      <trkpt lat="55.108569022268057" lon="-1.861160025000572">
        <ele>125.59</ele>
        <time>2023-08-16T13:19:26Z</time>
      </trkpt>
      <trkpt lat="55.109202023595572" lon="-1.864734990522265">
        <ele>125.11</ele>
        <time>2023-08-16T13:19:37Z</time>
      </trkpt>
      <trkpt lat="55.10956697165966" lon="-1.866797022521496">
        <ele>122.22</ele>
        <time>2023-08-16T13:19:43Z</time>
      </trkpt>
      <trkpt lat="55.110248001292348" lon="-1.870424961671233">
        <ele>123.19</ele>
        <time>2023-08-16T13:19:55Z</time>
      </trkpt>
      <trkpt lat="55.110766002908349" lon="-1.873024022206664">
        <ele>124.63</ele>
        <time>2023-08-16T13:20:02Z</time>
      </trkpt>
      <trkpt lat="55.111479973420501" lon="-1.876435037702322">
        <ele>120.78</ele>
        <time>2023-08-16T13:20:09Z</time>
      </trkpt>
      <trkpt lat="55.112217999994755" lon="-1.879959041252732">
        <ele>119.81999999999999</ele>
        <time>2023-08-16T13:20:18Z</time>
      </trkpt>
      <trkpt lat="55.112828034907579" lon="-1.882868986576796">
        <ele>119.34</ele>
        <time>2023-08-16T13:20:26Z</time>
      </trkpt>
      <trkpt lat="55.113937966525555" lon="-1.887460006400943">
        <ele>122.70999999999999</ele>
        <time>2023-08-16T13:20:38Z</time>
      </trkpt>
      <trkpt lat="55.114395031705499" lon="-1.889252979308367">
        <ele>126.06999999999999</ele>
        <time>2023-08-16T13:20:44Z</time>
      </trkpt>
      <trkpt lat="55.114813959226012" lon="-1.892930036410689">
        <ele>130.40000000000001</ele>
        <time>2023-08-16T13:20:55Z</time>
      </trkpt>
      <trkpt lat="55.115291979163885" lon="-1.896203001961112">
        <ele>136.63999999999999</ele>
        <time>2023-08-16T13:21:06Z</time>
      </trkpt>
      <trkpt lat="55.115811992436647" lon="-1.899820966646075">
        <ele>144.34</ele>
        <time>2023-08-16T13:21:16Z</time>
      </trkpt>
      <trkpt lat="55.116582959890366" lon="-1.902477024123073">
        <ele>146.74000000000001</ele>
        <time>2023-08-16T13:21:23Z</time>
      </trkpt>
      <trkpt lat="55.117950970306993" lon="-1.90595299936831">
        <ele>148.18000000000001</ele>
        <time>2023-08-16T13:21:33Z</time>
      </trkpt>
      <trkpt lat="55.119978971779346" lon="-1.910618031397462">
        <ele>141.93000000000001</ele>
        <time>2023-08-16T13:21:47Z</time>
      </trkpt>
      <trkpt lat="55.121961962431669" lon="-1.914671016857028">
        <ele>141.93000000000001</ele>
        <time>2023-08-16T13:22:00Z</time>
      </trkpt>
      <trkpt lat="55.122065981850028" lon="-1.914993971586227">
        <ele>141.93000000000001</ele>
        <time>2023-08-16T13:22:01Z</time>
      </trkpt>
      <trkpt lat="55.122136976569891" lon="-1.915350034832954">
        <ele>142.41</ele>
        <time>2023-08-16T13:22:02Z</time>
      </trkpt>
      <trkpt lat="55.122208977118134" lon="-1.915712971240282">
        <ele>142.41</ele>
        <time>2023-08-16T13:22:03Z</time>
      </trkpt>
      <trkpt lat="55.122280977666378" lon="-1.916078003123403">
        <ele>142.41</ele>
        <time>2023-08-16T13:22:04Z</time>
      </trkpt>
      <trkpt lat="55.122738964855671" lon="-1.918970011174679">
        <ele>142.88999999999999</ele>
        <time>2023-08-16T13:22:12Z</time>
      </trkpt>
      <trkpt lat="55.123142972588539" lon="-1.922354958951473">
        <ele>147.22</ele>
        <time>2023-08-16T13:22:21Z</time>
      </trkpt>
      <trkpt lat="55.123791983351111" lon="-1.924938010051847">
        <ele>153.47</ele>
        <time>2023-08-16T13:22:28Z</time>
      </trkpt>
      <trkpt lat="55.125447995960712" lon="-1.929842010140419">
        <ele>161.16</ele>
        <time>2023-08-16T13:22:42Z</time>
      </trkpt>
      <trkpt lat="55.127339959144592" lon="-1.935700038447976">
        <ele>164.52000000000001</ele>
        <time>2023-08-16T13:22:58Z</time>
      </trkpt>
      <trkpt lat="55.128658013418317" lon="-1.939161010086536">
        <ele>166.44999999999999</ele>
        <time>2023-08-16T13:23:08Z</time>
      </trkpt>
      <trkpt lat="55.129426969215274" lon="-1.942410003393889">
        <ele>163.08000000000001</ele>
        <time>2023-08-16T13:23:17Z</time>
      </trkpt>
      <trkpt lat="55.130354007706046" lon="-1.948028979822993">
        <ele>157.31</ele>
        <time>2023-08-16T13:23:31Z</time>
      </trkpt>
      <trkpt lat="55.130819035694003" lon="-1.952123958617449">
        <ele>159.72</ele>
        <time>2023-08-16T13:23:41Z</time>
      </trkpt>
      <trkpt lat="55.131455976516008" lon="-1.957457028329372">
        <ele>165.96000000000001</ele>
        <time>2023-08-16T13:23:54Z</time>
      </trkpt>
      <trkpt lat="55.132192997261882" lon="-1.959611009806395">
        <ele>168.84999999999999</ele>
        <time>2023-08-16T13:24:00Z</time>
      </trkpt>
      <trkpt lat="55.13444303534925" lon="-1.963937999680638">
        <ele>174.62</ele>
        <time>2023-08-16T13:24:14Z</time>
      </trkpt>
      <trkpt lat="55.135452970862389" lon="-1.96555201895535">
        <ele>175.09999999999999</ele>
        <time>2023-08-16T13:24:21Z</time>
      </trkpt>
      <trkpt lat="55.13661403208971" lon="-1.967408023774624">
        <ele>171.25</ele>
        <time>2023-08-16T13:24:28Z</time>
      </trkpt>
      <trkpt lat="55.137638971209526" lon="-1.969843972474337">
        <ele>168.37</ele>
        <time>2023-08-16T13:24:37Z</time>
      </trkpt>
      <trkpt lat="55.138373980298638" lon="-1.972800018265843">
        <ele>166.93000000000001</ele>
        <time>2023-08-16T13:24:46Z</time>
      </trkpt>
      <trkpt lat="55.139299007132649" lon="-1.976899020373821">
        <ele>163.08000000000001</ele>
        <time>2023-08-16T13:24:58Z</time>
      </trkpt>
      <trkpt lat="55.140221016481519" lon="-1.980889979749918">
        <ele>160.19999999999999</ele>
        <time>2023-08-16T13:25:10Z</time>
      </trkpt>
      <trkpt lat="55.141401020810008" lon="-1.985948039218783">
        <ele>160.68000000000001</ele>
        <time>2023-08-16T13:25:24Z</time>
      </trkpt>
      <trkpt lat="55.142358988523483" lon="-1.988807022571564">
        <ele>161.63999999999999</ele>
        <time>2023-08-16T13:25:32Z</time>
      </trkpt>
      <trkpt lat="55.143200028687716" lon="-1.990806022658944">
        <ele>167.41</ele>
        <time>2023-08-16T13:25:38Z</time>
      </trkpt>
      <trkpt lat="55.143507979810238" lon="-1.991275995969772">
        <ele>169.81</ele>
        <time>2023-08-16T13:25:40Z</time>
      </trkpt>
      <trkpt lat="55.143662039190531" lon="-1.991415973752737">
        <ele>170.77000000000001</ele>
        <time>2023-08-16T13:25:41Z</time>
      </trkpt>
      <trkpt lat="55.143844010308385" lon="-1.991524016484618">
        <ele>172.21000000000001</ele>
        <time>2023-08-16T13:25:42Z</time>
      </trkpt>
      <trkpt lat="55.145336994901299" lon="-1.992425993084908">
        <ele>179.90000000000001</ele>
        <time>2023-08-16T13:25:49Z</time>
      </trkpt>
      <trkpt lat="55.146167976781726" lon="-1.993067963048816">
        <ele>181.34999999999999</ele>
        <time>2023-08-16T13:25:53Z</time>
      </trkpt>
      <trkpt lat="55.14636998064816" lon="-1.99326996691525">
        <ele>181.34999999999999</ele>
        <time>2023-08-16T13:25:54Z</time>
      </trkpt>
      <trkpt lat="55.146539965644479" lon="-1.993536008521915">
        <ele>181.83000000000001</ele>
        <time>2023-08-16T13:25:55Z</time>
      </trkpt>
      <trkpt lat="55.146710034459829" lon="-1.993814036250114">
        <ele>182.31</ele>
        <time>2023-08-16T13:25:56Z</time>
      </trkpt>
      <trkpt lat="55.146882031112909" lon="-1.994096003472805">
        <ele>182.31</ele>
        <time>2023-08-16T13:25:57Z</time>
      </trkpt>
      <trkpt lat="55.147030977532268" lon="-1.994416024535894">
        <ele>182.78999999999999</ele>
        <time>2023-08-16T13:25:58Z</time>
      </trkpt>
      <trkpt lat="55.148813975974917" lon="-1.998636983335018">
        <ele>182.31</ele>
        <time>2023-08-16T13:26:10Z</time>
      </trkpt>
      <trkpt lat="55.149923991411924" lon="-2.002367014065385">
        <ele>179.90000000000001</ele>
        <time>2023-08-16T13:26:20Z</time>
      </trkpt>
      <trkpt lat="55.151749989017844" lon="-2.008772967383266">
        <ele>184.71000000000001</ele>
        <time>2023-08-16T13:26:37Z</time>
      </trkpt>
      <trkpt lat="55.152753973379731" lon="-2.010532999411225">
        <ele>181.83000000000001</ele>
        <time>2023-08-16T13:26:43Z</time>
      </trkpt>
      <trkpt lat="55.154041014611721" lon="-2.011534972116351">
        <ele>178.94</ele>
        <time>2023-08-16T13:26:49Z</time>
      </trkpt>
      <trkpt lat="55.155459986999631" lon="-2.011657012626529">
        <ele>177.97999999999999</ele>
        <time>2023-08-16T13:26:55Z</time>
      </trkpt>
      <trkpt lat="55.156786004081368" lon="-2.011521980166435">
        <ele>182.78999999999999</ele>
        <time>2023-08-16T13:27:01Z</time>
      </trkpt>
      <trkpt lat="55.156965963542461" lon="-2.011477975174785">
        <ele>183.75</ele>
        <time>2023-08-16T13:27:02Z</time>
      </trkpt>
      <trkpt lat="55.157290007919073" lon="-2.011399017646909">
        <ele>185.66999999999999</ele>
        <time>2023-08-16T13:27:04Z</time>
      </trkpt>
      <trkpt lat="55.157487988471985" lon="-2.011422989889979">
        <ele>186.63</ele>
        <time>2023-08-16T13:27:05Z</time>
      </trkpt>
      <trkpt lat="55.1576719712466" lon="-2.011450985446572">
        <ele>187.59</ele>
        <time>2023-08-16T13:27:06Z</time>
      </trkpt>
      <trkpt lat="55.157853020355105" lon="-2.011541007086635">
        <ele>188.56</ele>
        <time>2023-08-16T13:27:07Z</time>
      </trkpt>
      <trkpt lat="55.158029962331057" lon="-2.011662963777781">
        <ele>189.52000000000001</ele>
        <time>2023-08-16T13:27:08Z</time>
      </trkpt>
      <trkpt lat="55.158213023096323" lon="-2.011806964874268">
        <ele>190.47999999999999</ele>
        <time>2023-08-16T13:27:09Z</time>
      </trkpt>
      <trkpt lat="55.158335985615849" lon="-2.012047022581101">
        <ele>191.91999999999999</ele>
        <time>2023-08-16T13:27:10Z</time>
      </trkpt>
      <trkpt lat="55.158462971448898" lon="-2.012294959276915">
        <ele>192.88</ele>
        <time>2023-08-16T13:27:11Z</time>
      </trkpt>
      <trkpt lat="55.15859498642385" lon="-2.012552032247186">
        <ele>194.31999999999999</ele>
        <time>2023-08-16T13:27:12Z</time>
      </trkpt>
      <trkpt lat="55.159640964120626" lon="-2.014552960172296">
        <ele>203.46000000000001</ele>
        <time>2023-08-16T13:27:20Z</time>
      </trkpt>
      <trkpt lat="55.16009702347219" lon="-2.01529098674655">
        <ele>208.25999999999999</ele>
        <time>2023-08-16T13:27:24Z</time>
      </trkpt>
      <trkpt lat="55.160242030397058" lon="-2.015410009771586">
        <ele>209.22</ele>
        <time>2023-08-16T13:27:25Z</time>
      </trkpt>
      <trkpt lat="55.160389970988035" lon="-2.015500031411648">
        <ele>210.19</ele>
        <time>2023-08-16T13:27:26Z</time>
      </trkpt>
      <trkpt lat="55.160543024539948" lon="-2.015590975061059">
        <ele>211.15000000000001</ele>
        <time>2023-08-16T13:27:27Z</time>
      </trkpt>
      <trkpt lat="55.160701023414731" lon="-2.015686025843024">
        <ele>212.11000000000001</ele>
        <time>2023-08-16T13:27:28Z</time>
      </trkpt>
      <trkpt lat="55.16209602355957" lon="-2.01670702546835">
        <ele>217.40000000000001</ele>
        <time>2023-08-16T13:27:37Z</time>
      </trkpt>
      <trkpt lat="55.16422200948" lon="-2.018246026709676">
        <ele>220.28</ele>
        <time>2023-08-16T13:27:50Z</time>
      </trkpt>
      <trkpt lat="55.165425986051559" lon="-2.019070973619819">
        <ele>222.68000000000001</ele>
        <time>2023-08-16T13:27:58Z</time>
      </trkpt>
      <trkpt lat="55.167041011154652" lon="-2.020193981006742">
        <ele>228.44999999999999</ele>
        <time>2023-08-16T13:28:08Z</time>
      </trkpt>
      <trkpt lat="55.169141013175249" lon="-2.021883018314838">
        <ele>239.50999999999999</ele>
        <time>2023-08-16T13:28:19Z</time>
      </trkpt>
      <trkpt lat="55.171662038192153" lon="-2.024332964792848">
        <ele>246.72</ele>
        <time>2023-08-16T13:28:31Z</time>
      </trkpt>
      <trkpt lat="55.174318011850119" lon="-2.027122965082526">
        <ele>244.78999999999999</ele>
        <time>2023-08-16T13:28:44Z</time>
      </trkpt>
      <trkpt lat="55.175173971801996" lon="-2.02908500097692">
        <ele>249.59999999999999</ele>
        <time>2023-08-16T13:28:50Z</time>
      </trkpt>
      <trkpt lat="55.17619002610445" lon="-2.032937994226813">
        <ele>257.76999999999998</ele>
        <time>2023-08-16T13:29:00Z</time>
      </trkpt>
      <trkpt lat="55.177340023219585" lon="-2.035609977319837">
        <ele>256.32999999999998</ele>
        <time>2023-08-16T13:29:08Z</time>
      </trkpt>
      <trkpt lat="55.177527023479342" lon="-2.035863026976585">
        <ele>256.32999999999998</ele>
        <time>2023-08-16T13:29:09Z</time>
      </trkpt>
      <trkpt lat="55.177727015689015" lon="-2.036084979772568">
        <ele>256.32999999999998</ele>
        <time>2023-08-16T13:29:10Z</time>
      </trkpt>
      <trkpt lat="55.177932037040591" lon="-2.036290001124144">
        <ele>256.32999999999998</ele>
        <time>2023-08-16T13:29:11Z</time>
      </trkpt>
      <trkpt lat="55.178148038685322" lon="-2.036449005827308">
        <ele>256.32999999999998</ele>
        <time>2023-08-16T13:29:12Z</time>
      </trkpt>
      <trkpt lat="55.178363034501672" lon="-2.036608010530472">
        <ele>256.81</ele>
        <time>2023-08-16T13:29:13Z</time>
      </trkpt>
      <trkpt lat="55.180532019585371" lon="-2.038425961509347">
        <ele>263.54000000000002</ele>
        <time>2023-08-16T13:29:23Z</time>
      </trkpt>
      <trkpt lat="55.184156019240618" lon="-2.04167596064508">
        <ele>269.31</ele>
        <time>2023-08-16T13:29:40Z</time>
      </trkpt>
      <trkpt lat="55.185932982712984" lon="-2.043779985979199">
        <ele>274.11000000000001</ele>
        <time>2023-08-16T13:29:49Z</time>
      </trkpt>
      <trkpt lat="55.188420983031392" lon="-2.04715202562511">
        <ele>277</ele>
        <time>2023-08-16T13:30:02Z</time>
      </trkpt>
      <trkpt lat="55.189131014049053" lon="-2.049312964081764">
        <ele>271.70999999999998</ele>
        <time>2023-08-16T13:30:08Z</time>
      </trkpt>
      <trkpt lat="55.1902199909091" lon="-2.053968021646142">
        <ele>264.98000000000002</ele>
        <time>2023-08-16T13:30:20Z</time>
      </trkpt>
      <trkpt lat="55.191518012434244" lon="-2.059853039681912">
        <ele>268.82999999999998</ele>
        <time>2023-08-16T13:30:35Z</time>
      </trkpt>
      <trkpt lat="55.19172303378582" lon="-2.062768014147878">
        <ele>271.23000000000002</ele>
        <time>2023-08-16T13:30:42Z</time>
      </trkpt>
      <trkpt lat="55.192048000171781" lon="-2.068632999435067">
        <ele>275.06999999999999</ele>
        <time>2023-08-16T13:30:56Z</time>
      </trkpt>
      <trkpt lat="55.192640013992786" lon="-2.070883959531784">
        <ele>280.36000000000001</ele>
        <time>2023-08-16T13:31:02Z</time>
      </trkpt>
      <trkpt lat="55.194627027958632" lon="-2.076662024483085">
        <ele>291.89999999999998</ele>
        <time>2023-08-16T13:31:18Z</time>
      </trkpt>
      <trkpt lat="55.19642704166472" lon="-2.082575960084796">
        <ele>307.27999999999997</ele>
        <time>2023-08-16T13:31:34Z</time>
      </trkpt>
      <trkpt lat="55.198257984593511" lon="-2.088486040011048">
        <ele>315.93000000000001</ele>
        <time>2023-08-16T13:31:50Z</time>
      </trkpt>
      <trkpt lat="55.198416989296675" lon="-2.088802959769964">
        <ele>316.41000000000003</ele>
        <time>2023-08-16T13:31:51Z</time>
      </trkpt>
      <trkpt lat="55.198574988171458" lon="-2.089119041338563">
        <ele>316.88999999999999</ele>
        <time>2023-08-16T13:31:52Z</time>
      </trkpt>
      <trkpt lat="55.198762994259596" lon="-2.089376030489802">
        <ele>317.37</ele>
        <time>2023-08-16T13:31:53Z</time>
      </trkpt>
      <trkpt lat="55.198960974812508" lon="-2.089608963578939">
        <ele>317.85000000000002</ele>
        <time>2023-08-16T13:31:54Z</time>
      </trkpt>
      <trkpt lat="55.199159039184451" lon="-2.089841980487108">
        <ele>318.32999999999998</ele>
        <time>2023-08-16T13:31:55Z</time>
      </trkpt>
      <trkpt lat="55.199371017515659" lon="-2.090019006282091">
        <ele>318.32999999999998</ele>
        <time>2023-08-16T13:31:56Z</time>
      </trkpt>
      <trkpt lat="55.199592970311642" lon="-2.090173987671733">
        <ele>318.81</ele>
        <time>2023-08-16T13:31:57Z</time>
      </trkpt>
      <trkpt lat="55.202719001099467" lon="-2.092301985248923">
        <ele>317.85000000000002</ele>
        <time>2023-08-16T13:32:11Z</time>
      </trkpt>
      <trkpt lat="55.205141035839915" lon="-2.09411901421845">
        <ele>303.91000000000003</ele>
        <time>2023-08-16T13:32:22Z</time>
      </trkpt>
      <trkpt lat="55.205316971987486" lon="-2.09435697644949">
        <ele>302.47000000000003</ele>
        <time>2023-08-16T13:32:23Z</time>
      </trkpt>
      <trkpt lat="55.205481005832553" lon="-2.094597034156323">
        <ele>301.02999999999997</ele>
        <time>2023-08-16T13:32:24Z</time>
      </trkpt>
      <trkpt lat="55.206839963793755" lon="-2.097190981730819">
        <ele>287.08999999999997</ele>
        <time>2023-08-16T13:32:34Z</time>
      </trkpt>
      <trkpt lat="55.207457039505243" lon="-2.099467003718019">
        <ele>278.92000000000002</ele>
        <time>2023-08-16T13:32:41Z</time>
      </trkpt>
      <trkpt lat="55.207905974239111" lon="-2.102498989552259">
        <ele>268.82999999999998</ele>
        <time>2023-08-16T13:32:50Z</time>
      </trkpt>
      <trkpt lat="55.208171010017395" lon="-2.103676982223988">
        <ele>264.98000000000002</ele>
        <time>2023-08-16T13:32:54Z</time>
      </trkpt>
      <trkpt lat="55.208262959495187" lon="-2.103925002738833">
        <ele>264.01999999999998</ele>
        <time>2023-08-16T13:32:55Z</time>
      </trkpt>
      <trkpt lat="55.20837502554059" lon="-2.104130024090409">
        <ele>263.06</ele>
        <time>2023-08-16T13:32:56Z</time>
      </trkpt>
      <trkpt lat="55.208507040515542" lon="-2.10430302657187">
        <ele>262.10000000000002</ele>
        <time>2023-08-16T13:32:57Z</time>
      </trkpt>
      <trkpt lat="55.208662021905184" lon="-2.104435963556171">
        <ele>261.13999999999999</ele>
        <time>2023-08-16T13:32:58Z</time>
      </trkpt>
      <trkpt lat="55.208822032436728" lon="-2.104559009894729">
        <ele>260.17000000000002</ele>
        <time>2023-08-16T13:32:59Z</time>
      </trkpt>
      <trkpt lat="55.208994029089808" lon="-2.104661017656326">
        <ele>259.69</ele>
        <time>2023-08-16T13:33:00Z</time>
      </trkpt>
      <trkpt lat="55.210992023348808" lon="-2.105949986726046">
        <ele>256.81</ele>
        <time>2023-08-16T13:33:11Z</time>
      </trkpt>
      <trkpt lat="55.211150022223592" lon="-2.106131035834551">
        <ele>256.32999999999998</ele>
        <time>2023-08-16T13:33:12Z</time>
      </trkpt>
      <trkpt lat="55.211299974471331" lon="-2.106333961710334">
        <ele>255.37</ele>
        <time>2023-08-16T13:33:13Z</time>
      </trkpt>
      <trkpt lat="55.211434001103044" lon="-2.106549041345716">
        <ele>254.88999999999999</ele>
        <time>2023-08-16T13:33:14Z</time>
      </trkpt>
      <trkpt lat="55.211536008864641" lon="-2.106814999133349">
        <ele>253.93000000000001</ele>
        <time>2023-08-16T13:33:15Z</time>
      </trkpt>
      <trkpt lat="55.211640028283" lon="-2.107085986062884">
        <ele>252.96000000000001</ele>
        <time>2023-08-16T13:33:16Z</time>
      </trkpt>
      <trkpt lat="55.211737006902695" lon="-2.10735596716404">
        <ele>252</ele>
        <time>2023-08-16T13:33:17Z</time>
      </trkpt>
      <trkpt lat="55.211806995794177" lon="-2.107667019590735">
        <ele>251.03999999999999</ele>
        <time>2023-08-16T13:33:18Z</time>
      </trkpt>
      <trkpt lat="55.212259031832218" lon="-2.109600976109505">
        <ele>244.31</ele>
        <time>2023-08-16T13:33:25Z</time>
      </trkpt>
      <trkpt lat="55.212336983531713" lon="-2.109819995239377">
        <ele>243.34999999999999</ele>
        <time>2023-08-16T13:33:26Z</time>
      </trkpt>
      <trkpt lat="55.212429016828537" lon="-2.110004983842373">
        <ele>242.38999999999999</ele>
        <time>2023-08-16T13:33:27Z</time>
      </trkpt>
      <trkpt lat="55.212529012933373" lon="-2.110154014080763">
        <ele>241.43000000000001</ele>
        <time>2023-08-16T13:33:28Z</time>
      </trkpt>
      <trkpt lat="55.212645018473268" lon="-2.110270019620657">
        <ele>240.47</ele>
        <time>2023-08-16T13:33:29Z</time>
      </trkpt>
      <trkpt lat="55.2127590123564" lon="-2.110355012118816">
        <ele>239.50999999999999</ele>
        <time>2023-08-16T13:33:30Z</time>
      </trkpt>
      <trkpt lat="55.212879041209817" lon="-2.110421983525157">
        <ele>238.06</ele>
        <time>2023-08-16T13:33:31Z</time>
      </trkpt>
      <trkpt lat="55.213007032871246" lon="-2.110435981303453">
        <ele>237.09999999999999</ele>
        <time>2023-08-16T13:33:32Z</time>
      </trkpt>
      <trkpt lat="55.213142987340689" lon="-2.110446039587259">
        <ele>236.13999999999999</ele>
        <time>2023-08-16T13:33:33Z</time>
      </trkpt>
      <trkpt lat="55.213270979002118" lon="-2.11036398075521">
        <ele>234.69999999999999</ele>
        <time>2023-08-16T13:33:34Z</time>
      </trkpt>
      <trkpt lat="55.213409028947353" lon="-2.11025501601398">
        <ele>233.74000000000001</ele>
        <time>2023-08-16T13:33:35Z</time>
      </trkpt>
      <trkpt lat="55.21355303004384" lon="-2.110141022130847">
        <ele>231.81</ele>
        <time>2023-08-16T13:33:36Z</time>
      </trkpt>
      <trkpt lat="55.213701976463199" lon="-2.110023004934192">
        <ele>230.84999999999999</ele>
        <time>2023-08-16T13:33:37Z</time>
      </trkpt>
      <trkpt lat="55.214747032150626" lon="-2.108983984217048">
        <ele>220.28</ele>
        <time>2023-08-16T13:33:44Z</time>
      </trkpt>
      <trkpt lat="55.214897990226746" lon="-2.108905026689172">
        <ele>219.31999999999999</ele>
        <time>2023-08-16T13:33:45Z</time>
      </trkpt>
      <trkpt lat="55.21505800075829" lon="-2.108864961192012">
        <ele>217.88</ele>
        <time>2023-08-16T13:33:46Z</time>
      </trkpt>
      <trkpt lat="55.215205019339919" lon="-2.108850963413715">
        <ele>217.40000000000001</ele>
        <time>2023-08-16T13:33:47Z</time>
      </trkpt>
      <trkpt lat="55.215356983244419" lon="-2.108893962576985">
        <ele>216.43000000000001</ele>
        <time>2023-08-16T13:33:48Z</time>
      </trkpt>
      <trkpt lat="55.215496039018035" lon="-2.108953977003694">
        <ele>215.47</ele>
        <time>2023-08-16T13:33:49Z</time>
      </trkpt>
      <trkpt lat="55.215634005144238" lon="-2.109075011685491">
        <ele>214.03</ele>
        <time>2023-08-16T13:33:50Z</time>
      </trkpt>
      <trkpt lat="55.215741964057088" lon="-2.109244996681809">
        <ele>213.06999999999999</ele>
        <time>2023-08-16T13:33:51Z</time>
      </trkpt>
      <trkpt lat="55.215835003182292" lon="-2.109456975013018">
        <ele>211.63</ele>
        <time>2023-08-16T13:33:52Z</time>
      </trkpt>
      <trkpt lat="55.215913960710168" lon="-2.109682029113174">
        <ele>210.19</ele>
        <time>2023-08-16T13:33:53Z</time>
      </trkpt>
      <trkpt lat="55.215947991237044" lon="-2.109951004385948">
        <ele>208.74000000000001</ele>
        <time>2023-08-16T13:33:54Z</time>
      </trkpt>
      <trkpt lat="55.215967018157244" lon="-2.110228026285768">
        <ele>207.30000000000001</ele>
        <time>2023-08-16T13:33:55Z</time>
      </trkpt>
      <trkpt lat="55.215986967086792" lon="-2.110520973801613">
        <ele>206.34</ele>
        <time>2023-08-16T13:33:56Z</time>
      </trkpt>
      <trkpt lat="55.215984033420682" lon="-2.113150041550398">
        <ele>198.65000000000001</ele>
        <time>2023-08-16T13:34:04Z</time>
      </trkpt>
      <trkpt lat="55.216010017320514" lon="-2.113453969359398">
        <ele>197.69</ele>
        <time>2023-08-16T13:34:05Z</time>
      </trkpt>
      <trkpt lat="55.216053016483784" lon="-2.113741971552372">
        <ele>196.72999999999999</ele>
        <time>2023-08-16T13:34:06Z</time>
      </trkpt>
      <trkpt lat="55.216681994497776" lon="-2.116135004907847">
        <ele>192.40000000000001</ele>
        <time>2023-08-16T13:34:15Z</time>
      </trkpt>
      <trkpt lat="55.217164037749171" lon="-2.118608001619577">
        <ele>191.91999999999999</ele>
        <time>2023-08-16T13:34:24Z</time>
      </trkpt>
      <trkpt lat="55.217539966106415" lon="-2.121537979692221">
        <ele>190.47999999999999</ele>
        <time>2023-08-16T13:34:33Z</time>
      </trkpt>
      <trkpt lat="55.217707017436624" lon="-2.125431038439274">
        <ele>187.11000000000001</ele>
        <time>2023-08-16T13:34:43Z</time>
      </trkpt>
      <trkpt lat="55.21808504126966" lon="-2.130398992449045">
        <ele>187.11000000000001</ele>
        <time>2023-08-16T13:34:55Z</time>
      </trkpt>
      <trkpt lat="55.218905964866281" lon="-2.134075965732336">
        <ele>183.75</ele>
        <time>2023-08-16T13:35:04Z</time>
      </trkpt>
      <trkpt lat="55.219836020842195" lon="-2.136474028229713">
        <ele>177.02000000000001</ele>
        <time>2023-08-16T13:35:12Z</time>
      </trkpt>
      <trkpt lat="55.221236972138286" lon="-2.138537988066673">
        <ele>167.41</ele>
        <time>2023-08-16T13:35:20Z</time>
      </trkpt>
      <trkpt lat="55.223648026585579" lon="-2.141943974420428">
        <ele>155.87</ele>
        <time>2023-08-16T13:35:32Z</time>
      </trkpt>
      <trkpt lat="55.224355040118098" lon="-2.143757985904813">
        <ele>153.94999999999999</ele>
        <time>2023-08-16T13:35:37Z</time>
      </trkpt>
      <trkpt lat="55.224458975717425" lon="-2.144153025001288">
        <ele>153.47</ele>
        <time>2023-08-16T13:35:38Z</time>
      </trkpt>
      <trkpt lat="55.224528964608908" lon="-2.144575975835323">
        <ele>153.47</ele>
        <time>2023-08-16T13:35:39Z</time>
      </trkpt>
      <trkpt lat="55.224581016227603" lon="-2.145005967468023">
        <ele>153.47</ele>
        <time>2023-08-16T13:35:40Z</time>
      </trkpt>
      <trkpt lat="55.224617980420589" lon="-2.145442999899387">
        <ele>153.47</ele>
        <time>2023-08-16T13:35:41Z</time>
      </trkpt>
      <trkpt lat="55.225161965936422" lon="-2.151536978781223">
        <ele>167.88999999999999</ele>
        <time>2023-08-16T13:35:55Z</time>
      </trkpt>
      <trkpt lat="55.2254359703511" lon="-2.154494030401111">
        <ele>178.94</ele>
        <time>2023-08-16T13:36:04Z</time>
      </trkpt>
      <trkpt lat="55.225534038618207" lon="-2.155180005356669">
        <ele>181.83000000000001</ele>
        <time>2023-08-16T13:36:07Z</time>
      </trkpt>
      <trkpt lat="55.225559016689658" lon="-2.155359964817762">
        <ele>182.31</ele>
        <time>2023-08-16T13:36:08Z</time>
      </trkpt>
      <trkpt lat="55.225609978660941" lon="-2.155473958700895">
        <ele>183.27000000000001</ele>
        <time>2023-08-16T13:36:09Z</time>
      </trkpt>
      <trkpt lat="55.225684996694326" lon="-2.155564986169338">
        <ele>184.22999999999999</ele>
        <time>2023-08-16T13:36:10Z</time>
      </trkpt>
      <trkpt lat="55.225763032212853" lon="-2.155660036951304">
        <ele>185.19</ele>
        <time>2023-08-16T13:36:11Z</time>
      </trkpt>
      <trkpt lat="55.225866967812181" lon="-2.155726002529264">
        <ele>185.66999999999999</ele>
        <time>2023-08-16T13:36:12Z</time>
      </trkpt>
      <trkpt lat="55.226802974939346" lon="-2.156388005241752">
        <ele>190.47999999999999</ele>
        <time>2023-08-16T13:36:19Z</time>
      </trkpt>
      <trkpt lat="55.227103969082236" lon="-2.156616998836398">
        <ele>190.47999999999999</ele>
        <time>2023-08-16T13:36:21Z</time>
      </trkpt>
      <trkpt lat="55.227202959358692" lon="-2.156822020187974">
        <ele>190</ele>
        <time>2023-08-16T13:36:22Z</time>
      </trkpt>
      <trkpt lat="55.227303961291909" lon="-2.157042967155576">
        <ele>190</ele>
        <time>2023-08-16T13:36:23Z</time>
      </trkpt>
      <trkpt lat="55.228255977854133" lon="-2.159384032711387">
        <ele>187.59</ele>
        <time>2023-08-16T13:36:32Z</time>
      </trkpt>
      <trkpt lat="55.228524031117558" lon="-2.160136979073286">
        <ele>187.59</ele>
        <time>2023-08-16T13:36:35Z</time>
      </trkpt>
      <trkpt lat="55.228551020845771" lon="-2.160408971831203">
        <ele>187.59</ele>
        <time>2023-08-16T13:36:36Z</time>
      </trkpt>
      <trkpt lat="55.228551020845771" lon="-2.160698985680938">
        <ele>187.59</ele>
        <time>2023-08-16T13:36:37Z</time>
      </trkpt>
      <trkpt lat="55.228694016113877" lon="-2.163556963205338">
        <ele>189.52000000000001</ele>
        <time>2023-08-16T13:36:46Z</time>
      </trkpt>
      <trkpt lat="55.229094000533223" lon="-2.166578974574804">
        <ele>185.19</ele>
        <time>2023-08-16T13:36:55Z</time>
      </trkpt>
      <trkpt lat="55.22949599660933" lon="-2.169334022328258">
        <ele>179.90000000000001</ele>
        <time>2023-08-16T13:37:03Z</time>
      </trkpt>
      <trkpt lat="55.229915007948875" lon="-2.1717269718647">
        <ele>173.16999999999999</ele>
        <time>2023-08-16T13:37:12Z</time>
      </trkpt>
      <trkpt lat="55.230444995686412" lon="-2.173627987504005">
        <ele>165</ele>
        <time>2023-08-16T13:37:20Z</time>
      </trkpt>
      <trkpt lat="55.231051007285714" lon="-2.175533026456833">
        <ele>160.68000000000001</ele>
        <time>2023-08-16T13:37:31Z</time>
      </trkpt>
      <trkpt lat="55.231306990608573" lon="-2.176554026082158">
        <ele>160.19999999999999</ele>
        <time>2023-08-16T13:37:38Z</time>
      </trkpt>
      <trkpt lat="55.231458032503724" lon="-2.177996970713139">
        <ele>158.75</ele>
        <time>2023-08-16T13:37:47Z</time>
      </trkpt>
      <trkpt lat="55.231534978374839" lon="-2.178517989814282">
        <ele>156.83000000000001</ele>
        <time>2023-08-16T13:37:50Z</time>
      </trkpt>
      <trkpt lat="55.231560040265322" lon="-2.1786879748106">
        <ele>156.34999999999999</ele>
        <time>2023-08-16T13:37:51Z</time>
      </trkpt>
      <trkpt lat="55.231886012479663" lon="-2.180500980466604">
        <ele>153.47</ele>
        <time>2023-08-16T13:38:00Z</time>
      </trkpt>
      <trkpt lat="55.232198992744088" lon="-2.183358035981655">
        <ele>156.34999999999999</ele>
        <time>2023-08-16T13:38:13Z</time>
      </trkpt>
      <trkpt lat="55.232429997995496" lon="-2.185674039646983">
        <ele>155.38999999999999</ele>
        <time>2023-08-16T13:38:22Z</time>
      </trkpt>
      <trkpt lat="55.232786983251572" lon="-2.188232028856874">
        <ele>153.94999999999999</ele>
        <time>2023-08-16T13:38:31Z</time>
      </trkpt>
      <trkpt lat="55.233411015942693" lon="-2.190381987020373">
        <ele>154.43000000000001</ele>
        <time>2023-08-16T13:38:39Z</time>
      </trkpt>
      <trkpt lat="55.234398990869522" lon="-2.192220976576209">
        <ele>154.43000000000001</ele>
        <time>2023-08-16T13:38:46Z</time>
      </trkpt>
      <trkpt lat="55.235859034582973" lon="-2.194894971325994">
        <ele>154.43000000000001</ele>
        <time>2023-08-16T13:38:56Z</time>
      </trkpt>
      <trkpt lat="55.237245988100767" lon="-2.198454011231661">
        <ele>157.31</ele>
        <time>2023-08-16T13:39:08Z</time>
      </trkpt>
      <trkpt lat="55.238816002383828" lon="-2.20266398973763">
        <ele>157.31</ele>
        <time>2023-08-16T13:39:22Z</time>
      </trkpt>
      <trkpt lat="55.239823004230857" lon="-2.206215988844633">
        <ele>156.83000000000001</ele>
        <time>2023-08-16T13:39:33Z</time>
      </trkpt>
      <trkpt lat="55.240571005269885" lon="-2.209254009649158">
        <ele>160.19999999999999</ele>
        <time>2023-08-16T13:39:43Z</time>
      </trkpt>
      <trkpt lat="55.240887003019452" lon="-2.210653033107519">
        <ele>160.68000000000001</ele>
        <time>2023-08-16T13:39:48Z</time>
      </trkpt>
      <trkpt lat="55.240978030487895" lon="-2.210905998945236">
        <ele>161.16</ele>
        <time>2023-08-16T13:39:49Z</time>
      </trkpt>
      <trkpt lat="55.241593010723591" lon="-2.212312985211611">
        <ele>162.59999999999999</ele>
        <time>2023-08-16T13:39:56Z</time>
      </trkpt>
      <trkpt lat="55.242270017042756" lon="-2.21349198371172">
        <ele>163.08000000000001</ele>
        <time>2023-08-16T13:40:03Z</time>
      </trkpt>
      <trkpt lat="55.2434610016644" lon="-2.215131986886263">
        <ele>161.16</ele>
        <time>2023-08-16T13:40:11Z</time>
      </trkpt>
      <trkpt lat="55.244718035683036" lon="-2.216379968449473">
        <ele>157.78999999999999</ele>
        <time>2023-08-16T13:40:18Z</time>
      </trkpt>
      <trkpt lat="55.24638301692903" lon="-2.217462994158268">
        <ele>155.87</ele>
        <time>2023-08-16T13:40:27Z</time>
      </trkpt>
      <trkpt lat="55.247782962396741" lon="-2.21813203766942">
        <ele>154.91</ele>
        <time>2023-08-16T13:40:35Z</time>
      </trkpt>
      <trkpt lat="55.249407961964607" lon="-2.218872997909784">
        <ele>163.56</ele>
        <time>2023-08-16T13:40:44Z</time>
      </trkpt>
      <trkpt lat="55.251136980950832" lon="-2.220019977539778">
        <ele>175.58000000000001</ele>
        <time>2023-08-16T13:40:54Z</time>
      </trkpt>
      <trkpt lat="55.251276036724448" lon="-2.220217036083341">
        <ele>176.53999999999999</ele>
        <time>2023-08-16T13:40:55Z</time>
      </trkpt>
      <trkpt lat="55.251403022557497" lon="-2.220396995544434">
        <ele>177.5</ele>
        <time>2023-08-16T13:40:56Z</time>
      </trkpt>
      <trkpt lat="55.251505030319095" lon="-2.220725985243917">
        <ele>178.46000000000001</ele>
        <time>2023-08-16T13:40:57Z</time>
      </trkpt>
      <trkpt lat="55.251630004495382" lon="-2.220965959131718">
        <ele>179.41999999999999</ele>
        <time>2023-08-16T13:40:58Z</time>
      </trkpt>
      <trkpt lat="55.253039002418518" lon="-2.223668033257127">
        <ele>188.56</ele>
        <time>2023-08-16T13:41:09Z</time>
      </trkpt>
      <trkpt lat="55.254233004525304" lon="-2.225893009454012">
        <ele>193.84</ele>
        <time>2023-08-16T13:41:19Z</time>
      </trkpt>
      <trkpt lat="55.255567990243435" lon="-2.228449992835522">
        <ele>195.28</ele>
        <time>2023-08-16T13:41:30Z</time>
      </trkpt>
      <trkpt lat="55.257228026166558" lon="-2.231338983401656">
        <ele>190.96000000000001</ele>
        <time>2023-08-16T13:41:43Z</time>
      </trkpt>
      <trkpt lat="55.258123967796564" lon="-2.232705987989903">
        <ele>189.03999999999999</ele>
        <time>2023-08-16T13:41:49Z</time>
      </trkpt>
      <trkpt lat="55.258283978328109" lon="-2.232950991019607">
        <ele>188.56</ele>
        <time>2023-08-16T13:41:50Z</time>
      </trkpt>
      <trkpt lat="55.259781992062926" lon="-2.235247967764735">
        <ele>187.59</ele>
        <time>2023-08-16T13:42:00Z</time>
      </trkpt>
      <trkpt lat="55.261373966932297" lon="-2.237832024693489">
        <ele>194.31999999999999</ele>
        <time>2023-08-16T13:42:11Z</time>
      </trkpt>
      <trkpt lat="55.262805009260774" lon="-2.240534014999867">
        <ele>198.16999999999999</ele>
        <time>2023-08-16T13:42:22Z</time>
      </trkpt>
      <trkpt lat="55.263771023601294" lon="-2.24275597371161">
        <ele>195.28</ele>
        <time>2023-08-16T13:42:31Z</time>
      </trkpt>
      <trkpt lat="55.264676017686725" lon="-2.244663024321199">
        <ele>190.96000000000001</ele>
        <time>2023-08-16T13:42:39Z</time>
      </trkpt>
      <trkpt lat="55.26569701731205" lon="-2.246670993044972">
        <ele>194.31999999999999</ele>
        <time>2023-08-16T13:42:48Z</time>
      </trkpt>
      <trkpt lat="55.266560018062592" lon="-2.24847000092268">
        <ele>195.77000000000001</ele>
        <time>2023-08-16T13:42:56Z</time>
      </trkpt>
      <trkpt lat="55.267211040481925" lon="-2.249770034104586">
        <ele>195.28</ele>
        <time>2023-08-16T13:43:02Z</time>
      </trkpt>
      <trkpt lat="55.267359986901283" lon="-2.24993197247386">
        <ele>194.80000000000001</ele>
        <time>2023-08-16T13:43:03Z</time>
      </trkpt>
      <trkpt lat="55.267959041520953" lon="-2.250581989064813">
        <ele>193.84</ele>
        <time>2023-08-16T13:43:07Z</time>
      </trkpt>
      <trkpt lat="55.268796980381012" lon="-2.251610029488802">
        <ele>192.88</ele>
        <time>2023-08-16T13:43:14Z</time>
      </trkpt>
      <trkpt lat="55.269788978621364" lon="-2.253293031826615">
        <ele>189.52000000000001</ele>
        <time>2023-08-16T13:43:22Z</time>
      </trkpt>
      <trkpt lat="55.2708750218153" lon="-2.255169991403818">
        <ele>184.71000000000001</ele>
        <time>2023-08-16T13:43:31Z</time>
      </trkpt>
      <trkpt lat="55.271939020603895" lon="-2.257305029779673">
        <ele>184.22999999999999</ele>
        <time>2023-08-16T13:43:40Z</time>
      </trkpt>
      <trkpt lat="55.272047985345125" lon="-2.257478032261133">
        <ele>184.71000000000001</ele>
        <time>2023-08-16T13:43:41Z</time>
      </trkpt>
      <trkpt lat="55.272867986932397" lon="-2.258323011919856">
        <ele>187.59</ele>
        <time>2023-08-16T13:43:47Z</time>
      </trkpt>
      <trkpt lat="55.272998996078968" lon="-2.258533984422684">
        <ele>187.59</ele>
        <time>2023-08-16T13:43:48Z</time>
      </trkpt>
      <trkpt lat="55.273122964426875" lon="-2.25876297801733">
        <ele>187.59</ele>
        <time>2023-08-16T13:43:49Z</time>
      </trkpt>
      <trkpt lat="55.273234024643898" lon="-2.259013010188937">
        <ele>187.59</ele>
        <time>2023-08-16T13:43:50Z</time>
      </trkpt>
      <trkpt lat="55.273341983556747" lon="-2.259259019047022">
        <ele>188.08000000000001</ele>
        <time>2023-08-16T13:43:51Z</time>
      </trkpt>
      <trkpt lat="55.273631997406483" lon="-2.260005008429289">
        <ele>189.03999999999999</ele>
        <time>2023-08-16T13:43:54Z</time>
      </trkpt>
      <trkpt lat="55.273696035146713" lon="-2.260268032550812">
        <ele>189.52000000000001</ele>
        <time>2023-08-16T13:43:55Z</time>
      </trkpt>
      <trkpt lat="55.274129966273904" lon="-2.261737966910005">
        <ele>193.84</ele>
        <time>2023-08-16T13:44:02Z</time>
      </trkpt>
      <trkpt lat="55.274728015065193" lon="-2.263312004506588">
        <ele>196.25</ele>
        <time>2023-08-16T13:44:11Z</time>
      </trkpt>
      <trkpt lat="55.27495801448822" lon="-2.264064028859139">
        <ele>193.84</ele>
        <time>2023-08-16T13:44:16Z</time>
      </trkpt>
      <trkpt lat="55.275010988116264" lon="-2.264253040775657">
        <ele>193.36000000000001</ele>
        <time>2023-08-16T13:44:17Z</time>
      </trkpt>
      <trkpt lat="55.275577018037438" lon="-2.266425965353847">
        <ele>189.03999999999999</ele>
        <time>2023-08-16T13:44:29Z</time>
      </trkpt>
      <trkpt lat="55.276129972189665" lon="-2.268291022628546">
        <ele>187.11000000000001</ele>
        <time>2023-08-16T13:44:39Z</time>
      </trkpt>
      <trkpt lat="55.276732966303825" lon="-2.270297985523939">
        <ele>187.11000000000001</ele>
        <time>2023-08-16T13:44:50Z</time>
      </trkpt>
      <trkpt lat="55.277151977643371" lon="-2.27229698561132">
        <ele>184.71000000000001</ele>
        <time>2023-08-16T13:44:59Z</time>
      </trkpt>
      <trkpt lat="55.277226995676756" lon="-2.272548023611307">
        <ele>184.22999999999999</ele>
        <time>2023-08-16T13:45:00Z</time>
      </trkpt>
      <trkpt lat="55.277905007824302" lon="-2.274088030681014">
        <ele>182.31</ele>
        <time>2023-08-16T13:45:08Z</time>
      </trkpt>
      <trkpt lat="55.278981998562813" lon="-2.276278976351023">
        <ele>184.71000000000001</ele>
        <time>2023-08-16T13:45:19Z</time>
      </trkpt>
      <trkpt lat="55.280353026464581" lon="-2.27891399525106">
        <ele>188.08000000000001</ele>
        <time>2023-08-16T13:45:30Z</time>
      </trkpt>
      <trkpt lat="55.281830001622438" lon="-2.281722016632557">
        <ele>187.59</ele>
        <time>2023-08-16T13:45:40Z</time>
      </trkpt>
      <trkpt lat="55.282728960737586" lon="-2.284229965880513">
        <ele>186.63</ele>
        <time>2023-08-16T13:45:48Z</time>
      </trkpt>
      <trkpt lat="55.283817015588284" lon="-2.286849981173873">
        <ele>187.11000000000001</ele>
        <time>2023-08-16T13:45:58Z</time>
      </trkpt>
      <trkpt lat="55.285131968557835" lon="-2.289684992283583">
        <ele>188.56</ele>
        <time>2023-08-16T13:46:09Z</time>
      </trkpt>
      <trkpt lat="55.286340974271297" lon="-2.292043995112181">
        <ele>190</ele>
        <time>2023-08-16T13:46:18Z</time>
      </trkpt>
      <trkpt lat="55.287750978022814" lon="-2.294796025380492">
        <ele>191.91999999999999</ele>
        <time>2023-08-16T13:46:29Z</time>
      </trkpt>
      <trkpt lat="55.288666030392051" lon="-2.297299029305577">
        <ele>194.80000000000001</ele>
        <time>2023-08-16T13:46:38Z</time>
      </trkpt>
      <trkpt lat="55.289473040029407" lon="-2.300401004031301">
        <ele>207.30000000000001</ele>
        <time>2023-08-16T13:46:49Z</time>
      </trkpt>
      <trkpt lat="55.290643991902471" lon="-2.30385803617537">
        <ele>216.43000000000001</ele>
        <time>2023-08-16T13:47:02Z</time>
      </trkpt>
      <trkpt lat="55.291413031518459" lon="-2.306129029020667">
        <ele>222.19999999999999</ele>
        <time>2023-08-16T13:47:11Z</time>
      </trkpt>
      <trkpt lat="55.292235966771841" lon="-2.308883992955089">
        <ele>229.41</ele>
        <time>2023-08-16T13:47:22Z</time>
      </trkpt>
      <trkpt lat="55.292772995308042" lon="-2.311998037621379">
        <ele>239.50999999999999</ele>
        <time>2023-08-16T13:47:33Z</time>
      </trkpt>
      <trkpt lat="55.293099973350763" lon="-2.314200969412923">
        <ele>245.75</ele>
        <time>2023-08-16T13:47:39Z</time>
      </trkpt>
      <trkpt lat="55.293528959155083" lon="-2.316368026658893">
        <ele>250.56</ele>
        <time>2023-08-16T13:47:46Z</time>
      </trkpt>
      <trkpt lat="55.294321971014142" lon="-2.320315986871719">
        <ele>256.81</ele>
        <time>2023-08-16T13:47:56Z</time>
      </trkpt>
      <trkpt lat="55.295072989538312" lon="-2.32405498623848">
        <ele>263.54000000000002</ele>
        <time>2023-08-16T13:48:05Z</time>
      </trkpt>
      <trkpt lat="55.295559978112578" lon="-2.326498981565237">
        <ele>267.86000000000001</ele>
        <time>2023-08-16T13:48:12Z</time>
      </trkpt>
      <trkpt lat="55.296136988326907" lon="-2.329402975738049">
        <ele>271.23000000000002</ele>
        <time>2023-08-16T13:48:21Z</time>
      </trkpt>
      <trkpt lat="55.296813994646072" lon="-2.332895966246724">
        <ele>262.57999999999998</ele>
        <time>2023-08-16T13:48:30Z</time>
      </trkpt>
      <trkpt lat="55.297428974881768" lon="-2.336027026176453">
        <ele>252.47999999999999</ele>
        <time>2023-08-16T13:48:38Z</time>
      </trkpt>
      <trkpt lat="55.298111010342836" lon="-2.33812702819705">
        <ele>248.63999999999999</ele>
        <time>2023-08-16T13:48:44Z</time>
      </trkpt>
      <trkpt lat="55.298271020874381" lon="-2.33838401734829">
        <ele>247.68000000000001</ele>
        <time>2023-08-16T13:48:45Z</time>
      </trkpt>
      <trkpt lat="55.298432037234306" lon="-2.33862298540771">
        <ele>246.72</ele>
        <time>2023-08-16T13:48:46Z</time>
      </trkpt>
      <trkpt lat="55.300114033743739" lon="-2.340240022167563">
        <ele>239.50999999999999</ele>
        <time>2023-08-16T13:48:54Z</time>
      </trkpt>
      <trkpt lat="55.300577972084284" lon="-2.340642018243671">
        <ele>237.58000000000001</ele>
        <time>2023-08-16T13:48:56Z</time>
      </trkpt>
      <trkpt lat="55.302407993003726" lon="-2.342557031661272">
        <ele>232.30000000000001</ele>
        <time>2023-08-16T13:49:05Z</time>
      </trkpt>
      <trkpt lat="55.302633969113231" lon="-2.342687034979463">
        <ele>230.84999999999999</ele>
        <time>2023-08-16T13:49:06Z</time>
      </trkpt>
      <trkpt lat="55.304570021107793" lon="-2.343973992392421">
        <ele>215.94999999999999</ele>
        <time>2023-08-16T13:49:15Z</time>
      </trkpt>
      <trkpt lat="55.306179011240602" lon="-2.345808958634734">
        <ele>204.90000000000001</ele>
        <time>2023-08-16T13:49:23Z</time>
      </trkpt>
      <trkpt lat="55.307393968105316" lon="-2.347716009244323">
        <ele>196.25</ele>
        <time>2023-08-16T13:49:30Z</time>
      </trkpt>
      <trkpt lat="55.308512030169368" lon="-2.35088998451829">
        <ele>191.44</ele>
        <time>2023-08-16T13:49:40Z</time>
      </trkpt>
      <trkpt lat="55.309782978147268" lon="-2.35344797372818">
        <ele>190</ele>
        <time>2023-08-16T13:49:48Z</time>
      </trkpt>
      <trkpt lat="55.311562959104776" lon="-2.356513990089297">
        <ele>194.80000000000001</ele>
        <time>2023-08-16T13:49:58Z</time>
      </trkpt>
      <trkpt lat="55.313366996124387" lon="-2.359715960919857">
        <ele>202.49000000000001</ele>
        <time>2023-08-16T13:50:09Z</time>
      </trkpt>
      <trkpt lat="55.314550017938018" lon="-2.361898021772504">
        <ele>206.34</ele>
        <time>2023-08-16T13:50:17Z</time>
      </trkpt>
      <trkpt lat="55.315834963694215" lon="-2.364341011270881">
        <ele>211.15000000000001</ele>
        <time>2023-08-16T13:50:26Z</time>
      </trkpt>
      <trkpt lat="55.317152012139559" lon="-2.36728498712182">
        <ele>216.43000000000001</ele>
        <time>2023-08-16T13:50:35Z</time>
      </trkpt>
      <trkpt lat="55.318218022584915" lon="-2.370401965454221">
        <ele>217.88</ele>
        <time>2023-08-16T13:50:43Z</time>
      </trkpt>
      <trkpt lat="55.31893702223897" lon="-2.372926007956266">
        <ele>218.84</ele>
        <time>2023-08-16T13:50:50Z</time>
      </trkpt>
      <trkpt lat="55.319849979132414" lon="-2.375645013526082">
        <ele>223.16</ele>
        <time>2023-08-16T13:50:58Z</time>
      </trkpt>
      <trkpt lat="55.321116987615824" lon="-2.379715014249086">
        <ele>233.74000000000001</ele>
        <time>2023-08-16T13:51:09Z</time>
      </trkpt>
      <trkpt lat="55.321500962600112" lon="-2.383358962833881">
        <ele>235.66</ele>
        <time>2023-08-16T13:51:17Z</time>
      </trkpt>
      <trkpt lat="55.3218590375036" lon="-2.387188989669085">
        <ele>229.88999999999999</ele>
        <time>2023-08-16T13:51:26Z</time>
      </trkpt>
      <trkpt lat="55.322517016902566" lon="-2.392188040539622">
        <ele>244.31</ele>
        <time>2023-08-16T13:51:38Z</time>
      </trkpt>
      <trkpt lat="55.323136020451784" lon="-2.395387999713421">
        <ele>251.52000000000001</ele>
        <time>2023-08-16T13:51:46Z</time>
      </trkpt>
      <trkpt lat="55.323478002101183" lon="-2.398239020258188">
        <ele>252</ele>
        <time>2023-08-16T13:51:53Z</time>
      </trkpt>
      <trkpt lat="55.323500968515873" lon="-2.401427999138832">
        <ele>252.47999999999999</ele>
        <time>2023-08-16T13:52:01Z</time>
      </trkpt>
      <trkpt lat="55.323521001264453" lon="-2.404411034658551">
        <ele>252</ele>
        <time>2023-08-16T13:52:08Z</time>
      </trkpt>
      <trkpt lat="55.323746977373958" lon="-2.407427011057735">
        <ele>252.47999999999999</ele>
        <time>2023-08-16T13:52:15Z</time>
      </trkpt>
      <trkpt lat="55.324318036437035" lon="-2.411166010424495">
        <ele>252.47999999999999</ele>
        <time>2023-08-16T13:52:24Z</time>
      </trkpt>
      <trkpt lat="55.324900997802615" lon="-2.414879025891423">
        <ele>252.96000000000001</ele>
        <time>2023-08-16T13:52:33Z</time>
      </trkpt>
      <trkpt lat="55.325228981673717" lon="-2.416524980217218">
        <ele>254.41</ele>
        <time>2023-08-16T13:52:37Z</time>
      </trkpt>
      <trkpt lat="55.325353033840656" lon="-2.416898980736733">
        <ele>254.88999999999999</ele>
        <time>2023-08-16T13:52:38Z</time>
      </trkpt>
      <trkpt lat="55.325503991916776" lon="-2.417239034548402">
        <ele>255.37</ele>
        <time>2023-08-16T13:52:39Z</time>
      </trkpt>
      <trkpt lat="55.326602021232247" lon="-2.419335013255477">
        <ele>260.64999999999998</ele>
        <time>2023-08-16T13:52:46Z</time>
      </trkpt>
      <trkpt lat="55.32671601511538" lon="-2.419608011841774">
        <ele>261.13999999999999</ele>
        <time>2023-08-16T13:52:47Z</time>
      </trkpt>
      <trkpt lat="55.32759896479547" lon="-2.421997021883726">
        <ele>262.10000000000002</ele>
        <time>2023-08-16T13:52:55Z</time>
      </trkpt>
      <trkpt lat="55.328425001353025" lon="-2.424485022202134">
        <ele>260.17000000000002</ele>
        <time>2023-08-16T13:53:03Z</time>
      </trkpt>
      <trkpt lat="55.328486021608114" lon="-2.424810994416475">
        <ele>260.17000000000002</ele>
        <time>2023-08-16T13:53:04Z</time>
      </trkpt>
      <trkpt lat="55.328960018232465" lon="-2.428126037120819">
        <ele>261.62</ele>
        <time>2023-08-16T13:53:13Z</time>
      </trkpt>
      <trkpt lat="55.329757975414395" lon="-2.431102031841874">
        <ele>264.98000000000002</ele>
        <time>2023-08-16T13:53:21Z</time>
      </trkpt>
      <trkpt lat="55.330704040825367" lon="-2.433803016319871">
        <ele>267.86000000000001</ele>
        <time>2023-08-16T13:53:29Z</time>
      </trkpt>
      <trkpt lat="55.331742977723479" lon="-2.437730021774769">
        <ele>269.79000000000002</ele>
        <time>2023-08-16T13:53:40Z</time>
      </trkpt>
      <trkpt lat="55.333301005885005" lon="-2.441173978149891">
        <ele>276.51999999999998</ele>
        <time>2023-08-16T13:53:51Z</time>
      </trkpt>
      <trkpt lat="55.334831960499287" lon="-2.444205963984132">
        <ele>282.27999999999997</ele>
        <time>2023-08-16T13:54:01Z</time>
      </trkpt>
      <trkpt lat="55.335843991488218" lon="-2.447007028385997">
        <ele>285.17000000000002</ele>
        <time>2023-08-16T13:54:09Z</time>
      </trkpt>
      <trkpt lat="55.336951995268464" lon="-2.450785003602505">
        <ele>289.00999999999999</ele>
        <time>2023-08-16T13:54:19Z</time>
      </trkpt>
      <trkpt lat="55.337691027671099" lon="-2.452700017020106">
        <ele>289.00999999999999</ele>
        <time>2023-08-16T13:54:25Z</time>
      </trkpt>
      <trkpt lat="55.338007025420666" lon="-2.453684974461794">
        <ele>287.08999999999997</ele>
        <time>2023-08-16T13:54:28Z</time>
      </trkpt>
      <trkpt lat="55.338058993220329" lon="-2.454049000516534">
        <ele>286.13</ele>
        <time>2023-08-16T13:54:29Z</time>
      </trkpt>
      <trkpt lat="55.338100986555219" lon="-2.45442601852119">
        <ele>285.64999999999998</ele>
        <time>2023-08-16T13:54:30Z</time>
      </trkpt>
      <trkpt lat="55.338134011253715" lon="-2.454807981848717">
        <ele>286.13</ele>
        <time>2023-08-16T13:54:31Z</time>
      </trkpt>
      <trkpt lat="55.338124958798289" lon="-2.455195980146527">
        <ele>286.13</ele>
        <time>2023-08-16T13:54:32Z</time>
      </trkpt>
      <trkpt lat="55.338114984333515" lon="-2.455590013414621">
        <ele>286.61000000000001</ele>
        <time>2023-08-16T13:54:33Z</time>
      </trkpt>
      <trkpt lat="55.338144991546869" lon="-2.458389988169074">
        <ele>293.33999999999997</ele>
        <time>2023-08-16T13:54:40Z</time>
      </trkpt>
      <trkpt lat="55.33836199901998" lon="-2.459514001384378">
        <ele>297.18000000000001</ele>
        <time>2023-08-16T13:54:43Z</time>
      </trkpt>
      <trkpt lat="55.338455038145185" lon="-2.459877021610737">
        <ele>299.11000000000001</ele>
        <time>2023-08-16T13:54:44Z</time>
      </trkpt>
      <trkpt lat="55.338589986786246" lon="-2.460193019360304">
        <ele>300.55000000000001</ele>
        <time>2023-08-16T13:54:45Z</time>
      </trkpt>
      <trkpt lat="55.33872895874083" lon="-2.460514968261123">
        <ele>301.99000000000001</ele>
        <time>2023-08-16T13:54:46Z</time>
      </trkpt>
      <trkpt lat="55.338869020342827" lon="-2.460837000980973">
        <ele>303.43000000000001</ele>
        <time>2023-08-16T13:54:47Z</time>
      </trkpt>
      <trkpt lat="55.339044034481049" lon="-2.461104970425367">
        <ele>304.88</ele>
        <time>2023-08-16T13:54:48Z</time>
      </trkpt>
      <trkpt lat="55.339218964800239" lon="-2.461373023688793">
        <ele>306.31999999999999</ele>
        <time>2023-08-16T13:54:49Z</time>
      </trkpt>
      <trkpt lat="55.340629974380136" lon="-2.462926022708416">
        <ele>316.41000000000003</ele>
        <time>2023-08-16T13:54:56Z</time>
      </trkpt>
      <trkpt lat="55.343425003811717" lon="-2.464796025305986">
        <ele>334.19999999999999</ele>
        <time>2023-08-16T13:55:08Z</time>
      </trkpt>
      <trkpt lat="55.343856001272798" lon="-2.46501998975873">
        <ele>337.07999999999998</ele>
        <time>2023-08-16T13:55:10Z</time>
      </trkpt>
      <trkpt lat="55.344078959897161" lon="-2.465033987537026">
        <ele>338.51999999999998</ele>
        <time>2023-08-16T13:55:11Z</time>
      </trkpt>
      <trkpt lat="55.344295967370272" lon="-2.465048991143704">
        <ele>339.48000000000002</ele>
        <time>2023-08-16T13:55:12Z</time>
      </trkpt>
      <trkpt lat="55.344521021470428" lon="-2.465009009465575">
        <ele>340.92000000000002</ele>
        <time>2023-08-16T13:55:13Z</time>
      </trkpt>
      <trkpt lat="55.344732999801636" lon="-2.464905995875597">
        <ele>341.88999999999999</ele>
        <time>2023-08-16T13:55:14Z</time>
      </trkpt>
      <trkpt lat="55.344951013103127" lon="-2.464799964800477">
        <ele>342.85000000000002</ele>
        <time>2023-08-16T13:55:15Z</time>
      </trkpt>
      <trkpt lat="55.346235036849976" lon="-2.464192025363445">
        <ele>348.62</ele>
        <time>2023-08-16T13:55:21Z</time>
      </trkpt>
      <trkpt lat="55.346426982432604" lon="-2.464164029806852">
        <ele>349.57999999999998</ele>
        <time>2023-08-16T13:55:22Z</time>
      </trkpt>
      <trkpt lat="55.346614988520741" lon="-2.464180961251259">
        <ele>350.54000000000002</ele>
        <time>2023-08-16T13:55:23Z</time>
      </trkpt>
      <trkpt lat="55.346802994608879" lon="-2.464215997606516">
        <ele>351.98000000000002</ele>
        <time>2023-08-16T13:55:24Z</time>
      </trkpt>
      <trkpt lat="55.346978008747101" lon="-2.464366033673286">
        <ele>352.94</ele>
        <time>2023-08-16T13:55:25Z</time>
      </trkpt>
      <trkpt lat="55.347155034542084" lon="-2.464535012841225">
        <ele>353.89999999999998</ele>
        <time>2023-08-16T13:55:26Z</time>
      </trkpt>
      <trkpt lat="55.347326025366783" lon="-2.464726036414504">
        <ele>354.86000000000001</ele>
        <time>2023-08-16T13:55:27Z</time>
      </trkpt>
      <trkpt lat="55.347464997321367" lon="-2.464990988373756">
        <ele>356.31</ele>
        <time>2023-08-16T13:55:28Z</time>
      </trkpt>
      <trkpt lat="55.347588965669274" lon="-2.465285025537014">
        <ele>357.26999999999998</ele>
        <time>2023-08-16T13:55:29Z</time>
      </trkpt>
      <trkpt lat="55.34768401645124" lon="-2.46562197804451">
        <ele>358.70999999999998</ele>
        <time>2023-08-16T13:55:30Z</time>
      </trkpt>
      <trkpt lat="55.34777102060616" lon="-2.465983992442489">
        <ele>360.14999999999998</ele>
        <time>2023-08-16T13:55:31Z</time>
      </trkpt>
      <trkpt lat="55.347833968698978" lon="-2.466367967426777">
        <ele>361.58999999999997</ele>
        <time>2023-08-16T13:55:32Z</time>
      </trkpt>
      <trkpt lat="55.348455989733338" lon="-2.470826972275972">
        <ele>380.33999999999997</ele>
        <time>2023-08-16T13:55:43Z</time>
      </trkpt>
      <trkpt lat="55.349065018817782" lon="-2.472660010680556">
        <ele>388.99000000000001</ele>
        <time>2023-08-16T13:55:49Z</time>
      </trkpt>
      <trkpt lat="55.349954003468156" lon="-2.473833980038762">
        <ele>396.68000000000001</ele>
        <time>2023-08-16T13:55:54Z</time>
      </trkpt>
      <trkpt lat="55.351189998909831" lon="-2.474826984107494">
        <ele>404.85000000000002</ele>
        <time>2023-08-16T13:56:00Z</time>
      </trkpt>
      <trkpt lat="55.351357972249389" lon="-2.475023036822677">
        <ele>405.81</ele>
        <time>2023-08-16T13:56:01Z</time>
      </trkpt>
      <trkpt lat="55.351498033851385" lon="-2.475250018760562">
        <ele>407.25999999999999</ele>
        <time>2023-08-16T13:56:02Z</time>
      </trkpt>
      <trkpt lat="55.351600963622332" lon="-2.475545983761549">
        <ele>408.69999999999999</ele>
        <time>2023-08-16T13:56:03Z</time>
      </trkpt>
      <trkpt lat="55.351700037717819" lon="-2.475832980126143">
        <ele>409.66000000000003</ele>
        <time>2023-08-16T13:56:04Z</time>
      </trkpt>
      <trkpt lat="55.351902963593602" lon="-2.476332038640976">
        <ele>412.54000000000002</ele>
        <time>2023-08-16T13:56:06Z</time>
      </trkpt>
      <trkpt lat="55.352017041295767" lon="-2.476534964516759">
        <ele>413.98000000000002</ele>
        <time>2023-08-16T13:56:07Z</time>
      </trkpt>
      <trkpt lat="55.35215500742197" lon="-2.476680977270007">
        <ele>414.94999999999999</ele>
        <time>2023-08-16T13:56:08Z</time>
      </trkpt>
      <trkpt lat="55.352294985204935" lon="-2.476829001680017">
        <ele>416.38999999999999</ele>
        <time>2023-08-16T13:56:09Z</time>
      </trkpt>
      <trkpt lat="55.352439992129803" lon="-2.476952970027924">
        <ele>417.82999999999998</ele>
        <time>2023-08-16T13:56:10Z</time>
      </trkpt>
      <trkpt lat="55.35260796546936" lon="-2.476991023868322">
        <ele>418.79000000000002</ele>
        <time>2023-08-16T13:56:11Z</time>
      </trkpt>
      <trkpt lat="55.352781973779202" lon="-2.477031005546451">
        <ele>419.75</ele>
        <time>2023-08-16T13:56:12Z</time>
      </trkpt>
      <trkpt lat="55.35295195877552" lon="-2.477069981396198">
        <ele>421.19</ele>
        <time>2023-08-16T13:56:13Z</time>
      </trkpt>
      <trkpt lat="55.353110963478684" lon="-2.477106023579836">
        <ele>422.16000000000003</ele>
        <time>2023-08-16T13:56:14Z</time>
      </trkpt>
      <trkpt lat="55.353392008692026" lon="-2.477160003036261">
        <ele>424.56</ele>
        <time>2023-08-16T13:56:16Z</time>
      </trkpt>
      <trkpt lat="55.353512037545443" lon="-2.477181041613221">
        <ele>425.51999999999998</ele>
        <time>2023-08-16T13:56:17Z</time>
      </trkpt>
      <trkpt lat="55.353630976751447" lon="-2.477204008027911">
        <ele>426.48000000000002</ele>
        <time>2023-08-16T13:56:18Z</time>
      </trkpt>
      <trkpt lat="55.353806996718049" lon="-2.477594017982483">
        <ele>427.92000000000002</ele>
        <time>2023-08-16T13:56:20Z</time>
      </trkpt>
      <trkpt lat="55.353911016136408" lon="-2.477663001045585">
        <ele>428.39999999999998</ele>
        <time>2023-08-16T13:56:21Z</time>
      </trkpt>
    </trkseg>
  </trk>

  <trk>
    <name>Track vom: 2023-08-16 15:37</name>
    <extensions>
      <gpxx:TrackExtension>
        <gpxx:DisplayColor>DarkGray</gpxx:DisplayColor>
      </gpxx:TrackExtension>
    </extensions>
    <trkseg>
      <trkpt lat="55.354402028024197" lon="-2.478175973519683">
        <ele>426.95999999999998</ele>
        <time>2023-08-16T14:37:01Z</time>
      </trkpt>
      <trkpt lat="55.354415019974113" lon="-2.478153007104993">
        <ele>429.37</ele>
        <time>2023-08-16T14:37:45Z</time>
      </trkpt>
      <trkpt lat="55.354415019974113" lon="-2.478145966306329">
        <ele>426.95999999999998</ele>
        <time>2023-08-16T14:38:46Z</time>
      </trkpt>
      <trkpt lat="55.354413008317351" lon="-2.478144038468599">
        <ele>426.95999999999998</ele>
        <time>2023-08-16T14:39:38Z</time>
      </trkpt>
      <trkpt lat="55.354414014145732" lon="-2.478145966306329">
        <ele>426.95999999999998</ele>
        <time>2023-08-16T14:40:29Z</time>
      </trkpt>
      <trkpt lat="55.354415019974113" lon="-2.478152001276612">
        <ele>426.95999999999998</ele>
        <time>2023-08-16T14:41:23Z</time>
      </trkpt>
      <trkpt lat="55.354436980560422" lon="-2.478182008489966">
        <ele>426.95999999999998</ele>
        <time>2023-08-16T14:41:54Z</time>
      </trkpt>
      <trkpt lat="55.354634039103985" lon="-2.478584004566073">
        <ele>426</ele>
        <time>2023-08-16T14:42:01Z</time>
      </trkpt>
      <trkpt lat="55.354664968326688" lon="-2.478647036477923">
        <ele>426</ele>
        <time>2023-08-16T14:42:02Z</time>
      </trkpt>
      <trkpt lat="55.354735041037202" lon="-2.47879003174603">
        <ele>424.56</ele>
        <time>2023-08-16T14:42:04Z</time>
      </trkpt>
      <trkpt lat="55.355089008808136" lon="-2.479760991409421">
        <ele>420.23000000000002</ele>
        <time>2023-08-16T14:42:12Z</time>
      </trkpt>
      <trkpt lat="55.355108035728335" lon="-2.479820000007749">
        <ele>419.75</ele>
        <time>2023-08-16T14:42:13Z</time>
      </trkpt>
      <trkpt lat="55.355489999055862" lon="-2.480680989101529">
        <ele>414.94999999999999</ele>
        <time>2023-08-16T14:42:21Z</time>
      </trkpt>
      <trkpt lat="55.355729972943664" lon="-2.482241028919816">
        <ele>409.18000000000001</ele>
        <time>2023-08-16T14:42:27Z</time>
      </trkpt>
      <trkpt lat="55.355787975713611" lon="-2.483603004366159">
        <ele>404.37</ele>
        <time>2023-08-16T14:42:31Z</time>
      </trkpt>
      <trkpt lat="55.355752017349005" lon="-2.485403018072248">
        <ele>399.07999999999998</ele>
        <time>2023-08-16T14:42:36Z</time>
      </trkpt>
      <trkpt lat="55.355781018733978" lon="-2.485763020813465">
        <ele>398.12</ele>
        <time>2023-08-16T14:42:37Z</time>
      </trkpt>
      <trkpt lat="55.355832986533642" lon="-2.48611799441278">
        <ele>396.68000000000001</ele>
        <time>2023-08-16T14:42:38Z</time>
      </trkpt>
      <trkpt lat="55.355885960161686" lon="-2.486473973840475">
        <ele>395.72000000000003</ele>
        <time>2023-08-16T14:42:39Z</time>
      </trkpt>
      <trkpt lat="55.355945974588394" lon="-2.486818972975016">
        <ele>394.75999999999999</ele>
        <time>2023-08-16T14:42:40Z</time>
      </trkpt>
      <trkpt lat="55.356690958142281" lon="-2.489161966368556">
        <ele>386.58999999999997</ele>
        <time>2023-08-16T14:42:48Z</time>
      </trkpt>
      <trkpt lat="55.35774297080934" lon="-2.490790989249945">
        <ele>379.38</ele>
        <time>2023-08-16T14:42:55Z</time>
      </trkpt>
      <trkpt lat="55.35954600200057" lon="-2.492931978777051">
        <ele>366.88</ele>
        <time>2023-08-16T14:43:06Z</time>
      </trkpt>
      <trkpt lat="55.361119033768773" lon="-2.494834000244737">
        <ele>355.82999999999998</ele>
        <time>2023-08-16T14:43:17Z</time>
      </trkpt>
      <trkpt lat="55.361574003472924" lon="-2.495714016258717">
        <ele>351.98000000000002</ele>
        <time>2023-08-16T14:43:21Z</time>
      </trkpt>
      <trkpt lat="55.361666036769748" lon="-2.495965976268053">
        <ele>351.01999999999998</ele>
        <time>2023-08-16T14:43:22Z</time>
      </trkpt>
      <trkpt lat="55.361738037317991" lon="-2.496231012046337">
        <ele>350.06</ele>
        <time>2023-08-16T14:43:23Z</time>
      </trkpt>
      <trkpt lat="55.361786987632513" lon="-2.49651599675417">
        <ele>349.10000000000002</ele>
        <time>2023-08-16T14:43:24Z</time>
      </trkpt>
      <trkpt lat="55.361834010109305" lon="-2.496796036139131">
        <ele>348.13</ele>
        <time>2023-08-16T14:43:25Z</time>
      </trkpt>
      <trkpt lat="55.361924031749368" lon="-2.497328035533428">
        <ele>347.17000000000002</ele>
        <time>2023-08-16T14:43:27Z</time>
      </trkpt>
      <trkpt lat="55.361985974013805" lon="-2.497554011642933">
        <ele>346.20999999999998</ele>
        <time>2023-08-16T14:43:28Z</time>
      </trkpt>
      <trkpt lat="55.362085970118642" lon="-2.497718967497349">
        <ele>345.25</ele>
        <time>2023-08-16T14:43:29Z</time>
      </trkpt>
      <trkpt lat="55.362183032557368" lon="-2.497877972200513">
        <ele>344.76999999999998</ele>
        <time>2023-08-16T14:43:30Z</time>
      </trkpt>
      <trkpt lat="55.362291997298598" lon="-2.497933963313699">
        <ele>343.81</ele>
        <time>2023-08-16T14:43:31Z</time>
      </trkpt>
      <trkpt lat="55.362413031980395" lon="-2.497989032417536">
        <ele>342.85000000000002</ele>
        <time>2023-08-16T14:43:32Z</time>
      </trkpt>
      <trkpt lat="55.362524008378386" lon="-2.497936980798841">
        <ele>342.37</ele>
        <time>2023-08-16T14:43:33Z</time>
      </trkpt>
      <trkpt lat="55.362647976726294" lon="-2.497864980250597">
        <ele>341.41000000000003</ele>
        <time>2023-08-16T14:43:34Z</time>
      </trkpt>
      <trkpt lat="55.362731041386724" lon="-2.497722990810871">
        <ele>340.44</ele>
        <time>2023-08-16T14:43:35Z</time>
      </trkpt>
      <trkpt lat="55.362806981429458" lon="-2.497528027743101">
        <ele>339.48000000000002</ele>
        <time>2023-08-16T14:43:36Z</time>
      </trkpt>
      <trkpt lat="55.362878981977701" lon="-2.497331975027919">
        <ele>338.51999999999998</ele>
        <time>2023-08-16T14:43:37Z</time>
      </trkpt>
      <trkpt lat="55.362922986969352" lon="-2.497076997533441">
        <ele>337.56</ele>
        <time>2023-08-16T14:43:38Z</time>
      </trkpt>
      <trkpt lat="55.362970009446144" lon="-2.496810033917427">
        <ele>336.60000000000002</ele>
        <time>2023-08-16T14:43:39Z</time>
      </trkpt>
      <trkpt lat="55.363470995798707" lon="-2.494660997763276">
        <ele>328.43000000000001</ele>
        <time>2023-08-16T14:43:47Z</time>
      </trkpt>
      <trkpt lat="55.363539978861809" lon="-2.494436027482152">
        <ele>327.47000000000003</ele>
        <time>2023-08-16T14:43:48Z</time>
      </trkpt>
      <trkpt lat="55.363651961088181" lon="-2.494292026385665">
        <ele>326.5</ele>
        <time>2023-08-16T14:43:49Z</time>
      </trkpt>
      <trkpt lat="55.363754974678159" lon="-2.494161017239094">
        <ele>326.01999999999998</ele>
        <time>2023-08-16T14:43:50Z</time>
      </trkpt>
      <trkpt lat="55.363852037116885" lon="-2.494119023904204">
        <ele>325.06</ele>
        <time>2023-08-16T14:43:51Z</time>
      </trkpt>
      <trkpt lat="55.363954966887832" lon="-2.494099996984005">
        <ele>324.10000000000002</ele>
        <time>2023-08-16T14:43:52Z</time>
      </trkpt>
      <trkpt lat="55.364047000184655" lon="-2.49413201585412">
        <ele>323.13999999999999</ele>
        <time>2023-08-16T14:43:53Z</time>
      </trkpt>
      <trkpt lat="55.364140039309859" lon="-2.494248021394014">
        <ele>322.66000000000003</ele>
        <time>2023-08-16T14:43:54Z</time>
      </trkpt>
      <trkpt lat="55.364217991009355" lon="-2.494424041360617">
        <ele>321.69999999999999</ele>
        <time>2023-08-16T14:43:55Z</time>
      </trkpt>
      <trkpt lat="55.364266019314528" lon="-2.494660997763276">
        <ele>320.74000000000001</ele>
        <time>2023-08-16T14:43:56Z</time>
      </trkpt>
      <trkpt lat="55.364301977679133" lon="-2.49492896720767">
        <ele>320.25999999999999</ele>
        <time>2023-08-16T14:43:57Z</time>
      </trkpt>
      <trkpt lat="55.364341037347913" lon="-2.495212024077773">
        <ele>319.77999999999997</ele>
        <time>2023-08-16T14:43:58Z</time>
      </trkpt>
      <trkpt lat="55.364450002089143" lon="-2.496018027886748">
        <ele>317.85000000000002</ele>
        <time>2023-08-16T14:44:01Z</time>
      </trkpt>
      <trkpt lat="55.364482020959258" lon="-2.496250038966537">
        <ele>317.37</ele>
        <time>2023-08-16T14:44:02Z</time>
      </trkpt>
      <trkpt lat="55.36457397043705" lon="-2.496398985385895">
        <ele>316.41000000000003</ele>
        <time>2023-08-16T14:44:03Z</time>
      </trkpt>
      <trkpt lat="55.364676984027028" lon="-2.49653896316886">
        <ele>315.44999999999999</ele>
        <time>2023-08-16T14:44:04Z</time>
      </trkpt>
      <trkpt lat="55.3647889662534" lon="-2.496632002294064">
        <ele>314.49000000000001</ele>
        <time>2023-08-16T14:44:05Z</time>
      </trkpt>
      <trkpt lat="55.364926010370255" lon="-2.496696040034294">
        <ele>313.52999999999997</ele>
        <time>2023-08-16T14:44:06Z</time>
      </trkpt>
      <trkpt lat="55.365060959011316" lon="-2.496741972863674">
        <ele>312.56999999999999</ele>
        <time>2023-08-16T14:44:07Z</time>
      </trkpt>
      <trkpt lat="55.365203032270074" lon="-2.496676007285714">
        <ele>311.60000000000002</ele>
        <time>2023-08-16T14:44:08Z</time>
      </trkpt>
      <trkpt lat="55.365344015881419" lon="-2.496610041707754">
        <ele>311.12</ele>
        <time>2023-08-16T14:44:09Z</time>
      </trkpt>
      <trkpt lat="55.365463038906455" lon="-2.496471991762519">
        <ele>310.16000000000003</ele>
        <time>2023-08-16T14:44:10Z</time>
      </trkpt>
      <trkpt lat="55.365587007254362" lon="-2.496309969574213">
        <ele>309.19999999999999</ele>
        <time>2023-08-16T14:44:11Z</time>
      </trkpt>
      <trkpt lat="55.365693038329482" lon="-2.496110983192921">
        <ele>308.24000000000001</ele>
        <time>2023-08-16T14:44:12Z</time>
      </trkpt>
      <trkpt lat="55.365786999464035" lon="-2.495870003476739">
        <ele>307.27999999999997</ele>
        <time>2023-08-16T14:44:13Z</time>
      </trkpt>
      <trkpt lat="55.365869980305433" lon="-2.49561402015388">
        <ele>306.31999999999999</ele>
        <time>2023-08-16T14:44:14Z</time>
      </trkpt>
      <trkpt lat="55.365941980853677" lon="-2.495333980768919">
        <ele>304.88</ele>
        <time>2023-08-16T14:44:15Z</time>
      </trkpt>
      <trkpt lat="55.366536006331444" lon="-2.493354007601738">
        <ele>297.67000000000002</ele>
        <time>2023-08-16T14:44:22Z</time>
      </trkpt>
      <trkpt lat="55.366653017699718" lon="-2.493097018450499">
        <ele>296.22000000000003</ele>
        <time>2023-08-16T14:44:23Z</time>
      </trkpt>
      <trkpt lat="55.366795007139444" lon="-2.492867019027472">
        <ele>295.25999999999999</ele>
        <time>2023-08-16T14:44:24Z</time>
      </trkpt>
      <trkpt lat="55.367118967697024" lon="-2.492466028779745">
        <ele>293.33999999999997</ele>
        <time>2023-08-16T14:44:26Z</time>
      </trkpt>
      <trkpt lat="55.368470968678594" lon="-2.491572014987469">
        <ele>284.69</ele>
        <time>2023-08-16T14:44:33Z</time>
      </trkpt>
      <trkpt lat="55.370359998196363" lon="-2.491026017814875">
        <ele>271.70999999999998</ele>
        <time>2023-08-16T14:44:42Z</time>
      </trkpt>
      <trkpt lat="55.372869037091732" lon="-2.490910012274981">
        <ele>269.79000000000002</ele>
        <time>2023-08-16T14:44:54Z</time>
      </trkpt>
      <trkpt lat="55.374234030023217" lon="-2.491926988586783">
        <ele>271.70999999999998</ele>
        <time>2023-08-16T14:45:01Z</time>
      </trkpt>
      <trkpt lat="55.376867037266493" lon="-2.494380958378315">
        <ele>270.26999999999998</ele>
        <time>2023-08-16T14:45:14Z</time>
      </trkpt>
      <trkpt lat="55.378805017098784" lon="-2.495664982125163">
        <ele>254.88999999999999</ele>
        <time>2023-08-16T14:45:23Z</time>
      </trkpt>
      <trkpt lat="55.381198972463608" lon="-2.496526977047324">
        <ele>252.96000000000001</ele>
        <time>2023-08-16T14:45:34Z</time>
      </trkpt>
      <trkpt lat="55.383240971714258" lon="-2.49677499756217">
        <ele>253.93000000000001</ele>
        <time>2023-08-16T14:45:43Z</time>
      </trkpt>
      <trkpt lat="55.385145004838705" lon="-2.496161023154855">
        <ele>260.17000000000002</ele>
        <time>2023-08-16T14:45:52Z</time>
      </trkpt>
      <trkpt lat="55.385750010609627" lon="-2.495999000966549">
        <ele>263.06</ele>
        <time>2023-08-16T14:45:55Z</time>
      </trkpt>
      <trkpt lat="55.38595100864768" lon="-2.496023979038">
        <ele>263.54000000000002</ele>
        <time>2023-08-16T14:45:56Z</time>
      </trkpt>
      <trkpt lat="55.386160975322127" lon="-2.496050968766213">
        <ele>264.5</ele>
        <time>2023-08-16T14:45:57Z</time>
      </trkpt>
      <trkpt lat="55.386373959481716" lon="-2.496106959879398">
        <ele>265.45999999999998</ele>
        <time>2023-08-16T14:45:58Z</time>
      </trkpt>
      <trkpt lat="55.386587027460337" lon="-2.49619203619659">
        <ele>265.94</ele>
        <time>2023-08-16T14:45:59Z</time>
      </trkpt>
      <trkpt lat="55.38678701967001" lon="-2.496353974565864">
        <ele>266.42000000000002</ele>
        <time>2023-08-16T14:46:00Z</time>
      </trkpt>
      <trkpt lat="55.386992041021585" lon="-2.496520020067692">
        <ele>266.89999999999998</ele>
        <time>2023-08-16T14:46:01Z</time>
      </trkpt>
      <trkpt lat="55.38719798438251" lon="-2.496685981750488">
        <ele>267.38</ele>
        <time>2023-08-16T14:46:02Z</time>
      </trkpt>
      <trkpt lat="55.388898001983762" lon="-2.497780993580818">
        <ele>267.38</ele>
        <time>2023-08-16T14:46:10Z</time>
      </trkpt>
      <trkpt lat="55.391539977863431" lon="-2.498894026502967">
        <ele>259.69</ele>
        <time>2023-08-16T14:46:22Z</time>
      </trkpt>
      <trkpt lat="55.393135976046324" lon="-2.499078009277582">
        <ele>257.29000000000002</ele>
        <time>2023-08-16T14:46:29Z</time>
      </trkpt>
      <trkpt lat="55.395494978874922" lon="-2.498853038996458">
        <ele>259.20999999999998</ele>
        <time>2023-08-16T14:46:40Z</time>
      </trkpt>
      <trkpt lat="55.397677039727569" lon="-2.499055964872241">
        <ele>249.59999999999999</ele>
        <time>2023-08-16T14:46:50Z</time>
      </trkpt>
      <trkpt lat="55.398466028273106" lon="-2.499232990667224">
        <ele>244.78999999999999</ele>
        <time>2023-08-16T14:46:54Z</time>
      </trkpt>
      <trkpt lat="55.39864900521934" lon="-2.499350002035499">
        <ele>243.34999999999999</ele>
        <time>2023-08-16T14:46:55Z</time>
      </trkpt>
      <trkpt lat="55.400274004787207" lon="-2.500391034409404">
        <ele>231.81</ele>
        <time>2023-08-16T14:47:03Z</time>
      </trkpt>
      <trkpt lat="55.402791006490588" lon="-2.502021985128522">
        <ele>214.50999999999999</ele>
        <time>2023-08-16T14:47:15Z</time>
      </trkpt>
      <trkpt lat="55.404340988025069" lon="-2.503079026937485">
        <ele>214.03</ele>
        <time>2023-08-16T14:47:23Z</time>
      </trkpt>
      <trkpt lat="55.404508039355278" lon="-2.503280024975538">
        <ele>213.55000000000001</ele>
        <time>2023-08-16T14:47:24Z</time>
      </trkpt>
      <trkpt lat="55.404672995209694" lon="-2.50350097194314">
        <ele>213.55000000000001</ele>
        <time>2023-08-16T14:47:25Z</time>
      </trkpt>
      <trkpt lat="55.405371962115169" lon="-2.504360033199191">
        <ele>211.15000000000001</ele>
        <time>2023-08-16T14:47:29Z</time>
      </trkpt>
      <trkpt lat="55.4061249922961" lon="-2.505173999816179">
        <ele>208.25999999999999</ele>
        <time>2023-08-16T14:47:33Z</time>
      </trkpt>
      <trkpt lat="55.406723963096738" lon="-2.505822004750371">
        <ele>205.38</ele>
        <time>2023-08-16T14:47:36Z</time>
      </trkpt>
      <trkpt lat="55.406927978619933" lon="-2.50603599473834">
        <ele>204.41999999999999</ele>
        <time>2023-08-16T14:47:37Z</time>
      </trkpt>
      <trkpt lat="55.40715797804296" lon="-2.50620698556304">
        <ele>203.46000000000001</ele>
        <time>2023-08-16T14:47:38Z</time>
      </trkpt>
      <trkpt lat="55.408600000664592" lon="-2.50719403848052">
        <ele>194.31999999999999</ele>
        <time>2023-08-16T14:47:45Z</time>
      </trkpt>
      <trkpt lat="55.409611025825143" lon="-2.507660994306207">
        <ele>187.59</ele>
        <time>2023-08-16T14:47:50Z</time>
      </trkpt>
      <trkpt lat="55.411308025941253" lon="-2.507653031498194">
        <ele>174.62</ele>
        <time>2023-08-16T14:47:58Z</time>
      </trkpt>
      <trkpt lat="55.413334015756845" lon="-2.507782028988004">
        <ele>160.19999999999999</ele>
        <time>2023-08-16T14:48:07Z</time>
      </trkpt>
      <trkpt lat="55.415322035551071" lon="-2.508332971483469">
        <ele>150.09999999999999</ele>
        <time>2023-08-16T14:48:16Z</time>
      </trkpt>
      <trkpt lat="55.416823988780379" lon="-2.509442986920476">
        <ele>148.18000000000001</ele>
        <time>2023-08-16T14:48:23Z</time>
      </trkpt>
      <trkpt lat="55.418294006958604" lon="-2.511270996183157">
        <ele>148.66</ele>
        <time>2023-08-16T14:48:30Z</time>
      </trkpt>
      <trkpt lat="55.419436041265726" lon="-2.513206964358687">
        <ele>151.53999999999999</ele>
        <time>2023-08-16T14:48:37Z</time>
      </trkpt>
      <trkpt lat="55.419680960476398" lon="-2.513735024258494">
        <ele>152.03</ele>
        <time>2023-08-16T14:48:39Z</time>
      </trkpt>
      <trkpt lat="55.419780034571886" lon="-2.514020008966327">
        <ele>152.03</ele>
        <time>2023-08-16T14:48:40Z</time>
      </trkpt>
      <trkpt lat="55.419856980443001" lon="-2.51432997174561">
        <ele>152.03</ele>
        <time>2023-08-16T14:48:41Z</time>
      </trkpt>
      <trkpt lat="55.419926969334483" lon="-2.514643035829067">
        <ele>152.03</ele>
        <time>2023-08-16T14:48:42Z</time>
      </trkpt>
      <trkpt lat="55.419952031224966" lon="-2.514968002215028">
        <ele>152.50999999999999</ele>
        <time>2023-08-16T14:48:43Z</time>
      </trkpt>
      <trkpt lat="55.419972985982895" lon="-2.515280982479453">
        <ele>152.03</ele>
        <time>2023-08-16T14:48:44Z</time>
      </trkpt>
      <trkpt lat="55.419993018731475" lon="-2.515582982450724">
        <ele>151.53999999999999</ele>
        <time>2023-08-16T14:48:45Z</time>
      </trkpt>
      <trkpt lat="55.419969968497753" lon="-2.515882970765233">
        <ele>151.06</ele>
        <time>2023-08-16T14:48:46Z</time>
      </trkpt>
      <trkpt lat="55.419931998476386" lon="-2.516234004870057">
        <ele>150.58000000000001</ele>
        <time>2023-08-16T14:48:47Z</time>
      </trkpt>
      <trkpt lat="55.41987500153482" lon="-2.516493005678058">
        <ele>149.62</ele>
        <time>2023-08-16T14:48:48Z</time>
      </trkpt>
      <trkpt lat="55.419806018471718" lon="-2.516804980114102">
        <ele>149.13999999999999</ele>
        <time>2023-08-16T14:48:49Z</time>
      </trkpt>
      <trkpt lat="55.419662017375231" lon="-2.517458014190197">
        <ele>147.69999999999999</ele>
        <time>2023-08-16T14:48:51Z</time>
      </trkpt>
      <trkpt lat="55.419586999341846" lon="-2.517794966697693">
        <ele>147.22</ele>
        <time>2023-08-16T14:48:52Z</time>
      </trkpt>
      <trkpt lat="55.419573001563549" lon="-2.518123034387827">
        <ele>146.74000000000001</ele>
        <time>2023-08-16T14:48:53Z</time>
      </trkpt>
      <trkpt lat="55.419580964371562" lon="-2.518460992723703">
        <ele>146.74000000000001</ele>
        <time>2023-08-16T14:48:54Z</time>
      </trkpt>
      <trkpt lat="55.419589010998607" lon="-2.518785037100315">
        <ele>147.22</ele>
        <time>2023-08-16T14:48:55Z</time>
      </trkpt>
      <trkpt lat="55.419666962698102" lon="-2.519053006544709">
        <ele>147.22</ele>
        <time>2023-08-16T14:48:56Z</time>
      </trkpt>
      <trkpt lat="55.419751033186913" lon="-2.519338997080922">
        <ele>147.69999999999999</ele>
        <time>2023-08-16T14:48:57Z</time>
      </trkpt>
      <trkpt lat="55.41985304094851" lon="-2.519615013152361">
        <ele>148.18000000000001</ele>
        <time>2023-08-16T14:48:58Z</time>
      </trkpt>
      <trkpt lat="55.41998203843832" lon="-2.519868984818459">
        <ele>148.66</ele>
        <time>2023-08-16T14:48:59Z</time>
      </trkpt>
      <trkpt lat="55.421205963939428" lon="-2.522400990128517">
        <ele>153.94999999999999</ele>
        <time>2023-08-16T14:49:08Z</time>
      </trkpt>
      <trkpt lat="55.421305960044265" lon="-2.522683041170239">
        <ele>154.43000000000001</ele>
        <time>2023-08-16T14:49:09Z</time>
      </trkpt>
      <trkpt lat="55.421391036361456" lon="-2.522950004786253">
        <ele>154.91</ele>
        <time>2023-08-16T14:49:10Z</time>
      </trkpt>
      <trkpt lat="55.421455996111035" lon="-2.523297015577555">
        <ele>155.38999999999999</ele>
        <time>2023-08-16T14:49:11Z</time>
      </trkpt>
      <trkpt lat="55.421516010537744" lon="-2.523622987791896">
        <ele>155.87</ele>
        <time>2023-08-16T14:49:12Z</time>
      </trkpt>
      <trkpt lat="55.422110036015511" lon="-2.526588002219796">
        <ele>154.43000000000001</ele>
        <time>2023-08-16T14:49:20Z</time>
      </trkpt>
      <trkpt lat="55.422186981886625" lon="-2.526943981647492">
        <ele>153.47</ele>
        <time>2023-08-16T14:49:21Z</time>
      </trkpt>
      <trkpt lat="55.422279015183449" lon="-2.527270037680864">
        <ele>152.99000000000001</ele>
        <time>2023-08-16T14:49:22Z</time>
      </trkpt>
      <trkpt lat="55.422390997409821" lon="-2.527568014338613">
        <ele>152.99000000000001</ele>
        <time>2023-08-16T14:49:23Z</time>
      </trkpt>
      <trkpt lat="55.422507002949715" lon="-2.527856016531587">
        <ele>152.50999999999999</ele>
        <time>2023-08-16T14:49:24Z</time>
      </trkpt>
      <trkpt lat="55.422648992389441" lon="-2.528089033439755">
        <ele>152.03</ele>
        <time>2023-08-16T14:49:25Z</time>
      </trkpt>
      <trkpt lat="55.422806991264224" lon="-2.528278967365623">
        <ele>152.03</ele>
        <time>2023-08-16T14:49:26Z</time>
      </trkpt>
      <trkpt lat="55.422979993745685" lon="-2.528424980118871">
        <ele>151.53999999999999</ele>
        <time>2023-08-16T14:49:27Z</time>
      </trkpt>
      <trkpt lat="55.423151990398765" lon="-2.528563030064106">
        <ele>151.06</ele>
        <time>2023-08-16T14:49:28Z</time>
      </trkpt>
      <trkpt lat="55.423344019800425" lon="-2.528665037825704">
        <ele>150.58000000000001</ele>
        <time>2023-08-16T14:49:29Z</time>
      </trkpt>
      <trkpt lat="55.423544012010098" lon="-2.528771990910173">
        <ele>150.09999999999999</ele>
        <time>2023-08-16T14:49:30Z</time>
      </trkpt>
      <trkpt lat="55.425100028514862" lon="-2.529567014425993">
        <ele>145.30000000000001</ele>
        <time>2023-08-16T14:49:37Z</time>
      </trkpt>
      <trkpt lat="55.428133020177484" lon="-2.531078020110726">
        <ele>136.16</ele>
        <time>2023-08-16T14:49:50Z</time>
      </trkpt>
      <trkpt lat="55.43063904158771" lon="-2.532327007502317">
        <ele>133.28</ele>
        <time>2023-08-16T14:50:01Z</time>
      </trkpt>
      <trkpt lat="55.432063965126872" lon="-2.533679008483887">
        <ele>136.16</ele>
        <time>2023-08-16T14:50:08Z</time>
      </trkpt>
      <trkpt lat="55.433094017207623" lon="-2.535742968320847">
        <ele>138.09</ele>
        <time>2023-08-16T14:50:15Z</time>
      </trkpt>
      <trkpt lat="55.434131026268005" lon="-2.538559958338738">
        <ele>138.09</ele>
        <time>2023-08-16T14:50:23Z</time>
      </trkpt>
      <trkpt lat="55.435177003964782" lon="-2.540918039157987">
        <ele>137.61000000000001</ele>
        <time>2023-08-16T14:50:30Z</time>
      </trkpt>
      <trkpt lat="55.436307974159718" lon="-2.542257970198989">
        <ele>139.53</ele>
        <time>2023-08-16T14:50:36Z</time>
      </trkpt>
      <trkpt lat="55.437911013141274" lon="-2.543480973690748">
        <ele>140.97</ele>
        <time>2023-08-16T14:50:44Z</time>
      </trkpt>
      <trkpt lat="55.438988003879786" lon="-2.544375993311405">
        <ele>140.49000000000001</ele>
        <time>2023-08-16T14:50:49Z</time>
      </trkpt>
      <trkpt lat="55.439198976382613" lon="-2.544628959149122">
        <ele>140.00999999999999</ele>
        <time>2023-08-16T14:50:50Z</time>
      </trkpt>
      <trkpt lat="55.440383004024625" lon="-2.546728039160371">
        <ele>137.13</ele>
        <time>2023-08-16T14:50:57Z</time>
      </trkpt>
      <trkpt lat="55.441733999177814" lon="-2.549125012010336">
        <ele>132.80000000000001</ele>
        <time>2023-08-16T14:51:05Z</time>
      </trkpt>
      <trkpt lat="55.442931018769741" lon="-2.55007803440094">
        <ele>133.75999999999999</ele>
        <time>2023-08-16T14:51:11Z</time>
      </trkpt>
      <trkpt lat="55.444943010807037" lon="-2.551226019859314">
        <ele>139.53</ele>
        <time>2023-08-16T14:51:21Z</time>
      </trkpt>
      <trkpt lat="55.445480039343238" lon="-2.551643019542098">
        <ele>140.00999999999999</ele>
        <time>2023-08-16T14:51:24Z</time>
      </trkpt>
      <trkpt lat="55.445661004632711" lon="-2.551722982898355">
        <ele>140.49000000000001</ele>
        <time>2023-08-16T14:51:25Z</time>
      </trkpt>
      <trkpt lat="55.445849010720849" lon="-2.551780985668302">
        <ele>140.49000000000001</ele>
        <time>2023-08-16T14:51:26Z</time>
      </trkpt>
      <trkpt lat="55.446041962131858" lon="-2.551781991496682">
        <ele>140.97</ele>
        <time>2023-08-16T14:51:27Z</time>
      </trkpt>
      <trkpt lat="55.446227034553885" lon="-2.551773022860289">
        <ele>140.97</ele>
        <time>2023-08-16T14:51:28Z</time>
      </trkpt>
      <trkpt lat="55.446413028985262" lon="-2.55179800093174">
        <ele>140.97</ele>
        <time>2023-08-16T14:51:29Z</time>
      </trkpt>
      <trkpt lat="55.447987988591194" lon="-2.552524963393807">
        <ele>139.53</ele>
        <time>2023-08-16T14:51:37Z</time>
      </trkpt>
      <trkpt lat="55.449236975982785" lon="-2.553502963855863">
        <ele>133.28</ele>
        <time>2023-08-16T14:51:43Z</time>
      </trkpt>
      <trkpt lat="55.449449038133025" lon="-2.553669009357691">
        <ele>131.84</ele>
        <time>2023-08-16T14:51:44Z</time>
      </trkpt>
      <trkpt lat="55.451166993007064" lon="-2.554912967607379">
        <ele>122.70999999999999</ele>
        <time>2023-08-16T14:51:52Z</time>
      </trkpt>
      <trkpt lat="55.453173033893108" lon="-2.556316014379263">
        <ele>121.73999999999999</ele>
        <time>2023-08-16T14:52:02Z</time>
      </trkpt>
      <trkpt lat="55.453358022496104" lon="-2.556373011320829">
        <ele>122.22</ele>
        <time>2023-08-16T14:52:03Z</time>
      </trkpt>
      <trkpt lat="55.453528007492423" lon="-2.556424979120493">
        <ele>122.70999999999999</ele>
        <time>2023-08-16T14:52:04Z</time>
      </trkpt>
      <trkpt lat="55.453692963346839" lon="-2.556476024910808">
        <ele>122.70999999999999</ele>
        <time>2023-08-16T14:52:05Z</time>
      </trkpt>
      <trkpt lat="55.455278987064958" lon="-2.556680962443352">
        <ele>117.42</ele>
        <time>2023-08-16T14:52:13Z</time>
      </trkpt>
      <trkpt lat="55.456007961183786" lon="-2.556796967983246">
        <ele>111.65000000000001</ele>
        <time>2023-08-16T14:52:17Z</time>
      </trkpt>
      <trkpt lat="55.456151962280273" lon="-2.556870980188251">
        <ele>110.20999999999999</ele>
        <time>2023-08-16T14:52:18Z</time>
      </trkpt>
      <trkpt lat="55.45629302971065" lon="-2.556993020698428">
        <ele>109.25</ele>
        <time>2023-08-16T14:52:19Z</time>
      </trkpt>
      <trkpt lat="55.456435019150376" lon="-2.557115983217955">
        <ele>107.81</ele>
        <time>2023-08-16T14:52:20Z</time>
      </trkpt>
      <trkpt lat="55.456577008590102" lon="-2.557244980707765">
        <ele>106.36</ele>
        <time>2023-08-16T14:52:21Z</time>
      </trkpt>
      <trkpt lat="55.457666991278529" lon="-2.558299005031586">
        <ele>100.11</ele>
        <time>2023-08-16T14:52:28Z</time>
      </trkpt>
      <trkpt lat="55.457913000136614" lon="-2.558473013341427">
        <ele>99.150000000000006</ele>
        <time>2023-08-16T14:52:30Z</time>
      </trkpt>
      <trkpt lat="55.458047026768327" lon="-2.558527998626232">
        <ele>99.150000000000006</ele>
        <time>2023-08-16T14:52:31Z</time>
      </trkpt>
      <trkpt lat="55.459040030837059" lon="-2.558818012475967">
        <ele>97.230000000000004</ele>
        <time>2023-08-16T14:52:38Z</time>
      </trkpt>
      <trkpt lat="55.459384024143219" lon="-2.558724973350763">
        <ele>96.75</ele>
        <time>2023-08-16T14:52:40Z</time>
      </trkpt>
      <trkpt lat="55.459562977775931" lon="-2.558646015822887">
        <ele>96.269999999999996</ele>
        <time>2023-08-16T14:52:41Z</time>
      </trkpt>
      <trkpt lat="55.459743021056056" lon="-2.558532021939755">
        <ele>96.269999999999996</ele>
        <time>2023-08-16T14:52:42Z</time>
      </trkpt>
      <trkpt lat="55.459931027144194" lon="-2.558377962559462">
        <ele>96.269999999999996</ele>
        <time>2023-08-16T14:52:43Z</time>
      </trkpt>
      <trkpt lat="55.460085002705455" lon="-2.558161960914731">
        <ele>95.790000000000006</ele>
        <time>2023-08-16T14:52:44Z</time>
      </trkpt>
      <trkpt lat="55.46024601906538" lon="-2.557933973148465">
        <ele>95.310000000000002</ele>
        <time>2023-08-16T14:52:45Z</time>
      </trkpt>
      <trkpt lat="55.460411980748177" lon="-2.557701040059328">
        <ele>94.829999999999998</ele>
        <time>2023-08-16T14:52:46Z</time>
      </trkpt>
      <trkpt lat="55.461369026452303" lon="-2.555959029123187">
        <ele>92.900000000000006</ele>
        <time>2023-08-16T14:52:53Z</time>
      </trkpt>
      <trkpt lat="55.461491988971829" lon="-2.555653005838394">
        <ele>93.390000000000001</ele>
        <time>2023-08-16T14:52:54Z</time>
      </trkpt>
      <trkpt lat="55.462267985567451" lon="-2.553270030766726">
        <ele>95.310000000000002</ele>
        <time>2023-08-16T14:53:02Z</time>
      </trkpt>
      <trkpt lat="55.462382985278964" lon="-2.553040031343699">
        <ele>95.790000000000006</ele>
        <time>2023-08-16T14:53:03Z</time>
      </trkpt>
      <trkpt lat="55.462474012747407" lon="-2.552878009155393">
        <ele>95.790000000000006</ele>
        <time>2023-08-16T14:53:04Z</time>
      </trkpt>
      <trkpt lat="55.46258901245892" lon="-2.55282998085022">
        <ele>95.790000000000006</ele>
        <time>2023-08-16T14:53:05Z</time>
      </trkpt>
      <trkpt lat="55.462715998291969" lon="-2.552777007222176">
        <ele>96.269999999999996</ele>
        <time>2023-08-16T14:53:06Z</time>
      </trkpt>
      <trkpt lat="55.462859999388456" lon="-2.552716992795467">
        <ele>96.269999999999996</ele>
        <time>2023-08-16T14:53:07Z</time>
      </trkpt>
      <trkpt lat="55.463926009833813" lon="-2.552680028602481">
        <ele>98.670000000000002</ele>
        <time>2023-08-16T14:53:13Z</time>
      </trkpt>
      <trkpt lat="55.464395983144641" lon="-2.55278698168695">
        <ele>99.150000000000006</ele>
        <time>2023-08-16T14:53:16Z</time>
      </trkpt>
      <trkpt lat="55.465604988858104" lon="-2.553600026294589">
        <ele>97.230000000000004</ele>
        <time>2023-08-16T14:53:24Z</time>
      </trkpt>
      <trkpt lat="55.467554032802582" lon="-2.555049005895853">
        <ele>96.269999999999996</ele>
        <time>2023-08-16T14:53:36Z</time>
      </trkpt>
      <trkpt lat="55.467694010585546" lon="-2.555094016715884">
        <ele>95.790000000000006</ele>
        <time>2023-08-16T14:53:37Z</time>
      </trkpt>
      <trkpt lat="55.467833988368511" lon="-2.555097034201026">
        <ele>95.790000000000006</ele>
        <time>2023-08-16T14:53:38Z</time>
      </trkpt>
      <trkpt lat="55.467973966151476" lon="-2.555039031431079">
        <ele>95.310000000000002</ele>
        <time>2023-08-16T14:53:39Z</time>
      </trkpt>
      <trkpt lat="55.468103969469666" lon="-2.554929982870817">
        <ele>95.310000000000002</ele>
        <time>2023-08-16T14:53:40Z</time>
      </trkpt>
      <trkpt lat="55.468231961131096" lon="-2.554790005087853">
        <ele>94.829999999999998</ele>
        <time>2023-08-16T14:53:41Z</time>
      </trkpt>
      <trkpt lat="55.46834796667099" lon="-2.554603004828095">
        <ele>94.829999999999998</ele>
        <time>2023-08-16T14:53:42Z</time>
      </trkpt>
      <trkpt lat="55.468466989696026" lon="-2.554410975426436">
        <ele>94.829999999999998</ele>
        <time>2023-08-16T14:53:43Z</time>
      </trkpt>
      <trkpt lat="55.469525959342718" lon="-2.553121000528336">
        <ele>92.420000000000002</ele>
        <time>2023-08-16T14:53:51Z</time>
      </trkpt>
      <trkpt lat="55.469656968489289" lon="-2.553029973059893">
        <ele>92.420000000000002</ele>
        <time>2023-08-16T14:53:52Z</time>
      </trkpt>
      <trkpt lat="55.469779008999467" lon="-2.552987979725003">
        <ele>92.420000000000002</ele>
        <time>2023-08-16T14:53:53Z</time>
      </trkpt>
      <trkpt lat="55.46991303563118" lon="-2.552981022745371">
        <ele>91.939999999999998</ele>
        <time>2023-08-16T14:53:54Z</time>
      </trkpt>
      <trkpt lat="55.470049995929003" lon="-2.552972976118326">
        <ele>91.459999999999994</ele>
        <time>2023-08-16T14:53:55Z</time>
      </trkpt>
      <trkpt lat="55.470189973711967" lon="-2.552986973896623">
        <ele>91.459999999999994</ele>
        <time>2023-08-16T14:53:56Z</time>
      </trkpt>
      <trkpt lat="55.470765978097916" lon="-2.553107002750039">
        <ele>90.980000000000004</ele>
        <time>2023-08-16T14:54:00Z</time>
      </trkpt>
      <trkpt lat="55.470897993072867" lon="-2.553132986649871">
        <ele>90.980000000000004</ele>
        <time>2023-08-16T14:54:01Z</time>
      </trkpt>
      <trkpt lat="55.47114098444581" lon="-2.553182020783424">
        <ele>90.980000000000004</ele>
        <time>2023-08-16T14:54:03Z</time>
      </trkpt>
      <trkpt lat="55.471262019127607" lon="-2.553205993026495">
        <ele>90.980000000000004</ele>
        <time>2023-08-16T14:54:04Z</time>
      </trkpt>
      <trkpt lat="55.471639037132263" lon="-2.55338603630662">
        <ele>91.459999999999994</ele>
        <time>2023-08-16T14:54:07Z</time>
      </trkpt>
      <trkpt lat="55.471757976338267" lon="-2.553484020754695">
        <ele>91.459999999999994</ele>
        <time>2023-08-16T14:54:08Z</time>
      </trkpt>
      <trkpt lat="55.471873981878161" lon="-2.55358099937439">
        <ele>91.939999999999998</ele>
        <time>2023-08-16T14:54:09Z</time>
      </trkpt>
      <trkpt lat="55.472120996564627" lon="-2.553786020725966">
        <ele>92.900000000000006</ele>
        <time>2023-08-16T14:54:11Z</time>
      </trkpt>
      <trkpt lat="55.472249994054437" lon="-2.553892973810434">
        <ele>92.420000000000002</ele>
        <time>2023-08-16T14:54:12Z</time>
      </trkpt>
      <trkpt lat="55.472612008452415" lon="-2.554124984890223">
        <ele>92.900000000000006</ele>
        <time>2023-08-16T14:54:15Z</time>
      </trkpt>
      <trkpt lat="55.472743017598987" lon="-2.554164966568351">
        <ele>92.900000000000006</ele>
        <time>2023-08-16T14:54:16Z</time>
      </trkpt>
      <trkpt lat="55.472884001210332" lon="-2.554207965731621">
        <ele>92.900000000000006</ele>
        <time>2023-08-16T14:54:17Z</time>
      </trkpt>
      <trkpt lat="55.473017022013664" lon="-2.554236967116594">
        <ele>92.900000000000006</ele>
        <time>2023-08-16T14:54:18Z</time>
      </trkpt>
      <trkpt lat="55.473166974261403" lon="-2.554240990430117">
        <ele>92.420000000000002</ele>
        <time>2023-08-16T14:54:19Z</time>
      </trkpt>
      <trkpt lat="55.47330996952951" lon="-2.554245013743639">
        <ele>92.420000000000002</ele>
        <time>2023-08-16T14:54:20Z</time>
      </trkpt>
      <trkpt lat="55.473712971433997" lon="-2.554256999865174">
        <ele>90.980000000000004</ele>
        <time>2023-08-16T14:54:23Z</time>
      </trkpt>
      <trkpt lat="55.474519981071353" lon="-2.554265968501568">
        <ele>87.620000000000005</ele>
        <time>2023-08-16T14:54:30Z</time>
      </trkpt>
      <trkpt lat="55.474631041288376" lon="-2.554234033450484">
        <ele>86.659999999999997</ele>
        <time>2023-08-16T14:54:31Z</time>
      </trkpt>
      <trkpt lat="55.475398991256952" lon="-2.553823990747333">
        <ele>81.849999999999994</ele>
        <time>2023-08-16T14:54:39Z</time>
      </trkpt>
      <trkpt lat="55.476262997835875" lon="-2.552770972251892">
        <ele>80.890000000000001</ele>
        <time>2023-08-16T14:54:48Z</time>
      </trkpt>
      <trkpt lat="55.476914020255208" lon="-2.552090026438236">
        <ele>80.890000000000001</ele>
        <time>2023-08-16T14:54:54Z</time>
      </trkpt>
      <trkpt lat="55.477040000259876" lon="-2.552041998133063">
        <ele>80.890000000000001</ele>
        <time>2023-08-16T14:54:55Z</time>
      </trkpt>
      <trkpt lat="55.477366978302598" lon="-2.551931021735072">
        <ele>80.890000000000001</ele>
        <time>2023-08-16T14:54:58Z</time>
      </trkpt>
      <trkpt lat="55.477447025477886" lon="-2.551919035613537">
        <ele>80.409999999999997</ele>
        <time>2023-08-16T14:54:59Z</time>
      </trkpt>
      <trkpt lat="55.477506034076214" lon="-2.551908977329731">
        <ele>80.409999999999997</ele>
        <time>2023-08-16T14:55:00Z</time>
      </trkpt>
      <trkpt lat="55.477595971897244" lon="-2.55199296399951">
        <ele>80.409999999999997</ele>
        <time>2023-08-16T14:55:01Z</time>
      </trkpt>
      <trkpt lat="55.477603012695909" lon="-2.552092960104346">
        <ele>80.409999999999997</ele>
        <time>2023-08-16T14:55:02Z</time>
      </trkpt>
      <trkpt lat="55.477610975503922" lon="-2.552209971472621">
        <ele>80.409999999999997</ele>
        <time>2023-08-16T14:55:03Z</time>
      </trkpt>
      <trkpt lat="55.477613992989063" lon="-2.55233796313405">
        <ele>80.409999999999997</ele>
        <time>2023-08-16T14:55:04Z</time>
      </trkpt>
      <trkpt lat="55.477617010474205" lon="-2.552476013079286">
        <ele>80.409999999999997</ele>
        <time>2023-08-16T14:55:05Z</time>
      </trkpt>
      <trkpt lat="55.47762899659574" lon="-2.552944980561733">
        <ele>80.409999999999997</ele>
        <time>2023-08-16T14:55:09Z</time>
      </trkpt>
      <trkpt lat="55.477632014080882" lon="-2.553055034950376">
        <ele>80.890000000000001</ele>
        <time>2023-08-16T14:55:10Z</time>
      </trkpt>
      <trkpt lat="55.477632014080882" lon="-2.553972015157342">
        <ele>81.370000000000005</ele>
        <time>2023-08-16T14:55:21Z</time>
      </trkpt>
      <trkpt lat="55.477636959403753" lon="-2.554169995710254">
        <ele>81.370000000000005</ele>
        <time>2023-08-16T14:55:31Z</time>
      </trkpt>
      <trkpt lat="55.477637965232134" lon="-2.554236967116594">
        <ele>81.370000000000005</ele>
        <time>2023-08-16T14:55:48Z</time>
      </trkpt>
      <trkpt lat="55.477637965232134" lon="-2.554236967116594">
        <ele>80.890000000000001</ele>
        <time>2023-08-16T14:56:27Z</time>
      </trkpt>
      <trkpt lat="55.477637965232134" lon="-2.554236967116594">
        <ele>80.409999999999997</ele>
        <time>2023-08-16T14:57:05Z</time>
      </trkpt>
      <trkpt lat="55.477637965232134" lon="-2.554236967116594">
        <ele>80.409999999999997</ele>
        <time>2023-08-16T14:57:40Z</time>
      </trkpt>
      <trkpt lat="55.477637965232134" lon="-2.554236967116594">
        <ele>79.930000000000007</ele>
        <time>2023-08-16T14:58:09Z</time>
      </trkpt>
      <trkpt lat="55.477637965232134" lon="-2.554236967116594">
        <ele>79.450000000000003</ele>
        <time>2023-08-16T14:58:42Z</time>
      </trkpt>
      <trkpt lat="55.477637965232134" lon="-2.554236967116594">
        <ele>78.969999999999999</ele>
        <time>2023-08-16T14:59:16Z</time>
      </trkpt>
      <trkpt lat="55.477637965232134" lon="-2.554236967116594">
        <ele>78.969999999999999</ele>
        <time>2023-08-16T14:59:41Z</time>
      </trkpt>
      <trkpt lat="55.477642994374037" lon="-2.554464032873511">
        <ele>78.969999999999999</ele>
        <time>2023-08-16T15:00:04Z</time>
      </trkpt>
      <trkpt lat="55.477645006030798" lon="-2.554575009271503">
        <ele>79.450000000000003</ele>
        <time>2023-08-16T15:00:05Z</time>
      </trkpt>
      <trkpt lat="55.477651041001081" lon="-2.554881032556295">
        <ele>79.930000000000007</ele>
        <time>2023-08-16T15:00:08Z</time>
      </trkpt>
      <trkpt lat="55.477711977437139" lon="-2.555259978398681">
        <ele>80.890000000000001</ele>
        <time>2023-08-16T15:00:17Z</time>
      </trkpt>
      <trkpt lat="55.477718012407422" lon="-2.555480003356934">
        <ele>81.370000000000005</ele>
        <time>2023-08-16T15:00:21Z</time>
      </trkpt>
      <trkpt lat="55.477695968002081" lon="-2.555511016398668">
        <ele>81.849999999999994</ele>
        <time>2023-08-16T15:00:22Z</time>
      </trkpt>
      <trkpt lat="55.477674007415771" lon="-2.555542029440403">
        <ele>81.849999999999994</ele>
        <time>2023-08-16T15:00:23Z</time>
      </trkpt>
      <trkpt lat="55.477718012407422" lon="-2.555480003356934">
        <ele>82.329999999999998</ele>
        <time>2023-08-16T15:00:24Z</time>
      </trkpt>
      <trkpt lat="55.47756596468389" lon="-2.555541023612022">
        <ele>82.329999999999998</ele>
        <time>2023-08-16T15:00:25Z</time>
      </trkpt>
      <trkpt lat="55.477535035461187" lon="-2.555480003356934">
        <ele>82.329999999999998</ele>
        <time>2023-08-16T15:00:26Z</time>
      </trkpt>
      <trkpt lat="55.477506034076214" lon="-2.555420994758606">
        <ele>82.329999999999998</ele>
        <time>2023-08-16T15:00:27Z</time>
      </trkpt>
      <trkpt lat="55.477449959143996" lon="-2.555311024188995">
        <ele>82.810000000000002</ele>
        <time>2023-08-16T15:00:29Z</time>
      </trkpt>
      <trkpt lat="55.477423975244164" lon="-2.55525796674192">
        <ele>82.810000000000002</ele>
        <time>2023-08-16T15:00:30Z</time>
      </trkpt>
      <trkpt lat="55.477398997172713" lon="-2.555207004770637">
        <ele>82.810000000000002</ele>
        <time>2023-08-16T15:00:31Z</time>
      </trkpt>
      <trkpt lat="55.477374019101262" lon="-2.555156964808703">
        <ele>82.810000000000002</ele>
        <time>2023-08-16T15:00:32Z</time>
      </trkpt>
      <trkpt lat="55.477351974695921" lon="-2.555113965645433">
        <ele>82.329999999999998</ele>
        <time>2023-08-16T15:00:33Z</time>
      </trkpt>
      <trkpt lat="55.477293971925974" lon="-2.55499703809619">
        <ele>81.370000000000005</ele>
        <time>2023-08-16T15:00:38Z</time>
      </trkpt>
      <trkpt lat="55.47728500328958" lon="-2.554979017004371">
        <ele>81.370000000000005</ele>
        <time>2023-08-16T15:00:39Z</time>
      </trkpt>
      <trkpt lat="55.477274022996426" lon="-2.55495797842741">
        <ele>80.890000000000001</ele>
        <time>2023-08-16T15:00:40Z</time>
      </trkpt>
      <trkpt lat="55.477262958884239" lon="-2.55493501201272">
        <ele>80.890000000000001</ele>
        <time>2023-08-16T15:00:41Z</time>
      </trkpt>
      <trkpt lat="55.477251978591084" lon="-2.554912967607379">
        <ele>80.409999999999997</ele>
        <time>2023-08-16T15:00:42Z</time>
      </trkpt>
      <trkpt lat="55.47724099829793" lon="-2.55489100702107">
        <ele>80.409999999999997</ele>
        <time>2023-08-16T15:00:43Z</time>
      </trkpt>
      <trkpt lat="55.477230018004775" lon="-2.554868962615728">
        <ele>79.930000000000007</ele>
        <time>2023-08-16T15:00:44Z</time>
      </trkpt>
      <trkpt lat="55.47721803188324" lon="-2.554845996201038">
        <ele>79.930000000000007</ele>
        <time>2023-08-16T15:00:45Z</time>
      </trkpt>
      <trkpt lat="55.47721803188324" lon="-2.554845996201038">
        <ele>79.450000000000003</ele>
        <time>2023-08-16T15:00:46Z</time>
      </trkpt>
      <trkpt lat="55.47721803188324" lon="-2.554845996201038">
        <ele>79.450000000000003</ele>
        <time>2023-08-16T15:01:02Z</time>
      </trkpt>
      <trkpt lat="55.47721803188324" lon="-2.554845996201038">
        <ele>79.450000000000003</ele>
        <time>2023-08-16T15:01:22Z</time>
      </trkpt>
      <trkpt lat="55.47721803188324" lon="-2.554845996201038">
        <ele>78.480000000000004</ele>
        <time>2023-08-16T15:01:42Z</time>
      </trkpt>
      <trkpt lat="55.47721803188324" lon="-2.554845996201038">
        <ele>78.480000000000004</ele>
        <time>2023-08-16T15:02:05Z</time>
      </trkpt>
    </trkseg>
  </trk>

</gpx>